<?xml version="1.0" encoding="UTF-8" standalone="no" ?>
<gpx xmlns="http://www.topografix.com/GPX/1/1" xmlns:xsi="http://www.w3.org/2001/XMLSchema-instance" xsi:schemaLocation="http://www.topografix.com/GPX/1/1 http://www.topografix.com/GPX/1/1/gpx.xsd" version="1.1" creator="VisuGPX - https://www.visugpx.com">
  <metadata>
    <name>Pornichet 01/04/2021</name>
    <desc><![CDATA[Sortie VTT du jeudi 01 avril 2021]]></desc>
  </metadata>
  <trk>
    <name><![CDATA[Pornichet Cyclisme]]></name>
    <trkseg>
      <trkpt lat="47.26417" lon="-2.31566">
        <ele>15</ele>
        <time>2021-04-01T07:19:13.000Z</time>
      </trkpt>
      <trkpt lat="47.26416" lon="-2.31582">
        <ele>15</ele>
        <time>2021-04-01T07:19:16.000Z</time>
      </trkpt>
      <trkpt lat="47.26416" lon="-2.31587">
        <ele>15.199999809265</ele>
        <time>2021-04-01T07:19:17.000Z</time>
      </trkpt>
      <trkpt lat="47.26416" lon="-2.31603">
        <ele>15.199999809265</ele>
        <time>2021-04-01T07:19:20.000Z</time>
      </trkpt>
      <trkpt lat="47.26415" lon="-2.31633">
        <ele>15.199999809265</ele>
        <time>2021-04-01T07:19:25.000Z</time>
      </trkpt>
      <trkpt lat="47.26415" lon="-2.3164">
        <ele>15.199999809265</ele>
        <time>2021-04-01T07:19:26.000Z</time>
      </trkpt>
      <trkpt lat="47.26414" lon="-2.3166">
        <ele>15.199999809265</ele>
        <time>2021-04-01T07:19:30.000Z</time>
      </trkpt>
      <trkpt lat="47.26411" lon="-2.31663">
        <ele>15.199999809265</ele>
        <time>2021-04-01T07:19:31.000Z</time>
      </trkpt>
      <trkpt lat="47.26396" lon="-2.31671">
        <ele>15.199999809265</ele>
        <time>2021-04-01T07:19:35.000Z</time>
      </trkpt>
      <trkpt lat="47.26363" lon="-2.31691">
        <ele>15.199999809265</ele>
        <time>2021-04-01T07:19:42.000Z</time>
      </trkpt>
      <trkpt lat="47.26358" lon="-2.31694">
        <ele>14.800000190735</ele>
        <time>2021-04-01T07:19:43.000Z</time>
      </trkpt>
      <trkpt lat="47.26353" lon="-2.31697">
        <ele>14.39999961853</ele>
        <time>2021-04-01T07:19:44.000Z</time>
      </trkpt>
      <trkpt lat="47.2635" lon="-2.317">
        <ele>14</ele>
        <time>2021-04-01T07:19:45.000Z</time>
      </trkpt>
      <trkpt lat="47.26347" lon="-2.31701">
        <ele>13.60000038147</ele>
        <time>2021-04-01T07:19:46.000Z</time>
      </trkpt>
      <trkpt lat="47.26343" lon="-2.31702">
        <ele>13.199999809265</ele>
        <time>2021-04-01T07:19:47.000Z</time>
      </trkpt>
      <trkpt lat="47.2634" lon="-2.31702">
        <ele>13.199999809265</ele>
        <time>2021-04-01T07:19:48.000Z</time>
      </trkpt>
      <trkpt lat="47.2633" lon="-2.31706">
        <ele>13.199999809265</ele>
        <time>2021-04-01T07:19:51.000Z</time>
      </trkpt>
      <trkpt lat="47.26317" lon="-2.31712">
        <ele>12.800000190735</ele>
        <time>2021-04-01T07:19:54.000Z</time>
      </trkpt>
      <trkpt lat="47.26313" lon="-2.31714">
        <ele>12.39999961853</ele>
        <time>2021-04-01T07:19:55.000Z</time>
      </trkpt>
      <trkpt lat="47.26309" lon="-2.31716">
        <ele>12</ele>
        <time>2021-04-01T07:19:56.000Z</time>
      </trkpt>
      <trkpt lat="47.26305" lon="-2.31719">
        <ele>11.60000038147</ele>
        <time>2021-04-01T07:19:57.000Z</time>
      </trkpt>
      <trkpt lat="47.26303" lon="-2.31724">
        <ele>11.199999809265</ele>
        <time>2021-04-01T07:19:58.000Z</time>
      </trkpt>
      <trkpt lat="47.26302" lon="-2.31734">
        <ele>11.199999809265</ele>
        <time>2021-04-01T07:20:00.000Z</time>
      </trkpt>
      <trkpt lat="47.26303" lon="-2.31743">
        <ele>11.199999809265</ele>
        <time>2021-04-01T07:20:02.000Z</time>
      </trkpt>
      <trkpt lat="47.26305" lon="-2.3176">
        <ele>11.199999809265</ele>
        <time>2021-04-01T07:20:05.000Z</time>
      </trkpt>
      <trkpt lat="47.26305" lon="-2.31804">
        <ele>11.199999809265</ele>
        <time>2021-04-01T07:20:12.000Z</time>
      </trkpt>
      <trkpt lat="47.26303" lon="-2.31849">
        <ele>11.199999809265</ele>
        <time>2021-04-01T07:20:19.000Z</time>
      </trkpt>
      <trkpt lat="47.26302" lon="-2.31882">
        <ele>11.199999809265</ele>
        <time>2021-04-01T07:20:25.000Z</time>
      </trkpt>
      <trkpt lat="47.26292" lon="-2.31896">
        <ele>11.199999809265</ele>
        <time>2021-04-01T07:20:30.000Z</time>
      </trkpt>
      <trkpt lat="47.26278" lon="-2.31916">
        <ele>11.199999809265</ele>
        <time>2021-04-01T07:20:35.000Z</time>
      </trkpt>
      <trkpt lat="47.2627" lon="-2.31932">
        <ele>10.800000190735</ele>
        <time>2021-04-01T07:20:38.000Z</time>
      </trkpt>
      <trkpt lat="47.26268" lon="-2.31937">
        <ele>10.39999961853</ele>
        <time>2021-04-01T07:20:39.000Z</time>
      </trkpt>
      <trkpt lat="47.26266" lon="-2.31941">
        <ele>9.6000003814697</ele>
        <time>2021-04-01T07:20:40.000Z</time>
      </trkpt>
      <trkpt lat="47.26264" lon="-2.31945">
        <ele>9.1999998092651</ele>
        <time>2021-04-01T07:20:41.000Z</time>
      </trkpt>
      <trkpt lat="47.26253" lon="-2.31969">
        <ele>9.1999998092651</ele>
        <time>2021-04-01T07:20:46.000Z</time>
      </trkpt>
      <trkpt lat="47.26249" lon="-2.3197">
        <ele>9.1999998092651</ele>
        <time>2021-04-01T07:20:47.000Z</time>
      </trkpt>
      <trkpt lat="47.26241" lon="-2.31971">
        <ele>9.1999998092651</ele>
        <time>2021-04-01T07:20:49.000Z</time>
      </trkpt>
      <trkpt lat="47.26227" lon="-2.31981">
        <ele>9.1999998092651</ele>
        <time>2021-04-01T07:20:53.000Z</time>
      </trkpt>
      <trkpt lat="47.26219" lon="-2.3199">
        <ele>9.1999998092651</ele>
        <time>2021-04-01T07:20:56.000Z</time>
      </trkpt>
      <trkpt lat="47.26211" lon="-2.31997">
        <ele>9.1999998092651</ele>
        <time>2021-04-01T07:20:59.000Z</time>
      </trkpt>
      <trkpt lat="47.26209" lon="-2.32">
        <ele>9.1999998092651</ele>
        <time>2021-04-01T07:21:00.000Z</time>
      </trkpt>
      <trkpt lat="47.26206" lon="-2.32008">
        <ele>9.1999998092651</ele>
        <time>2021-04-01T07:21:02.000Z</time>
      </trkpt>
      <trkpt lat="47.26199" lon="-2.3202">
        <ele>9.1999998092651</ele>
        <time>2021-04-01T07:21:06.000Z</time>
      </trkpt>
      <trkpt lat="47.26191" lon="-2.32019">
        <ele>9.1999998092651</ele>
        <time>2021-04-01T07:21:09.000Z</time>
      </trkpt>
      <trkpt lat="47.26186" lon="-2.32019">
        <ele>9.1999998092651</ele>
        <time>2021-04-01T07:21:11.000Z</time>
      </trkpt>
      <trkpt lat="47.26168" lon="-2.3203">
        <ele>9.1999998092651</ele>
        <time>2021-04-01T07:21:17.000Z</time>
      </trkpt>
      <trkpt lat="47.2616" lon="-2.32048">
        <ele>9.1999998092651</ele>
        <time>2021-04-01T07:21:21.000Z</time>
      </trkpt>
      <trkpt lat="47.26149" lon="-2.32081">
        <ele>9.1999998092651</ele>
        <time>2021-04-01T07:21:27.000Z</time>
      </trkpt>
      <trkpt lat="47.26138" lon="-2.32122">
        <ele>9.1999998092651</ele>
        <time>2021-04-01T07:21:34.000Z</time>
      </trkpt>
      <trkpt lat="47.26136" lon="-2.32127">
        <ele>9.1999998092651</ele>
        <time>2021-04-01T07:21:35.000Z</time>
      </trkpt>
      <trkpt lat="47.26125" lon="-2.32157">
        <ele>9.1999998092651</ele>
        <time>2021-04-01T07:21:40.000Z</time>
      </trkpt>
      <trkpt lat="47.2612" lon="-2.32168">
        <ele>9.1999998092651</ele>
        <time>2021-04-01T07:21:42.000Z</time>
      </trkpt>
      <trkpt lat="47.26106" lon="-2.32202">
        <ele>9.1999998092651</ele>
        <time>2021-04-01T07:21:48.000Z</time>
      </trkpt>
      <trkpt lat="47.26084" lon="-2.32235">
        <ele>9.1999998092651</ele>
        <time>2021-04-01T07:21:55.000Z</time>
      </trkpt>
      <trkpt lat="47.26081" lon="-2.32239">
        <ele>9.1999998092651</ele>
        <time>2021-04-01T07:21:56.000Z</time>
      </trkpt>
      <trkpt lat="47.26064" lon="-2.3226">
        <ele>9.1999998092651</ele>
        <time>2021-04-01T07:22:01.000Z</time>
      </trkpt>
      <trkpt lat="47.26033" lon="-2.32293">
        <ele>9.1999998092651</ele>
        <time>2021-04-01T07:22:09.000Z</time>
      </trkpt>
      <trkpt lat="47.26001" lon="-2.32332">
        <ele>9.1999998092651</ele>
        <time>2021-04-01T07:22:18.000Z</time>
      </trkpt>
      <trkpt lat="47.25968" lon="-2.32372">
        <ele>9.1999998092651</ele>
        <time>2021-04-01T07:22:27.000Z</time>
      </trkpt>
      <trkpt lat="47.25941" lon="-2.32408">
        <ele>9.1999998092651</ele>
        <time>2021-04-01T07:22:35.000Z</time>
      </trkpt>
      <trkpt lat="47.25916" lon="-2.32441">
        <ele>9.1999998092651</ele>
        <time>2021-04-01T07:22:43.000Z</time>
      </trkpt>
      <trkpt lat="47.25904" lon="-2.32467">
        <ele>9.1999998092651</ele>
        <time>2021-04-01T07:22:49.000Z</time>
      </trkpt>
      <trkpt lat="47.25913" lon="-2.32475">
        <ele>9.1999998092651</ele>
        <time>2021-04-01T07:22:52.000Z</time>
      </trkpt>
      <trkpt lat="47.25925" lon="-2.32492">
        <ele>9.1999998092651</ele>
        <time>2021-04-01T07:22:56.000Z</time>
      </trkpt>
      <trkpt lat="47.25927" lon="-2.32498">
        <ele>9.1999998092651</ele>
        <time>2021-04-01T07:22:57.000Z</time>
      </trkpt>
      <trkpt lat="47.25941" lon="-2.32543">
        <ele>9.1999998092651</ele>
        <time>2021-04-01T07:23:04.000Z</time>
      </trkpt>
      <trkpt lat="47.25957" lon="-2.326">
        <ele>9.1999998092651</ele>
        <time>2021-04-01T07:23:13.000Z</time>
      </trkpt>
      <trkpt lat="47.25963" lon="-2.32625">
        <ele>9.1999998092651</ele>
        <time>2021-04-01T07:23:17.000Z</time>
      </trkpt>
      <trkpt lat="47.25963" lon="-2.32643">
        <ele>9.1999998092651</ele>
        <time>2021-04-01T07:23:20.000Z</time>
      </trkpt>
      <trkpt lat="47.25964" lon="-2.32654">
        <ele>9.1999998092651</ele>
        <time>2021-04-01T07:23:22.000Z</time>
      </trkpt>
      <trkpt lat="47.2597" lon="-2.32656">
        <ele>9.1999998092651</ele>
        <time>2021-04-01T07:23:24.000Z</time>
      </trkpt>
      <trkpt lat="47.25984" lon="-2.32657">
        <ele>9.1999998092651</ele>
        <time>2021-04-01T07:23:28.000Z</time>
      </trkpt>
      <trkpt lat="47.25988" lon="-2.32657">
        <ele>9.1999998092651</ele>
        <time>2021-04-01T07:23:29.000Z</time>
      </trkpt>
      <trkpt lat="47.25992" lon="-2.32657">
        <ele>9.1999998092651</ele>
        <time>2021-04-01T07:23:30.000Z</time>
      </trkpt>
      <trkpt lat="47.26012" lon="-2.32652">
        <ele>9.1999998092651</ele>
        <time>2021-04-01T07:23:35.000Z</time>
      </trkpt>
      <trkpt lat="47.2604" lon="-2.32647">
        <ele>9.1999998092651</ele>
        <time>2021-04-01T07:23:42.000Z</time>
      </trkpt>
      <trkpt lat="47.26067" lon="-2.32642">
        <ele>9.1999998092651</ele>
        <time>2021-04-01T07:23:49.000Z</time>
      </trkpt>
      <trkpt lat="47.26107" lon="-2.32636">
        <ele>9.1999998092651</ele>
        <time>2021-04-01T07:23:59.000Z</time>
      </trkpt>
      <trkpt lat="47.26139" lon="-2.32639">
        <ele>9.1999998092651</ele>
        <time>2021-04-01T07:24:07.000Z</time>
      </trkpt>
      <trkpt lat="47.26164" lon="-2.32649">
        <ele>9.1999998092651</ele>
        <time>2021-04-01T07:24:13.000Z</time>
      </trkpt>
      <trkpt lat="47.26168" lon="-2.32652">
        <ele>9.1999998092651</ele>
        <time>2021-04-01T07:24:14.000Z</time>
      </trkpt>
      <trkpt lat="47.26195" lon="-2.32673">
        <ele>9.1999998092651</ele>
        <time>2021-04-01T07:24:21.000Z</time>
      </trkpt>
      <trkpt lat="47.26218" lon="-2.32706">
        <ele>9.1999998092651</ele>
        <time>2021-04-01T07:24:28.000Z</time>
      </trkpt>
      <trkpt lat="47.26236" lon="-2.32734">
        <ele>9.1999998092651</ele>
        <time>2021-04-01T07:24:33.000Z</time>
      </trkpt>
      <trkpt lat="47.26247" lon="-2.32751">
        <ele>9.1999998092651</ele>
        <time>2021-04-01T07:24:36.000Z</time>
      </trkpt>
      <trkpt lat="47.26274" lon="-2.32801">
        <ele>9.1999998092651</ele>
        <time>2021-04-01T07:24:44.000Z</time>
      </trkpt>
      <trkpt lat="47.26276" lon="-2.32808">
        <ele>9.1999998092651</ele>
        <time>2021-04-01T07:24:45.000Z</time>
      </trkpt>
      <trkpt lat="47.26284" lon="-2.32837">
        <ele>9.1999998092651</ele>
        <time>2021-04-01T07:24:49.000Z</time>
      </trkpt>
      <trkpt lat="47.2629" lon="-2.3285">
        <ele>9.1999998092651</ele>
        <time>2021-04-01T07:24:51.000Z</time>
      </trkpt>
      <trkpt lat="47.26298" lon="-2.32859">
        <ele>9.1999998092651</ele>
        <time>2021-04-01T07:24:53.000Z</time>
      </trkpt>
      <trkpt lat="47.26309" lon="-2.32864">
        <ele>9.1999998092651</ele>
        <time>2021-04-01T07:24:55.000Z</time>
      </trkpt>
      <trkpt lat="47.26313" lon="-2.32868">
        <ele>9.1999998092651</ele>
        <time>2021-04-01T07:24:56.000Z</time>
      </trkpt>
      <trkpt lat="47.26317" lon="-2.32873">
        <ele>9.1999998092651</ele>
        <time>2021-04-01T07:24:57.000Z</time>
      </trkpt>
      <trkpt lat="47.2632" lon="-2.32879">
        <ele>8.8000001907349</ele>
        <time>2021-04-01T07:24:58.000Z</time>
      </trkpt>
      <trkpt lat="47.26323" lon="-2.32886">
        <ele>8.1999998092651</ele>
        <time>2021-04-01T07:24:59.000Z</time>
      </trkpt>
      <trkpt lat="47.26325" lon="-2.32893">
        <ele>7.8000001907349</ele>
        <time>2021-04-01T07:25:00.000Z</time>
      </trkpt>
      <trkpt lat="47.26327" lon="-2.329">
        <ele>7.4000000953674</ele>
        <time>2021-04-01T07:25:01.000Z</time>
      </trkpt>
      <trkpt lat="47.2633" lon="-2.32907">
        <ele>7</ele>
        <time>2021-04-01T07:25:02.000Z</time>
      </trkpt>
      <trkpt lat="47.26351" lon="-2.32968">
        <ele>7</ele>
        <time>2021-04-01T07:25:11.000Z</time>
      </trkpt>
      <trkpt lat="47.26365" lon="-2.32986">
        <ele>7</ele>
        <time>2021-04-01T07:25:15.000Z</time>
      </trkpt>
      <trkpt lat="47.26368" lon="-2.33005">
        <ele>7</ele>
        <time>2021-04-01T07:25:18.000Z</time>
      </trkpt>
      <trkpt lat="47.26368" lon="-2.33012">
        <ele>7</ele>
        <time>2021-04-01T07:25:19.000Z</time>
      </trkpt>
      <trkpt lat="47.26369" lon="-2.33068">
        <ele>7</ele>
        <time>2021-04-01T07:25:27.000Z</time>
      </trkpt>
      <trkpt lat="47.26373" lon="-2.33117">
        <ele>7</ele>
        <time>2021-04-01T07:25:34.000Z</time>
      </trkpt>
      <trkpt lat="47.26374" lon="-2.33124">
        <ele>7</ele>
        <time>2021-04-01T07:25:35.000Z</time>
      </trkpt>
      <trkpt lat="47.26375" lon="-2.33131">
        <ele>7</ele>
        <time>2021-04-01T07:25:36.000Z</time>
      </trkpt>
      <trkpt lat="47.26377" lon="-2.33165">
        <ele>7</ele>
        <time>2021-04-01T07:25:41.000Z</time>
      </trkpt>
      <trkpt lat="47.26378" lon="-2.33207">
        <ele>7</ele>
        <time>2021-04-01T07:25:47.000Z</time>
      </trkpt>
      <trkpt lat="47.26385" lon="-2.33255">
        <ele>7</ele>
        <time>2021-04-01T07:25:54.000Z</time>
      </trkpt>
      <trkpt lat="47.26397" lon="-2.33265">
        <ele>7</ele>
        <time>2021-04-01T07:25:57.000Z</time>
      </trkpt>
      <trkpt lat="47.26412" lon="-2.33267">
        <ele>7</ele>
        <time>2021-04-01T07:26:00.000Z</time>
      </trkpt>
      <trkpt lat="47.26422" lon="-2.33268">
        <ele>7</ele>
        <time>2021-04-01T07:26:02.000Z</time>
      </trkpt>
      <trkpt lat="47.26463" lon="-2.33276">
        <ele>7</ele>
        <time>2021-04-01T07:26:11.000Z</time>
      </trkpt>
      <trkpt lat="47.26467" lon="-2.33276">
        <ele>7</ele>
        <time>2021-04-01T07:26:12.000Z</time>
      </trkpt>
      <trkpt lat="47.26487" lon="-2.33279">
        <ele>7</ele>
        <time>2021-04-01T07:26:17.000Z</time>
      </trkpt>
      <trkpt lat="47.26503" lon="-2.33281">
        <ele>7</ele>
        <time>2021-04-01T07:26:22.000Z</time>
      </trkpt>
      <trkpt lat="47.2651" lon="-2.33288">
        <ele>7</ele>
        <time>2021-04-01T07:26:26.000Z</time>
      </trkpt>
      <trkpt lat="47.26529" lon="-2.33289">
        <ele>7</ele>
        <time>2021-04-01T07:26:31.000Z</time>
      </trkpt>
      <trkpt lat="47.26531" lon="-2.33291">
        <ele>7</ele>
        <time>2021-04-01T07:26:32.000Z</time>
      </trkpt>
      <trkpt lat="47.26536" lon="-2.33297">
        <ele>7</ele>
        <time>2021-04-01T07:26:34.000Z</time>
      </trkpt>
      <trkpt lat="47.26543" lon="-2.33298">
        <ele>7</ele>
        <time>2021-04-01T07:26:37.000Z</time>
      </trkpt>
      <trkpt lat="47.26553" lon="-2.33284">
        <ele>7</ele>
        <time>2021-04-01T07:26:41.000Z</time>
      </trkpt>
      <trkpt lat="47.26556" lon="-2.33281">
        <ele>7</ele>
        <time>2021-04-01T07:26:42.000Z</time>
      </trkpt>
      <trkpt lat="47.26578" lon="-2.33257">
        <ele>7</ele>
        <time>2021-04-01T07:26:48.000Z</time>
      </trkpt>
      <trkpt lat="47.26612" lon="-2.33222">
        <ele>7</ele>
        <time>2021-04-01T07:26:57.000Z</time>
      </trkpt>
      <trkpt lat="47.26643" lon="-2.33191">
        <ele>7</ele>
        <time>2021-04-01T07:27:05.000Z</time>
      </trkpt>
      <trkpt lat="47.26679" lon="-2.33153">
        <ele>7</ele>
        <time>2021-04-01T07:27:14.000Z</time>
      </trkpt>
      <trkpt lat="47.26717" lon="-2.33116">
        <ele>7</ele>
        <time>2021-04-01T07:27:23.000Z</time>
      </trkpt>
      <trkpt lat="47.26743" lon="-2.33088">
        <ele>7</ele>
        <time>2021-04-01T07:27:30.000Z</time>
      </trkpt>
      <trkpt lat="47.26753" lon="-2.33087">
        <ele>7</ele>
        <time>2021-04-01T07:27:33.000Z</time>
      </trkpt>
      <trkpt lat="47.26757" lon="-2.33092">
        <ele>7</ele>
        <time>2021-04-01T07:27:34.000Z</time>
      </trkpt>
      <trkpt lat="47.26763" lon="-2.33106">
        <ele>7</ele>
        <time>2021-04-01T07:27:36.000Z</time>
      </trkpt>
      <trkpt lat="47.26766" lon="-2.3312">
        <ele>7</ele>
        <time>2021-04-01T07:27:38.000Z</time>
      </trkpt>
      <trkpt lat="47.26767" lon="-2.33128">
        <ele>7</ele>
        <time>2021-04-01T07:27:39.000Z</time>
      </trkpt>
      <trkpt lat="47.26768" lon="-2.33142">
        <ele>7</ele>
        <time>2021-04-01T07:27:41.000Z</time>
      </trkpt>
      <trkpt lat="47.26768" lon="-2.3315">
        <ele>7</ele>
        <time>2021-04-01T07:27:42.000Z</time>
      </trkpt>
      <trkpt lat="47.26762" lon="-2.33173">
        <ele>7</ele>
        <time>2021-04-01T07:27:45.000Z</time>
      </trkpt>
      <trkpt lat="47.26745" lon="-2.33225">
        <ele>7</ele>
        <time>2021-04-01T07:27:52.000Z</time>
      </trkpt>
      <trkpt lat="47.26735" lon="-2.3327">
        <ele>7</ele>
        <time>2021-04-01T07:27:58.000Z</time>
      </trkpt>
      <trkpt lat="47.26735" lon="-2.33278">
        <ele>7</ele>
        <time>2021-04-01T07:27:59.000Z</time>
      </trkpt>
      <trkpt lat="47.26738" lon="-2.33302">
        <ele>7</ele>
        <time>2021-04-01T07:28:02.000Z</time>
      </trkpt>
      <trkpt lat="47.26751" lon="-2.33349">
        <ele>7</ele>
        <time>2021-04-01T07:28:08.000Z</time>
      </trkpt>
      <trkpt lat="47.26753" lon="-2.33358">
        <ele>7</ele>
        <time>2021-04-01T07:28:09.000Z</time>
      </trkpt>
      <trkpt lat="47.26758" lon="-2.334">
        <ele>7</ele>
        <time>2021-04-01T07:28:14.000Z</time>
      </trkpt>
      <trkpt lat="47.26758" lon="-2.33408">
        <ele>7</ele>
        <time>2021-04-01T07:28:15.000Z</time>
      </trkpt>
      <trkpt lat="47.26759" lon="-2.33424">
        <ele>7</ele>
        <time>2021-04-01T07:28:17.000Z</time>
      </trkpt>
      <trkpt lat="47.26761" lon="-2.33441">
        <ele>7</ele>
        <time>2021-04-01T07:28:19.000Z</time>
      </trkpt>
      <trkpt lat="47.26763" lon="-2.33457">
        <ele>7</ele>
        <time>2021-04-01T07:28:21.000Z</time>
      </trkpt>
      <trkpt lat="47.26771" lon="-2.33496">
        <ele>7</ele>
        <time>2021-04-01T07:28:26.000Z</time>
      </trkpt>
      <trkpt lat="47.26779" lon="-2.3356">
        <ele>7</ele>
        <time>2021-04-01T07:28:34.000Z</time>
      </trkpt>
      <trkpt lat="47.26779" lon="-2.33567">
        <ele>7</ele>
        <time>2021-04-01T07:28:35.000Z</time>
      </trkpt>
      <trkpt lat="47.26781" lon="-2.33603">
        <ele>7</ele>
        <time>2021-04-01T07:28:40.000Z</time>
      </trkpt>
      <trkpt lat="47.2678" lon="-2.33661">
        <ele>7</ele>
        <time>2021-04-01T07:28:48.000Z</time>
      </trkpt>
      <trkpt lat="47.2678" lon="-2.3368">
        <ele>7</ele>
        <time>2021-04-01T07:28:51.000Z</time>
      </trkpt>
      <trkpt lat="47.26781" lon="-2.33691">
        <ele>7</ele>
        <time>2021-04-01T07:28:53.000Z</time>
      </trkpt>
      <trkpt lat="47.26785" lon="-2.33703">
        <ele>7.4000000953674</ele>
        <time>2021-04-01T07:28:56.000Z</time>
      </trkpt>
      <trkpt lat="47.26788" lon="-2.33707">
        <ele>7.8000001907349</ele>
        <time>2021-04-01T07:28:57.000Z</time>
      </trkpt>
      <trkpt lat="47.2679" lon="-2.33711">
        <ele>8.3999996185303</ele>
        <time>2021-04-01T07:28:58.000Z</time>
      </trkpt>
      <trkpt lat="47.26793" lon="-2.33715">
        <ele>8.8000001907349</ele>
        <time>2021-04-01T07:28:59.000Z</time>
      </trkpt>
      <trkpt lat="47.26796" lon="-2.33719">
        <ele>9.1999998092651</ele>
        <time>2021-04-01T07:29:00.000Z</time>
      </trkpt>
      <trkpt lat="47.26807" lon="-2.33731">
        <ele>9.1999998092651</ele>
        <time>2021-04-01T07:29:03.000Z</time>
      </trkpt>
      <trkpt lat="47.26834" lon="-2.33762">
        <ele>9.1999998092651</ele>
        <time>2021-04-01T07:29:10.000Z</time>
      </trkpt>
      <trkpt lat="47.26847" lon="-2.33774">
        <ele>9.1999998092651</ele>
        <time>2021-04-01T07:29:13.000Z</time>
      </trkpt>
      <trkpt lat="47.26856" lon="-2.33778">
        <ele>9.1999998092651</ele>
        <time>2021-04-01T07:29:15.000Z</time>
      </trkpt>
      <trkpt lat="47.26891" lon="-2.33796">
        <ele>9.1999998092651</ele>
        <time>2021-04-01T07:29:23.000Z</time>
      </trkpt>
      <trkpt lat="47.26899" lon="-2.33813">
        <ele>9.1999998092651</ele>
        <time>2021-04-01T07:29:26.000Z</time>
      </trkpt>
      <trkpt lat="47.26902" lon="-2.33827">
        <ele>9.1999998092651</ele>
        <time>2021-04-01T07:29:28.000Z</time>
      </trkpt>
      <trkpt lat="47.26912" lon="-2.3387">
        <ele>9.1999998092651</ele>
        <time>2021-04-01T07:29:34.000Z</time>
      </trkpt>
      <trkpt lat="47.26925" lon="-2.33925">
        <ele>9.1999998092651</ele>
        <time>2021-04-01T07:29:42.000Z</time>
      </trkpt>
      <trkpt lat="47.26933" lon="-2.33966">
        <ele>9.1999998092651</ele>
        <time>2021-04-01T07:29:48.000Z</time>
      </trkpt>
      <trkpt lat="47.26937" lon="-2.3398">
        <ele>9.6000003814697</ele>
        <time>2021-04-01T07:29:50.000Z</time>
      </trkpt>
      <trkpt lat="47.26938" lon="-2.33987">
        <ele>10</ele>
        <time>2021-04-01T07:29:51.000Z</time>
      </trkpt>
      <trkpt lat="47.2694" lon="-2.33994">
        <ele>10.39999961853</ele>
        <time>2021-04-01T07:29:52.000Z</time>
      </trkpt>
      <trkpt lat="47.26941" lon="-2.34001">
        <ele>10.800000190735</ele>
        <time>2021-04-01T07:29:53.000Z</time>
      </trkpt>
      <trkpt lat="47.26943" lon="-2.34008">
        <ele>11.199999809265</ele>
        <time>2021-04-01T07:29:54.000Z</time>
      </trkpt>
      <trkpt lat="47.26954" lon="-2.34056">
        <ele>11.199999809265</ele>
        <time>2021-04-01T07:30:01.000Z</time>
      </trkpt>
      <trkpt lat="47.26968" lon="-2.3412">
        <ele>11.199999809265</ele>
        <time>2021-04-01T07:30:10.000Z</time>
      </trkpt>
      <trkpt lat="47.26985" lon="-2.34191">
        <ele>11.199999809265</ele>
        <time>2021-04-01T07:30:20.000Z</time>
      </trkpt>
      <trkpt lat="47.26989" lon="-2.34203">
        <ele>11.199999809265</ele>
        <time>2021-04-01T07:30:22.000Z</time>
      </trkpt>
      <trkpt lat="47.26995" lon="-2.3423">
        <ele>11.199999809265</ele>
        <time>2021-04-01T07:30:26.000Z</time>
      </trkpt>
      <trkpt lat="47.27005" lon="-2.3427">
        <ele>11.199999809265</ele>
        <time>2021-04-01T07:30:32.000Z</time>
      </trkpt>
      <trkpt lat="47.27008" lon="-2.3429">
        <ele>11.199999809265</ele>
        <time>2021-04-01T07:30:35.000Z</time>
      </trkpt>
      <trkpt lat="47.27007" lon="-2.34308">
        <ele>11.199999809265</ele>
        <time>2021-04-01T07:30:38.000Z</time>
      </trkpt>
      <trkpt lat="47.27014" lon="-2.34318">
        <ele>11.199999809265</ele>
        <time>2021-04-01T07:30:41.000Z</time>
      </trkpt>
      <trkpt lat="47.2703" lon="-2.34319">
        <ele>11.199999809265</ele>
        <time>2021-04-01T07:30:45.000Z</time>
      </trkpt>
      <trkpt lat="47.27061" lon="-2.34316">
        <ele>11.199999809265</ele>
        <time>2021-04-01T07:30:52.000Z</time>
      </trkpt>
      <trkpt lat="47.27074" lon="-2.34316">
        <ele>11.60000038147</ele>
        <time>2021-04-01T07:30:55.000Z</time>
      </trkpt>
      <trkpt lat="47.27078" lon="-2.34317">
        <ele>12</ele>
        <time>2021-04-01T07:30:56.000Z</time>
      </trkpt>
      <trkpt lat="47.27082" lon="-2.34317">
        <ele>12.800000190735</ele>
        <time>2021-04-01T07:30:57.000Z</time>
      </trkpt>
      <trkpt lat="47.27086" lon="-2.34316">
        <ele>13.199999809265</ele>
        <time>2021-04-01T07:30:58.000Z</time>
      </trkpt>
      <trkpt lat="47.2709" lon="-2.34314">
        <ele>13.199999809265</ele>
        <time>2021-04-01T07:30:59.000Z</time>
      </trkpt>
      <trkpt lat="47.27108" lon="-2.34315">
        <ele>13.199999809265</ele>
        <time>2021-04-01T07:31:04.000Z</time>
      </trkpt>
      <trkpt lat="47.27133" lon="-2.34318">
        <ele>13.199999809265</ele>
        <time>2021-04-01T07:31:11.000Z</time>
      </trkpt>
      <trkpt lat="47.27138" lon="-2.34318">
        <ele>13.60000038147</ele>
        <time>2021-04-01T07:31:12.000Z</time>
      </trkpt>
      <trkpt lat="47.27142" lon="-2.34318">
        <ele>14.199999809265</ele>
        <time>2021-04-01T07:31:13.000Z</time>
      </trkpt>
      <trkpt lat="47.27146" lon="-2.34318">
        <ele>14.60000038147</ele>
        <time>2021-04-01T07:31:14.000Z</time>
      </trkpt>
      <trkpt lat="47.27151" lon="-2.34318">
        <ele>15</ele>
        <time>2021-04-01T07:31:15.000Z</time>
      </trkpt>
      <trkpt lat="47.27155" lon="-2.34318">
        <ele>15.60000038147</ele>
        <time>2021-04-01T07:31:16.000Z</time>
      </trkpt>
      <trkpt lat="47.27164" lon="-2.34318">
        <ele>15.60000038147</ele>
        <time>2021-04-01T07:31:18.000Z</time>
      </trkpt>
      <trkpt lat="47.27172" lon="-2.34318">
        <ele>15.60000038147</ele>
        <time>2021-04-01T07:31:20.000Z</time>
      </trkpt>
      <trkpt lat="47.27186" lon="-2.34318">
        <ele>16</ele>
        <time>2021-04-01T07:31:23.000Z</time>
      </trkpt>
      <trkpt lat="47.2719" lon="-2.34318">
        <ele>16.39999961853</ele>
        <time>2021-04-01T07:31:24.000Z</time>
      </trkpt>
      <trkpt lat="47.27194" lon="-2.34319">
        <ele>16.799999237061</ele>
        <time>2021-04-01T07:31:25.000Z</time>
      </trkpt>
      <trkpt lat="47.27199" lon="-2.34318">
        <ele>17.200000762939</ele>
        <time>2021-04-01T07:31:26.000Z</time>
      </trkpt>
      <trkpt lat="47.27203" lon="-2.34318">
        <ele>17.60000038147</ele>
        <time>2021-04-01T07:31:27.000Z</time>
      </trkpt>
      <trkpt lat="47.27208" lon="-2.34318">
        <ele>17.60000038147</ele>
        <time>2021-04-01T07:31:28.000Z</time>
      </trkpt>
      <trkpt lat="47.27217" lon="-2.34319">
        <ele>17.60000038147</ele>
        <time>2021-04-01T07:31:30.000Z</time>
      </trkpt>
      <trkpt lat="47.27254" lon="-2.34318">
        <ele>17.60000038147</ele>
        <time>2021-04-01T07:31:38.000Z</time>
      </trkpt>
      <trkpt lat="47.27263" lon="-2.34317">
        <ele>18</ele>
        <time>2021-04-01T07:31:40.000Z</time>
      </trkpt>
      <trkpt lat="47.27267" lon="-2.34316">
        <ele>18.39999961853</ele>
        <time>2021-04-01T07:31:41.000Z</time>
      </trkpt>
      <trkpt lat="47.27272" lon="-2.34315">
        <ele>18.799999237061</ele>
        <time>2021-04-01T07:31:42.000Z</time>
      </trkpt>
      <trkpt lat="47.27277" lon="-2.34313">
        <ele>19.200000762939</ele>
        <time>2021-04-01T07:31:43.000Z</time>
      </trkpt>
      <trkpt lat="47.27281" lon="-2.34311">
        <ele>19.60000038147</ele>
        <time>2021-04-01T07:31:44.000Z</time>
      </trkpt>
      <trkpt lat="47.27286" lon="-2.3431">
        <ele>19.60000038147</ele>
        <time>2021-04-01T07:31:45.000Z</time>
      </trkpt>
      <trkpt lat="47.2732" lon="-2.34292">
        <ele>20</ele>
        <time>2021-04-01T07:31:53.000Z</time>
      </trkpt>
      <trkpt lat="47.27324" lon="-2.3429">
        <ele>20.39999961853</ele>
        <time>2021-04-01T07:31:54.000Z</time>
      </trkpt>
      <trkpt lat="47.27328" lon="-2.34288">
        <ele>20.799999237061</ele>
        <time>2021-04-01T07:31:55.000Z</time>
      </trkpt>
      <trkpt lat="47.27332" lon="-2.34286">
        <ele>21.200000762939</ele>
        <time>2021-04-01T07:31:56.000Z</time>
      </trkpt>
      <trkpt lat="47.27336" lon="-2.34283">
        <ele>21.60000038147</ele>
        <time>2021-04-01T07:31:57.000Z</time>
      </trkpt>
      <trkpt lat="47.27344" lon="-2.34275">
        <ele>21.60000038147</ele>
        <time>2021-04-01T07:31:59.000Z</time>
      </trkpt>
      <trkpt lat="47.27348" lon="-2.34272">
        <ele>21.60000038147</ele>
        <time>2021-04-01T07:32:00.000Z</time>
      </trkpt>
      <trkpt lat="47.27368" lon="-2.34259">
        <ele>21.60000038147</ele>
        <time>2021-04-01T07:32:05.000Z</time>
      </trkpt>
      <trkpt lat="47.2738" lon="-2.3425">
        <ele>22</ele>
        <time>2021-04-01T07:32:08.000Z</time>
      </trkpt>
      <trkpt lat="47.27384" lon="-2.34247">
        <ele>22.39999961853</ele>
        <time>2021-04-01T07:32:09.000Z</time>
      </trkpt>
      <trkpt lat="47.27388" lon="-2.34245">
        <ele>23</ele>
        <time>2021-04-01T07:32:10.000Z</time>
      </trkpt>
      <trkpt lat="47.27392" lon="-2.34242">
        <ele>23.799999237061</ele>
        <time>2021-04-01T07:32:11.000Z</time>
      </trkpt>
      <trkpt lat="47.27396" lon="-2.3424">
        <ele>23.799999237061</ele>
        <time>2021-04-01T07:32:12.000Z</time>
      </trkpt>
      <trkpt lat="47.274" lon="-2.34239">
        <ele>23.799999237061</ele>
        <time>2021-04-01T07:32:13.000Z</time>
      </trkpt>
      <trkpt lat="47.27415" lon="-2.34243">
        <ele>23.799999237061</ele>
        <time>2021-04-01T07:32:17.000Z</time>
      </trkpt>
      <trkpt lat="47.27418" lon="-2.34261">
        <ele>23.799999237061</ele>
        <time>2021-04-01T07:32:20.000Z</time>
      </trkpt>
      <trkpt lat="47.27419" lon="-2.34269">
        <ele>23.799999237061</ele>
        <time>2021-04-01T07:32:21.000Z</time>
      </trkpt>
      <trkpt lat="47.27418" lon="-2.34311">
        <ele>23.799999237061</ele>
        <time>2021-04-01T07:32:27.000Z</time>
      </trkpt>
      <trkpt lat="47.27418" lon="-2.34324">
        <ele>23.799999237061</ele>
        <time>2021-04-01T07:32:29.000Z</time>
      </trkpt>
      <trkpt lat="47.27419" lon="-2.34358">
        <ele>23.799999237061</ele>
        <time>2021-04-01T07:32:34.000Z</time>
      </trkpt>
      <trkpt lat="47.27419" lon="-2.34364">
        <ele>24.200000762939</ele>
        <time>2021-04-01T07:32:35.000Z</time>
      </trkpt>
      <trkpt lat="47.2742" lon="-2.3437">
        <ele>25</ele>
        <time>2021-04-01T07:32:36.000Z</time>
      </trkpt>
      <trkpt lat="47.27421" lon="-2.34376">
        <ele>25.39999961853</ele>
        <time>2021-04-01T07:32:37.000Z</time>
      </trkpt>
      <trkpt lat="47.27422" lon="-2.34382">
        <ele>25.799999237061</ele>
        <time>2021-04-01T07:32:38.000Z</time>
      </trkpt>
      <trkpt lat="47.27424" lon="-2.34395">
        <ele>25.799999237061</ele>
        <time>2021-04-01T07:32:40.000Z</time>
      </trkpt>
      <trkpt lat="47.27427" lon="-2.34448">
        <ele>25.799999237061</ele>
        <time>2021-04-01T07:32:48.000Z</time>
      </trkpt>
      <trkpt lat="47.2743" lon="-2.3449">
        <ele>25.799999237061</ele>
        <time>2021-04-01T07:32:54.000Z</time>
      </trkpt>
      <trkpt lat="47.27435" lon="-2.34517">
        <ele>26.200000762939</ele>
        <time>2021-04-01T07:32:58.000Z</time>
      </trkpt>
      <trkpt lat="47.27436" lon="-2.34523">
        <ele>26.60000038147</ele>
        <time>2021-04-01T07:32:59.000Z</time>
      </trkpt>
      <trkpt lat="47.27438" lon="-2.34529">
        <ele>27.39999961853</ele>
        <time>2021-04-01T07:33:00.000Z</time>
      </trkpt>
      <trkpt lat="47.27439" lon="-2.34535">
        <ele>28</ele>
        <time>2021-04-01T07:33:01.000Z</time>
      </trkpt>
      <trkpt lat="47.27448" lon="-2.34565">
        <ele>28</ele>
        <time>2021-04-01T07:33:06.000Z</time>
      </trkpt>
      <trkpt lat="47.27456" lon="-2.34616">
        <ele>28</ele>
        <time>2021-04-01T07:33:13.000Z</time>
      </trkpt>
      <trkpt lat="47.2746" lon="-2.34672">
        <ele>28</ele>
        <time>2021-04-01T07:33:20.000Z</time>
      </trkpt>
      <trkpt lat="47.27461" lon="-2.34687">
        <ele>28</ele>
        <time>2021-04-01T07:33:22.000Z</time>
      </trkpt>
      <trkpt lat="47.27464" lon="-2.34694">
        <ele>28</ele>
        <time>2021-04-01T07:33:24.000Z</time>
      </trkpt>
      <trkpt lat="47.27474" lon="-2.34688">
        <ele>28</ele>
        <time>2021-04-01T07:33:27.000Z</time>
      </trkpt>
      <trkpt lat="47.27482" lon="-2.34682">
        <ele>28</ele>
        <time>2021-04-01T07:33:29.000Z</time>
      </trkpt>
      <trkpt lat="47.2749" lon="-2.34677">
        <ele>28</ele>
        <time>2021-04-01T07:33:31.000Z</time>
      </trkpt>
      <trkpt lat="47.27495" lon="-2.34677">
        <ele>28</ele>
        <time>2021-04-01T07:33:32.000Z</time>
      </trkpt>
      <trkpt lat="47.27509" lon="-2.34676">
        <ele>28</ele>
        <time>2021-04-01T07:33:35.000Z</time>
      </trkpt>
      <trkpt lat="47.27524" lon="-2.34676">
        <ele>28</ele>
        <time>2021-04-01T07:33:38.000Z</time>
      </trkpt>
      <trkpt lat="47.27552" lon="-2.34672">
        <ele>28</ele>
        <time>2021-04-01T07:33:44.000Z</time>
      </trkpt>
      <trkpt lat="47.27566" lon="-2.34663">
        <ele>28</ele>
        <time>2021-04-01T07:33:49.000Z</time>
      </trkpt>
      <trkpt lat="47.27566" lon="-2.34663">
        <ele>28</ele>
        <time>2021-04-01T07:33:50.000Z</time>
      </trkpt>
      <trkpt lat="47.27565" lon="-2.34663">
        <ele>28</ele>
        <time>2021-04-01T07:33:51.000Z</time>
      </trkpt>
      <trkpt lat="47.27564" lon="-2.34664">
        <ele>28</ele>
        <time>2021-04-01T07:33:52.000Z</time>
      </trkpt>
      <trkpt lat="47.27555" lon="-2.34671">
        <ele>28</ele>
        <time>2021-04-01T07:33:56.000Z</time>
      </trkpt>
      <trkpt lat="47.27547" lon="-2.34674">
        <ele>28</ele>
        <time>2021-04-01T07:33:58.000Z</time>
      </trkpt>
      <trkpt lat="47.27533" lon="-2.34675">
        <ele>28</ele>
        <time>2021-04-01T07:34:01.000Z</time>
      </trkpt>
      <trkpt lat="47.2751" lon="-2.34676">
        <ele>28</ele>
        <time>2021-04-01T07:34:07.000Z</time>
      </trkpt>
      <trkpt lat="47.27483" lon="-2.34685">
        <ele>28</ele>
        <time>2021-04-01T07:34:13.000Z</time>
      </trkpt>
      <trkpt lat="47.27462" lon="-2.34703">
        <ele>28</ele>
        <time>2021-04-01T07:34:18.000Z</time>
      </trkpt>
      <trkpt lat="47.27459" lon="-2.34709">
        <ele>28</ele>
        <time>2021-04-01T07:34:19.000Z</time>
      </trkpt>
      <trkpt lat="47.27459" lon="-2.34733">
        <ele>28</ele>
        <time>2021-04-01T07:34:22.000Z</time>
      </trkpt>
      <trkpt lat="47.27459" lon="-2.34779">
        <ele>27.39999961853</ele>
        <time>2021-04-01T07:34:27.000Z</time>
      </trkpt>
      <trkpt lat="47.2746" lon="-2.34789">
        <ele>27</ele>
        <time>2021-04-01T07:34:28.000Z</time>
      </trkpt>
      <trkpt lat="47.2746" lon="-2.34799">
        <ele>26.60000038147</ele>
        <time>2021-04-01T07:34:29.000Z</time>
      </trkpt>
      <trkpt lat="47.27461" lon="-2.34809">
        <ele>26.200000762939</ele>
        <time>2021-04-01T07:34:30.000Z</time>
      </trkpt>
      <trkpt lat="47.27462" lon="-2.34819">
        <ele>25.799999237061</ele>
        <time>2021-04-01T07:34:31.000Z</time>
      </trkpt>
      <trkpt lat="47.27461" lon="-2.34828">
        <ele>25.799999237061</ele>
        <time>2021-04-01T07:34:32.000Z</time>
      </trkpt>
      <trkpt lat="47.27461" lon="-2.34843">
        <ele>25.799999237061</ele>
        <time>2021-04-01T07:34:34.000Z</time>
      </trkpt>
      <trkpt lat="47.2746" lon="-2.34849">
        <ele>25.799999237061</ele>
        <time>2021-04-01T07:34:35.000Z</time>
      </trkpt>
      <trkpt lat="47.2746" lon="-2.34856">
        <ele>25.200000762939</ele>
        <time>2021-04-01T07:34:36.000Z</time>
      </trkpt>
      <trkpt lat="47.2746" lon="-2.34864">
        <ele>24.799999237061</ele>
        <time>2021-04-01T07:34:37.000Z</time>
      </trkpt>
      <trkpt lat="47.2746" lon="-2.34872">
        <ele>24.39999961853</ele>
        <time>2021-04-01T07:34:38.000Z</time>
      </trkpt>
      <trkpt lat="47.27461" lon="-2.34881">
        <ele>23.60000038147</ele>
        <time>2021-04-01T07:34:39.000Z</time>
      </trkpt>
      <trkpt lat="47.27465" lon="-2.34915">
        <ele>23.60000038147</ele>
        <time>2021-04-01T07:34:43.000Z</time>
      </trkpt>
      <trkpt lat="47.27482" lon="-2.34977">
        <ele>23.60000038147</ele>
        <time>2021-04-01T07:34:51.000Z</time>
      </trkpt>
      <trkpt lat="47.27493" lon="-2.35021">
        <ele>23.60000038147</ele>
        <time>2021-04-01T07:34:57.000Z</time>
      </trkpt>
      <trkpt lat="47.27501" lon="-2.35059">
        <ele>23.60000038147</ele>
        <time>2021-04-01T07:35:02.000Z</time>
      </trkpt>
      <trkpt lat="47.27501" lon="-2.35067">
        <ele>23.60000038147</ele>
        <time>2021-04-01T07:35:03.000Z</time>
      </trkpt>
      <trkpt lat="47.27501" lon="-2.35084">
        <ele>24</ele>
        <time>2021-04-01T07:35:05.000Z</time>
      </trkpt>
      <trkpt lat="47.275" lon="-2.35093">
        <ele>24.39999961853</ele>
        <time>2021-04-01T07:35:06.000Z</time>
      </trkpt>
      <trkpt lat="47.275" lon="-2.35101">
        <ele>24.799999237061</ele>
        <time>2021-04-01T07:35:07.000Z</time>
      </trkpt>
      <trkpt lat="47.275" lon="-2.35111">
        <ele>25.200000762939</ele>
        <time>2021-04-01T07:35:08.000Z</time>
      </trkpt>
      <trkpt lat="47.275" lon="-2.3512">
        <ele>25.60000038147</ele>
        <time>2021-04-01T07:35:09.000Z</time>
      </trkpt>
      <trkpt lat="47.275" lon="-2.35128">
        <ele>25.60000038147</ele>
        <time>2021-04-01T07:35:10.000Z</time>
      </trkpt>
      <trkpt lat="47.27503" lon="-2.3518">
        <ele>25.60000038147</ele>
        <time>2021-04-01T07:35:16.000Z</time>
      </trkpt>
      <trkpt lat="47.27504" lon="-2.35236">
        <ele>25.60000038147</ele>
        <time>2021-04-01T07:35:22.000Z</time>
      </trkpt>
      <trkpt lat="47.27501" lon="-2.35276">
        <ele>25.200000762939</ele>
        <time>2021-04-01T07:35:26.000Z</time>
      </trkpt>
      <trkpt lat="47.275" lon="-2.35284">
        <ele>24.39999961853</ele>
        <time>2021-04-01T07:35:27.000Z</time>
      </trkpt>
      <trkpt lat="47.27501" lon="-2.35292">
        <ele>23.799999237061</ele>
        <time>2021-04-01T07:35:28.000Z</time>
      </trkpt>
      <trkpt lat="47.27505" lon="-2.35297">
        <ele>23.39999961853</ele>
        <time>2021-04-01T07:35:29.000Z</time>
      </trkpt>
      <trkpt lat="47.2751" lon="-2.35298">
        <ele>22.799999237061</ele>
        <time>2021-04-01T07:35:30.000Z</time>
      </trkpt>
      <trkpt lat="47.27515" lon="-2.35298">
        <ele>22.39999961853</ele>
        <time>2021-04-01T07:35:31.000Z</time>
      </trkpt>
      <trkpt lat="47.27521" lon="-2.35296">
        <ele>21.799999237061</ele>
        <time>2021-04-01T07:35:32.000Z</time>
      </trkpt>
      <trkpt lat="47.27526" lon="-2.35295">
        <ele>21.39999961853</ele>
        <time>2021-04-01T07:35:33.000Z</time>
      </trkpt>
      <trkpt lat="47.27532" lon="-2.35293">
        <ele>21.39999961853</ele>
        <time>2021-04-01T07:35:34.000Z</time>
      </trkpt>
      <trkpt lat="47.27554" lon="-2.35285">
        <ele>21.39999961853</ele>
        <time>2021-04-01T07:35:38.000Z</time>
      </trkpt>
      <trkpt lat="47.27564" lon="-2.35281">
        <ele>21.799999237061</ele>
        <time>2021-04-01T07:35:40.000Z</time>
      </trkpt>
      <trkpt lat="47.27569" lon="-2.35278">
        <ele>22.200000762939</ele>
        <time>2021-04-01T07:35:41.000Z</time>
      </trkpt>
      <trkpt lat="47.27575" lon="-2.35276">
        <ele>22.60000038147</ele>
        <time>2021-04-01T07:35:42.000Z</time>
      </trkpt>
      <trkpt lat="47.2758" lon="-2.35273">
        <ele>23</ele>
        <time>2021-04-01T07:35:43.000Z</time>
      </trkpt>
      <trkpt lat="47.27586" lon="-2.3527">
        <ele>23.39999961853</ele>
        <time>2021-04-01T07:35:44.000Z</time>
      </trkpt>
      <trkpt lat="47.27601" lon="-2.35258">
        <ele>23.39999961853</ele>
        <time>2021-04-01T07:35:47.000Z</time>
      </trkpt>
      <trkpt lat="47.27637" lon="-2.35234">
        <ele>23.39999961853</ele>
        <time>2021-04-01T07:35:54.000Z</time>
      </trkpt>
      <trkpt lat="47.27673" lon="-2.35218">
        <ele>23.39999961853</ele>
        <time>2021-04-01T07:36:00.000Z</time>
      </trkpt>
      <trkpt lat="47.27725" lon="-2.35206">
        <ele>23.39999961853</ele>
        <time>2021-04-01T07:36:08.000Z</time>
      </trkpt>
      <trkpt lat="47.27738" lon="-2.35201">
        <ele>23</ele>
        <time>2021-04-01T07:36:10.000Z</time>
      </trkpt>
      <trkpt lat="47.27744" lon="-2.352">
        <ele>22.60000038147</ele>
        <time>2021-04-01T07:36:11.000Z</time>
      </trkpt>
      <trkpt lat="47.27751" lon="-2.35199">
        <ele>22</ele>
        <time>2021-04-01T07:36:12.000Z</time>
      </trkpt>
      <trkpt lat="47.27756" lon="-2.35197">
        <ele>21.60000038147</ele>
        <time>2021-04-01T07:36:13.000Z</time>
      </trkpt>
      <trkpt lat="47.27762" lon="-2.35197">
        <ele>21.200000762939</ele>
        <time>2021-04-01T07:36:14.000Z</time>
      </trkpt>
      <trkpt lat="47.27767" lon="-2.35197">
        <ele>21.200000762939</ele>
        <time>2021-04-01T07:36:15.000Z</time>
      </trkpt>
      <trkpt lat="47.27769" lon="-2.35198">
        <ele>20.799999237061</ele>
        <time>2021-04-01T07:36:16.000Z</time>
      </trkpt>
      <trkpt lat="47.27771" lon="-2.35201">
        <ele>19.799999237061</ele>
        <time>2021-04-01T07:36:17.000Z</time>
      </trkpt>
      <trkpt lat="47.27773" lon="-2.35206">
        <ele>19.39999961853</ele>
        <time>2021-04-01T07:36:18.000Z</time>
      </trkpt>
      <trkpt lat="47.27774" lon="-2.35212">
        <ele>19</ele>
        <time>2021-04-01T07:36:19.000Z</time>
      </trkpt>
      <trkpt lat="47.27776" lon="-2.35219">
        <ele>18.60000038147</ele>
        <time>2021-04-01T07:36:20.000Z</time>
      </trkpt>
      <trkpt lat="47.27778" lon="-2.35227">
        <ele>18.200000762939</ele>
        <time>2021-04-01T07:36:21.000Z</time>
      </trkpt>
      <trkpt lat="47.27779" lon="-2.35236">
        <ele>17.799999237061</ele>
        <time>2021-04-01T07:36:22.000Z</time>
      </trkpt>
      <trkpt lat="47.27781" lon="-2.35246">
        <ele>17.39999961853</ele>
        <time>2021-04-01T07:36:23.000Z</time>
      </trkpt>
      <trkpt lat="47.27782" lon="-2.35255">
        <ele>17</ele>
        <time>2021-04-01T07:36:24.000Z</time>
      </trkpt>
      <trkpt lat="47.27785" lon="-2.35273">
        <ele>17</ele>
        <time>2021-04-01T07:36:26.000Z</time>
      </trkpt>
      <trkpt lat="47.27798" lon="-2.35336">
        <ele>17</ele>
        <time>2021-04-01T07:36:33.000Z</time>
      </trkpt>
      <trkpt lat="47.27803" lon="-2.35353">
        <ele>17</ele>
        <time>2021-04-01T07:36:35.000Z</time>
      </trkpt>
      <trkpt lat="47.27814" lon="-2.35362">
        <ele>17</ele>
        <time>2021-04-01T07:36:37.000Z</time>
      </trkpt>
      <trkpt lat="47.27833" lon="-2.35362">
        <ele>17</ele>
        <time>2021-04-01T07:36:40.000Z</time>
      </trkpt>
      <trkpt lat="47.27839" lon="-2.35362">
        <ele>17</ele>
        <time>2021-04-01T07:36:41.000Z</time>
      </trkpt>
      <trkpt lat="47.27866" lon="-2.35359">
        <ele>17.39999961853</ele>
        <time>2021-04-01T07:36:46.000Z</time>
      </trkpt>
      <trkpt lat="47.27871" lon="-2.3536">
        <ele>17.799999237061</ele>
        <time>2021-04-01T07:36:47.000Z</time>
      </trkpt>
      <trkpt lat="47.27876" lon="-2.35363">
        <ele>18.200000762939</ele>
        <time>2021-04-01T07:36:48.000Z</time>
      </trkpt>
      <trkpt lat="47.2788" lon="-2.35367">
        <ele>18.60000038147</ele>
        <time>2021-04-01T07:36:49.000Z</time>
      </trkpt>
      <trkpt lat="47.27884" lon="-2.35372">
        <ele>19</ele>
        <time>2021-04-01T07:36:50.000Z</time>
      </trkpt>
      <trkpt lat="47.27892" lon="-2.35383">
        <ele>19</ele>
        <time>2021-04-01T07:36:52.000Z</time>
      </trkpt>
      <trkpt lat="47.27908" lon="-2.35406">
        <ele>19</ele>
        <time>2021-04-01T07:36:56.000Z</time>
      </trkpt>
      <trkpt lat="47.2794" lon="-2.35445">
        <ele>19</ele>
        <time>2021-04-01T07:37:03.000Z</time>
      </trkpt>
      <trkpt lat="47.2795" lon="-2.35455">
        <ele>19</ele>
        <time>2021-04-01T07:37:05.000Z</time>
      </trkpt>
      <trkpt lat="47.27967" lon="-2.35464">
        <ele>19</ele>
        <time>2021-04-01T07:37:08.000Z</time>
      </trkpt>
      <trkpt lat="47.27973" lon="-2.35468">
        <ele>19</ele>
        <time>2021-04-01T07:37:09.000Z</time>
      </trkpt>
      <trkpt lat="47.27986" lon="-2.35489">
        <ele>19</ele>
        <time>2021-04-01T07:37:12.000Z</time>
      </trkpt>
      <trkpt lat="47.27989" lon="-2.35494">
        <ele>19</ele>
        <time>2021-04-01T07:37:13.000Z</time>
      </trkpt>
      <trkpt lat="47.28003" lon="-2.35526">
        <ele>19</ele>
        <time>2021-04-01T07:37:18.000Z</time>
      </trkpt>
      <trkpt lat="47.28007" lon="-2.35548">
        <ele>19</ele>
        <time>2021-04-01T07:37:22.000Z</time>
      </trkpt>
      <trkpt lat="47.28009" lon="-2.35551">
        <ele>19</ele>
        <time>2021-04-01T07:37:23.000Z</time>
      </trkpt>
      <trkpt lat="47.28017" lon="-2.35563">
        <ele>19</ele>
        <time>2021-04-01T07:37:27.000Z</time>
      </trkpt>
      <trkpt lat="47.2802" lon="-2.35563">
        <ele>19.39999961853</ele>
        <time>2021-04-01T07:37:28.000Z</time>
      </trkpt>
      <trkpt lat="47.28023" lon="-2.35564">
        <ele>19.799999237061</ele>
        <time>2021-04-01T07:37:29.000Z</time>
      </trkpt>
      <trkpt lat="47.28027" lon="-2.35564">
        <ele>20.60000038147</ele>
        <time>2021-04-01T07:37:30.000Z</time>
      </trkpt>
      <trkpt lat="47.2803" lon="-2.35566">
        <ele>21</ele>
        <time>2021-04-01T07:37:31.000Z</time>
      </trkpt>
      <trkpt lat="47.28049" lon="-2.35576">
        <ele>21</ele>
        <time>2021-04-01T07:37:37.000Z</time>
      </trkpt>
      <trkpt lat="47.28067" lon="-2.35584">
        <ele>21</ele>
        <time>2021-04-01T07:37:44.000Z</time>
      </trkpt>
      <trkpt lat="47.28076" lon="-2.35599">
        <ele>21</ele>
        <time>2021-04-01T07:37:49.000Z</time>
      </trkpt>
      <trkpt lat="47.28078" lon="-2.35602">
        <ele>21.60000038147</ele>
        <time>2021-04-01T07:37:50.000Z</time>
      </trkpt>
      <trkpt lat="47.28079" lon="-2.35604">
        <ele>22</ele>
        <time>2021-04-01T07:37:51.000Z</time>
      </trkpt>
      <trkpt lat="47.2808" lon="-2.35606">
        <ele>22.39999961853</ele>
        <time>2021-04-01T07:37:52.000Z</time>
      </trkpt>
      <trkpt lat="47.28081" lon="-2.35608">
        <ele>22.799999237061</ele>
        <time>2021-04-01T07:37:53.000Z</time>
      </trkpt>
      <trkpt lat="47.2808" lon="-2.35607">
        <ele>23.200000762939</ele>
        <time>2021-04-01T07:37:54.000Z</time>
      </trkpt>
      <trkpt lat="47.28076" lon="-2.35597">
        <ele>23.200000762939</ele>
        <time>2021-04-01T07:41:54.000Z</time>
      </trkpt>
      <trkpt lat="47.28073" lon="-2.35601">
        <ele>23.200000762939</ele>
        <time>2021-04-01T07:41:57.000Z</time>
      </trkpt>
      <trkpt lat="47.28076" lon="-2.35615">
        <ele>23.200000762939</ele>
        <time>2021-04-01T07:42:01.000Z</time>
      </trkpt>
      <trkpt lat="47.28077" lon="-2.35618">
        <ele>23.200000762939</ele>
        <time>2021-04-01T07:42:02.000Z</time>
      </trkpt>
      <trkpt lat="47.28081" lon="-2.35636">
        <ele>23.200000762939</ele>
        <time>2021-04-01T07:42:07.000Z</time>
      </trkpt>
      <trkpt lat="47.28084" lon="-2.3565">
        <ele>23.60000038147</ele>
        <time>2021-04-01T07:42:11.000Z</time>
      </trkpt>
      <trkpt lat="47.28085" lon="-2.35654">
        <ele>24.200000762939</ele>
        <time>2021-04-01T07:42:12.000Z</time>
      </trkpt>
      <trkpt lat="47.28086" lon="-2.35658">
        <ele>24.60000038147</ele>
        <time>2021-04-01T07:42:13.000Z</time>
      </trkpt>
      <trkpt lat="47.28086" lon="-2.35662">
        <ele>25</ele>
        <time>2021-04-01T07:42:14.000Z</time>
      </trkpt>
      <trkpt lat="47.28087" lon="-2.35666">
        <ele>25.60000038147</ele>
        <time>2021-04-01T07:42:15.000Z</time>
      </trkpt>
      <trkpt lat="47.28091" lon="-2.35682">
        <ele>25.60000038147</ele>
        <time>2021-04-01T07:42:19.000Z</time>
      </trkpt>
      <trkpt lat="47.28093" lon="-2.3569">
        <ele>26</ele>
        <time>2021-04-01T07:42:21.000Z</time>
      </trkpt>
      <trkpt lat="47.28094" lon="-2.35694">
        <ele>26.39999961853</ele>
        <time>2021-04-01T07:42:22.000Z</time>
      </trkpt>
      <trkpt lat="47.28095" lon="-2.35697">
        <ele>26.799999237061</ele>
        <time>2021-04-01T07:42:23.000Z</time>
      </trkpt>
      <trkpt lat="47.28095" lon="-2.357">
        <ele>27.200000762939</ele>
        <time>2021-04-01T07:42:24.000Z</time>
      </trkpt>
      <trkpt lat="47.28096" lon="-2.35704">
        <ele>27.60000038147</ele>
        <time>2021-04-01T07:42:25.000Z</time>
      </trkpt>
      <trkpt lat="47.28095" lon="-2.35723">
        <ele>27.60000038147</ele>
        <time>2021-04-01T07:42:30.000Z</time>
      </trkpt>
      <trkpt lat="47.28092" lon="-2.35747">
        <ele>27.60000038147</ele>
        <time>2021-04-01T07:42:35.000Z</time>
      </trkpt>
      <trkpt lat="47.28089" lon="-2.35767">
        <ele>27.60000038147</ele>
        <time>2021-04-01T07:42:39.000Z</time>
      </trkpt>
      <trkpt lat="47.28083" lon="-2.35785">
        <ele>27.60000038147</ele>
        <time>2021-04-01T07:42:44.000Z</time>
      </trkpt>
      <trkpt lat="47.28083" lon="-2.3579">
        <ele>27.60000038147</ele>
        <time>2021-04-01T07:42:45.000Z</time>
      </trkpt>
      <trkpt lat="47.28082" lon="-2.35795">
        <ele>27.200000762939</ele>
        <time>2021-04-01T07:42:46.000Z</time>
      </trkpt>
      <trkpt lat="47.28081" lon="-2.35799">
        <ele>26.799999237061</ele>
        <time>2021-04-01T07:42:47.000Z</time>
      </trkpt>
      <trkpt lat="47.28081" lon="-2.35802">
        <ele>26.39999961853</ele>
        <time>2021-04-01T07:42:48.000Z</time>
      </trkpt>
      <trkpt lat="47.2808" lon="-2.35803">
        <ele>26</ele>
        <time>2021-04-01T07:42:49.000Z</time>
      </trkpt>
      <trkpt lat="47.2808" lon="-2.35805">
        <ele>25.39999961853</ele>
        <time>2021-04-01T07:42:50.000Z</time>
      </trkpt>
      <trkpt lat="47.28083" lon="-2.35805">
        <ele>25.39999961853</ele>
        <time>2021-04-01T07:42:57.000Z</time>
      </trkpt>
      <trkpt lat="47.28085" lon="-2.35805">
        <ele>25</ele>
        <time>2021-04-01T07:42:58.000Z</time>
      </trkpt>
      <trkpt lat="47.28086" lon="-2.35805">
        <ele>24.60000038147</ele>
        <time>2021-04-01T07:42:59.000Z</time>
      </trkpt>
      <trkpt lat="47.28087" lon="-2.35806">
        <ele>24.200000762939</ele>
        <time>2021-04-01T07:43:00.000Z</time>
      </trkpt>
      <trkpt lat="47.28088" lon="-2.35806">
        <ele>23.799999237061</ele>
        <time>2021-04-01T07:43:01.000Z</time>
      </trkpt>
      <trkpt lat="47.28088" lon="-2.35807">
        <ele>23.39999961853</ele>
        <time>2021-04-01T07:43:02.000Z</time>
      </trkpt>
      <trkpt lat="47.28102" lon="-2.35817">
        <ele>23.39999961853</ele>
        <time>2021-04-01T07:43:26.000Z</time>
      </trkpt>
      <trkpt lat="47.28116" lon="-2.35829">
        <ele>23.799999237061</ele>
        <time>2021-04-01T07:43:35.000Z</time>
      </trkpt>
      <trkpt lat="47.28117" lon="-2.35831">
        <ele>24.200000762939</ele>
        <time>2021-04-01T07:43:36.000Z</time>
      </trkpt>
      <trkpt lat="47.28118" lon="-2.35833">
        <ele>24.60000038147</ele>
        <time>2021-04-01T07:43:37.000Z</time>
      </trkpt>
      <trkpt lat="47.28118" lon="-2.35836">
        <ele>25.200000762939</ele>
        <time>2021-04-01T07:43:38.000Z</time>
      </trkpt>
      <trkpt lat="47.28118" lon="-2.35839">
        <ele>25.60000038147</ele>
        <time>2021-04-01T07:43:39.000Z</time>
      </trkpt>
      <trkpt lat="47.28118" lon="-2.35842">
        <ele>25.60000038147</ele>
        <time>2021-04-01T07:43:40.000Z</time>
      </trkpt>
      <trkpt lat="47.28123" lon="-2.35863">
        <ele>25.60000038147</ele>
        <time>2021-04-01T07:43:44.000Z</time>
      </trkpt>
      <trkpt lat="47.28134" lon="-2.35868">
        <ele>25.60000038147</ele>
        <time>2021-04-01T07:43:48.000Z</time>
      </trkpt>
      <trkpt lat="47.2814" lon="-2.35873">
        <ele>25.60000038147</ele>
        <time>2021-04-01T07:43:50.000Z</time>
      </trkpt>
      <trkpt lat="47.28156" lon="-2.35877">
        <ele>25.60000038147</ele>
        <time>2021-04-01T07:43:55.000Z</time>
      </trkpt>
      <trkpt lat="47.28165" lon="-2.35872">
        <ele>25.60000038147</ele>
        <time>2021-04-01T07:43:59.000Z</time>
      </trkpt>
      <trkpt lat="47.28169" lon="-2.35867">
        <ele>25.60000038147</ele>
        <time>2021-04-01T07:44:01.000Z</time>
      </trkpt>
      <trkpt lat="47.28178" lon="-2.35867">
        <ele>25.60000038147</ele>
        <time>2021-04-01T07:44:05.000Z</time>
      </trkpt>
      <trkpt lat="47.28187" lon="-2.3588">
        <ele>25.60000038147</ele>
        <time>2021-04-01T07:44:08.000Z</time>
      </trkpt>
      <trkpt lat="47.28193" lon="-2.35887">
        <ele>25.60000038147</ele>
        <time>2021-04-01T07:44:10.000Z</time>
      </trkpt>
      <trkpt lat="47.28196" lon="-2.35888">
        <ele>25.60000038147</ele>
        <time>2021-04-01T07:44:11.000Z</time>
      </trkpt>
      <trkpt lat="47.28205" lon="-2.35891">
        <ele>25.60000038147</ele>
        <time>2021-04-01T07:44:14.000Z</time>
      </trkpt>
      <trkpt lat="47.28224" lon="-2.35898">
        <ele>25.60000038147</ele>
        <time>2021-04-01T07:44:20.000Z</time>
      </trkpt>
      <trkpt lat="47.28236" lon="-2.35893">
        <ele>25.60000038147</ele>
        <time>2021-04-01T07:44:25.000Z</time>
      </trkpt>
      <trkpt lat="47.2825" lon="-2.35879">
        <ele>25.60000038147</ele>
        <time>2021-04-01T07:44:31.000Z</time>
      </trkpt>
      <trkpt lat="47.2826" lon="-2.35871">
        <ele>26</ele>
        <time>2021-04-01T07:44:34.000Z</time>
      </trkpt>
      <trkpt lat="47.28265" lon="-2.35869">
        <ele>26.39999961853</ele>
        <time>2021-04-01T07:44:35.000Z</time>
      </trkpt>
      <trkpt lat="47.28269" lon="-2.35866">
        <ele>26.799999237061</ele>
        <time>2021-04-01T07:44:36.000Z</time>
      </trkpt>
      <trkpt lat="47.28273" lon="-2.35863">
        <ele>27.200000762939</ele>
        <time>2021-04-01T07:44:37.000Z</time>
      </trkpt>
      <trkpt lat="47.28277" lon="-2.3586">
        <ele>27.60000038147</ele>
        <time>2021-04-01T07:44:38.000Z</time>
      </trkpt>
      <trkpt lat="47.28281" lon="-2.35857">
        <ele>27.60000038147</ele>
        <time>2021-04-01T07:44:39.000Z</time>
      </trkpt>
      <trkpt lat="47.28299" lon="-2.35846">
        <ele>27.60000038147</ele>
        <time>2021-04-01T07:44:44.000Z</time>
      </trkpt>
      <trkpt lat="47.28313" lon="-2.35836">
        <ele>27.60000038147</ele>
        <time>2021-04-01T07:44:49.000Z</time>
      </trkpt>
      <trkpt lat="47.28326" lon="-2.35819">
        <ele>28</ele>
        <time>2021-04-01T07:44:53.000Z</time>
      </trkpt>
      <trkpt lat="47.28329" lon="-2.35815">
        <ele>28.39999961853</ele>
        <time>2021-04-01T07:44:54.000Z</time>
      </trkpt>
      <trkpt lat="47.28333" lon="-2.35811">
        <ele>29.39999961853</ele>
        <time>2021-04-01T07:44:55.000Z</time>
      </trkpt>
      <trkpt lat="47.28336" lon="-2.35808">
        <ele>29.799999237061</ele>
        <time>2021-04-01T07:44:56.000Z</time>
      </trkpt>
      <trkpt lat="47.28355" lon="-2.35795">
        <ele>29.799999237061</ele>
        <time>2021-04-01T07:45:01.000Z</time>
      </trkpt>
      <trkpt lat="47.28366" lon="-2.35795">
        <ele>29.799999237061</ele>
        <time>2021-04-01T07:45:05.000Z</time>
      </trkpt>
      <trkpt lat="47.28388" lon="-2.35807">
        <ele>29.799999237061</ele>
        <time>2021-04-01T07:45:10.000Z</time>
      </trkpt>
      <trkpt lat="47.28409" lon="-2.3583">
        <ele>29.799999237061</ele>
        <time>2021-04-01T07:45:16.000Z</time>
      </trkpt>
      <trkpt lat="47.28426" lon="-2.35857">
        <ele>29.799999237061</ele>
        <time>2021-04-01T07:45:21.000Z</time>
      </trkpt>
      <trkpt lat="47.28443" lon="-2.35881">
        <ele>29.799999237061</ele>
        <time>2021-04-01T07:45:26.000Z</time>
      </trkpt>
      <trkpt lat="47.28457" lon="-2.35891">
        <ele>29.799999237061</ele>
        <time>2021-04-01T07:45:31.000Z</time>
      </trkpt>
      <trkpt lat="47.28462" lon="-2.35892">
        <ele>29.799999237061</ele>
        <time>2021-04-01T07:45:33.000Z</time>
      </trkpt>
      <trkpt lat="47.28463" lon="-2.3589">
        <ele>29.799999237061</ele>
        <time>2021-04-01T07:45:35.000Z</time>
      </trkpt>
      <trkpt lat="47.28462" lon="-2.35885">
        <ele>29.799999237061</ele>
        <time>2021-04-01T07:45:37.000Z</time>
      </trkpt>
      <trkpt lat="47.2846" lon="-2.35877">
        <ele>29.799999237061</ele>
        <time>2021-04-01T07:45:39.000Z</time>
      </trkpt>
      <trkpt lat="47.28462" lon="-2.35864">
        <ele>29.799999237061</ele>
        <time>2021-04-01T07:45:43.000Z</time>
      </trkpt>
      <trkpt lat="47.28467" lon="-2.35848">
        <ele>29.799999237061</ele>
        <time>2021-04-01T07:45:49.000Z</time>
      </trkpt>
      <trkpt lat="47.28468" lon="-2.35844">
        <ele>29.799999237061</ele>
        <time>2021-04-01T07:45:52.000Z</time>
      </trkpt>
      <trkpt lat="47.28471" lon="-2.35847">
        <ele>29.799999237061</ele>
        <time>2021-04-01T07:45:57.000Z</time>
      </trkpt>
      <trkpt lat="47.28472" lon="-2.35852">
        <ele>29.799999237061</ele>
        <time>2021-04-01T07:45:58.000Z</time>
      </trkpt>
      <trkpt lat="47.28475" lon="-2.35859">
        <ele>29.799999237061</ele>
        <time>2021-04-01T07:46:00.000Z</time>
      </trkpt>
      <trkpt lat="47.2848" lon="-2.35862">
        <ele>29.799999237061</ele>
        <time>2021-04-01T07:46:02.000Z</time>
      </trkpt>
      <trkpt lat="47.28494" lon="-2.35872">
        <ele>29.799999237061</ele>
        <time>2021-04-01T07:46:07.000Z</time>
      </trkpt>
      <trkpt lat="47.28505" lon="-2.35879">
        <ele>29.799999237061</ele>
        <time>2021-04-01T07:46:13.000Z</time>
      </trkpt>
      <trkpt lat="47.28506" lon="-2.3588">
        <ele>30.200000762939</ele>
        <time>2021-04-01T07:46:14.000Z</time>
      </trkpt>
      <trkpt lat="47.28507" lon="-2.35881">
        <ele>30.60000038147</ele>
        <time>2021-04-01T07:46:15.000Z</time>
      </trkpt>
      <trkpt lat="47.28508" lon="-2.35882">
        <ele>31</ele>
        <time>2021-04-01T07:46:16.000Z</time>
      </trkpt>
      <trkpt lat="47.28509" lon="-2.35883">
        <ele>31.39999961853</ele>
        <time>2021-04-01T07:46:17.000Z</time>
      </trkpt>
      <trkpt lat="47.28511" lon="-2.35884">
        <ele>32</ele>
        <time>2021-04-01T07:46:18.000Z</time>
      </trkpt>
      <trkpt lat="47.28512" lon="-2.35884">
        <ele>32</ele>
        <time>2021-04-01T07:46:19.000Z</time>
      </trkpt>
      <trkpt lat="47.28547" lon="-2.35908">
        <ele>36.200000762939</ele>
        <time>2021-04-01T07:47:18.000Z</time>
      </trkpt>
      <trkpt lat="47.2855" lon="-2.35912">
        <ele>36.200000762939</ele>
        <time>2021-04-01T07:47:21.000Z</time>
      </trkpt>
      <trkpt lat="47.28555" lon="-2.35913">
        <ele>36.200000762939</ele>
        <time>2021-04-01T07:47:23.000Z</time>
      </trkpt>
      <trkpt lat="47.28567" lon="-2.35924">
        <ele>36.200000762939</ele>
        <time>2021-04-01T07:47:27.000Z</time>
      </trkpt>
      <trkpt lat="47.28574" lon="-2.3594">
        <ele>36.200000762939</ele>
        <time>2021-04-01T07:47:30.000Z</time>
      </trkpt>
      <trkpt lat="47.28577" lon="-2.35942">
        <ele>36.200000762939</ele>
        <time>2021-04-01T07:47:32.000Z</time>
      </trkpt>
      <trkpt lat="47.28577" lon="-2.35944">
        <ele>36.200000762939</ele>
        <time>2021-04-01T07:47:34.000Z</time>
      </trkpt>
      <trkpt lat="47.28578" lon="-2.35945">
        <ele>36.200000762939</ele>
        <time>2021-04-01T07:47:35.000Z</time>
      </trkpt>
      <trkpt lat="47.28578" lon="-2.35947">
        <ele>36.200000762939</ele>
        <time>2021-04-01T07:47:43.000Z</time>
      </trkpt>
      <trkpt lat="47.28581" lon="-2.35952">
        <ele>36.200000762939</ele>
        <time>2021-04-01T07:47:45.000Z</time>
      </trkpt>
      <trkpt lat="47.28586" lon="-2.35968">
        <ele>36.200000762939</ele>
        <time>2021-04-01T07:47:49.000Z</time>
      </trkpt>
      <trkpt lat="47.28599" lon="-2.36">
        <ele>36.200000762939</ele>
        <time>2021-04-01T07:47:55.000Z</time>
      </trkpt>
      <trkpt lat="47.28615" lon="-2.36036">
        <ele>36.200000762939</ele>
        <time>2021-04-01T07:48:02.000Z</time>
      </trkpt>
      <trkpt lat="47.28633" lon="-2.3606">
        <ele>36.200000762939</ele>
        <time>2021-04-01T07:48:08.000Z</time>
      </trkpt>
      <trkpt lat="47.28637" lon="-2.36064">
        <ele>36.200000762939</ele>
        <time>2021-04-01T07:48:09.000Z</time>
      </trkpt>
      <trkpt lat="47.28657" lon="-2.36082">
        <ele>36.200000762939</ele>
        <time>2021-04-01T07:48:14.000Z</time>
      </trkpt>
      <trkpt lat="47.2866" lon="-2.36087">
        <ele>36.200000762939</ele>
        <time>2021-04-01T07:48:15.000Z</time>
      </trkpt>
      <trkpt lat="47.28672" lon="-2.36114">
        <ele>36.200000762939</ele>
        <time>2021-04-01T07:48:20.000Z</time>
      </trkpt>
      <trkpt lat="47.28681" lon="-2.36153">
        <ele>36.200000762939</ele>
        <time>2021-04-01T07:48:26.000Z</time>
      </trkpt>
      <trkpt lat="47.28683" lon="-2.36162">
        <ele>36.200000762939</ele>
        <time>2021-04-01T07:48:29.000Z</time>
      </trkpt>
      <trkpt lat="47.28683" lon="-2.36168">
        <ele>36.200000762939</ele>
        <time>2021-04-01T07:48:35.000Z</time>
      </trkpt>
      <trkpt lat="47.28685" lon="-2.36171">
        <ele>36.200000762939</ele>
        <time>2021-04-01T07:48:37.000Z</time>
      </trkpt>
      <trkpt lat="47.28689" lon="-2.36176">
        <ele>36.200000762939</ele>
        <time>2021-04-01T07:48:40.000Z</time>
      </trkpt>
      <trkpt lat="47.28694" lon="-2.36192">
        <ele>36.200000762939</ele>
        <time>2021-04-01T07:48:44.000Z</time>
      </trkpt>
      <trkpt lat="47.28696" lon="-2.36198">
        <ele>36.200000762939</ele>
        <time>2021-04-01T07:48:45.000Z</time>
      </trkpt>
      <trkpt lat="47.28703" lon="-2.36215">
        <ele>36.200000762939</ele>
        <time>2021-04-01T07:48:49.000Z</time>
      </trkpt>
      <trkpt lat="47.2872" lon="-2.36214">
        <ele>36.200000762939</ele>
        <time>2021-04-01T07:48:56.000Z</time>
      </trkpt>
      <trkpt lat="47.28742" lon="-2.36206">
        <ele>36.200000762939</ele>
        <time>2021-04-01T07:49:02.000Z</time>
      </trkpt>
      <trkpt lat="47.2875" lon="-2.36206">
        <ele>36.200000762939</ele>
        <time>2021-04-01T07:49:05.000Z</time>
      </trkpt>
      <trkpt lat="47.28752" lon="-2.36209">
        <ele>36.200000762939</ele>
        <time>2021-04-01T07:49:06.000Z</time>
      </trkpt>
      <trkpt lat="47.28761" lon="-2.36224">
        <ele>36.200000762939</ele>
        <time>2021-04-01T07:49:12.000Z</time>
      </trkpt>
      <trkpt lat="47.28771" lon="-2.36239">
        <ele>36.200000762939</ele>
        <time>2021-04-01T07:49:18.000Z</time>
      </trkpt>
      <trkpt lat="47.28795" lon="-2.36266">
        <ele>36.200000762939</ele>
        <time>2021-04-01T07:49:27.000Z</time>
      </trkpt>
      <trkpt lat="47.28799" lon="-2.36269">
        <ele>36.200000762939</ele>
        <time>2021-04-01T07:49:28.000Z</time>
      </trkpt>
      <trkpt lat="47.28822" lon="-2.36287">
        <ele>36.200000762939</ele>
        <time>2021-04-01T07:49:33.000Z</time>
      </trkpt>
      <trkpt lat="47.28836" lon="-2.36303">
        <ele>35.799999237061</ele>
        <time>2021-04-01T07:49:36.000Z</time>
      </trkpt>
      <trkpt lat="47.28839" lon="-2.36308">
        <ele>35.400001525879</ele>
        <time>2021-04-01T07:49:37.000Z</time>
      </trkpt>
      <trkpt lat="47.28842" lon="-2.36314">
        <ele>35</ele>
        <time>2021-04-01T07:49:38.000Z</time>
      </trkpt>
      <trkpt lat="47.28842" lon="-2.3632">
        <ele>34.400001525879</ele>
        <time>2021-04-01T07:49:39.000Z</time>
      </trkpt>
      <trkpt lat="47.28841" lon="-2.36324">
        <ele>34</ele>
        <time>2021-04-01T07:49:40.000Z</time>
      </trkpt>
      <trkpt lat="47.28839" lon="-2.36328">
        <ele>34</ele>
        <time>2021-04-01T07:49:41.000Z</time>
      </trkpt>
      <trkpt lat="47.28833" lon="-2.36339">
        <ele>34</ele>
        <time>2021-04-01T07:49:44.000Z</time>
      </trkpt>
      <trkpt lat="47.28826" lon="-2.36349">
        <ele>34</ele>
        <time>2021-04-01T07:49:47.000Z</time>
      </trkpt>
      <trkpt lat="47.28823" lon="-2.36356">
        <ele>34.400001525879</ele>
        <time>2021-04-01T07:49:49.000Z</time>
      </trkpt>
      <trkpt lat="47.28821" lon="-2.3636">
        <ele>34.799999237061</ele>
        <time>2021-04-01T07:49:50.000Z</time>
      </trkpt>
      <trkpt lat="47.28819" lon="-2.36364">
        <ele>35.200000762939</ele>
        <time>2021-04-01T07:49:51.000Z</time>
      </trkpt>
      <trkpt lat="47.28817" lon="-2.36369">
        <ele>36.200000762939</ele>
        <time>2021-04-01T07:49:52.000Z</time>
      </trkpt>
      <trkpt lat="47.28813" lon="-2.36378">
        <ele>36.200000762939</ele>
        <time>2021-04-01T07:49:54.000Z</time>
      </trkpt>
      <trkpt lat="47.28797" lon="-2.36406">
        <ele>36.200000762939</ele>
        <time>2021-04-01T07:50:00.000Z</time>
      </trkpt>
      <trkpt lat="47.28794" lon="-2.36411">
        <ele>36.200000762939</ele>
        <time>2021-04-01T07:50:01.000Z</time>
      </trkpt>
      <trkpt lat="47.28782" lon="-2.36442">
        <ele>36.200000762939</ele>
        <time>2021-04-01T07:50:06.000Z</time>
      </trkpt>
      <trkpt lat="47.28779" lon="-2.36447">
        <ele>36.200000762939</ele>
        <time>2021-04-01T07:50:07.000Z</time>
      </trkpt>
      <trkpt lat="47.28771" lon="-2.36464">
        <ele>36.200000762939</ele>
        <time>2021-04-01T07:50:10.000Z</time>
      </trkpt>
      <trkpt lat="47.28768" lon="-2.3647">
        <ele>36.200000762939</ele>
        <time>2021-04-01T07:50:11.000Z</time>
      </trkpt>
      <trkpt lat="47.28754" lon="-2.36501">
        <ele>36.200000762939</ele>
        <time>2021-04-01T07:50:16.000Z</time>
      </trkpt>
      <trkpt lat="47.28735" lon="-2.36539">
        <ele>36.200000762939</ele>
        <time>2021-04-01T07:50:23.000Z</time>
      </trkpt>
      <trkpt lat="47.28725" lon="-2.36568">
        <ele>36.200000762939</ele>
        <time>2021-04-01T07:50:28.000Z</time>
      </trkpt>
      <trkpt lat="47.28717" lon="-2.36584">
        <ele>36.200000762939</ele>
        <time>2021-04-01T07:50:31.000Z</time>
      </trkpt>
      <trkpt lat="47.28711" lon="-2.36594">
        <ele>36.200000762939</ele>
        <time>2021-04-01T07:50:33.000Z</time>
      </trkpt>
      <trkpt lat="47.2869" lon="-2.36616">
        <ele>36.200000762939</ele>
        <time>2021-04-01T07:50:39.000Z</time>
      </trkpt>
      <trkpt lat="47.28682" lon="-2.36622">
        <ele>35.599998474121</ele>
        <time>2021-04-01T07:50:42.000Z</time>
      </trkpt>
      <trkpt lat="47.28681" lon="-2.36622">
        <ele>35.200000762939</ele>
        <time>2021-04-01T07:50:43.000Z</time>
      </trkpt>
      <trkpt lat="47.28681" lon="-2.36622">
        <ele>34.799999237061</ele>
        <time>2021-04-01T07:50:44.000Z</time>
      </trkpt>
      <trkpt lat="47.28683" lon="-2.36621">
        <ele>34</ele>
        <time>2021-04-01T07:50:58.000Z</time>
      </trkpt>
      <trkpt lat="47.28685" lon="-2.36619">
        <ele>34</ele>
        <time>2021-04-01T07:50:59.000Z</time>
      </trkpt>
      <trkpt lat="47.287" lon="-2.36601">
        <ele>34</ele>
        <time>2021-04-01T07:51:05.000Z</time>
      </trkpt>
      <trkpt lat="47.28714" lon="-2.36577">
        <ele>34.400001525879</ele>
        <time>2021-04-01T07:51:10.000Z</time>
      </trkpt>
      <trkpt lat="47.28717" lon="-2.36571">
        <ele>34.799999237061</ele>
        <time>2021-04-01T07:51:11.000Z</time>
      </trkpt>
      <trkpt lat="47.2872" lon="-2.36565">
        <ele>35.400001525879</ele>
        <time>2021-04-01T07:51:12.000Z</time>
      </trkpt>
      <trkpt lat="47.28723" lon="-2.36559">
        <ele>35.799999237061</ele>
        <time>2021-04-01T07:51:13.000Z</time>
      </trkpt>
      <trkpt lat="47.28726" lon="-2.36553">
        <ele>36.200000762939</ele>
        <time>2021-04-01T07:51:14.000Z</time>
      </trkpt>
      <trkpt lat="47.28738" lon="-2.3653">
        <ele>36.200000762939</ele>
        <time>2021-04-01T07:51:18.000Z</time>
      </trkpt>
      <trkpt lat="47.28757" lon="-2.36491">
        <ele>36.200000762939</ele>
        <time>2021-04-01T07:51:25.000Z</time>
      </trkpt>
      <trkpt lat="47.28759" lon="-2.36486">
        <ele>36.200000762939</ele>
        <time>2021-04-01T07:51:26.000Z</time>
      </trkpt>
      <trkpt lat="47.28771" lon="-2.36468">
        <ele>36.200000762939</ele>
        <time>2021-04-01T07:51:30.000Z</time>
      </trkpt>
      <trkpt lat="47.28778" lon="-2.36463">
        <ele>36.200000762939</ele>
        <time>2021-04-01T07:51:32.000Z</time>
      </trkpt>
      <trkpt lat="47.28786" lon="-2.36453">
        <ele>36.200000762939</ele>
        <time>2021-04-01T07:51:35.000Z</time>
      </trkpt>
      <trkpt lat="47.28797" lon="-2.36428">
        <ele>36.200000762939</ele>
        <time>2021-04-01T07:51:42.000Z</time>
      </trkpt>
      <trkpt lat="47.288" lon="-2.36422">
        <ele>36.200000762939</ele>
        <time>2021-04-01T07:51:44.000Z</time>
      </trkpt>
      <trkpt lat="47.28806" lon="-2.36418">
        <ele>36.200000762939</ele>
        <time>2021-04-01T07:51:46.000Z</time>
      </trkpt>
      <trkpt lat="47.28814" lon="-2.36416">
        <ele>36.200000762939</ele>
        <time>2021-04-01T07:51:48.000Z</time>
      </trkpt>
      <trkpt lat="47.2882" lon="-2.36413">
        <ele>36.599998474121</ele>
        <time>2021-04-01T07:51:50.000Z</time>
      </trkpt>
      <trkpt lat="47.28824" lon="-2.3641">
        <ele>37</ele>
        <time>2021-04-01T07:51:51.000Z</time>
      </trkpt>
      <trkpt lat="47.28827" lon="-2.36407">
        <ele>37.400001525879</ele>
        <time>2021-04-01T07:51:52.000Z</time>
      </trkpt>
      <trkpt lat="47.2883" lon="-2.36405">
        <ele>37.799999237061</ele>
        <time>2021-04-01T07:51:53.000Z</time>
      </trkpt>
      <trkpt lat="47.28833" lon="-2.36404">
        <ele>38.200000762939</ele>
        <time>2021-04-01T07:51:54.000Z</time>
      </trkpt>
      <trkpt lat="47.28844" lon="-2.36412">
        <ele>38.200000762939</ele>
        <time>2021-04-01T07:51:59.000Z</time>
      </trkpt>
      <trkpt lat="47.28845" lon="-2.36414">
        <ele>38.200000762939</ele>
        <time>2021-04-01T07:52:00.000Z</time>
      </trkpt>
      <trkpt lat="47.28851" lon="-2.36408">
        <ele>37.799999237061</ele>
        <time>2021-04-01T07:52:03.000Z</time>
      </trkpt>
      <trkpt lat="47.28854" lon="-2.36405">
        <ele>37.400001525879</ele>
        <time>2021-04-01T07:52:04.000Z</time>
      </trkpt>
      <trkpt lat="47.28858" lon="-2.36399">
        <ele>37</ele>
        <time>2021-04-01T07:52:05.000Z</time>
      </trkpt>
      <trkpt lat="47.28861" lon="-2.36393">
        <ele>36.400001525879</ele>
        <time>2021-04-01T07:52:06.000Z</time>
      </trkpt>
      <trkpt lat="47.28862" lon="-2.36388">
        <ele>35.799999237061</ele>
        <time>2021-04-01T07:52:07.000Z</time>
      </trkpt>
      <trkpt lat="47.28864" lon="-2.36381">
        <ele>35.200000762939</ele>
        <time>2021-04-01T07:52:08.000Z</time>
      </trkpt>
      <trkpt lat="47.28864" lon="-2.36376">
        <ele>34.400001525879</ele>
        <time>2021-04-01T07:52:09.000Z</time>
      </trkpt>
      <trkpt lat="47.28865" lon="-2.3637">
        <ele>33.799999237061</ele>
        <time>2021-04-01T07:52:10.000Z</time>
      </trkpt>
      <trkpt lat="47.28865" lon="-2.36365">
        <ele>33.400001525879</ele>
        <time>2021-04-01T07:52:11.000Z</time>
      </trkpt>
      <trkpt lat="47.28866" lon="-2.36359">
        <ele>33</ele>
        <time>2021-04-01T07:52:12.000Z</time>
      </trkpt>
      <trkpt lat="47.28868" lon="-2.36354">
        <ele>32.599998474121</ele>
        <time>2021-04-01T07:52:13.000Z</time>
      </trkpt>
      <trkpt lat="47.28871" lon="-2.36349">
        <ele>32.200000762939</ele>
        <time>2021-04-01T07:52:14.000Z</time>
      </trkpt>
      <trkpt lat="47.28873" lon="-2.36344">
        <ele>31.60000038147</ele>
        <time>2021-04-01T07:52:15.000Z</time>
      </trkpt>
      <trkpt lat="47.28876" lon="-2.3634">
        <ele>31.200000762939</ele>
        <time>2021-04-01T07:52:16.000Z</time>
      </trkpt>
      <trkpt lat="47.2888" lon="-2.36337">
        <ele>30.799999237061</ele>
        <time>2021-04-01T07:52:17.000Z</time>
      </trkpt>
      <trkpt lat="47.28885" lon="-2.36336">
        <ele>30.200000762939</ele>
        <time>2021-04-01T07:52:18.000Z</time>
      </trkpt>
      <trkpt lat="47.28891" lon="-2.36338">
        <ele>29.799999237061</ele>
        <time>2021-04-01T07:52:19.000Z</time>
      </trkpt>
      <trkpt lat="47.28898" lon="-2.36342">
        <ele>29.200000762939</ele>
        <time>2021-04-01T07:52:20.000Z</time>
      </trkpt>
      <trkpt lat="47.28906" lon="-2.36346">
        <ele>28.799999237061</ele>
        <time>2021-04-01T07:52:21.000Z</time>
      </trkpt>
      <trkpt lat="47.28913" lon="-2.36351">
        <ele>28.200000762939</ele>
        <time>2021-04-01T07:52:22.000Z</time>
      </trkpt>
      <trkpt lat="47.2892" lon="-2.36356">
        <ele>27.799999237061</ele>
        <time>2021-04-01T07:52:23.000Z</time>
      </trkpt>
      <trkpt lat="47.28928" lon="-2.36362">
        <ele>27.39999961853</ele>
        <time>2021-04-01T07:52:24.000Z</time>
      </trkpt>
      <trkpt lat="47.28936" lon="-2.36368">
        <ele>26.799999237061</ele>
        <time>2021-04-01T07:52:25.000Z</time>
      </trkpt>
      <trkpt lat="47.28951" lon="-2.36382">
        <ele>26.39999961853</ele>
        <time>2021-04-01T07:52:27.000Z</time>
      </trkpt>
      <trkpt lat="47.28959" lon="-2.36389">
        <ele>26</ele>
        <time>2021-04-01T07:52:28.000Z</time>
      </trkpt>
      <trkpt lat="47.28966" lon="-2.36396">
        <ele>25.60000038147</ele>
        <time>2021-04-01T07:52:29.000Z</time>
      </trkpt>
      <trkpt lat="47.28972" lon="-2.36405">
        <ele>25.200000762939</ele>
        <time>2021-04-01T07:52:30.000Z</time>
      </trkpt>
      <trkpt lat="47.28979" lon="-2.36415">
        <ele>24.799999237061</ele>
        <time>2021-04-01T07:52:31.000Z</time>
      </trkpt>
      <trkpt lat="47.28985" lon="-2.36425">
        <ele>24.799999237061</ele>
        <time>2021-04-01T07:52:32.000Z</time>
      </trkpt>
      <trkpt lat="47.28991" lon="-2.36435">
        <ele>24.39999961853</ele>
        <time>2021-04-01T07:52:33.000Z</time>
      </trkpt>
      <trkpt lat="47.28997" lon="-2.36445">
        <ele>24</ele>
        <time>2021-04-01T07:52:34.000Z</time>
      </trkpt>
      <trkpt lat="47.29002" lon="-2.36454">
        <ele>23.60000038147</ele>
        <time>2021-04-01T07:52:35.000Z</time>
      </trkpt>
      <trkpt lat="47.29007" lon="-2.36462">
        <ele>23.200000762939</ele>
        <time>2021-04-01T07:52:36.000Z</time>
      </trkpt>
      <trkpt lat="47.29012" lon="-2.3647">
        <ele>22.799999237061</ele>
        <time>2021-04-01T07:52:37.000Z</time>
      </trkpt>
      <trkpt lat="47.29022" lon="-2.36491">
        <ele>22.799999237061</ele>
        <time>2021-04-01T07:52:40.000Z</time>
      </trkpt>
      <trkpt lat="47.29024" lon="-2.36495">
        <ele>22.799999237061</ele>
        <time>2021-04-01T07:52:41.000Z</time>
      </trkpt>
      <trkpt lat="47.29023" lon="-2.36512">
        <ele>22.799999237061</ele>
        <time>2021-04-01T07:52:45.000Z</time>
      </trkpt>
      <trkpt lat="47.29008" lon="-2.36529">
        <ele>22.799999237061</ele>
        <time>2021-04-01T07:52:49.000Z</time>
      </trkpt>
      <trkpt lat="47.28971" lon="-2.36565">
        <ele>22.799999237061</ele>
        <time>2021-04-01T07:52:57.000Z</time>
      </trkpt>
      <trkpt lat="47.28951" lon="-2.36598">
        <ele>22.799999237061</ele>
        <time>2021-04-01T07:53:03.000Z</time>
      </trkpt>
      <trkpt lat="47.28927" lon="-2.36651">
        <ele>22.799999237061</ele>
        <time>2021-04-01T07:53:12.000Z</time>
      </trkpt>
      <trkpt lat="47.28917" lon="-2.36676">
        <ele>22.799999237061</ele>
        <time>2021-04-01T07:53:18.000Z</time>
      </trkpt>
      <trkpt lat="47.28903" lon="-2.36709">
        <ele>22.799999237061</ele>
        <time>2021-04-01T07:53:26.000Z</time>
      </trkpt>
      <trkpt lat="47.28887" lon="-2.36746">
        <ele>22.799999237061</ele>
        <time>2021-04-01T07:53:34.000Z</time>
      </trkpt>
      <trkpt lat="47.28881" lon="-2.36763">
        <ele>22.799999237061</ele>
        <time>2021-04-01T07:53:38.000Z</time>
      </trkpt>
      <trkpt lat="47.28881" lon="-2.36766">
        <ele>22.799999237061</ele>
        <time>2021-04-01T07:53:39.000Z</time>
      </trkpt>
      <trkpt lat="47.2888" lon="-2.36776">
        <ele>22.799999237061</ele>
        <time>2021-04-01T07:53:43.000Z</time>
      </trkpt>
      <trkpt lat="47.28881" lon="-2.36777">
        <ele>22.799999237061</ele>
        <time>2021-04-01T07:53:44.000Z</time>
      </trkpt>
      <trkpt lat="47.28889" lon="-2.36778">
        <ele>22.799999237061</ele>
        <time>2021-04-01T07:53:49.000Z</time>
      </trkpt>
      <trkpt lat="47.28905" lon="-2.36785">
        <ele>22.799999237061</ele>
        <time>2021-04-01T07:53:54.000Z</time>
      </trkpt>
      <trkpt lat="47.28909" lon="-2.36788">
        <ele>23.200000762939</ele>
        <time>2021-04-01T07:53:55.000Z</time>
      </trkpt>
      <trkpt lat="47.28912" lon="-2.36791">
        <ele>23.60000038147</ele>
        <time>2021-04-01T07:53:56.000Z</time>
      </trkpt>
      <trkpt lat="47.28917" lon="-2.36793">
        <ele>24</ele>
        <time>2021-04-01T07:53:57.000Z</time>
      </trkpt>
      <trkpt lat="47.2892" lon="-2.36796">
        <ele>24.60000038147</ele>
        <time>2021-04-01T07:53:58.000Z</time>
      </trkpt>
      <trkpt lat="47.28924" lon="-2.368">
        <ele>25</ele>
        <time>2021-04-01T07:53:59.000Z</time>
      </trkpt>
      <trkpt lat="47.28933" lon="-2.36808">
        <ele>25.39999961853</ele>
        <time>2021-04-01T07:54:01.000Z</time>
      </trkpt>
      <trkpt lat="47.28937" lon="-2.36812">
        <ele>25.799999237061</ele>
        <time>2021-04-01T07:54:02.000Z</time>
      </trkpt>
      <trkpt lat="47.28942" lon="-2.36816">
        <ele>26.200000762939</ele>
        <time>2021-04-01T07:54:03.000Z</time>
      </trkpt>
      <trkpt lat="47.28945" lon="-2.3682">
        <ele>26.60000038147</ele>
        <time>2021-04-01T07:54:04.000Z</time>
      </trkpt>
      <trkpt lat="47.2895" lon="-2.36824">
        <ele>27</ele>
        <time>2021-04-01T07:54:05.000Z</time>
      </trkpt>
      <trkpt lat="47.28968" lon="-2.3684">
        <ele>27</ele>
        <time>2021-04-01T07:54:09.000Z</time>
      </trkpt>
      <trkpt lat="47.29005" lon="-2.36874">
        <ele>27</ele>
        <time>2021-04-01T07:54:18.000Z</time>
      </trkpt>
      <trkpt lat="47.29013" lon="-2.3688">
        <ele>27</ele>
        <time>2021-04-01T07:54:20.000Z</time>
      </trkpt>
      <trkpt lat="47.29016" lon="-2.36884">
        <ele>27.39999961853</ele>
        <time>2021-04-01T07:54:21.000Z</time>
      </trkpt>
      <trkpt lat="47.2902" lon="-2.36887">
        <ele>27.799999237061</ele>
        <time>2021-04-01T07:54:22.000Z</time>
      </trkpt>
      <trkpt lat="47.29023" lon="-2.3689">
        <ele>28.60000038147</ele>
        <time>2021-04-01T07:54:23.000Z</time>
      </trkpt>
      <trkpt lat="47.29026" lon="-2.36893">
        <ele>29</ele>
        <time>2021-04-01T07:54:24.000Z</time>
      </trkpt>
      <trkpt lat="47.29037" lon="-2.36905">
        <ele>29</ele>
        <time>2021-04-01T07:54:29.000Z</time>
      </trkpt>
      <trkpt lat="47.29045" lon="-2.36915">
        <ele>29</ele>
        <time>2021-04-01T07:54:36.000Z</time>
      </trkpt>
      <trkpt lat="47.29048" lon="-2.3692">
        <ele>29.39999961853</ele>
        <time>2021-04-01T07:54:39.000Z</time>
      </trkpt>
      <trkpt lat="47.2905" lon="-2.36922">
        <ele>29.799999237061</ele>
        <time>2021-04-01T07:54:40.000Z</time>
      </trkpt>
      <trkpt lat="47.29052" lon="-2.36923">
        <ele>30.200000762939</ele>
        <time>2021-04-01T07:54:41.000Z</time>
      </trkpt>
      <trkpt lat="47.29055" lon="-2.36926">
        <ele>30.60000038147</ele>
        <time>2021-04-01T07:54:42.000Z</time>
      </trkpt>
      <trkpt lat="47.29059" lon="-2.36928">
        <ele>31</ele>
        <time>2021-04-01T07:54:43.000Z</time>
      </trkpt>
      <trkpt lat="47.29066" lon="-2.36933">
        <ele>31</ele>
        <time>2021-04-01T07:54:45.000Z</time>
      </trkpt>
      <trkpt lat="47.29086" lon="-2.36948">
        <ele>31</ele>
        <time>2021-04-01T07:54:51.000Z</time>
      </trkpt>
      <trkpt lat="47.29105" lon="-2.36953">
        <ele>31</ele>
        <time>2021-04-01T07:54:57.000Z</time>
      </trkpt>
      <trkpt lat="47.29121" lon="-2.36958">
        <ele>31</ele>
        <time>2021-04-01T07:55:02.000Z</time>
      </trkpt>
      <trkpt lat="47.29134" lon="-2.36966">
        <ele>31</ele>
        <time>2021-04-01T07:55:05.000Z</time>
      </trkpt>
      <trkpt lat="47.29139" lon="-2.3697">
        <ele>31.39999961853</ele>
        <time>2021-04-01T07:55:06.000Z</time>
      </trkpt>
      <trkpt lat="47.29143" lon="-2.36975">
        <ele>31.799999237061</ele>
        <time>2021-04-01T07:55:07.000Z</time>
      </trkpt>
      <trkpt lat="47.29147" lon="-2.36979">
        <ele>32.200000762939</ele>
        <time>2021-04-01T07:55:08.000Z</time>
      </trkpt>
      <trkpt lat="47.29152" lon="-2.36984">
        <ele>32.599998474121</ele>
        <time>2021-04-01T07:55:09.000Z</time>
      </trkpt>
      <trkpt lat="47.29156" lon="-2.36989">
        <ele>33</ele>
        <time>2021-04-01T07:55:10.000Z</time>
      </trkpt>
      <trkpt lat="47.29164" lon="-2.37">
        <ele>33</ele>
        <time>2021-04-01T07:55:12.000Z</time>
      </trkpt>
      <trkpt lat="47.29181" lon="-2.37023">
        <ele>33</ele>
        <time>2021-04-01T07:55:17.000Z</time>
      </trkpt>
      <trkpt lat="47.29188" lon="-2.3703">
        <ele>33</ele>
        <time>2021-04-01T07:55:19.000Z</time>
      </trkpt>
      <trkpt lat="47.29192" lon="-2.37034">
        <ele>33</ele>
        <time>2021-04-01T07:55:22.000Z</time>
      </trkpt>
      <trkpt lat="47.29192" lon="-2.37034">
        <ele>33</ele>
        <time>2021-04-01T07:55:23.000Z</time>
      </trkpt>
      <trkpt lat="47.29194" lon="-2.37038">
        <ele>33</ele>
        <time>2021-04-01T07:55:44.000Z</time>
      </trkpt>
      <trkpt lat="47.29197" lon="-2.37042">
        <ele>33</ele>
        <time>2021-04-01T07:55:46.000Z</time>
      </trkpt>
      <trkpt lat="47.2921" lon="-2.37059">
        <ele>33</ele>
        <time>2021-04-01T07:55:51.000Z</time>
      </trkpt>
      <trkpt lat="47.29233" lon="-2.37088">
        <ele>33</ele>
        <time>2021-04-01T07:55:57.000Z</time>
      </trkpt>
      <trkpt lat="47.29271" lon="-2.37128">
        <ele>33</ele>
        <time>2021-04-01T07:56:05.000Z</time>
      </trkpt>
      <trkpt lat="47.29305" lon="-2.37164">
        <ele>33</ele>
        <time>2021-04-01T07:56:12.000Z</time>
      </trkpt>
      <trkpt lat="47.29338" lon="-2.37193">
        <ele>33</ele>
        <time>2021-04-01T07:56:18.000Z</time>
      </trkpt>
      <trkpt lat="47.29383" lon="-2.37217">
        <ele>33</ele>
        <time>2021-04-01T07:56:25.000Z</time>
      </trkpt>
      <trkpt lat="47.29414" lon="-2.37231">
        <ele>33</ele>
        <time>2021-04-01T07:56:30.000Z</time>
      </trkpt>
      <trkpt lat="47.29419" lon="-2.37236">
        <ele>33</ele>
        <time>2021-04-01T07:56:31.000Z</time>
      </trkpt>
      <trkpt lat="47.29446" lon="-2.37267">
        <ele>33</ele>
        <time>2021-04-01T07:56:36.000Z</time>
      </trkpt>
      <trkpt lat="47.29486" lon="-2.3731">
        <ele>33</ele>
        <time>2021-04-01T07:56:44.000Z</time>
      </trkpt>
      <trkpt lat="47.29517" lon="-2.37346">
        <ele>33.400001525879</ele>
        <time>2021-04-01T07:56:50.000Z</time>
      </trkpt>
      <trkpt lat="47.29522" lon="-2.37351">
        <ele>34.400001525879</ele>
        <time>2021-04-01T07:56:51.000Z</time>
      </trkpt>
      <trkpt lat="47.29527" lon="-2.37356">
        <ele>34.799999237061</ele>
        <time>2021-04-01T07:56:52.000Z</time>
      </trkpt>
      <trkpt lat="47.29531" lon="-2.37362">
        <ele>35.200000762939</ele>
        <time>2021-04-01T07:56:53.000Z</time>
      </trkpt>
      <trkpt lat="47.29558" lon="-2.37395">
        <ele>35.200000762939</ele>
        <time>2021-04-01T07:56:59.000Z</time>
      </trkpt>
      <trkpt lat="47.29585" lon="-2.37439">
        <ele>35.200000762939</ele>
        <time>2021-04-01T07:57:06.000Z</time>
      </trkpt>
      <trkpt lat="47.29617" lon="-2.37488">
        <ele>35.200000762939</ele>
        <time>2021-04-01T07:57:13.000Z</time>
      </trkpt>
      <trkpt lat="47.29652" lon="-2.37515">
        <ele>35.200000762939</ele>
        <time>2021-04-01T07:57:18.000Z</time>
      </trkpt>
      <trkpt lat="47.29696" lon="-2.37548">
        <ele>35.200000762939</ele>
        <time>2021-04-01T07:57:24.000Z</time>
      </trkpt>
      <trkpt lat="47.29723" lon="-2.37579">
        <ele>35.200000762939</ele>
        <time>2021-04-01T07:57:29.000Z</time>
      </trkpt>
      <trkpt lat="47.29755" lon="-2.37625">
        <ele>35.200000762939</ele>
        <time>2021-04-01T07:57:36.000Z</time>
      </trkpt>
      <trkpt lat="47.29773" lon="-2.3765">
        <ele>36</ele>
        <time>2021-04-01T07:57:40.000Z</time>
      </trkpt>
      <trkpt lat="47.29777" lon="-2.37656">
        <ele>36.400001525879</ele>
        <time>2021-04-01T07:57:41.000Z</time>
      </trkpt>
      <trkpt lat="47.29782" lon="-2.37662">
        <ele>37</ele>
        <time>2021-04-01T07:57:42.000Z</time>
      </trkpt>
      <trkpt lat="47.29786" lon="-2.37668">
        <ele>37.400001525879</ele>
        <time>2021-04-01T07:57:43.000Z</time>
      </trkpt>
      <trkpt lat="47.2979" lon="-2.37674">
        <ele>37.400001525879</ele>
        <time>2021-04-01T07:57:44.000Z</time>
      </trkpt>
      <trkpt lat="47.29797" lon="-2.37687">
        <ele>37.400001525879</ele>
        <time>2021-04-01T07:57:46.000Z</time>
      </trkpt>
      <trkpt lat="47.29812" lon="-2.37711">
        <ele>37.400001525879</ele>
        <time>2021-04-01T07:57:50.000Z</time>
      </trkpt>
      <trkpt lat="47.29847" lon="-2.37766">
        <ele>37.400001525879</ele>
        <time>2021-04-01T07:57:59.000Z</time>
      </trkpt>
      <trkpt lat="47.29871" lon="-2.37803">
        <ele>37</ele>
        <time>2021-04-01T07:58:05.000Z</time>
      </trkpt>
      <trkpt lat="47.29872" lon="-2.3781">
        <ele>36.400001525879</ele>
        <time>2021-04-01T07:58:06.000Z</time>
      </trkpt>
      <trkpt lat="47.29871" lon="-2.37817">
        <ele>36</ele>
        <time>2021-04-01T07:58:07.000Z</time>
      </trkpt>
      <trkpt lat="47.29869" lon="-2.37822">
        <ele>35.599998474121</ele>
        <time>2021-04-01T07:58:08.000Z</time>
      </trkpt>
      <trkpt lat="47.29867" lon="-2.37828">
        <ele>35.200000762939</ele>
        <time>2021-04-01T07:58:09.000Z</time>
      </trkpt>
      <trkpt lat="47.29865" lon="-2.37834">
        <ele>35.200000762939</ele>
        <time>2021-04-01T07:58:10.000Z</time>
      </trkpt>
      <trkpt lat="47.29857" lon="-2.37853">
        <ele>35.200000762939</ele>
        <time>2021-04-01T07:58:13.000Z</time>
      </trkpt>
      <trkpt lat="47.29854" lon="-2.3786">
        <ele>35.200000762939</ele>
        <time>2021-04-01T07:58:14.000Z</time>
      </trkpt>
      <trkpt lat="47.2985" lon="-2.37866">
        <ele>35.200000762939</ele>
        <time>2021-04-01T07:58:15.000Z</time>
      </trkpt>
      <trkpt lat="47.29838" lon="-2.37879">
        <ele>35.200000762939</ele>
        <time>2021-04-01T07:58:18.000Z</time>
      </trkpt>
      <trkpt lat="47.29811" lon="-2.37896">
        <ele>35.200000762939</ele>
        <time>2021-04-01T07:58:24.000Z</time>
      </trkpt>
      <trkpt lat="47.29782" lon="-2.37914">
        <ele>35.200000762939</ele>
        <time>2021-04-01T07:58:30.000Z</time>
      </trkpt>
      <trkpt lat="47.29751" lon="-2.37944">
        <ele>35.200000762939</ele>
        <time>2021-04-01T07:58:36.000Z</time>
      </trkpt>
      <trkpt lat="47.29745" lon="-2.37956">
        <ele>35.200000762939</ele>
        <time>2021-04-01T07:58:38.000Z</time>
      </trkpt>
      <trkpt lat="47.29739" lon="-2.37969">
        <ele>34.799999237061</ele>
        <time>2021-04-01T07:58:40.000Z</time>
      </trkpt>
      <trkpt lat="47.29736" lon="-2.37975">
        <ele>34.200000762939</ele>
        <time>2021-04-01T07:58:41.000Z</time>
      </trkpt>
      <trkpt lat="47.29734" lon="-2.37981">
        <ele>33.799999237061</ele>
        <time>2021-04-01T07:58:42.000Z</time>
      </trkpt>
      <trkpt lat="47.29732" lon="-2.37987">
        <ele>33.200000762939</ele>
        <time>2021-04-01T07:58:43.000Z</time>
      </trkpt>
      <trkpt lat="47.29731" lon="-2.37993">
        <ele>32.599998474121</ele>
        <time>2021-04-01T07:58:44.000Z</time>
      </trkpt>
      <trkpt lat="47.29731" lon="-2.37999">
        <ele>32.200000762939</ele>
        <time>2021-04-01T07:58:45.000Z</time>
      </trkpt>
      <trkpt lat="47.29731" lon="-2.38004">
        <ele>31.60000038147</ele>
        <time>2021-04-01T07:58:46.000Z</time>
      </trkpt>
      <trkpt lat="47.29732" lon="-2.38009">
        <ele>31</ele>
        <time>2021-04-01T07:58:47.000Z</time>
      </trkpt>
      <trkpt lat="47.29733" lon="-2.38014">
        <ele>30.39999961853</ele>
        <time>2021-04-01T07:58:48.000Z</time>
      </trkpt>
      <trkpt lat="47.29733" lon="-2.38018">
        <ele>29.60000038147</ele>
        <time>2021-04-01T07:58:49.000Z</time>
      </trkpt>
      <trkpt lat="47.29735" lon="-2.38022">
        <ele>29</ele>
        <time>2021-04-01T07:58:50.000Z</time>
      </trkpt>
      <trkpt lat="47.29735" lon="-2.38026">
        <ele>28.39999961853</ele>
        <time>2021-04-01T07:58:51.000Z</time>
      </trkpt>
      <trkpt lat="47.29735" lon="-2.38029">
        <ele>27.60000038147</ele>
        <time>2021-04-01T07:58:52.000Z</time>
      </trkpt>
      <trkpt lat="47.29734" lon="-2.38032">
        <ele>27</ele>
        <time>2021-04-01T07:58:53.000Z</time>
      </trkpt>
      <trkpt lat="47.29732" lon="-2.38035">
        <ele>26.39999961853</ele>
        <time>2021-04-01T07:58:54.000Z</time>
      </trkpt>
      <trkpt lat="47.2973" lon="-2.38037">
        <ele>25.60000038147</ele>
        <time>2021-04-01T07:58:55.000Z</time>
      </trkpt>
      <trkpt lat="47.29726" lon="-2.38039">
        <ele>25.200000762939</ele>
        <time>2021-04-01T07:58:56.000Z</time>
      </trkpt>
      <trkpt lat="47.29722" lon="-2.38042">
        <ele>24.799999237061</ele>
        <time>2021-04-01T07:58:57.000Z</time>
      </trkpt>
      <trkpt lat="47.29717" lon="-2.38046">
        <ele>24.39999961853</ele>
        <time>2021-04-01T07:58:58.000Z</time>
      </trkpt>
      <trkpt lat="47.29712" lon="-2.38051">
        <ele>23.799999237061</ele>
        <time>2021-04-01T07:58:59.000Z</time>
      </trkpt>
      <trkpt lat="47.29706" lon="-2.38056">
        <ele>23.39999961853</ele>
        <time>2021-04-01T07:59:00.000Z</time>
      </trkpt>
      <trkpt lat="47.29699" lon="-2.38062">
        <ele>22.799999237061</ele>
        <time>2021-04-01T07:59:01.000Z</time>
      </trkpt>
      <trkpt lat="47.29693" lon="-2.38068">
        <ele>22.39999961853</ele>
        <time>2021-04-01T07:59:02.000Z</time>
      </trkpt>
      <trkpt lat="47.29687" lon="-2.38073">
        <ele>21.799999237061</ele>
        <time>2021-04-01T07:59:03.000Z</time>
      </trkpt>
      <trkpt lat="47.2968" lon="-2.38077">
        <ele>21.200000762939</ele>
        <time>2021-04-01T07:59:04.000Z</time>
      </trkpt>
      <trkpt lat="47.29674" lon="-2.38081">
        <ele>20.60000038147</ele>
        <time>2021-04-01T07:59:05.000Z</time>
      </trkpt>
      <trkpt lat="47.29667" lon="-2.38085">
        <ele>20</ele>
        <time>2021-04-01T07:59:06.000Z</time>
      </trkpt>
      <trkpt lat="47.2966" lon="-2.38089">
        <ele>19.39999961853</ele>
        <time>2021-04-01T07:59:07.000Z</time>
      </trkpt>
      <trkpt lat="47.29653" lon="-2.38092">
        <ele>18.60000038147</ele>
        <time>2021-04-01T07:59:08.000Z</time>
      </trkpt>
      <trkpt lat="47.29646" lon="-2.38096">
        <ele>18</ele>
        <time>2021-04-01T07:59:09.000Z</time>
      </trkpt>
      <trkpt lat="47.29639" lon="-2.381">
        <ele>17.39999961853</ele>
        <time>2021-04-01T07:59:10.000Z</time>
      </trkpt>
      <trkpt lat="47.29633" lon="-2.38104">
        <ele>16.799999237061</ele>
        <time>2021-04-01T07:59:11.000Z</time>
      </trkpt>
      <trkpt lat="47.29626" lon="-2.38107">
        <ele>16.200000762939</ele>
        <time>2021-04-01T07:59:12.000Z</time>
      </trkpt>
      <trkpt lat="47.29619" lon="-2.38109">
        <ele>15.800000190735</ele>
        <time>2021-04-01T07:59:13.000Z</time>
      </trkpt>
      <trkpt lat="47.29612" lon="-2.38112">
        <ele>15.199999809265</ele>
        <time>2021-04-01T07:59:14.000Z</time>
      </trkpt>
      <trkpt lat="47.29605" lon="-2.38114">
        <ele>14.60000038147</ele>
        <time>2021-04-01T07:59:15.000Z</time>
      </trkpt>
      <trkpt lat="47.29577" lon="-2.38121">
        <ele>13.800000190735</ele>
        <time>2021-04-01T07:59:19.000Z</time>
      </trkpt>
      <trkpt lat="47.2957" lon="-2.38123">
        <ele>13.39999961853</ele>
        <time>2021-04-01T07:59:20.000Z</time>
      </trkpt>
      <trkpt lat="47.29562" lon="-2.38124">
        <ele>13</ele>
        <time>2021-04-01T07:59:21.000Z</time>
      </trkpt>
      <trkpt lat="47.29555" lon="-2.38125">
        <ele>12.39999961853</ele>
        <time>2021-04-01T07:59:22.000Z</time>
      </trkpt>
      <trkpt lat="47.29533" lon="-2.38126">
        <ele>12</ele>
        <time>2021-04-01T07:59:25.000Z</time>
      </trkpt>
      <trkpt lat="47.29525" lon="-2.38126">
        <ele>11.60000038147</ele>
        <time>2021-04-01T07:59:26.000Z</time>
      </trkpt>
      <trkpt lat="47.29518" lon="-2.38125">
        <ele>11.199999809265</ele>
        <time>2021-04-01T07:59:27.000Z</time>
      </trkpt>
      <trkpt lat="47.2951" lon="-2.38124">
        <ele>10.800000190735</ele>
        <time>2021-04-01T07:59:28.000Z</time>
      </trkpt>
      <trkpt lat="47.29502" lon="-2.38123">
        <ele>10.39999961853</ele>
        <time>2021-04-01T07:59:29.000Z</time>
      </trkpt>
      <trkpt lat="47.29495" lon="-2.38125">
        <ele>10.39999961853</ele>
        <time>2021-04-01T07:59:30.000Z</time>
      </trkpt>
      <trkpt lat="47.2948" lon="-2.38131">
        <ele>10.39999961853</ele>
        <time>2021-04-01T07:59:32.000Z</time>
      </trkpt>
      <trkpt lat="47.29469" lon="-2.38139">
        <ele>9.8000001907349</ele>
        <time>2021-04-01T07:59:34.000Z</time>
      </trkpt>
      <trkpt lat="47.29464" lon="-2.38143">
        <ele>9.3999996185303</ele>
        <time>2021-04-01T07:59:35.000Z</time>
      </trkpt>
      <trkpt lat="47.29459" lon="-2.38147">
        <ele>9</ele>
        <time>2021-04-01T07:59:36.000Z</time>
      </trkpt>
      <trkpt lat="47.29455" lon="-2.3815">
        <ele>8.6000003814697</ele>
        <time>2021-04-01T07:59:37.000Z</time>
      </trkpt>
      <trkpt lat="47.29453" lon="-2.38151">
        <ele>8.1999998092651</ele>
        <time>2021-04-01T07:59:38.000Z</time>
      </trkpt>
      <trkpt lat="47.2945" lon="-2.38153">
        <ele>7.8000001907349</ele>
        <time>2021-04-01T07:59:39.000Z</time>
      </trkpt>
      <trkpt lat="47.29449" lon="-2.38156">
        <ele>7.1999998092651</ele>
        <time>2021-04-01T07:59:40.000Z</time>
      </trkpt>
      <trkpt lat="47.29449" lon="-2.3816">
        <ele>6.8000001907349</ele>
        <time>2021-04-01T07:59:41.000Z</time>
      </trkpt>
      <trkpt lat="47.29449" lon="-2.38166">
        <ele>6.4000000953674</ele>
        <time>2021-04-01T07:59:42.000Z</time>
      </trkpt>
      <trkpt lat="47.2945" lon="-2.38171">
        <ele>6</ele>
        <time>2021-04-01T07:59:43.000Z</time>
      </trkpt>
      <trkpt lat="47.29451" lon="-2.38177">
        <ele>6</ele>
        <time>2021-04-01T07:59:44.000Z</time>
      </trkpt>
      <trkpt lat="47.29452" lon="-2.38183">
        <ele>6</ele>
        <time>2021-04-01T07:59:45.000Z</time>
      </trkpt>
      <trkpt lat="47.29453" lon="-2.38189">
        <ele>6</ele>
        <time>2021-04-01T07:59:46.000Z</time>
      </trkpt>
      <trkpt lat="47.29455" lon="-2.38217">
        <ele>6</ele>
        <time>2021-04-01T07:59:50.000Z</time>
      </trkpt>
      <trkpt lat="47.29459" lon="-2.3826">
        <ele>6</ele>
        <time>2021-04-01T07:59:57.000Z</time>
      </trkpt>
      <trkpt lat="47.29459" lon="-2.38306">
        <ele>6</ele>
        <time>2021-04-01T08:00:03.000Z</time>
      </trkpt>
      <trkpt lat="47.29458" lon="-2.38382">
        <ele>6</ele>
        <time>2021-04-01T08:00:11.000Z</time>
      </trkpt>
      <trkpt lat="47.29462" lon="-2.38468">
        <ele>6</ele>
        <time>2021-04-01T08:00:20.000Z</time>
      </trkpt>
      <trkpt lat="47.29463" lon="-2.38516">
        <ele>6</ele>
        <time>2021-04-01T08:00:26.000Z</time>
      </trkpt>
      <trkpt lat="47.29464" lon="-2.38573">
        <ele>6</ele>
        <time>2021-04-01T08:00:34.000Z</time>
      </trkpt>
      <trkpt lat="47.29464" lon="-2.38595">
        <ele>6</ele>
        <time>2021-04-01T08:00:37.000Z</time>
      </trkpt>
      <trkpt lat="47.29467" lon="-2.38624">
        <ele>6</ele>
        <time>2021-04-01T08:00:41.000Z</time>
      </trkpt>
      <trkpt lat="47.29468" lon="-2.38646">
        <ele>6</ele>
        <time>2021-04-01T08:00:44.000Z</time>
      </trkpt>
      <trkpt lat="47.2947" lon="-2.38668">
        <ele>6</ele>
        <time>2021-04-01T08:00:47.000Z</time>
      </trkpt>
      <trkpt lat="47.29476" lon="-2.38722">
        <ele>6</ele>
        <time>2021-04-01T08:00:54.000Z</time>
      </trkpt>
      <trkpt lat="47.29476" lon="-2.3873">
        <ele>6</ele>
        <time>2021-04-01T08:00:55.000Z</time>
      </trkpt>
      <trkpt lat="47.29476" lon="-2.38776">
        <ele>6</ele>
        <time>2021-04-01T08:01:01.000Z</time>
      </trkpt>
      <trkpt lat="47.29477" lon="-2.3883">
        <ele>6</ele>
        <time>2021-04-01T08:01:08.000Z</time>
      </trkpt>
      <trkpt lat="47.29478" lon="-2.38836">
        <ele>6</ele>
        <time>2021-04-01T08:01:09.000Z</time>
      </trkpt>
      <trkpt lat="47.29485" lon="-2.38868">
        <ele>6</ele>
        <time>2021-04-01T08:01:14.000Z</time>
      </trkpt>
      <trkpt lat="47.29489" lon="-2.38883">
        <ele>6</ele>
        <time>2021-04-01T08:01:16.000Z</time>
      </trkpt>
      <trkpt lat="47.29496" lon="-2.38906">
        <ele>6</ele>
        <time>2021-04-01T08:01:19.000Z</time>
      </trkpt>
      <trkpt lat="47.29508" lon="-2.38936">
        <ele>6.8000001907349</ele>
        <time>2021-04-01T08:01:23.000Z</time>
      </trkpt>
      <trkpt lat="47.29512" lon="-2.38942">
        <ele>7.1999998092651</ele>
        <time>2021-04-01T08:01:24.000Z</time>
      </trkpt>
      <trkpt lat="47.29516" lon="-2.38948">
        <ele>7.5999999046326</ele>
        <time>2021-04-01T08:01:25.000Z</time>
      </trkpt>
      <trkpt lat="47.29521" lon="-2.38954">
        <ele>8</ele>
        <time>2021-04-01T08:01:26.000Z</time>
      </trkpt>
      <trkpt lat="47.29531" lon="-2.38963">
        <ele>8</ele>
        <time>2021-04-01T08:01:28.000Z</time>
      </trkpt>
      <trkpt lat="47.29552" lon="-2.38979">
        <ele>8</ele>
        <time>2021-04-01T08:01:32.000Z</time>
      </trkpt>
      <trkpt lat="47.29592" lon="-2.38997">
        <ele>8</ele>
        <time>2021-04-01T08:01:39.000Z</time>
      </trkpt>
      <trkpt lat="47.29619" lon="-2.39012">
        <ele>8</ele>
        <time>2021-04-01T08:01:45.000Z</time>
      </trkpt>
      <trkpt lat="47.29627" lon="-2.39029">
        <ele>8</ele>
        <time>2021-04-01T08:01:48.000Z</time>
      </trkpt>
      <trkpt lat="47.29629" lon="-2.39046">
        <ele>8</ele>
        <time>2021-04-01T08:01:50.000Z</time>
      </trkpt>
      <trkpt lat="47.2963" lon="-2.39055">
        <ele>8</ele>
        <time>2021-04-01T08:01:51.000Z</time>
      </trkpt>
      <trkpt lat="47.2963" lon="-2.39064">
        <ele>8</ele>
        <time>2021-04-01T08:01:52.000Z</time>
      </trkpt>
      <trkpt lat="47.29631" lon="-2.39129">
        <ele>8</ele>
        <time>2021-04-01T08:01:59.000Z</time>
      </trkpt>
      <trkpt lat="47.29635" lon="-2.39155">
        <ele>8</ele>
        <time>2021-04-01T08:02:02.000Z</time>
      </trkpt>
      <trkpt lat="47.29642" lon="-2.39172">
        <ele>8</ele>
        <time>2021-04-01T08:02:04.000Z</time>
      </trkpt>
      <trkpt lat="47.29658" lon="-2.39185">
        <ele>7.5999999046326</ele>
        <time>2021-04-01T08:02:07.000Z</time>
      </trkpt>
      <trkpt lat="47.29662" lon="-2.3919">
        <ele>7.1999998092651</ele>
        <time>2021-04-01T08:02:08.000Z</time>
      </trkpt>
      <trkpt lat="47.29665" lon="-2.39195">
        <ele>6.8000001907349</ele>
        <time>2021-04-01T08:02:09.000Z</time>
      </trkpt>
      <trkpt lat="47.29667" lon="-2.392">
        <ele>6.4000000953674</ele>
        <time>2021-04-01T08:02:10.000Z</time>
      </trkpt>
      <trkpt lat="47.29666" lon="-2.39207">
        <ele>6</ele>
        <time>2021-04-01T08:02:11.000Z</time>
      </trkpt>
      <trkpt lat="47.2966" lon="-2.39232">
        <ele>6</ele>
        <time>2021-04-01T08:02:14.000Z</time>
      </trkpt>
      <trkpt lat="47.29658" lon="-2.39242">
        <ele>6</ele>
        <time>2021-04-01T08:02:15.000Z</time>
      </trkpt>
      <trkpt lat="47.29648" lon="-2.39313">
        <ele>6</ele>
        <time>2021-04-01T08:02:22.000Z</time>
      </trkpt>
      <trkpt lat="47.29642" lon="-2.39378">
        <ele>6</ele>
        <time>2021-04-01T08:02:29.000Z</time>
      </trkpt>
      <trkpt lat="47.2964" lon="-2.39387">
        <ele>6</ele>
        <time>2021-04-01T08:02:30.000Z</time>
      </trkpt>
      <trkpt lat="47.29634" lon="-2.39415">
        <ele>6</ele>
        <time>2021-04-01T08:02:33.000Z</time>
      </trkpt>
      <trkpt lat="47.29624" lon="-2.3945">
        <ele>6</ele>
        <time>2021-04-01T08:02:37.000Z</time>
      </trkpt>
      <trkpt lat="47.29615" lon="-2.39464">
        <ele>6</ele>
        <time>2021-04-01T08:02:39.000Z</time>
      </trkpt>
      <trkpt lat="47.296" lon="-2.39489">
        <ele>6</ele>
        <time>2021-04-01T08:02:43.000Z</time>
      </trkpt>
      <trkpt lat="47.29596" lon="-2.39495">
        <ele>6</ele>
        <time>2021-04-01T08:02:44.000Z</time>
      </trkpt>
      <trkpt lat="47.29585" lon="-2.39499">
        <ele>6</ele>
        <time>2021-04-01T08:02:46.000Z</time>
      </trkpt>
      <trkpt lat="47.29569" lon="-2.39494">
        <ele>6</ele>
        <time>2021-04-01T08:02:49.000Z</time>
      </trkpt>
      <trkpt lat="47.29564" lon="-2.39493">
        <ele>6</ele>
        <time>2021-04-01T08:02:50.000Z</time>
      </trkpt>
      <trkpt lat="47.29557" lon="-2.39499">
        <ele>6</ele>
        <time>2021-04-01T08:02:52.000Z</time>
      </trkpt>
      <trkpt lat="47.29556" lon="-2.39513">
        <ele>6</ele>
        <time>2021-04-01T08:02:55.000Z</time>
      </trkpt>
      <trkpt lat="47.29556" lon="-2.39517">
        <ele>6</ele>
        <time>2021-04-01T08:02:56.000Z</time>
      </trkpt>
      <trkpt lat="47.29557" lon="-2.39529">
        <ele>6</ele>
        <time>2021-04-01T08:03:00.000Z</time>
      </trkpt>
      <trkpt lat="47.29557" lon="-2.39534">
        <ele>6</ele>
        <time>2021-04-01T08:03:01.000Z</time>
      </trkpt>
      <trkpt lat="47.29557" lon="-2.39542">
        <ele>6</ele>
        <time>2021-04-01T08:03:03.000Z</time>
      </trkpt>
      <trkpt lat="47.29561" lon="-2.39545">
        <ele>6.4000000953674</ele>
        <time>2021-04-01T08:03:05.000Z</time>
      </trkpt>
      <trkpt lat="47.29564" lon="-2.39545">
        <ele>6.8000001907349</ele>
        <time>2021-04-01T08:03:06.000Z</time>
      </trkpt>
      <trkpt lat="47.29567" lon="-2.39545">
        <ele>7.1999998092651</ele>
        <time>2021-04-01T08:03:07.000Z</time>
      </trkpt>
      <trkpt lat="47.2957" lon="-2.39545">
        <ele>7.5999999046326</ele>
        <time>2021-04-01T08:03:08.000Z</time>
      </trkpt>
      <trkpt lat="47.29573" lon="-2.39545">
        <ele>8</ele>
        <time>2021-04-01T08:03:09.000Z</time>
      </trkpt>
      <trkpt lat="47.29585" lon="-2.39546">
        <ele>8</ele>
        <time>2021-04-01T08:03:13.000Z</time>
      </trkpt>
      <trkpt lat="47.2959" lon="-2.39547">
        <ele>8.3999996185303</ele>
        <time>2021-04-01T08:03:15.000Z</time>
      </trkpt>
      <trkpt lat="47.29592" lon="-2.39547">
        <ele>8.8000001907349</ele>
        <time>2021-04-01T08:03:16.000Z</time>
      </trkpt>
      <trkpt lat="47.29595" lon="-2.39548">
        <ele>9.3999996185303</ele>
        <time>2021-04-01T08:03:17.000Z</time>
      </trkpt>
      <trkpt lat="47.29598" lon="-2.39548">
        <ele>9.8000001907349</ele>
        <time>2021-04-01T08:03:18.000Z</time>
      </trkpt>
      <trkpt lat="47.29602" lon="-2.39549">
        <ele>10.199999809265</ele>
        <time>2021-04-01T08:03:19.000Z</time>
      </trkpt>
      <trkpt lat="47.29606" lon="-2.3955">
        <ele>10.199999809265</ele>
        <time>2021-04-01T08:03:20.000Z</time>
      </trkpt>
      <trkpt lat="47.29622" lon="-2.39554">
        <ele>10.199999809265</ele>
        <time>2021-04-01T08:03:24.000Z</time>
      </trkpt>
      <trkpt lat="47.29626" lon="-2.39557">
        <ele>10.199999809265</ele>
        <time>2021-04-01T08:03:26.000Z</time>
      </trkpt>
      <trkpt lat="47.29625" lon="-2.3956">
        <ele>9.8000001907349</ele>
        <time>2021-04-01T08:03:27.000Z</time>
      </trkpt>
      <trkpt lat="47.29623" lon="-2.39562">
        <ele>9.3999996185303</ele>
        <time>2021-04-01T08:03:28.000Z</time>
      </trkpt>
      <trkpt lat="47.29619" lon="-2.39564">
        <ele>9</ele>
        <time>2021-04-01T08:03:29.000Z</time>
      </trkpt>
      <trkpt lat="47.29615" lon="-2.39565">
        <ele>8.6000003814697</ele>
        <time>2021-04-01T08:03:30.000Z</time>
      </trkpt>
      <trkpt lat="47.29612" lon="-2.39566">
        <ele>8.1999998092651</ele>
        <time>2021-04-01T08:03:31.000Z</time>
      </trkpt>
      <trkpt lat="47.2961" lon="-2.39568">
        <ele>8.1999998092651</ele>
        <time>2021-04-01T08:03:32.000Z</time>
      </trkpt>
      <trkpt lat="47.29618" lon="-2.39576">
        <ele>8.1999998092651</ele>
        <time>2021-04-01T08:03:35.000Z</time>
      </trkpt>
      <trkpt lat="47.29623" lon="-2.39576">
        <ele>7.8000001907349</ele>
        <time>2021-04-01T08:03:36.000Z</time>
      </trkpt>
      <trkpt lat="47.29627" lon="-2.39576">
        <ele>7.1999998092651</ele>
        <time>2021-04-01T08:03:37.000Z</time>
      </trkpt>
      <trkpt lat="47.2963" lon="-2.39579">
        <ele>6.8000001907349</ele>
        <time>2021-04-01T08:03:38.000Z</time>
      </trkpt>
      <trkpt lat="47.29632" lon="-2.39583">
        <ele>6.4000000953674</ele>
        <time>2021-04-01T08:03:39.000Z</time>
      </trkpt>
      <trkpt lat="47.29632" lon="-2.39589">
        <ele>6</ele>
        <time>2021-04-01T08:03:40.000Z</time>
      </trkpt>
      <trkpt lat="47.29632" lon="-2.39595">
        <ele>6</ele>
        <time>2021-04-01T08:03:41.000Z</time>
      </trkpt>
      <trkpt lat="47.29632" lon="-2.39602">
        <ele>6</ele>
        <time>2021-04-01T08:03:42.000Z</time>
      </trkpt>
      <trkpt lat="47.2963" lon="-2.39629">
        <ele>6</ele>
        <time>2021-04-01T08:03:46.000Z</time>
      </trkpt>
      <trkpt lat="47.2963" lon="-2.39636">
        <ele>6</ele>
        <time>2021-04-01T08:03:47.000Z</time>
      </trkpt>
      <trkpt lat="47.29629" lon="-2.39644">
        <ele>6</ele>
        <time>2021-04-01T08:03:48.000Z</time>
      </trkpt>
      <trkpt lat="47.29621" lon="-2.39665">
        <ele>6</ele>
        <time>2021-04-01T08:03:51.000Z</time>
      </trkpt>
      <trkpt lat="47.29604" lon="-2.39693">
        <ele>5.5999999046326</ele>
        <time>2021-04-01T08:03:55.000Z</time>
      </trkpt>
      <trkpt lat="47.296" lon="-2.397">
        <ele>5.1999998092651</ele>
        <time>2021-04-01T08:03:56.000Z</time>
      </trkpt>
      <trkpt lat="47.29597" lon="-2.39708">
        <ele>4.8000001907349</ele>
        <time>2021-04-01T08:03:57.000Z</time>
      </trkpt>
      <trkpt lat="47.29593" lon="-2.39714">
        <ele>4.4000000953674</ele>
        <time>2021-04-01T08:03:58.000Z</time>
      </trkpt>
      <trkpt lat="47.29589" lon="-2.39721">
        <ele>4</ele>
        <time>2021-04-01T08:03:59.000Z</time>
      </trkpt>
      <trkpt lat="47.29573" lon="-2.39749">
        <ele>4</ele>
        <time>2021-04-01T08:04:03.000Z</time>
      </trkpt>
      <trkpt lat="47.29548" lon="-2.39807">
        <ele>4</ele>
        <time>2021-04-01T08:04:11.000Z</time>
      </trkpt>
      <trkpt lat="47.29529" lon="-2.39843">
        <ele>4</ele>
        <time>2021-04-01T08:04:17.000Z</time>
      </trkpt>
      <trkpt lat="47.2951" lon="-2.39883">
        <ele>4</ele>
        <time>2021-04-01T08:04:24.000Z</time>
      </trkpt>
      <trkpt lat="47.29505" lon="-2.39891">
        <ele>4</ele>
        <time>2021-04-01T08:04:26.000Z</time>
      </trkpt>
      <trkpt lat="47.29502" lon="-2.39895">
        <ele>4</ele>
        <time>2021-04-01T08:04:27.000Z</time>
      </trkpt>
      <trkpt lat="47.29499" lon="-2.39899">
        <ele>4</ele>
        <time>2021-04-01T08:04:29.000Z</time>
      </trkpt>
      <trkpt lat="47.29492" lon="-2.39907">
        <ele>4</ele>
        <time>2021-04-01T08:04:35.000Z</time>
      </trkpt>
      <trkpt lat="47.29486" lon="-2.39923">
        <ele>4</ele>
        <time>2021-04-01T08:04:39.000Z</time>
      </trkpt>
      <trkpt lat="47.29483" lon="-2.39934">
        <ele>4</ele>
        <time>2021-04-01T08:04:41.000Z</time>
      </trkpt>
      <trkpt lat="47.29479" lon="-2.39943">
        <ele>4</ele>
        <time>2021-04-01T08:04:43.000Z</time>
      </trkpt>
      <trkpt lat="47.29467" lon="-2.39976">
        <ele>4</ele>
        <time>2021-04-01T08:04:49.000Z</time>
      </trkpt>
      <trkpt lat="47.29464" lon="-2.39988">
        <ele>4</ele>
        <time>2021-04-01T08:04:51.000Z</time>
      </trkpt>
      <trkpt lat="47.29462" lon="-2.40001">
        <ele>4</ele>
        <time>2021-04-01T08:04:53.000Z</time>
      </trkpt>
      <trkpt lat="47.29462" lon="-2.40007">
        <ele>4</ele>
        <time>2021-04-01T08:04:54.000Z</time>
      </trkpt>
      <trkpt lat="47.29463" lon="-2.40043">
        <ele>4</ele>
        <time>2021-04-01T08:05:00.000Z</time>
      </trkpt>
      <trkpt lat="47.29464" lon="-2.4008">
        <ele>4</ele>
        <time>2021-04-01T08:05:06.000Z</time>
      </trkpt>
      <trkpt lat="47.29463" lon="-2.40092">
        <ele>4</ele>
        <time>2021-04-01T08:05:08.000Z</time>
      </trkpt>
      <trkpt lat="47.29458" lon="-2.40131">
        <ele>4</ele>
        <time>2021-04-01T08:05:14.000Z</time>
      </trkpt>
      <trkpt lat="47.29454" lon="-2.40179">
        <ele>4</ele>
        <time>2021-04-01T08:05:21.000Z</time>
      </trkpt>
      <trkpt lat="47.29449" lon="-2.40207">
        <ele>4</ele>
        <time>2021-04-01T08:05:25.000Z</time>
      </trkpt>
      <trkpt lat="47.29445" lon="-2.40219">
        <ele>4</ele>
        <time>2021-04-01T08:05:27.000Z</time>
      </trkpt>
      <trkpt lat="47.29431" lon="-2.4022">
        <ele>4</ele>
        <time>2021-04-01T08:05:30.000Z</time>
      </trkpt>
      <trkpt lat="47.29411" lon="-2.40228">
        <ele>4</ele>
        <time>2021-04-01T08:05:34.000Z</time>
      </trkpt>
      <trkpt lat="47.29377" lon="-2.40249">
        <ele>4</ele>
        <time>2021-04-01T08:05:41.000Z</time>
      </trkpt>
      <trkpt lat="47.29367" lon="-2.40259">
        <ele>4</ele>
        <time>2021-04-01T08:05:43.000Z</time>
      </trkpt>
      <trkpt lat="47.29352" lon="-2.40273">
        <ele>4</ele>
        <time>2021-04-01T08:05:46.000Z</time>
      </trkpt>
      <trkpt lat="47.29346" lon="-2.40277">
        <ele>4</ele>
        <time>2021-04-01T08:05:47.000Z</time>
      </trkpt>
      <trkpt lat="47.29326" lon="-2.40298">
        <ele>4</ele>
        <time>2021-04-01T08:05:51.000Z</time>
      </trkpt>
      <trkpt lat="47.29292" lon="-2.40336">
        <ele>4</ele>
        <time>2021-04-01T08:05:58.000Z</time>
      </trkpt>
      <trkpt lat="47.29289" lon="-2.40342">
        <ele>4</ele>
        <time>2021-04-01T08:05:59.000Z</time>
      </trkpt>
      <trkpt lat="47.29287" lon="-2.40359">
        <ele>4</ele>
        <time>2021-04-01T08:06:01.000Z</time>
      </trkpt>
      <trkpt lat="47.29296" lon="-2.40381">
        <ele>4</ele>
        <time>2021-04-01T08:06:04.000Z</time>
      </trkpt>
      <trkpt lat="47.29304" lon="-2.40395">
        <ele>4</ele>
        <time>2021-04-01T08:06:06.000Z</time>
      </trkpt>
      <trkpt lat="47.29309" lon="-2.4041">
        <ele>4</ele>
        <time>2021-04-01T08:06:08.000Z</time>
      </trkpt>
      <trkpt lat="47.29308" lon="-2.40419">
        <ele>4</ele>
        <time>2021-04-01T08:06:09.000Z</time>
      </trkpt>
      <trkpt lat="47.29298" lon="-2.40443">
        <ele>4</ele>
        <time>2021-04-01T08:06:12.000Z</time>
      </trkpt>
      <trkpt lat="47.29289" lon="-2.40465">
        <ele>4</ele>
        <time>2021-04-01T08:06:15.000Z</time>
      </trkpt>
      <trkpt lat="47.29278" lon="-2.40473">
        <ele>4</ele>
        <time>2021-04-01T08:06:17.000Z</time>
      </trkpt>
      <trkpt lat="47.29254" lon="-2.40482">
        <ele>4</ele>
        <time>2021-04-01T08:06:21.000Z</time>
      </trkpt>
      <trkpt lat="47.29248" lon="-2.40485">
        <ele>4</ele>
        <time>2021-04-01T08:06:22.000Z</time>
      </trkpt>
      <trkpt lat="47.29214" lon="-2.40504">
        <ele>4</ele>
        <time>2021-04-01T08:06:28.000Z</time>
      </trkpt>
      <trkpt lat="47.29183" lon="-2.4052">
        <ele>4</ele>
        <time>2021-04-01T08:06:34.000Z</time>
      </trkpt>
      <trkpt lat="47.29178" lon="-2.40521">
        <ele>4</ele>
        <time>2021-04-01T08:06:35.000Z</time>
      </trkpt>
      <trkpt lat="47.29167" lon="-2.40511">
        <ele>4</ele>
        <time>2021-04-01T08:06:38.000Z</time>
      </trkpt>
      <trkpt lat="47.29156" lon="-2.40489">
        <ele>4</ele>
        <time>2021-04-01T08:06:42.000Z</time>
      </trkpt>
      <trkpt lat="47.2914" lon="-2.4049">
        <ele>4</ele>
        <time>2021-04-01T08:06:45.000Z</time>
      </trkpt>
      <trkpt lat="47.29116" lon="-2.40504">
        <ele>4</ele>
        <time>2021-04-01T08:06:50.000Z</time>
      </trkpt>
      <trkpt lat="47.29107" lon="-2.40513">
        <ele>4</ele>
        <time>2021-04-01T08:06:52.000Z</time>
      </trkpt>
      <trkpt lat="47.29099" lon="-2.40533">
        <ele>4</ele>
        <time>2021-04-01T08:06:55.000Z</time>
      </trkpt>
      <trkpt lat="47.29106" lon="-2.40552">
        <ele>4</ele>
        <time>2021-04-01T08:06:58.000Z</time>
      </trkpt>
      <trkpt lat="47.29117" lon="-2.40562">
        <ele>4</ele>
        <time>2021-04-01T08:07:00.000Z</time>
      </trkpt>
      <trkpt lat="47.29126" lon="-2.40572">
        <ele>4</ele>
        <time>2021-04-01T08:07:02.000Z</time>
      </trkpt>
      <trkpt lat="47.2913" lon="-2.40578">
        <ele>4</ele>
        <time>2021-04-01T08:07:03.000Z</time>
      </trkpt>
      <trkpt lat="47.2914" lon="-2.40599">
        <ele>4</ele>
        <time>2021-04-01T08:07:06.000Z</time>
      </trkpt>
      <trkpt lat="47.29145" lon="-2.40614">
        <ele>4</ele>
        <time>2021-04-01T08:07:08.000Z</time>
      </trkpt>
      <trkpt lat="47.29146" lon="-2.40638">
        <ele>4</ele>
        <time>2021-04-01T08:07:11.000Z</time>
      </trkpt>
      <trkpt lat="47.29149" lon="-2.40642">
        <ele>4</ele>
        <time>2021-04-01T08:07:12.000Z</time>
      </trkpt>
      <trkpt lat="47.29153" lon="-2.40644">
        <ele>4</ele>
        <time>2021-04-01T08:07:13.000Z</time>
      </trkpt>
      <trkpt lat="47.29166" lon="-2.40637">
        <ele>4</ele>
        <time>2021-04-01T08:07:16.000Z</time>
      </trkpt>
      <trkpt lat="47.29185" lon="-2.40624">
        <ele>4</ele>
        <time>2021-04-01T08:07:20.000Z</time>
      </trkpt>
      <trkpt lat="47.29194" lon="-2.40615">
        <ele>4</ele>
        <time>2021-04-01T08:07:22.000Z</time>
      </trkpt>
      <trkpt lat="47.29203" lon="-2.4061">
        <ele>4</ele>
        <time>2021-04-01T08:07:24.000Z</time>
      </trkpt>
      <trkpt lat="47.29214" lon="-2.40619">
        <ele>4</ele>
        <time>2021-04-01T08:07:26.000Z</time>
      </trkpt>
      <trkpt lat="47.29225" lon="-2.40639">
        <ele>4</ele>
        <time>2021-04-01T08:07:29.000Z</time>
      </trkpt>
      <trkpt lat="47.29231" lon="-2.40653">
        <ele>4</ele>
        <time>2021-04-01T08:07:31.000Z</time>
      </trkpt>
      <trkpt lat="47.29235" lon="-2.40668">
        <ele>4</ele>
        <time>2021-04-01T08:07:33.000Z</time>
      </trkpt>
      <trkpt lat="47.29235" lon="-2.40676">
        <ele>4</ele>
        <time>2021-04-01T08:07:34.000Z</time>
      </trkpt>
      <trkpt lat="47.29228" lon="-2.407">
        <ele>4</ele>
        <time>2021-04-01T08:07:37.000Z</time>
      </trkpt>
      <trkpt lat="47.29224" lon="-2.40707">
        <ele>4</ele>
        <time>2021-04-01T08:07:38.000Z</time>
      </trkpt>
      <trkpt lat="47.29212" lon="-2.40727">
        <ele>4</ele>
        <time>2021-04-01T08:07:41.000Z</time>
      </trkpt>
      <trkpt lat="47.29194" lon="-2.40755">
        <ele>4</ele>
        <time>2021-04-01T08:07:45.000Z</time>
      </trkpt>
      <trkpt lat="47.2919" lon="-2.40764">
        <ele>4</ele>
        <time>2021-04-01T08:07:46.000Z</time>
      </trkpt>
      <trkpt lat="47.29174" lon="-2.40814">
        <ele>4</ele>
        <time>2021-04-01T08:07:52.000Z</time>
      </trkpt>
      <trkpt lat="47.29173" lon="-2.4085">
        <ele>4</ele>
        <time>2021-04-01T08:07:56.000Z</time>
      </trkpt>
      <trkpt lat="47.29172" lon="-2.40876">
        <ele>4</ele>
        <time>2021-04-01T08:07:59.000Z</time>
      </trkpt>
      <trkpt lat="47.29163" lon="-2.40908">
        <ele>4</ele>
        <time>2021-04-01T08:08:03.000Z</time>
      </trkpt>
      <trkpt lat="47.29162" lon="-2.40916">
        <ele>4</ele>
        <time>2021-04-01T08:08:04.000Z</time>
      </trkpt>
      <trkpt lat="47.29165" lon="-2.40934">
        <ele>4</ele>
        <time>2021-04-01T08:08:06.000Z</time>
      </trkpt>
      <trkpt lat="47.2918" lon="-2.40948">
        <ele>4</ele>
        <time>2021-04-01T08:08:09.000Z</time>
      </trkpt>
      <trkpt lat="47.29192" lon="-2.40951">
        <ele>4</ele>
        <time>2021-04-01T08:08:11.000Z</time>
      </trkpt>
      <trkpt lat="47.29198" lon="-2.40952">
        <ele>4</ele>
        <time>2021-04-01T08:08:12.000Z</time>
      </trkpt>
      <trkpt lat="47.29208" lon="-2.40958">
        <ele>4</ele>
        <time>2021-04-01T08:08:14.000Z</time>
      </trkpt>
      <trkpt lat="47.2922" lon="-2.40978">
        <ele>4</ele>
        <time>2021-04-01T08:08:17.000Z</time>
      </trkpt>
      <trkpt lat="47.29222" lon="-2.40986">
        <ele>4</ele>
        <time>2021-04-01T08:08:18.000Z</time>
      </trkpt>
      <trkpt lat="47.2924" lon="-2.41024">
        <ele>4</ele>
        <time>2021-04-01T08:08:23.000Z</time>
      </trkpt>
      <trkpt lat="47.29244" lon="-2.4103">
        <ele>4</ele>
        <time>2021-04-01T08:08:24.000Z</time>
      </trkpt>
      <trkpt lat="47.29256" lon="-2.41049">
        <ele>4</ele>
        <time>2021-04-01T08:08:27.000Z</time>
      </trkpt>
      <trkpt lat="47.29253" lon="-2.41064">
        <ele>4</ele>
        <time>2021-04-01T08:08:29.000Z</time>
      </trkpt>
      <trkpt lat="47.29246" lon="-2.41084">
        <ele>4</ele>
        <time>2021-04-01T08:08:32.000Z</time>
      </trkpt>
      <trkpt lat="47.29256" lon="-2.41105">
        <ele>4</ele>
        <time>2021-04-01T08:08:35.000Z</time>
      </trkpt>
      <trkpt lat="47.2926" lon="-2.41111">
        <ele>4</ele>
        <time>2021-04-01T08:08:36.000Z</time>
      </trkpt>
      <trkpt lat="47.2928" lon="-2.41135">
        <ele>4</ele>
        <time>2021-04-01T08:08:40.000Z</time>
      </trkpt>
      <trkpt lat="47.29285" lon="-2.41142">
        <ele>4</ele>
        <time>2021-04-01T08:08:41.000Z</time>
      </trkpt>
      <trkpt lat="47.29295" lon="-2.41164">
        <ele>4</ele>
        <time>2021-04-01T08:08:44.000Z</time>
      </trkpt>
      <trkpt lat="47.29298" lon="-2.41171">
        <ele>4</ele>
        <time>2021-04-01T08:08:45.000Z</time>
      </trkpt>
      <trkpt lat="47.29308" lon="-2.41193">
        <ele>4</ele>
        <time>2021-04-01T08:08:48.000Z</time>
      </trkpt>
      <trkpt lat="47.29313" lon="-2.41199">
        <ele>4</ele>
        <time>2021-04-01T08:08:49.000Z</time>
      </trkpt>
      <trkpt lat="47.2934" lon="-2.41229">
        <ele>4</ele>
        <time>2021-04-01T08:08:54.000Z</time>
      </trkpt>
      <trkpt lat="47.2935" lon="-2.4124">
        <ele>4</ele>
        <time>2021-04-01T08:08:56.000Z</time>
      </trkpt>
      <trkpt lat="47.29357" lon="-2.41254">
        <ele>4</ele>
        <time>2021-04-01T08:08:58.000Z</time>
      </trkpt>
      <trkpt lat="47.29361" lon="-2.41279">
        <ele>4</ele>
        <time>2021-04-01T08:09:01.000Z</time>
      </trkpt>
      <trkpt lat="47.29362" lon="-2.41287">
        <ele>4</ele>
        <time>2021-04-01T08:09:02.000Z</time>
      </trkpt>
      <trkpt lat="47.29362" lon="-2.41303">
        <ele>4</ele>
        <time>2021-04-01T08:09:04.000Z</time>
      </trkpt>
      <trkpt lat="47.2936" lon="-2.41311">
        <ele>4</ele>
        <time>2021-04-01T08:09:05.000Z</time>
      </trkpt>
      <trkpt lat="47.29351" lon="-2.41343">
        <ele>4</ele>
        <time>2021-04-01T08:09:09.000Z</time>
      </trkpt>
      <trkpt lat="47.29358" lon="-2.41365">
        <ele>4</ele>
        <time>2021-04-01T08:09:12.000Z</time>
      </trkpt>
      <trkpt lat="47.29367" lon="-2.41376">
        <ele>4</ele>
        <time>2021-04-01T08:09:14.000Z</time>
      </trkpt>
      <trkpt lat="47.29372" lon="-2.41382">
        <ele>4</ele>
        <time>2021-04-01T08:09:15.000Z</time>
      </trkpt>
      <trkpt lat="47.2938" lon="-2.41394">
        <ele>4</ele>
        <time>2021-04-01T08:09:17.000Z</time>
      </trkpt>
      <trkpt lat="47.29391" lon="-2.41416">
        <ele>4</ele>
        <time>2021-04-01T08:09:20.000Z</time>
      </trkpt>
      <trkpt lat="47.29395" lon="-2.41424">
        <ele>4</ele>
        <time>2021-04-01T08:09:21.000Z</time>
      </trkpt>
      <trkpt lat="47.29401" lon="-2.4144">
        <ele>4</ele>
        <time>2021-04-01T08:09:23.000Z</time>
      </trkpt>
      <trkpt lat="47.29423" lon="-2.41475">
        <ele>4</ele>
        <time>2021-04-01T08:09:28.000Z</time>
      </trkpt>
      <trkpt lat="47.29434" lon="-2.41486">
        <ele>4</ele>
        <time>2021-04-01T08:09:30.000Z</time>
      </trkpt>
      <trkpt lat="47.29447" lon="-2.41489">
        <ele>4</ele>
        <time>2021-04-01T08:09:32.000Z</time>
      </trkpt>
      <trkpt lat="47.29465" lon="-2.41486">
        <ele>4</ele>
        <time>2021-04-01T08:09:35.000Z</time>
      </trkpt>
      <trkpt lat="47.29471" lon="-2.41485">
        <ele>4</ele>
        <time>2021-04-01T08:09:36.000Z</time>
      </trkpt>
      <trkpt lat="47.29494" lon="-2.41486">
        <ele>4</ele>
        <time>2021-04-01T08:09:40.000Z</time>
      </trkpt>
      <trkpt lat="47.29511" lon="-2.41479">
        <ele>4</ele>
        <time>2021-04-01T08:09:43.000Z</time>
      </trkpt>
      <trkpt lat="47.29516" lon="-2.41479">
        <ele>4</ele>
        <time>2021-04-01T08:09:44.000Z</time>
      </trkpt>
      <trkpt lat="47.29529" lon="-2.41494">
        <ele>4</ele>
        <time>2021-04-01T08:09:47.000Z</time>
      </trkpt>
      <trkpt lat="47.29535" lon="-2.41507">
        <ele>4</ele>
        <time>2021-04-01T08:09:49.000Z</time>
      </trkpt>
      <trkpt lat="47.29541" lon="-2.41521">
        <ele>4</ele>
        <time>2021-04-01T08:09:51.000Z</time>
      </trkpt>
      <trkpt lat="47.29542" lon="-2.41529">
        <ele>4</ele>
        <time>2021-04-01T08:09:52.000Z</time>
      </trkpt>
      <trkpt lat="47.2954" lon="-2.41554">
        <ele>4</ele>
        <time>2021-04-01T08:09:55.000Z</time>
      </trkpt>
      <trkpt lat="47.29535" lon="-2.41571">
        <ele>4</ele>
        <time>2021-04-01T08:09:57.000Z</time>
      </trkpt>
      <trkpt lat="47.2953" lon="-2.41587">
        <ele>4</ele>
        <time>2021-04-01T08:09:59.000Z</time>
      </trkpt>
      <trkpt lat="47.29529" lon="-2.41595">
        <ele>4</ele>
        <time>2021-04-01T08:10:00.000Z</time>
      </trkpt>
      <trkpt lat="47.29531" lon="-2.41635">
        <ele>4</ele>
        <time>2021-04-01T08:10:05.000Z</time>
      </trkpt>
      <trkpt lat="47.29532" lon="-2.41643">
        <ele>4</ele>
        <time>2021-04-01T08:10:06.000Z</time>
      </trkpt>
      <trkpt lat="47.29541" lon="-2.41672">
        <ele>4</ele>
        <time>2021-04-01T08:10:10.000Z</time>
      </trkpt>
      <trkpt lat="47.29559" lon="-2.41705">
        <ele>4</ele>
        <time>2021-04-01T08:10:15.000Z</time>
      </trkpt>
      <trkpt lat="47.29563" lon="-2.4171">
        <ele>4</ele>
        <time>2021-04-01T08:10:16.000Z</time>
      </trkpt>
      <trkpt lat="47.29586" lon="-2.41721">
        <ele>4</ele>
        <time>2021-04-01T08:10:20.000Z</time>
      </trkpt>
      <trkpt lat="47.29621" lon="-2.41755">
        <ele>4</ele>
        <time>2021-04-01T08:10:27.000Z</time>
      </trkpt>
      <trkpt lat="47.2963" lon="-2.41767">
        <ele>4</ele>
        <time>2021-04-01T08:10:29.000Z</time>
      </trkpt>
      <trkpt lat="47.29638" lon="-2.41788">
        <ele>4</ele>
        <time>2021-04-01T08:10:32.000Z</time>
      </trkpt>
      <trkpt lat="47.2964" lon="-2.41796">
        <ele>4</ele>
        <time>2021-04-01T08:10:33.000Z</time>
      </trkpt>
      <trkpt lat="47.29645" lon="-2.4182">
        <ele>4</ele>
        <time>2021-04-01T08:10:36.000Z</time>
      </trkpt>
      <trkpt lat="47.29649" lon="-2.41826">
        <ele>4</ele>
        <time>2021-04-01T08:10:37.000Z</time>
      </trkpt>
      <trkpt lat="47.29666" lon="-2.41829">
        <ele>4</ele>
        <time>2021-04-01T08:10:40.000Z</time>
      </trkpt>
      <trkpt lat="47.29672" lon="-2.41827">
        <ele>4</ele>
        <time>2021-04-01T08:10:41.000Z</time>
      </trkpt>
      <trkpt lat="47.29678" lon="-2.41825">
        <ele>4</ele>
        <time>2021-04-01T08:10:42.000Z</time>
      </trkpt>
      <trkpt lat="47.29697" lon="-2.4182">
        <ele>4</ele>
        <time>2021-04-01T08:10:45.000Z</time>
      </trkpt>
      <trkpt lat="47.29712" lon="-2.41803">
        <ele>4</ele>
        <time>2021-04-01T08:10:48.000Z</time>
      </trkpt>
      <trkpt lat="47.29722" lon="-2.41782">
        <ele>4</ele>
        <time>2021-04-01T08:10:51.000Z</time>
      </trkpt>
      <trkpt lat="47.29726" lon="-2.41777">
        <ele>4</ele>
        <time>2021-04-01T08:10:52.000Z</time>
      </trkpt>
      <trkpt lat="47.2973" lon="-2.41772">
        <ele>4</ele>
        <time>2021-04-01T08:10:53.000Z</time>
      </trkpt>
      <trkpt lat="47.29737" lon="-2.41762">
        <ele>4</ele>
        <time>2021-04-01T08:10:55.000Z</time>
      </trkpt>
      <trkpt lat="47.29749" lon="-2.41753">
        <ele>4</ele>
        <time>2021-04-01T08:10:58.000Z</time>
      </trkpt>
      <trkpt lat="47.29758" lon="-2.41749">
        <ele>4</ele>
        <time>2021-04-01T08:11:00.000Z</time>
      </trkpt>
      <trkpt lat="47.29765" lon="-2.4175">
        <ele>4</ele>
        <time>2021-04-01T08:11:02.000Z</time>
      </trkpt>
      <trkpt lat="47.29771" lon="-2.41764">
        <ele>4</ele>
        <time>2021-04-01T08:11:05.000Z</time>
      </trkpt>
      <trkpt lat="47.29773" lon="-2.41769">
        <ele>4</ele>
        <time>2021-04-01T08:11:06.000Z</time>
      </trkpt>
      <trkpt lat="47.29776" lon="-2.41801">
        <ele>4</ele>
        <time>2021-04-01T08:11:11.000Z</time>
      </trkpt>
      <trkpt lat="47.29776" lon="-2.41824">
        <ele>4</ele>
        <time>2021-04-01T08:11:15.000Z</time>
      </trkpt>
      <trkpt lat="47.29779" lon="-2.41826">
        <ele>4</ele>
        <time>2021-04-01T08:11:16.000Z</time>
      </trkpt>
      <trkpt lat="47.29793" lon="-2.4182">
        <ele>4</ele>
        <time>2021-04-01T08:11:19.000Z</time>
      </trkpt>
      <trkpt lat="47.29797" lon="-2.41816">
        <ele>4</ele>
        <time>2021-04-01T08:11:20.000Z</time>
      </trkpt>
      <trkpt lat="47.29823" lon="-2.41793">
        <ele>4</ele>
        <time>2021-04-01T08:11:25.000Z</time>
      </trkpt>
      <trkpt lat="47.29833" lon="-2.41782">
        <ele>4</ele>
        <time>2021-04-01T08:11:27.000Z</time>
      </trkpt>
      <trkpt lat="47.29842" lon="-2.4177">
        <ele>4</ele>
        <time>2021-04-01T08:11:29.000Z</time>
      </trkpt>
      <trkpt lat="47.29846" lon="-2.41765">
        <ele>4</ele>
        <time>2021-04-01T08:11:30.000Z</time>
      </trkpt>
      <trkpt lat="47.29862" lon="-2.41758">
        <ele>4</ele>
        <time>2021-04-01T08:11:33.000Z</time>
      </trkpt>
      <trkpt lat="47.29879" lon="-2.41764">
        <ele>4</ele>
        <time>2021-04-01T08:11:36.000Z</time>
      </trkpt>
      <trkpt lat="47.29884" lon="-2.41766">
        <ele>4</ele>
        <time>2021-04-01T08:11:37.000Z</time>
      </trkpt>
      <trkpt lat="47.29901" lon="-2.4176">
        <ele>4</ele>
        <time>2021-04-01T08:11:40.000Z</time>
      </trkpt>
      <trkpt lat="47.29909" lon="-2.4175">
        <ele>4</ele>
        <time>2021-04-01T08:11:42.000Z</time>
      </trkpt>
      <trkpt lat="47.29922" lon="-2.41738">
        <ele>4</ele>
        <time>2021-04-01T08:11:45.000Z</time>
      </trkpt>
      <trkpt lat="47.29934" lon="-2.41726">
        <ele>4</ele>
        <time>2021-04-01T08:11:48.000Z</time>
      </trkpt>
      <trkpt lat="47.2994" lon="-2.41715">
        <ele>4</ele>
        <time>2021-04-01T08:11:50.000Z</time>
      </trkpt>
      <trkpt lat="47.29938" lon="-2.41694">
        <ele>4</ele>
        <time>2021-04-01T08:11:53.000Z</time>
      </trkpt>
      <trkpt lat="47.29929" lon="-2.41651">
        <ele>4</ele>
        <time>2021-04-01T08:11:59.000Z</time>
      </trkpt>
      <trkpt lat="47.29927" lon="-2.41636">
        <ele>4</ele>
        <time>2021-04-01T08:12:01.000Z</time>
      </trkpt>
      <trkpt lat="47.29928" lon="-2.41613">
        <ele>4</ele>
        <time>2021-04-01T08:12:04.000Z</time>
      </trkpt>
      <trkpt lat="47.29928" lon="-2.41598">
        <ele>4</ele>
        <time>2021-04-01T08:12:06.000Z</time>
      </trkpt>
      <trkpt lat="47.29925" lon="-2.41578">
        <ele>4</ele>
        <time>2021-04-01T08:12:09.000Z</time>
      </trkpt>
      <trkpt lat="47.29924" lon="-2.41564">
        <ele>4</ele>
        <time>2021-04-01T08:12:11.000Z</time>
      </trkpt>
      <trkpt lat="47.29926" lon="-2.41542">
        <ele>4</ele>
        <time>2021-04-01T08:12:14.000Z</time>
      </trkpt>
      <trkpt lat="47.29936" lon="-2.41527">
        <ele>4</ele>
        <time>2021-04-01T08:12:17.000Z</time>
      </trkpt>
      <trkpt lat="47.29952" lon="-2.41523">
        <ele>4</ele>
        <time>2021-04-01T08:12:20.000Z</time>
      </trkpt>
      <trkpt lat="47.29958" lon="-2.41523">
        <ele>4</ele>
        <time>2021-04-01T08:12:21.000Z</time>
      </trkpt>
      <trkpt lat="47.29984" lon="-2.41522">
        <ele>4</ele>
        <time>2021-04-01T08:12:26.000Z</time>
      </trkpt>
      <trkpt lat="47.30011" lon="-2.41516">
        <ele>4.4000000953674</ele>
        <time>2021-04-01T08:12:31.000Z</time>
      </trkpt>
      <trkpt lat="47.30016" lon="-2.41514">
        <ele>4.8000001907349</ele>
        <time>2021-04-01T08:12:32.000Z</time>
      </trkpt>
      <trkpt lat="47.30022" lon="-2.41512">
        <ele>5.1999998092651</ele>
        <time>2021-04-01T08:12:33.000Z</time>
      </trkpt>
      <trkpt lat="47.30028" lon="-2.41509">
        <ele>5.5999999046326</ele>
        <time>2021-04-01T08:12:34.000Z</time>
      </trkpt>
      <trkpt lat="47.30033" lon="-2.41506">
        <ele>6</ele>
        <time>2021-04-01T08:12:35.000Z</time>
      </trkpt>
      <trkpt lat="47.30056" lon="-2.41493">
        <ele>6</ele>
        <time>2021-04-01T08:12:39.000Z</time>
      </trkpt>
      <trkpt lat="47.301" lon="-2.41466">
        <ele>6</ele>
        <time>2021-04-01T08:12:47.000Z</time>
      </trkpt>
      <trkpt lat="47.30132" lon="-2.41445">
        <ele>6</ele>
        <time>2021-04-01T08:12:53.000Z</time>
      </trkpt>
      <trkpt lat="47.3015" lon="-2.41416">
        <ele>6</ele>
        <time>2021-04-01T08:12:57.000Z</time>
      </trkpt>
      <trkpt lat="47.30154" lon="-2.41408">
        <ele>6</ele>
        <time>2021-04-01T08:12:58.000Z</time>
      </trkpt>
      <trkpt lat="47.30172" lon="-2.41365">
        <ele>6.4000000953674</ele>
        <time>2021-04-01T08:13:03.000Z</time>
      </trkpt>
      <trkpt lat="47.30175" lon="-2.41358">
        <ele>6.8000001907349</ele>
        <time>2021-04-01T08:13:04.000Z</time>
      </trkpt>
      <trkpt lat="47.30179" lon="-2.4135">
        <ele>7.4000000953674</ele>
        <time>2021-04-01T08:13:05.000Z</time>
      </trkpt>
      <trkpt lat="47.30182" lon="-2.41342">
        <ele>7.8000001907349</ele>
        <time>2021-04-01T08:13:06.000Z</time>
      </trkpt>
      <trkpt lat="47.30185" lon="-2.41334">
        <ele>8.1999998092651</ele>
        <time>2021-04-01T08:13:07.000Z</time>
      </trkpt>
      <trkpt lat="47.30192" lon="-2.41318">
        <ele>8.1999998092651</ele>
        <time>2021-04-01T08:13:09.000Z</time>
      </trkpt>
      <trkpt lat="47.30219" lon="-2.41277">
        <ele>8.1999998092651</ele>
        <time>2021-04-01T08:13:15.000Z</time>
      </trkpt>
      <trkpt lat="47.30256" lon="-2.41225">
        <ele>8.1999998092651</ele>
        <time>2021-04-01T08:13:23.000Z</time>
      </trkpt>
      <trkpt lat="47.3027" lon="-2.41193">
        <ele>8.1999998092651</ele>
        <time>2021-04-01T08:13:27.000Z</time>
      </trkpt>
      <trkpt lat="47.30273" lon="-2.41185">
        <ele>8.1999998092651</ele>
        <time>2021-04-01T08:13:28.000Z</time>
      </trkpt>
      <trkpt lat="47.30288" lon="-2.41153">
        <ele>7.8000001907349</ele>
        <time>2021-04-01T08:13:32.000Z</time>
      </trkpt>
      <trkpt lat="47.30292" lon="-2.41145">
        <ele>7.1999998092651</ele>
        <time>2021-04-01T08:13:33.000Z</time>
      </trkpt>
      <trkpt lat="47.30297" lon="-2.41138">
        <ele>6.8000001907349</ele>
        <time>2021-04-01T08:13:34.000Z</time>
      </trkpt>
      <trkpt lat="47.30302" lon="-2.41133">
        <ele>6.4000000953674</ele>
        <time>2021-04-01T08:13:35.000Z</time>
      </trkpt>
      <trkpt lat="47.30307" lon="-2.4113">
        <ele>6</ele>
        <time>2021-04-01T08:13:36.000Z</time>
      </trkpt>
      <trkpt lat="47.30312" lon="-2.41129">
        <ele>6</ele>
        <time>2021-04-01T08:13:37.000Z</time>
      </trkpt>
      <trkpt lat="47.30324" lon="-2.41134">
        <ele>6</ele>
        <time>2021-04-01T08:13:39.000Z</time>
      </trkpt>
      <trkpt lat="47.3033" lon="-2.41136">
        <ele>5.5999999046326</ele>
        <time>2021-04-01T08:13:40.000Z</time>
      </trkpt>
      <trkpt lat="47.30337" lon="-2.41138">
        <ele>5.1999998092651</ele>
        <time>2021-04-01T08:13:41.000Z</time>
      </trkpt>
      <trkpt lat="47.30344" lon="-2.41141">
        <ele>4.8000001907349</ele>
        <time>2021-04-01T08:13:42.000Z</time>
      </trkpt>
      <trkpt lat="47.3035" lon="-2.41145">
        <ele>4.1999998092651</ele>
        <time>2021-04-01T08:13:43.000Z</time>
      </trkpt>
      <trkpt lat="47.30357" lon="-2.41148">
        <ele>3.7999999523163</ele>
        <time>2021-04-01T08:13:44.000Z</time>
      </trkpt>
      <trkpt lat="47.30364" lon="-2.41151">
        <ele>3.7999999523163</ele>
        <time>2021-04-01T08:13:45.000Z</time>
      </trkpt>
      <trkpt lat="47.30378" lon="-2.41155">
        <ele>3.7999999523163</ele>
        <time>2021-04-01T08:13:47.000Z</time>
      </trkpt>
      <trkpt lat="47.30412" lon="-2.41156">
        <ele>3.7999999523163</ele>
        <time>2021-04-01T08:13:52.000Z</time>
      </trkpt>
      <trkpt lat="47.30432" lon="-2.41157">
        <ele>3.7999999523163</ele>
        <time>2021-04-01T08:13:55.000Z</time>
      </trkpt>
      <trkpt lat="47.30444" lon="-2.41165">
        <ele>3.7999999523163</ele>
        <time>2021-04-01T08:13:57.000Z</time>
      </trkpt>
      <trkpt lat="47.30455" lon="-2.41189">
        <ele>3.7999999523163</ele>
        <time>2021-04-01T08:14:00.000Z</time>
      </trkpt>
      <trkpt lat="47.30456" lon="-2.41199">
        <ele>3.7999999523163</ele>
        <time>2021-04-01T08:14:01.000Z</time>
      </trkpt>
      <trkpt lat="47.30465" lon="-2.41262">
        <ele>3.7999999523163</ele>
        <time>2021-04-01T08:14:07.000Z</time>
      </trkpt>
      <trkpt lat="47.30479" lon="-2.41335">
        <ele>3.7999999523163</ele>
        <time>2021-04-01T08:14:14.000Z</time>
      </trkpt>
      <trkpt lat="47.30497" lon="-2.41414">
        <ele>3.7999999523163</ele>
        <time>2021-04-01T08:14:22.000Z</time>
      </trkpt>
      <trkpt lat="47.30503" lon="-2.41445">
        <ele>3.7999999523163</ele>
        <time>2021-04-01T08:14:25.000Z</time>
      </trkpt>
      <trkpt lat="47.30501" lon="-2.41466">
        <ele>3.7999999523163</ele>
        <time>2021-04-01T08:14:27.000Z</time>
      </trkpt>
      <trkpt lat="47.30493" lon="-2.41484">
        <ele>3.7999999523163</ele>
        <time>2021-04-01T08:14:29.000Z</time>
      </trkpt>
      <trkpt lat="47.30486" lon="-2.41502">
        <ele>3.7999999523163</ele>
        <time>2021-04-01T08:14:31.000Z</time>
      </trkpt>
      <trkpt lat="47.30486" lon="-2.41535">
        <ele>3.7999999523163</ele>
        <time>2021-04-01T08:14:34.000Z</time>
      </trkpt>
      <trkpt lat="47.30497" lon="-2.41563">
        <ele>3.7999999523163</ele>
        <time>2021-04-01T08:14:37.000Z</time>
      </trkpt>
      <trkpt lat="47.305" lon="-2.41572">
        <ele>3.7999999523163</ele>
        <time>2021-04-01T08:14:38.000Z</time>
      </trkpt>
      <trkpt lat="47.30502" lon="-2.41594">
        <ele>3.7999999523163</ele>
        <time>2021-04-01T08:14:40.000Z</time>
      </trkpt>
      <trkpt lat="47.30506" lon="-2.41639">
        <ele>3.7999999523163</ele>
        <time>2021-04-01T08:14:44.000Z</time>
      </trkpt>
      <trkpt lat="47.30509" lon="-2.41649">
        <ele>3.7999999523163</ele>
        <time>2021-04-01T08:14:45.000Z</time>
      </trkpt>
      <trkpt lat="47.30527" lon="-2.41685">
        <ele>3.7999999523163</ele>
        <time>2021-04-01T08:14:49.000Z</time>
      </trkpt>
      <trkpt lat="47.30533" lon="-2.41692">
        <ele>3.7999999523163</ele>
        <time>2021-04-01T08:14:50.000Z</time>
      </trkpt>
      <trkpt lat="47.30568" lon="-2.41741">
        <ele>3.7999999523163</ele>
        <time>2021-04-01T08:14:56.000Z</time>
      </trkpt>
      <trkpt lat="47.30581" lon="-2.4177">
        <ele>3.7999999523163</ele>
        <time>2021-04-01T08:14:59.000Z</time>
      </trkpt>
      <trkpt lat="47.30588" lon="-2.41791">
        <ele>3.7999999523163</ele>
        <time>2021-04-01T08:15:01.000Z</time>
      </trkpt>
      <trkpt lat="47.30613" lon="-2.41852">
        <ele>3.7999999523163</ele>
        <time>2021-04-01T08:15:07.000Z</time>
      </trkpt>
      <trkpt lat="47.30637" lon="-2.41911">
        <ele>3.7999999523163</ele>
        <time>2021-04-01T08:15:13.000Z</time>
      </trkpt>
      <trkpt lat="47.30659" lon="-2.41977">
        <ele>3.7999999523163</ele>
        <time>2021-04-01T08:15:19.000Z</time>
      </trkpt>
      <trkpt lat="47.30683" lon="-2.42011">
        <ele>3.7999999523163</ele>
        <time>2021-04-01T08:15:23.000Z</time>
      </trkpt>
      <trkpt lat="47.30689" lon="-2.42019">
        <ele>3.7999999523163</ele>
        <time>2021-04-01T08:15:24.000Z</time>
      </trkpt>
      <trkpt lat="47.30715" lon="-2.42048">
        <ele>3.7999999523163</ele>
        <time>2021-04-01T08:15:28.000Z</time>
      </trkpt>
      <trkpt lat="47.30741" lon="-2.42073">
        <ele>3.7999999523163</ele>
        <time>2021-04-01T08:15:32.000Z</time>
      </trkpt>
      <trkpt lat="47.30746" lon="-2.42082">
        <ele>3.7999999523163</ele>
        <time>2021-04-01T08:15:33.000Z</time>
      </trkpt>
      <trkpt lat="47.30776" lon="-2.42138">
        <ele>3.7999999523163</ele>
        <time>2021-04-01T08:15:39.000Z</time>
      </trkpt>
      <trkpt lat="47.30807" lon="-2.4219">
        <ele>3.7999999523163</ele>
        <time>2021-04-01T08:15:45.000Z</time>
      </trkpt>
      <trkpt lat="47.30813" lon="-2.42196">
        <ele>3.7999999523163</ele>
        <time>2021-04-01T08:15:46.000Z</time>
      </trkpt>
      <trkpt lat="47.30831" lon="-2.42208">
        <ele>3.7999999523163</ele>
        <time>2021-04-01T08:15:49.000Z</time>
      </trkpt>
      <trkpt lat="47.30843" lon="-2.42208">
        <ele>3.7999999523163</ele>
        <time>2021-04-01T08:15:51.000Z</time>
      </trkpt>
      <trkpt lat="47.30852" lon="-2.42208">
        <ele>3.7999999523163</ele>
        <time>2021-04-01T08:15:53.000Z</time>
      </trkpt>
      <trkpt lat="47.30866" lon="-2.42201">
        <ele>3.7999999523163</ele>
        <time>2021-04-01T08:15:57.000Z</time>
      </trkpt>
      <trkpt lat="47.30877" lon="-2.42208">
        <ele>3.7999999523163</ele>
        <time>2021-04-01T08:16:00.000Z</time>
      </trkpt>
      <trkpt lat="47.30885" lon="-2.42219">
        <ele>3.7999999523163</ele>
        <time>2021-04-01T08:16:02.000Z</time>
      </trkpt>
      <trkpt lat="47.30894" lon="-2.42232">
        <ele>3.7999999523163</ele>
        <time>2021-04-01T08:16:04.000Z</time>
      </trkpt>
      <trkpt lat="47.30903" lon="-2.42243">
        <ele>3.7999999523163</ele>
        <time>2021-04-01T08:16:06.000Z</time>
      </trkpt>
      <trkpt lat="47.30919" lon="-2.42257">
        <ele>3.7999999523163</ele>
        <time>2021-04-01T08:16:09.000Z</time>
      </trkpt>
      <trkpt lat="47.30937" lon="-2.4227">
        <ele>3.7999999523163</ele>
        <time>2021-04-01T08:16:12.000Z</time>
      </trkpt>
      <trkpt lat="47.30947" lon="-2.42285">
        <ele>3.7999999523163</ele>
        <time>2021-04-01T08:16:14.000Z</time>
      </trkpt>
      <trkpt lat="47.30953" lon="-2.42315">
        <ele>3.7999999523163</ele>
        <time>2021-04-01T08:16:17.000Z</time>
      </trkpt>
      <trkpt lat="47.30963" lon="-2.42368">
        <ele>3.7999999523163</ele>
        <time>2021-04-01T08:16:22.000Z</time>
      </trkpt>
      <trkpt lat="47.30975" lon="-2.4242">
        <ele>3.7999999523163</ele>
        <time>2021-04-01T08:16:27.000Z</time>
      </trkpt>
      <trkpt lat="47.30992" lon="-2.42489">
        <ele>4.4000000953674</ele>
        <time>2021-04-01T08:16:34.000Z</time>
      </trkpt>
      <trkpt lat="47.30995" lon="-2.42499">
        <ele>4.8000001907349</ele>
        <time>2021-04-01T08:16:35.000Z</time>
      </trkpt>
      <trkpt lat="47.30997" lon="-2.42509">
        <ele>5.1999998092651</ele>
        <time>2021-04-01T08:16:36.000Z</time>
      </trkpt>
      <trkpt lat="47.31" lon="-2.42519">
        <ele>5.5999999046326</ele>
        <time>2021-04-01T08:16:37.000Z</time>
      </trkpt>
      <trkpt lat="47.31003" lon="-2.42529">
        <ele>6</ele>
        <time>2021-04-01T08:16:38.000Z</time>
      </trkpt>
      <trkpt lat="47.31016" lon="-2.42584">
        <ele>6</ele>
        <time>2021-04-01T08:16:43.000Z</time>
      </trkpt>
      <trkpt lat="47.31037" lon="-2.42665">
        <ele>6</ele>
        <time>2021-04-01T08:16:51.000Z</time>
      </trkpt>
      <trkpt lat="47.31049" lon="-2.42717">
        <ele>6</ele>
        <time>2021-04-01T08:16:57.000Z</time>
      </trkpt>
      <trkpt lat="47.31049" lon="-2.42726">
        <ele>6</ele>
        <time>2021-04-01T08:16:58.000Z</time>
      </trkpt>
      <trkpt lat="47.31038" lon="-2.42748">
        <ele>6</ele>
        <time>2021-04-01T08:17:01.000Z</time>
      </trkpt>
      <trkpt lat="47.31017" lon="-2.42757">
        <ele>6</ele>
        <time>2021-04-01T08:17:04.000Z</time>
      </trkpt>
      <trkpt lat="47.3101" lon="-2.42757">
        <ele>6</ele>
        <time>2021-04-01T08:17:05.000Z</time>
      </trkpt>
      <trkpt lat="47.30964" lon="-2.42762">
        <ele>6</ele>
        <time>2021-04-01T08:17:11.000Z</time>
      </trkpt>
      <trkpt lat="47.30911" lon="-2.42769">
        <ele>6</ele>
        <time>2021-04-01T08:17:18.000Z</time>
      </trkpt>
      <trkpt lat="47.30868" lon="-2.42775">
        <ele>6</ele>
        <time>2021-04-01T08:17:24.000Z</time>
      </trkpt>
      <trkpt lat="47.30817" lon="-2.4278">
        <ele>6</ele>
        <time>2021-04-01T08:17:31.000Z</time>
      </trkpt>
      <trkpt lat="47.30773" lon="-2.42787">
        <ele>6</ele>
        <time>2021-04-01T08:17:37.000Z</time>
      </trkpt>
      <trkpt lat="47.30737" lon="-2.42796">
        <ele>6</ele>
        <time>2021-04-01T08:17:42.000Z</time>
      </trkpt>
      <trkpt lat="47.30724" lon="-2.42804">
        <ele>6</ele>
        <time>2021-04-01T08:17:44.000Z</time>
      </trkpt>
      <trkpt lat="47.30711" lon="-2.42815">
        <ele>6</ele>
        <time>2021-04-01T08:17:46.000Z</time>
      </trkpt>
      <trkpt lat="47.30693" lon="-2.42831">
        <ele>6</ele>
        <time>2021-04-01T08:17:49.000Z</time>
      </trkpt>
      <trkpt lat="47.30657" lon="-2.42863">
        <ele>6</ele>
        <time>2021-04-01T08:17:55.000Z</time>
      </trkpt>
      <trkpt lat="47.30627" lon="-2.42889">
        <ele>5.5999999046326</ele>
        <time>2021-04-01T08:18:00.000Z</time>
      </trkpt>
      <trkpt lat="47.3062" lon="-2.42894">
        <ele>5.1999998092651</ele>
        <time>2021-04-01T08:18:01.000Z</time>
      </trkpt>
      <trkpt lat="47.30614" lon="-2.42899">
        <ele>4.8000001907349</ele>
        <time>2021-04-01T08:18:02.000Z</time>
      </trkpt>
      <trkpt lat="47.30608" lon="-2.42904">
        <ele>4.4000000953674</ele>
        <time>2021-04-01T08:18:03.000Z</time>
      </trkpt>
      <trkpt lat="47.30601" lon="-2.42909">
        <ele>4</ele>
        <time>2021-04-01T08:18:04.000Z</time>
      </trkpt>
      <trkpt lat="47.30566" lon="-2.42937">
        <ele>4</ele>
        <time>2021-04-01T08:18:10.000Z</time>
      </trkpt>
      <trkpt lat="47.30513" lon="-2.4298">
        <ele>4</ele>
        <time>2021-04-01T08:18:19.000Z</time>
      </trkpt>
      <trkpt lat="47.3047" lon="-2.43015">
        <ele>4</ele>
        <time>2021-04-01T08:18:26.000Z</time>
      </trkpt>
      <trkpt lat="47.30429" lon="-2.43049">
        <ele>4</ele>
        <time>2021-04-01T08:18:33.000Z</time>
      </trkpt>
      <trkpt lat="47.30423" lon="-2.43052">
        <ele>4</ele>
        <time>2021-04-01T08:18:34.000Z</time>
      </trkpt>
      <trkpt lat="47.30398" lon="-2.4306">
        <ele>4</ele>
        <time>2021-04-01T08:18:38.000Z</time>
      </trkpt>
      <trkpt lat="47.30355" lon="-2.43068">
        <ele>4</ele>
        <time>2021-04-01T08:18:45.000Z</time>
      </trkpt>
      <trkpt lat="47.30308" lon="-2.43076">
        <ele>4</ele>
        <time>2021-04-01T08:18:53.000Z</time>
      </trkpt>
      <trkpt lat="47.30303" lon="-2.43076">
        <ele>4</ele>
        <time>2021-04-01T08:18:54.000Z</time>
      </trkpt>
      <trkpt lat="47.30288" lon="-2.43074">
        <ele>4</ele>
        <time>2021-04-01T08:18:57.000Z</time>
      </trkpt>
      <trkpt lat="47.30272" lon="-2.43071">
        <ele>4</ele>
        <time>2021-04-01T08:19:01.000Z</time>
      </trkpt>
      <trkpt lat="47.30267" lon="-2.43082">
        <ele>4</ele>
        <time>2021-04-01T08:19:04.000Z</time>
      </trkpt>
      <trkpt lat="47.30268" lon="-2.43088">
        <ele>4</ele>
        <time>2021-04-01T08:19:06.000Z</time>
      </trkpt>
      <trkpt lat="47.3027" lon="-2.43095">
        <ele>4</ele>
        <time>2021-04-01T08:19:09.000Z</time>
      </trkpt>
      <trkpt lat="47.30276" lon="-2.43114">
        <ele>4</ele>
        <time>2021-04-01T08:19:16.000Z</time>
      </trkpt>
      <trkpt lat="47.30279" lon="-2.43134">
        <ele>4</ele>
        <time>2021-04-01T08:19:23.000Z</time>
      </trkpt>
      <trkpt lat="47.30289" lon="-2.43147">
        <ele>4</ele>
        <time>2021-04-01T08:19:28.000Z</time>
      </trkpt>
      <trkpt lat="47.30307" lon="-2.43155">
        <ele>4</ele>
        <time>2021-04-01T08:19:34.000Z</time>
      </trkpt>
      <trkpt lat="47.30319" lon="-2.43164">
        <ele>4</ele>
        <time>2021-04-01T08:19:39.000Z</time>
      </trkpt>
      <trkpt lat="47.30332" lon="-2.43184">
        <ele>4</ele>
        <time>2021-04-01T08:19:46.000Z</time>
      </trkpt>
      <trkpt lat="47.30342" lon="-2.432">
        <ele>3.5999999046326</ele>
        <time>2021-04-01T08:19:50.000Z</time>
      </trkpt>
      <trkpt lat="47.30344" lon="-2.43204">
        <ele>3.2000000476837</ele>
        <time>2021-04-01T08:19:51.000Z</time>
      </trkpt>
      <trkpt lat="47.30346" lon="-2.43208">
        <ele>2.7999999523163</ele>
        <time>2021-04-01T08:19:52.000Z</time>
      </trkpt>
      <trkpt lat="47.30348" lon="-2.43211">
        <ele>2.4000000953674</ele>
        <time>2021-04-01T08:19:53.000Z</time>
      </trkpt>
      <trkpt lat="47.30351" lon="-2.43215">
        <ele>2</ele>
        <time>2021-04-01T08:19:54.000Z</time>
      </trkpt>
      <trkpt lat="47.30366" lon="-2.43233">
        <ele>2</ele>
        <time>2021-04-01T08:20:00.000Z</time>
      </trkpt>
      <trkpt lat="47.30381" lon="-2.43236">
        <ele>2</ele>
        <time>2021-04-01T08:20:06.000Z</time>
      </trkpt>
      <trkpt lat="47.30396" lon="-2.43249">
        <ele>2</ele>
        <time>2021-04-01T08:20:12.000Z</time>
      </trkpt>
      <trkpt lat="47.30405" lon="-2.43276">
        <ele>2</ele>
        <time>2021-04-01T08:20:18.000Z</time>
      </trkpt>
      <trkpt lat="47.30415" lon="-2.43317">
        <ele>2</ele>
        <time>2021-04-01T08:20:26.000Z</time>
      </trkpt>
      <trkpt lat="47.30422" lon="-2.43354">
        <ele>2</ele>
        <time>2021-04-01T08:20:33.000Z</time>
      </trkpt>
      <trkpt lat="47.30427" lon="-2.43385">
        <ele>2</ele>
        <time>2021-04-01T08:20:39.000Z</time>
      </trkpt>
      <trkpt lat="47.30439" lon="-2.4342">
        <ele>2</ele>
        <time>2021-04-01T08:20:47.000Z</time>
      </trkpt>
      <trkpt lat="47.30442" lon="-2.43421">
        <ele>2</ele>
        <time>2021-04-01T08:20:48.000Z</time>
      </trkpt>
      <trkpt lat="47.30451" lon="-2.4342">
        <ele>2</ele>
        <time>2021-04-01T08:20:51.000Z</time>
      </trkpt>
      <trkpt lat="47.30459" lon="-2.43416">
        <ele>2</ele>
        <time>2021-04-01T08:20:54.000Z</time>
      </trkpt>
      <trkpt lat="47.3047" lon="-2.43411">
        <ele>2</ele>
        <time>2021-04-01T08:20:58.000Z</time>
      </trkpt>
      <trkpt lat="47.30489" lon="-2.43411">
        <ele>2</ele>
        <time>2021-04-01T08:21:04.000Z</time>
      </trkpt>
      <trkpt lat="47.30519" lon="-2.43414">
        <ele>2</ele>
        <time>2021-04-01T08:21:13.000Z</time>
      </trkpt>
      <trkpt lat="47.30545" lon="-2.43418">
        <ele>2</ele>
        <time>2021-04-01T08:21:21.000Z</time>
      </trkpt>
      <trkpt lat="47.30569" lon="-2.43421">
        <ele>2</ele>
        <time>2021-04-01T08:21:28.000Z</time>
      </trkpt>
      <trkpt lat="47.30597" lon="-2.43414">
        <ele>2</ele>
        <time>2021-04-01T08:21:36.000Z</time>
      </trkpt>
      <trkpt lat="47.3063" lon="-2.43406">
        <ele>2</ele>
        <time>2021-04-01T08:21:45.000Z</time>
      </trkpt>
      <trkpt lat="47.30642" lon="-2.43404">
        <ele>2</ele>
        <time>2021-04-01T08:21:48.000Z</time>
      </trkpt>
      <trkpt lat="47.3066" lon="-2.434">
        <ele>2</ele>
        <time>2021-04-01T08:21:52.000Z</time>
      </trkpt>
      <trkpt lat="47.30695" lon="-2.43393">
        <ele>2</ele>
        <time>2021-04-01T08:21:59.000Z</time>
      </trkpt>
      <trkpt lat="47.3073" lon="-2.43391">
        <ele>2</ele>
        <time>2021-04-01T08:22:05.000Z</time>
      </trkpt>
      <trkpt lat="47.30788" lon="-2.4339">
        <ele>2</ele>
        <time>2021-04-01T08:22:14.000Z</time>
      </trkpt>
      <trkpt lat="47.30819" lon="-2.43385">
        <ele>2</ele>
        <time>2021-04-01T08:22:19.000Z</time>
      </trkpt>
      <trkpt lat="47.30825" lon="-2.43382">
        <ele>2</ele>
        <time>2021-04-01T08:22:20.000Z</time>
      </trkpt>
      <trkpt lat="47.30867" lon="-2.43364">
        <ele>2</ele>
        <time>2021-04-01T08:22:27.000Z</time>
      </trkpt>
      <trkpt lat="47.30908" lon="-2.43346">
        <ele>2</ele>
        <time>2021-04-01T08:22:34.000Z</time>
      </trkpt>
      <trkpt lat="47.30952" lon="-2.4333">
        <ele>2.7999999523163</ele>
        <time>2021-04-01T08:22:41.000Z</time>
      </trkpt>
      <trkpt lat="47.30958" lon="-2.43328">
        <ele>3.2000000476837</ele>
        <time>2021-04-01T08:22:42.000Z</time>
      </trkpt>
      <trkpt lat="47.30964" lon="-2.43326">
        <ele>3.5999999046326</ele>
        <time>2021-04-01T08:22:43.000Z</time>
      </trkpt>
      <trkpt lat="47.30971" lon="-2.43323">
        <ele>4.1999998092651</ele>
        <time>2021-04-01T08:22:44.000Z</time>
      </trkpt>
      <trkpt lat="47.31" lon="-2.43307">
        <ele>4.1999998092651</ele>
        <time>2021-04-01T08:22:49.000Z</time>
      </trkpt>
      <trkpt lat="47.3103" lon="-2.43273">
        <ele>4.1999998092651</ele>
        <time>2021-04-01T08:22:55.000Z</time>
      </trkpt>
      <trkpt lat="47.3106" lon="-2.43231">
        <ele>4.1999998092651</ele>
        <time>2021-04-01T08:23:02.000Z</time>
      </trkpt>
      <trkpt lat="47.31094" lon="-2.43201">
        <ele>4.1999998092651</ele>
        <time>2021-04-01T08:23:09.000Z</time>
      </trkpt>
      <trkpt lat="47.31113" lon="-2.4319">
        <ele>4.1999998092651</ele>
        <time>2021-04-01T08:23:14.000Z</time>
      </trkpt>
      <trkpt lat="47.3112" lon="-2.43196">
        <ele>4.1999998092651</ele>
        <time>2021-04-01T08:23:16.000Z</time>
      </trkpt>
      <trkpt lat="47.31124" lon="-2.432">
        <ele>4.1999998092651</ele>
        <time>2021-04-01T08:23:17.000Z</time>
      </trkpt>
      <trkpt lat="47.31144" lon="-2.43235">
        <ele>4.1999998092651</ele>
        <time>2021-04-01T08:23:23.000Z</time>
      </trkpt>
      <trkpt lat="47.31172" lon="-2.43278">
        <ele>4.1999998092651</ele>
        <time>2021-04-01T08:23:30.000Z</time>
      </trkpt>
      <trkpt lat="47.31191" lon="-2.43314">
        <ele>4.1999998092651</ele>
        <time>2021-04-01T08:23:35.000Z</time>
      </trkpt>
      <trkpt lat="47.31193" lon="-2.43322">
        <ele>4.1999998092651</ele>
        <time>2021-04-01T08:23:36.000Z</time>
      </trkpt>
      <trkpt lat="47.31206" lon="-2.43376">
        <ele>4.1999998092651</ele>
        <time>2021-04-01T08:23:42.000Z</time>
      </trkpt>
      <trkpt lat="47.31216" lon="-2.43453">
        <ele>4.1999998092651</ele>
        <time>2021-04-01T08:23:50.000Z</time>
      </trkpt>
      <trkpt lat="47.31229" lon="-2.4354">
        <ele>4.1999998092651</ele>
        <time>2021-04-01T08:23:59.000Z</time>
      </trkpt>
      <trkpt lat="47.31231" lon="-2.4355">
        <ele>4.1999998092651</ele>
        <time>2021-04-01T08:24:00.000Z</time>
      </trkpt>
      <trkpt lat="47.31243" lon="-2.43637">
        <ele>4.1999998092651</ele>
        <time>2021-04-01T08:24:08.000Z</time>
      </trkpt>
      <trkpt lat="47.31245" lon="-2.43648">
        <ele>4.1999998092651</ele>
        <time>2021-04-01T08:24:09.000Z</time>
      </trkpt>
      <trkpt lat="47.31259" lon="-2.437">
        <ele>4.1999998092651</ele>
        <time>2021-04-01T08:24:14.000Z</time>
      </trkpt>
      <trkpt lat="47.31286" lon="-2.43769">
        <ele>4.1999998092651</ele>
        <time>2021-04-01T08:24:21.000Z</time>
      </trkpt>
      <trkpt lat="47.31294" lon="-2.43789">
        <ele>4.1999998092651</ele>
        <time>2021-04-01T08:24:23.000Z</time>
      </trkpt>
      <trkpt lat="47.31304" lon="-2.43807">
        <ele>4.1999998092651</ele>
        <time>2021-04-01T08:24:25.000Z</time>
      </trkpt>
      <trkpt lat="47.31316" lon="-2.43822">
        <ele>4.1999998092651</ele>
        <time>2021-04-01T08:24:27.000Z</time>
      </trkpt>
      <trkpt lat="47.31339" lon="-2.43866">
        <ele>4.1999998092651</ele>
        <time>2021-04-01T08:24:32.000Z</time>
      </trkpt>
      <trkpt lat="47.31365" lon="-2.43936">
        <ele>4.1999998092651</ele>
        <time>2021-04-01T08:24:39.000Z</time>
      </trkpt>
      <trkpt lat="47.31389" lon="-2.43979">
        <ele>4.1999998092651</ele>
        <time>2021-04-01T08:24:44.000Z</time>
      </trkpt>
      <trkpt lat="47.31433" lon="-2.44034">
        <ele>4.1999998092651</ele>
        <time>2021-04-01T08:24:52.000Z</time>
      </trkpt>
      <trkpt lat="47.31477" lon="-2.4409">
        <ele>4.1999998092651</ele>
        <time>2021-04-01T08:25:01.000Z</time>
      </trkpt>
      <trkpt lat="47.31508" lon="-2.44131">
        <ele>4.1999998092651</ele>
        <time>2021-04-01T08:25:08.000Z</time>
      </trkpt>
      <trkpt lat="47.31519" lon="-2.44144">
        <ele>4.1999998092651</ele>
        <time>2021-04-01T08:25:11.000Z</time>
      </trkpt>
      <trkpt lat="47.31525" lon="-2.44144">
        <ele>4.1999998092651</ele>
        <time>2021-04-01T08:25:13.000Z</time>
      </trkpt>
      <trkpt lat="47.31526" lon="-2.44145">
        <ele>4.1999998092651</ele>
        <time>2021-04-01T08:25:14.000Z</time>
      </trkpt>
      <trkpt lat="47.31526" lon="-2.4415">
        <ele>4.1999998092651</ele>
        <time>2021-04-01T08:25:16.000Z</time>
      </trkpt>
      <trkpt lat="47.3153" lon="-2.44168">
        <ele>4.1999998092651</ele>
        <time>2021-04-01T08:25:21.000Z</time>
      </trkpt>
      <trkpt lat="47.31542" lon="-2.44201">
        <ele>4.1999998092651</ele>
        <time>2021-04-01T08:25:28.000Z</time>
      </trkpt>
      <trkpt lat="47.31549" lon="-2.44225">
        <ele>4.1999998092651</ele>
        <time>2021-04-01T08:25:32.000Z</time>
      </trkpt>
      <trkpt lat="47.31552" lon="-2.44243">
        <ele>4.1999998092651</ele>
        <time>2021-04-01T08:25:35.000Z</time>
      </trkpt>
      <trkpt lat="47.31559" lon="-2.44288">
        <ele>4.1999998092651</ele>
        <time>2021-04-01T08:25:43.000Z</time>
      </trkpt>
      <trkpt lat="47.31565" lon="-2.44332">
        <ele>4.1999998092651</ele>
        <time>2021-04-01T08:25:50.000Z</time>
      </trkpt>
      <trkpt lat="47.31575" lon="-2.44389">
        <ele>4.1999998092651</ele>
        <time>2021-04-01T08:25:57.000Z</time>
      </trkpt>
      <trkpt lat="47.31587" lon="-2.44465">
        <ele>4.1999998092651</ele>
        <time>2021-04-01T08:26:06.000Z</time>
      </trkpt>
      <trkpt lat="47.31599" lon="-2.44513">
        <ele>4.1999998092651</ele>
        <time>2021-04-01T08:26:12.000Z</time>
      </trkpt>
      <trkpt lat="47.31621" lon="-2.44553">
        <ele>4.1999998092651</ele>
        <time>2021-04-01T08:26:18.000Z</time>
      </trkpt>
      <trkpt lat="47.31649" lon="-2.44602">
        <ele>4.1999998092651</ele>
        <time>2021-04-01T08:26:25.000Z</time>
      </trkpt>
      <trkpt lat="47.31675" lon="-2.4466">
        <ele>4.1999998092651</ele>
        <time>2021-04-01T08:26:32.000Z</time>
      </trkpt>
      <trkpt lat="47.31698" lon="-2.44716">
        <ele>4.1999998092651</ele>
        <time>2021-04-01T08:26:39.000Z</time>
      </trkpt>
      <trkpt lat="47.31719" lon="-2.44766">
        <ele>4.1999998092651</ele>
        <time>2021-04-01T08:26:46.000Z</time>
      </trkpt>
      <trkpt lat="47.31727" lon="-2.44784">
        <ele>4.1999998092651</ele>
        <time>2021-04-01T08:26:49.000Z</time>
      </trkpt>
      <trkpt lat="47.31736" lon="-2.44788">
        <ele>4.1999998092651</ele>
        <time>2021-04-01T08:26:51.000Z</time>
      </trkpt>
      <trkpt lat="47.31749" lon="-2.44777">
        <ele>4.1999998092651</ele>
        <time>2021-04-01T08:26:54.000Z</time>
      </trkpt>
      <trkpt lat="47.31779" lon="-2.4475">
        <ele>4.1999998092651</ele>
        <time>2021-04-01T08:27:00.000Z</time>
      </trkpt>
      <trkpt lat="47.31811" lon="-2.44731">
        <ele>4.1999998092651</ele>
        <time>2021-04-01T08:27:06.000Z</time>
      </trkpt>
      <trkpt lat="47.31831" lon="-2.44715">
        <ele>4.1999998092651</ele>
        <time>2021-04-01T08:27:10.000Z</time>
      </trkpt>
      <trkpt lat="47.3184" lon="-2.44704">
        <ele>4.1999998092651</ele>
        <time>2021-04-01T08:27:12.000Z</time>
      </trkpt>
      <trkpt lat="47.31864" lon="-2.44661">
        <ele>4.5999999046326</ele>
        <time>2021-04-01T08:27:19.000Z</time>
      </trkpt>
      <trkpt lat="47.31867" lon="-2.44655">
        <ele>5</ele>
        <time>2021-04-01T08:27:20.000Z</time>
      </trkpt>
      <trkpt lat="47.31869" lon="-2.44648">
        <ele>5.4000000953674</ele>
        <time>2021-04-01T08:27:21.000Z</time>
      </trkpt>
      <trkpt lat="47.31872" lon="-2.44641">
        <ele>5.8000001907349</ele>
        <time>2021-04-01T08:27:22.000Z</time>
      </trkpt>
      <trkpt lat="47.31874" lon="-2.44634">
        <ele>6.1999998092651</ele>
        <time>2021-04-01T08:27:23.000Z</time>
      </trkpt>
      <trkpt lat="47.31884" lon="-2.44607">
        <ele>6.1999998092651</ele>
        <time>2021-04-01T08:27:27.000Z</time>
      </trkpt>
      <trkpt lat="47.319" lon="-2.4457">
        <ele>6.1999998092651</ele>
        <time>2021-04-01T08:27:33.000Z</time>
      </trkpt>
      <trkpt lat="47.31905" lon="-2.44568">
        <ele>6.1999998092651</ele>
        <time>2021-04-01T08:27:34.000Z</time>
      </trkpt>
      <trkpt lat="47.31914" lon="-2.44576">
        <ele>6.1999998092651</ele>
        <time>2021-04-01T08:27:36.000Z</time>
      </trkpt>
      <trkpt lat="47.31922" lon="-2.44586">
        <ele>6.1999998092651</ele>
        <time>2021-04-01T08:27:38.000Z</time>
      </trkpt>
      <trkpt lat="47.31945" lon="-2.44613">
        <ele>6.1999998092651</ele>
        <time>2021-04-01T08:27:43.000Z</time>
      </trkpt>
      <trkpt lat="47.31987" lon="-2.44661">
        <ele>6.1999998092651</ele>
        <time>2021-04-01T08:27:52.000Z</time>
      </trkpt>
      <trkpt lat="47.32005" lon="-2.44683">
        <ele>6.1999998092651</ele>
        <time>2021-04-01T08:27:56.000Z</time>
      </trkpt>
      <trkpt lat="47.32013" lon="-2.44695">
        <ele>6.1999998092651</ele>
        <time>2021-04-01T08:27:58.000Z</time>
      </trkpt>
      <trkpt lat="47.32048" lon="-2.44744">
        <ele>6.1999998092651</ele>
        <time>2021-04-01T08:28:06.000Z</time>
      </trkpt>
      <trkpt lat="47.32051" lon="-2.4475">
        <ele>6.1999998092651</ele>
        <time>2021-04-01T08:28:07.000Z</time>
      </trkpt>
      <trkpt lat="47.32059" lon="-2.44763">
        <ele>6.5999999046326</ele>
        <time>2021-04-01T08:28:09.000Z</time>
      </trkpt>
      <trkpt lat="47.32062" lon="-2.44769">
        <ele>7</ele>
        <time>2021-04-01T08:28:10.000Z</time>
      </trkpt>
      <trkpt lat="47.32066" lon="-2.44775">
        <ele>7.4000000953674</ele>
        <time>2021-04-01T08:28:11.000Z</time>
      </trkpt>
      <trkpt lat="47.32069" lon="-2.44781">
        <ele>8</ele>
        <time>2021-04-01T08:28:12.000Z</time>
      </trkpt>
      <trkpt lat="47.32073" lon="-2.44787">
        <ele>8.3999996185303</ele>
        <time>2021-04-01T08:28:13.000Z</time>
      </trkpt>
      <trkpt lat="47.32083" lon="-2.44812">
        <ele>8.3999996185303</ele>
        <time>2021-04-01T08:28:17.000Z</time>
      </trkpt>
      <trkpt lat="47.32085" lon="-2.44819">
        <ele>8.3999996185303</ele>
        <time>2021-04-01T08:28:18.000Z</time>
      </trkpt>
      <trkpt lat="47.32099" lon="-2.44851">
        <ele>8.3999996185303</ele>
        <time>2021-04-01T08:28:23.000Z</time>
      </trkpt>
      <trkpt lat="47.32116" lon="-2.44891">
        <ele>8.3999996185303</ele>
        <time>2021-04-01T08:28:29.000Z</time>
      </trkpt>
      <trkpt lat="47.32137" lon="-2.44932">
        <ele>8.3999996185303</ele>
        <time>2021-04-01T08:28:36.000Z</time>
      </trkpt>
      <trkpt lat="47.32158" lon="-2.44952">
        <ele>8.8000001907349</ele>
        <time>2021-04-01T08:28:42.000Z</time>
      </trkpt>
      <trkpt lat="47.32162" lon="-2.44955">
        <ele>9.1999998092651</ele>
        <time>2021-04-01T08:28:43.000Z</time>
      </trkpt>
      <trkpt lat="47.32166" lon="-2.44958">
        <ele>9.6000003814697</ele>
        <time>2021-04-01T08:28:44.000Z</time>
      </trkpt>
      <trkpt lat="47.3217" lon="-2.44961">
        <ele>10</ele>
        <time>2021-04-01T08:28:45.000Z</time>
      </trkpt>
      <trkpt lat="47.32173" lon="-2.44964">
        <ele>10.39999961853</ele>
        <time>2021-04-01T08:28:46.000Z</time>
      </trkpt>
      <trkpt lat="47.32183" lon="-2.44974">
        <ele>10.39999961853</ele>
        <time>2021-04-01T08:28:49.000Z</time>
      </trkpt>
      <trkpt lat="47.32196" lon="-2.44989">
        <ele>10.39999961853</ele>
        <time>2021-04-01T08:28:53.000Z</time>
      </trkpt>
      <trkpt lat="47.32199" lon="-2.44994">
        <ele>10.800000190735</ele>
        <time>2021-04-01T08:28:54.000Z</time>
      </trkpt>
      <trkpt lat="47.32201" lon="-2.44999">
        <ele>11.39999961853</ele>
        <time>2021-04-01T08:28:55.000Z</time>
      </trkpt>
      <trkpt lat="47.32203" lon="-2.45003">
        <ele>11.800000190735</ele>
        <time>2021-04-01T08:28:56.000Z</time>
      </trkpt>
      <trkpt lat="47.32206" lon="-2.45008">
        <ele>12.199999809265</ele>
        <time>2021-04-01T08:28:57.000Z</time>
      </trkpt>
      <trkpt lat="47.32208" lon="-2.45013">
        <ele>12.60000038147</ele>
        <time>2021-04-01T08:28:58.000Z</time>
      </trkpt>
      <trkpt lat="47.32222" lon="-2.4504">
        <ele>12.60000038147</ele>
        <time>2021-04-01T08:29:03.000Z</time>
      </trkpt>
      <trkpt lat="47.32225" lon="-2.45046">
        <ele>12.60000038147</ele>
        <time>2021-04-01T08:29:04.000Z</time>
      </trkpt>
      <trkpt lat="47.32237" lon="-2.45072">
        <ele>12.60000038147</ele>
        <time>2021-04-01T08:29:08.000Z</time>
      </trkpt>
      <trkpt lat="47.32241" lon="-2.45079">
        <ele>12.60000038147</ele>
        <time>2021-04-01T08:29:09.000Z</time>
      </trkpt>
      <trkpt lat="47.32257" lon="-2.4512">
        <ele>12.60000038147</ele>
        <time>2021-04-01T08:29:14.000Z</time>
      </trkpt>
      <trkpt lat="47.32269" lon="-2.4517">
        <ele>12.60000038147</ele>
        <time>2021-04-01T08:29:19.000Z</time>
      </trkpt>
      <trkpt lat="47.32271" lon="-2.45181">
        <ele>12.60000038147</ele>
        <time>2021-04-01T08:29:20.000Z</time>
      </trkpt>
      <trkpt lat="47.32285" lon="-2.45214">
        <ele>12.199999809265</ele>
        <time>2021-04-01T08:29:23.000Z</time>
      </trkpt>
      <trkpt lat="47.32289" lon="-2.45224">
        <ele>11.800000190735</ele>
        <time>2021-04-01T08:29:24.000Z</time>
      </trkpt>
      <trkpt lat="47.32295" lon="-2.45234">
        <ele>11.39999961853</ele>
        <time>2021-04-01T08:29:25.000Z</time>
      </trkpt>
      <trkpt lat="47.32299" lon="-2.45244">
        <ele>11</ele>
        <time>2021-04-01T08:29:26.000Z</time>
      </trkpt>
      <trkpt lat="47.32302" lon="-2.45253">
        <ele>10.60000038147</ele>
        <time>2021-04-01T08:29:27.000Z</time>
      </trkpt>
      <trkpt lat="47.32315" lon="-2.453">
        <ele>10.60000038147</ele>
        <time>2021-04-01T08:29:33.000Z</time>
      </trkpt>
      <trkpt lat="47.32318" lon="-2.45319">
        <ele>10.60000038147</ele>
        <time>2021-04-01T08:29:36.000Z</time>
      </trkpt>
      <trkpt lat="47.32317" lon="-2.45332">
        <ele>10.60000038147</ele>
        <time>2021-04-01T08:29:38.000Z</time>
      </trkpt>
      <trkpt lat="47.32317" lon="-2.45348">
        <ele>10.60000038147</ele>
        <time>2021-04-01T08:29:40.000Z</time>
      </trkpt>
      <trkpt lat="47.32318" lon="-2.45356">
        <ele>10.60000038147</ele>
        <time>2021-04-01T08:29:41.000Z</time>
      </trkpt>
      <trkpt lat="47.3232" lon="-2.45373">
        <ele>10.60000038147</ele>
        <time>2021-04-01T08:29:43.000Z</time>
      </trkpt>
      <trkpt lat="47.32321" lon="-2.45385">
        <ele>10.60000038147</ele>
        <time>2021-04-01T08:29:46.000Z</time>
      </trkpt>
      <trkpt lat="47.32321" lon="-2.45388">
        <ele>10.199999809265</ele>
        <time>2021-04-01T08:29:47.000Z</time>
      </trkpt>
      <trkpt lat="47.32322" lon="-2.45391">
        <ele>9.6000003814697</ele>
        <time>2021-04-01T08:29:48.000Z</time>
      </trkpt>
      <trkpt lat="47.32322" lon="-2.45395">
        <ele>9.1999998092651</ele>
        <time>2021-04-01T08:29:49.000Z</time>
      </trkpt>
      <trkpt lat="47.32321" lon="-2.45399">
        <ele>8.8000001907349</ele>
        <time>2021-04-01T08:29:50.000Z</time>
      </trkpt>
      <trkpt lat="47.32319" lon="-2.45403">
        <ele>8.1999998092651</ele>
        <time>2021-04-01T08:29:51.000Z</time>
      </trkpt>
      <trkpt lat="47.32315" lon="-2.45415">
        <ele>8.1999998092651</ele>
        <time>2021-04-01T08:29:53.000Z</time>
      </trkpt>
      <trkpt lat="47.32316" lon="-2.45422">
        <ele>8.1999998092651</ele>
        <time>2021-04-01T08:29:54.000Z</time>
      </trkpt>
      <trkpt lat="47.32327" lon="-2.45438">
        <ele>8.1999998092651</ele>
        <time>2021-04-01T08:29:57.000Z</time>
      </trkpt>
      <trkpt lat="47.32347" lon="-2.45473">
        <ele>8.1999998092651</ele>
        <time>2021-04-01T08:30:03.000Z</time>
      </trkpt>
      <trkpt lat="47.32374" lon="-2.45518">
        <ele>8.1999998092651</ele>
        <time>2021-04-01T08:30:11.000Z</time>
      </trkpt>
      <trkpt lat="47.32395" lon="-2.45555">
        <ele>8.1999998092651</ele>
        <time>2021-04-01T08:30:18.000Z</time>
      </trkpt>
      <trkpt lat="47.32398" lon="-2.45559">
        <ele>8.1999998092651</ele>
        <time>2021-04-01T08:30:19.000Z</time>
      </trkpt>
      <trkpt lat="47.32407" lon="-2.45573">
        <ele>8.1999998092651</ele>
        <time>2021-04-01T08:30:22.000Z</time>
      </trkpt>
      <trkpt lat="47.32414" lon="-2.45583">
        <ele>8.1999998092651</ele>
        <time>2021-04-01T08:30:25.000Z</time>
      </trkpt>
      <trkpt lat="47.32415" lon="-2.45587">
        <ele>8.1999998092651</ele>
        <time>2021-04-01T08:30:26.000Z</time>
      </trkpt>
      <trkpt lat="47.32412" lon="-2.45596">
        <ele>8.1999998092651</ele>
        <time>2021-04-01T08:30:28.000Z</time>
      </trkpt>
      <trkpt lat="47.32398" lon="-2.45609">
        <ele>8.1999998092651</ele>
        <time>2021-04-01T08:30:32.000Z</time>
      </trkpt>
      <trkpt lat="47.32373" lon="-2.45628">
        <ele>8.1999998092651</ele>
        <time>2021-04-01T08:30:37.000Z</time>
      </trkpt>
      <trkpt lat="47.32339" lon="-2.45661">
        <ele>8.1999998092651</ele>
        <time>2021-04-01T08:30:43.000Z</time>
      </trkpt>
      <trkpt lat="47.32334" lon="-2.45667">
        <ele>7.8000001907349</ele>
        <time>2021-04-01T08:30:44.000Z</time>
      </trkpt>
      <trkpt lat="47.32328" lon="-2.45673">
        <ele>7.4000000953674</ele>
        <time>2021-04-01T08:30:45.000Z</time>
      </trkpt>
      <trkpt lat="47.32323" lon="-2.4568">
        <ele>7</ele>
        <time>2021-04-01T08:30:46.000Z</time>
      </trkpt>
      <trkpt lat="47.32318" lon="-2.45687">
        <ele>6.5999999046326</ele>
        <time>2021-04-01T08:30:47.000Z</time>
      </trkpt>
      <trkpt lat="47.32312" lon="-2.45694">
        <ele>6.1999998092651</ele>
        <time>2021-04-01T08:30:48.000Z</time>
      </trkpt>
      <trkpt lat="47.32307" lon="-2.45701">
        <ele>6.1999998092651</ele>
        <time>2021-04-01T08:30:49.000Z</time>
      </trkpt>
      <trkpt lat="47.32283" lon="-2.45742">
        <ele>6.1999998092651</ele>
        <time>2021-04-01T08:30:54.000Z</time>
      </trkpt>
      <trkpt lat="47.32278" lon="-2.45751">
        <ele>5.1999998092651</ele>
        <time>2021-04-01T08:30:55.000Z</time>
      </trkpt>
      <trkpt lat="47.32273" lon="-2.4576">
        <ele>4.8000001907349</ele>
        <time>2021-04-01T08:30:56.000Z</time>
      </trkpt>
      <trkpt lat="47.32269" lon="-2.45769">
        <ele>4.4000000953674</ele>
        <time>2021-04-01T08:30:57.000Z</time>
      </trkpt>
      <trkpt lat="47.32264" lon="-2.45778">
        <ele>4</ele>
        <time>2021-04-01T08:30:58.000Z</time>
      </trkpt>
      <trkpt lat="47.32249" lon="-2.45803">
        <ele>4</ele>
        <time>2021-04-01T08:31:01.000Z</time>
      </trkpt>
      <trkpt lat="47.32221" lon="-2.45851">
        <ele>4</ele>
        <time>2021-04-01T08:31:07.000Z</time>
      </trkpt>
      <trkpt lat="47.32216" lon="-2.45857">
        <ele>4</ele>
        <time>2021-04-01T08:31:08.000Z</time>
      </trkpt>
      <trkpt lat="47.32204" lon="-2.45869">
        <ele>4</ele>
        <time>2021-04-01T08:31:11.000Z</time>
      </trkpt>
      <trkpt lat="47.32202" lon="-2.45874">
        <ele>4</ele>
        <time>2021-04-01T08:31:12.000Z</time>
      </trkpt>
      <trkpt lat="47.32204" lon="-2.45885">
        <ele>3.5999999046326</ele>
        <time>2021-04-01T08:31:14.000Z</time>
      </trkpt>
      <trkpt lat="47.32206" lon="-2.4589">
        <ele>3.2000000476837</ele>
        <time>2021-04-01T08:31:15.000Z</time>
      </trkpt>
      <trkpt lat="47.32209" lon="-2.45897">
        <ele>2.7999999523163</ele>
        <time>2021-04-01T08:31:16.000Z</time>
      </trkpt>
      <trkpt lat="47.32211" lon="-2.45904">
        <ele>2.4000000953674</ele>
        <time>2021-04-01T08:31:17.000Z</time>
      </trkpt>
      <trkpt lat="47.32214" lon="-2.45912">
        <ele>2</ele>
        <time>2021-04-01T08:31:18.000Z</time>
      </trkpt>
      <trkpt lat="47.32219" lon="-2.45928">
        <ele>2</ele>
        <time>2021-04-01T08:31:20.000Z</time>
      </trkpt>
      <trkpt lat="47.32229" lon="-2.4595">
        <ele>2</ele>
        <time>2021-04-01T08:31:23.000Z</time>
      </trkpt>
      <trkpt lat="47.32238" lon="-2.45964">
        <ele>2</ele>
        <time>2021-04-01T08:31:25.000Z</time>
      </trkpt>
      <trkpt lat="47.32243" lon="-2.4597">
        <ele>2</ele>
        <time>2021-04-01T08:31:26.000Z</time>
      </trkpt>
      <trkpt lat="47.32254" lon="-2.45981">
        <ele>2</ele>
        <time>2021-04-01T08:31:28.000Z</time>
      </trkpt>
      <trkpt lat="47.32269" lon="-2.46001">
        <ele>2</ele>
        <time>2021-04-01T08:31:31.000Z</time>
      </trkpt>
      <trkpt lat="47.32276" lon="-2.46018">
        <ele>2</ele>
        <time>2021-04-01T08:31:33.000Z</time>
      </trkpt>
      <trkpt lat="47.32302" lon="-2.46073">
        <ele>2</ele>
        <time>2021-04-01T08:31:40.000Z</time>
      </trkpt>
      <trkpt lat="47.32327" lon="-2.46117">
        <ele>2</ele>
        <time>2021-04-01T08:31:46.000Z</time>
      </trkpt>
      <trkpt lat="47.32363" lon="-2.4617">
        <ele>2</ele>
        <time>2021-04-01T08:31:54.000Z</time>
      </trkpt>
      <trkpt lat="47.32395" lon="-2.46227">
        <ele>2</ele>
        <time>2021-04-01T08:32:02.000Z</time>
      </trkpt>
      <trkpt lat="47.3243" lon="-2.46292">
        <ele>2</ele>
        <time>2021-04-01T08:32:11.000Z</time>
      </trkpt>
      <trkpt lat="47.32448" lon="-2.46346">
        <ele>2</ele>
        <time>2021-04-01T08:32:17.000Z</time>
      </trkpt>
      <trkpt lat="47.32475" lon="-2.46393">
        <ele>2</ele>
        <time>2021-04-01T08:32:23.000Z</time>
      </trkpt>
      <trkpt lat="47.32513" lon="-2.4645">
        <ele>2</ele>
        <time>2021-04-01T08:32:31.000Z</time>
      </trkpt>
      <trkpt lat="47.32534" lon="-2.46502">
        <ele>2</ele>
        <time>2021-04-01T08:32:37.000Z</time>
      </trkpt>
      <trkpt lat="47.32545" lon="-2.46527">
        <ele>2</ele>
        <time>2021-04-01T08:32:40.000Z</time>
      </trkpt>
      <trkpt lat="47.32555" lon="-2.46541">
        <ele>2</ele>
        <time>2021-04-01T08:32:42.000Z</time>
      </trkpt>
      <trkpt lat="47.32566" lon="-2.46553">
        <ele>2</ele>
        <time>2021-04-01T08:32:44.000Z</time>
      </trkpt>
      <trkpt lat="47.32586" lon="-2.4658">
        <ele>2</ele>
        <time>2021-04-01T08:32:48.000Z</time>
      </trkpt>
      <trkpt lat="47.32617" lon="-2.46631">
        <ele>2</ele>
        <time>2021-04-01T08:32:55.000Z</time>
      </trkpt>
      <trkpt lat="47.3265" lon="-2.46667">
        <ele>2</ele>
        <time>2021-04-01T08:33:01.000Z</time>
      </trkpt>
      <trkpt lat="47.32693" lon="-2.46699">
        <ele>2</ele>
        <time>2021-04-01T08:33:08.000Z</time>
      </trkpt>
      <trkpt lat="47.32731" lon="-2.46744">
        <ele>2</ele>
        <time>2021-04-01T08:33:15.000Z</time>
      </trkpt>
      <trkpt lat="47.32756" lon="-2.46794">
        <ele>2</ele>
        <time>2021-04-01T08:33:21.000Z</time>
      </trkpt>
      <trkpt lat="47.32776" lon="-2.46838">
        <ele>2</ele>
        <time>2021-04-01T08:33:26.000Z</time>
      </trkpt>
      <trkpt lat="47.32778" lon="-2.46847">
        <ele>2</ele>
        <time>2021-04-01T08:33:27.000Z</time>
      </trkpt>
      <trkpt lat="47.32792" lon="-2.46918">
        <ele>2</ele>
        <time>2021-04-01T08:33:34.000Z</time>
      </trkpt>
      <trkpt lat="47.32812" lon="-2.46972">
        <ele>2</ele>
        <time>2021-04-01T08:33:40.000Z</time>
      </trkpt>
      <trkpt lat="47.3284" lon="-2.47044">
        <ele>2.4000000953674</ele>
        <time>2021-04-01T08:33:48.000Z</time>
      </trkpt>
      <trkpt lat="47.32844" lon="-2.47053">
        <ele>2.7999999523163</ele>
        <time>2021-04-01T08:33:49.000Z</time>
      </trkpt>
      <trkpt lat="47.32847" lon="-2.47063">
        <ele>3.2000000476837</ele>
        <time>2021-04-01T08:33:50.000Z</time>
      </trkpt>
      <trkpt lat="47.32849" lon="-2.47073">
        <ele>3.5999999046326</ele>
        <time>2021-04-01T08:33:51.000Z</time>
      </trkpt>
      <trkpt lat="47.32851" lon="-2.47083">
        <ele>4</ele>
        <time>2021-04-01T08:33:52.000Z</time>
      </trkpt>
      <trkpt lat="47.32857" lon="-2.47114">
        <ele>4</ele>
        <time>2021-04-01T08:33:55.000Z</time>
      </trkpt>
      <trkpt lat="47.32868" lon="-2.47185">
        <ele>4</ele>
        <time>2021-04-01T08:34:02.000Z</time>
      </trkpt>
      <trkpt lat="47.3288" lon="-2.47255">
        <ele>4</ele>
        <time>2021-04-01T08:34:09.000Z</time>
      </trkpt>
      <trkpt lat="47.32891" lon="-2.47333">
        <ele>4</ele>
        <time>2021-04-01T08:34:17.000Z</time>
      </trkpt>
      <trkpt lat="47.32896" lon="-2.4735">
        <ele>4</ele>
        <time>2021-04-01T08:34:19.000Z</time>
      </trkpt>
      <trkpt lat="47.32901" lon="-2.47354">
        <ele>4</ele>
        <time>2021-04-01T08:34:20.000Z</time>
      </trkpt>
      <trkpt lat="47.32913" lon="-2.47352">
        <ele>4</ele>
        <time>2021-04-01T08:34:22.000Z</time>
      </trkpt>
      <trkpt lat="47.32928" lon="-2.47334">
        <ele>4</ele>
        <time>2021-04-01T08:34:25.000Z</time>
      </trkpt>
      <trkpt lat="47.32962" lon="-2.47291">
        <ele>4</ele>
        <time>2021-04-01T08:34:32.000Z</time>
      </trkpt>
      <trkpt lat="47.33002" lon="-2.47244">
        <ele>4</ele>
        <time>2021-04-01T08:34:40.000Z</time>
      </trkpt>
      <trkpt lat="47.33037" lon="-2.47205">
        <ele>4</ele>
        <time>2021-04-01T08:34:47.000Z</time>
      </trkpt>
      <trkpt lat="47.33072" lon="-2.47172">
        <ele>4</ele>
        <time>2021-04-01T08:34:54.000Z</time>
      </trkpt>
      <trkpt lat="47.33099" lon="-2.47139">
        <ele>4</ele>
        <time>2021-04-01T08:35:00.000Z</time>
      </trkpt>
      <trkpt lat="47.33115" lon="-2.47117">
        <ele>4.4000000953674</ele>
        <time>2021-04-01T08:35:04.000Z</time>
      </trkpt>
      <trkpt lat="47.33119" lon="-2.47111">
        <ele>4.8000001907349</ele>
        <time>2021-04-01T08:35:05.000Z</time>
      </trkpt>
      <trkpt lat="47.33123" lon="-2.47105">
        <ele>5.1999998092651</ele>
        <time>2021-04-01T08:35:06.000Z</time>
      </trkpt>
      <trkpt lat="47.33126" lon="-2.471">
        <ele>5.5999999046326</ele>
        <time>2021-04-01T08:35:07.000Z</time>
      </trkpt>
      <trkpt lat="47.33131" lon="-2.47095">
        <ele>6</ele>
        <time>2021-04-01T08:35:08.000Z</time>
      </trkpt>
      <trkpt lat="47.33154" lon="-2.47063">
        <ele>6</ele>
        <time>2021-04-01T08:35:14.000Z</time>
      </trkpt>
      <trkpt lat="47.33179" lon="-2.47028">
        <ele>6.4000000953674</ele>
        <time>2021-04-01T08:35:21.000Z</time>
      </trkpt>
      <trkpt lat="47.33183" lon="-2.47023">
        <ele>6.8000001907349</ele>
        <time>2021-04-01T08:35:22.000Z</time>
      </trkpt>
      <trkpt lat="47.33186" lon="-2.47019">
        <ele>7.1999998092651</ele>
        <time>2021-04-01T08:35:23.000Z</time>
      </trkpt>
      <trkpt lat="47.33189" lon="-2.47014">
        <ele>7.8000001907349</ele>
        <time>2021-04-01T08:35:24.000Z</time>
      </trkpt>
      <trkpt lat="47.33193" lon="-2.4701">
        <ele>8.1999998092651</ele>
        <time>2021-04-01T08:35:25.000Z</time>
      </trkpt>
      <trkpt lat="47.33199" lon="-2.47">
        <ele>9</ele>
        <time>2021-04-01T08:35:27.000Z</time>
      </trkpt>
      <trkpt lat="47.33203" lon="-2.46996">
        <ele>9.6000003814697</ele>
        <time>2021-04-01T08:35:28.000Z</time>
      </trkpt>
      <trkpt lat="47.33206" lon="-2.46992">
        <ele>10</ele>
        <time>2021-04-01T08:35:29.000Z</time>
      </trkpt>
      <trkpt lat="47.33209" lon="-2.46989">
        <ele>10.39999961853</ele>
        <time>2021-04-01T08:35:30.000Z</time>
      </trkpt>
      <trkpt lat="47.33222" lon="-2.46973">
        <ele>11</ele>
        <time>2021-04-01T08:35:34.000Z</time>
      </trkpt>
      <trkpt lat="47.33225" lon="-2.4697">
        <ele>11.39999961853</ele>
        <time>2021-04-01T08:35:35.000Z</time>
      </trkpt>
      <trkpt lat="47.33229" lon="-2.46967">
        <ele>11.800000190735</ele>
        <time>2021-04-01T08:35:36.000Z</time>
      </trkpt>
      <trkpt lat="47.33232" lon="-2.46963">
        <ele>12.199999809265</ele>
        <time>2021-04-01T08:35:37.000Z</time>
      </trkpt>
      <trkpt lat="47.33235" lon="-2.4696">
        <ele>12.60000038147</ele>
        <time>2021-04-01T08:35:38.000Z</time>
      </trkpt>
      <trkpt lat="47.33252" lon="-2.46941">
        <ele>13.199999809265</ele>
        <time>2021-04-01T08:35:43.000Z</time>
      </trkpt>
      <trkpt lat="47.33256" lon="-2.46937">
        <ele>13.60000038147</ele>
        <time>2021-04-01T08:35:44.000Z</time>
      </trkpt>
      <trkpt lat="47.33259" lon="-2.46933">
        <ele>14</ele>
        <time>2021-04-01T08:35:45.000Z</time>
      </trkpt>
      <trkpt lat="47.33262" lon="-2.4693">
        <ele>14.39999961853</ele>
        <time>2021-04-01T08:35:46.000Z</time>
      </trkpt>
      <trkpt lat="47.33266" lon="-2.46926">
        <ele>14.800000190735</ele>
        <time>2021-04-01T08:35:47.000Z</time>
      </trkpt>
      <trkpt lat="47.33279" lon="-2.46913">
        <ele>15.199999809265</ele>
        <time>2021-04-01T08:35:51.000Z</time>
      </trkpt>
      <trkpt lat="47.33281" lon="-2.46909">
        <ele>15.60000038147</ele>
        <time>2021-04-01T08:35:52.000Z</time>
      </trkpt>
      <trkpt lat="47.33284" lon="-2.46906">
        <ele>16</ele>
        <time>2021-04-01T08:35:53.000Z</time>
      </trkpt>
      <trkpt lat="47.33287" lon="-2.46903">
        <ele>16.60000038147</ele>
        <time>2021-04-01T08:35:54.000Z</time>
      </trkpt>
      <trkpt lat="47.3329" lon="-2.469">
        <ele>17</ele>
        <time>2021-04-01T08:35:55.000Z</time>
      </trkpt>
      <trkpt lat="47.33301" lon="-2.46889">
        <ele>17</ele>
        <time>2021-04-01T08:35:59.000Z</time>
      </trkpt>
      <trkpt lat="47.33306" lon="-2.46887">
        <ele>17</ele>
        <time>2021-04-01T08:36:01.000Z</time>
      </trkpt>
      <trkpt lat="47.33311" lon="-2.46891">
        <ele>17</ele>
        <time>2021-04-01T08:36:03.000Z</time>
      </trkpt>
      <trkpt lat="47.33319" lon="-2.46912">
        <ele>17</ele>
        <time>2021-04-01T08:36:07.000Z</time>
      </trkpt>
      <trkpt lat="47.33321" lon="-2.46919">
        <ele>17</ele>
        <time>2021-04-01T08:36:08.000Z</time>
      </trkpt>
      <trkpt lat="47.33331" lon="-2.4696">
        <ele>17</ele>
        <time>2021-04-01T08:36:14.000Z</time>
      </trkpt>
      <trkpt lat="47.33342" lon="-2.47007">
        <ele>17</ele>
        <time>2021-04-01T08:36:19.000Z</time>
      </trkpt>
      <trkpt lat="47.33352" lon="-2.47071">
        <ele>16.60000038147</ele>
        <time>2021-04-01T08:36:25.000Z</time>
      </trkpt>
      <trkpt lat="47.33353" lon="-2.4708">
        <ele>16.200000762939</ele>
        <time>2021-04-01T08:36:26.000Z</time>
      </trkpt>
      <trkpt lat="47.33354" lon="-2.47088">
        <ele>15.800000190735</ele>
        <time>2021-04-01T08:36:27.000Z</time>
      </trkpt>
      <trkpt lat="47.33356" lon="-2.47097">
        <ele>15.39999961853</ele>
        <time>2021-04-01T08:36:28.000Z</time>
      </trkpt>
      <trkpt lat="47.33357" lon="-2.47105">
        <ele>14.800000190735</ele>
        <time>2021-04-01T08:36:29.000Z</time>
      </trkpt>
      <trkpt lat="47.33359" lon="-2.47112">
        <ele>14.800000190735</ele>
        <time>2021-04-01T08:36:30.000Z</time>
      </trkpt>
      <trkpt lat="47.33369" lon="-2.47163">
        <ele>14.800000190735</ele>
        <time>2021-04-01T08:36:37.000Z</time>
      </trkpt>
      <trkpt lat="47.33369" lon="-2.4717">
        <ele>15.39999961853</ele>
        <time>2021-04-01T08:36:38.000Z</time>
      </trkpt>
      <trkpt lat="47.3337" lon="-2.47177">
        <ele>15.800000190735</ele>
        <time>2021-04-01T08:36:39.000Z</time>
      </trkpt>
      <trkpt lat="47.33371" lon="-2.47184">
        <ele>16.200000762939</ele>
        <time>2021-04-01T08:36:40.000Z</time>
      </trkpt>
      <trkpt lat="47.33372" lon="-2.47191">
        <ele>17</ele>
        <time>2021-04-01T08:36:41.000Z</time>
      </trkpt>
      <trkpt lat="47.33374" lon="-2.47205">
        <ele>17</ele>
        <time>2021-04-01T08:36:43.000Z</time>
      </trkpt>
      <trkpt lat="47.33383" lon="-2.47255">
        <ele>17</ele>
        <time>2021-04-01T08:36:49.000Z</time>
      </trkpt>
      <trkpt lat="47.33389" lon="-2.47315">
        <ele>17</ele>
        <time>2021-04-01T08:36:55.000Z</time>
      </trkpt>
      <trkpt lat="47.33391" lon="-2.47333">
        <ele>17.39999961853</ele>
        <time>2021-04-01T08:36:57.000Z</time>
      </trkpt>
      <trkpt lat="47.33393" lon="-2.47341">
        <ele>17.799999237061</ele>
        <time>2021-04-01T08:36:58.000Z</time>
      </trkpt>
      <trkpt lat="47.33395" lon="-2.4735">
        <ele>18.200000762939</ele>
        <time>2021-04-01T08:36:59.000Z</time>
      </trkpt>
      <trkpt lat="47.33397" lon="-2.4736">
        <ele>18.799999237061</ele>
        <time>2021-04-01T08:37:00.000Z</time>
      </trkpt>
      <trkpt lat="47.334" lon="-2.47369">
        <ele>19.200000762939</ele>
        <time>2021-04-01T08:37:01.000Z</time>
      </trkpt>
      <trkpt lat="47.33412" lon="-2.47412">
        <ele>19.200000762939</ele>
        <time>2021-04-01T08:37:06.000Z</time>
      </trkpt>
      <trkpt lat="47.33414" lon="-2.4742">
        <ele>19.200000762939</ele>
        <time>2021-04-01T08:37:07.000Z</time>
      </trkpt>
      <trkpt lat="47.3342" lon="-2.4745">
        <ele>19.200000762939</ele>
        <time>2021-04-01T08:37:11.000Z</time>
      </trkpt>
      <trkpt lat="47.33432" lon="-2.47491">
        <ele>19.200000762939</ele>
        <time>2021-04-01T08:37:17.000Z</time>
      </trkpt>
      <trkpt lat="47.33452" lon="-2.47539">
        <ele>19.200000762939</ele>
        <time>2021-04-01T08:37:24.000Z</time>
      </trkpt>
      <trkpt lat="47.33465" lon="-2.47568">
        <ele>19.200000762939</ele>
        <time>2021-04-01T08:37:28.000Z</time>
      </trkpt>
      <trkpt lat="47.33474" lon="-2.47584">
        <ele>19.200000762939</ele>
        <time>2021-04-01T08:37:30.000Z</time>
      </trkpt>
      <trkpt lat="47.33484" lon="-2.476">
        <ele>19.200000762939</ele>
        <time>2021-04-01T08:37:32.000Z</time>
      </trkpt>
      <trkpt lat="47.33496" lon="-2.47611">
        <ele>19.200000762939</ele>
        <time>2021-04-01T08:37:34.000Z</time>
      </trkpt>
      <trkpt lat="47.33507" lon="-2.47623">
        <ele>19.200000762939</ele>
        <time>2021-04-01T08:37:36.000Z</time>
      </trkpt>
      <trkpt lat="47.33514" lon="-2.47639">
        <ele>19.200000762939</ele>
        <time>2021-04-01T08:37:38.000Z</time>
      </trkpt>
      <trkpt lat="47.33533" lon="-2.47673">
        <ele>19.200000762939</ele>
        <time>2021-04-01T08:37:43.000Z</time>
      </trkpt>
      <trkpt lat="47.33538" lon="-2.47676">
        <ele>19.200000762939</ele>
        <time>2021-04-01T08:37:44.000Z</time>
      </trkpt>
      <trkpt lat="47.33568" lon="-2.47697">
        <ele>19.200000762939</ele>
        <time>2021-04-01T08:37:51.000Z</time>
      </trkpt>
      <trkpt lat="47.33578" lon="-2.47703">
        <ele>19.200000762939</ele>
        <time>2021-04-01T08:37:53.000Z</time>
      </trkpt>
      <trkpt lat="47.33588" lon="-2.47703">
        <ele>19.200000762939</ele>
        <time>2021-04-01T08:37:55.000Z</time>
      </trkpt>
      <trkpt lat="47.33598" lon="-2.47697">
        <ele>19.200000762939</ele>
        <time>2021-04-01T08:37:57.000Z</time>
      </trkpt>
      <trkpt lat="47.33602" lon="-2.47692">
        <ele>19.200000762939</ele>
        <time>2021-04-01T08:37:58.000Z</time>
      </trkpt>
      <trkpt lat="47.33628" lon="-2.47666">
        <ele>19.200000762939</ele>
        <time>2021-04-01T08:38:04.000Z</time>
      </trkpt>
      <trkpt lat="47.33632" lon="-2.47664">
        <ele>19.200000762939</ele>
        <time>2021-04-01T08:38:05.000Z</time>
      </trkpt>
      <trkpt lat="47.33649" lon="-2.47652">
        <ele>19.200000762939</ele>
        <time>2021-04-01T08:38:09.000Z</time>
      </trkpt>
      <trkpt lat="47.33676" lon="-2.47632">
        <ele>19.200000762939</ele>
        <time>2021-04-01T08:38:15.000Z</time>
      </trkpt>
      <trkpt lat="47.33681" lon="-2.47629">
        <ele>19.60000038147</ele>
        <time>2021-04-01T08:38:16.000Z</time>
      </trkpt>
      <trkpt lat="47.33686" lon="-2.47627">
        <ele>20</ele>
        <time>2021-04-01T08:38:17.000Z</time>
      </trkpt>
      <trkpt lat="47.33691" lon="-2.47625">
        <ele>20.39999961853</ele>
        <time>2021-04-01T08:38:18.000Z</time>
      </trkpt>
      <trkpt lat="47.33696" lon="-2.47623">
        <ele>20.799999237061</ele>
        <time>2021-04-01T08:38:19.000Z</time>
      </trkpt>
      <trkpt lat="47.337" lon="-2.47622">
        <ele>21.200000762939</ele>
        <time>2021-04-01T08:38:20.000Z</time>
      </trkpt>
      <trkpt lat="47.33706" lon="-2.47621">
        <ele>21.200000762939</ele>
        <time>2021-04-01T08:38:21.000Z</time>
      </trkpt>
      <trkpt lat="47.33716" lon="-2.47621">
        <ele>21.200000762939</ele>
        <time>2021-04-01T08:38:23.000Z</time>
      </trkpt>
      <trkpt lat="47.33737" lon="-2.47625">
        <ele>21.200000762939</ele>
        <time>2021-04-01T08:38:27.000Z</time>
      </trkpt>
      <trkpt lat="47.33746" lon="-2.4763">
        <ele>21.200000762939</ele>
        <time>2021-04-01T08:38:29.000Z</time>
      </trkpt>
      <trkpt lat="47.33755" lon="-2.47639">
        <ele>21.200000762939</ele>
        <time>2021-04-01T08:38:31.000Z</time>
      </trkpt>
      <trkpt lat="47.33768" lon="-2.47667">
        <ele>21.200000762939</ele>
        <time>2021-04-01T08:38:35.000Z</time>
      </trkpt>
      <trkpt lat="47.33772" lon="-2.47674">
        <ele>21.200000762939</ele>
        <time>2021-04-01T08:38:36.000Z</time>
      </trkpt>
      <trkpt lat="47.33787" lon="-2.47695">
        <ele>21.200000762939</ele>
        <time>2021-04-01T08:38:39.000Z</time>
      </trkpt>
      <trkpt lat="47.33798" lon="-2.47708">
        <ele>20.799999237061</ele>
        <time>2021-04-01T08:38:41.000Z</time>
      </trkpt>
      <trkpt lat="47.33803" lon="-2.47715">
        <ele>20.39999961853</ele>
        <time>2021-04-01T08:38:42.000Z</time>
      </trkpt>
      <trkpt lat="47.33809" lon="-2.47722">
        <ele>20</ele>
        <time>2021-04-01T08:38:43.000Z</time>
      </trkpt>
      <trkpt lat="47.33814" lon="-2.47728">
        <ele>19.200000762939</ele>
        <time>2021-04-01T08:38:44.000Z</time>
      </trkpt>
      <trkpt lat="47.33819" lon="-2.47734">
        <ele>19.200000762939</ele>
        <time>2021-04-01T08:38:45.000Z</time>
      </trkpt>
      <trkpt lat="47.33852" lon="-2.4777">
        <ele>19.200000762939</ele>
        <time>2021-04-01T08:38:52.000Z</time>
      </trkpt>
      <trkpt lat="47.33856" lon="-2.47772">
        <ele>18.60000038147</ele>
        <time>2021-04-01T08:38:53.000Z</time>
      </trkpt>
      <trkpt lat="47.33859" lon="-2.47771">
        <ele>18.200000762939</ele>
        <time>2021-04-01T08:38:54.000Z</time>
      </trkpt>
      <trkpt lat="47.33862" lon="-2.47767">
        <ele>17.799999237061</ele>
        <time>2021-04-01T08:38:55.000Z</time>
      </trkpt>
      <trkpt lat="47.33864" lon="-2.47764">
        <ele>17.39999961853</ele>
        <time>2021-04-01T08:38:56.000Z</time>
      </trkpt>
      <trkpt lat="47.33866" lon="-2.47761">
        <ele>16.799999237061</ele>
        <time>2021-04-01T08:38:57.000Z</time>
      </trkpt>
      <trkpt lat="47.33877" lon="-2.47744">
        <ele>16.799999237061</ele>
        <time>2021-04-01T08:39:01.000Z</time>
      </trkpt>
      <trkpt lat="47.33897" lon="-2.47708">
        <ele>16.799999237061</ele>
        <time>2021-04-01T08:39:08.000Z</time>
      </trkpt>
      <trkpt lat="47.33911" lon="-2.47681">
        <ele>16.799999237061</ele>
        <time>2021-04-01T08:39:14.000Z</time>
      </trkpt>
      <trkpt lat="47.33919" lon="-2.4767">
        <ele>17.39999961853</ele>
        <time>2021-04-01T08:39:17.000Z</time>
      </trkpt>
      <trkpt lat="47.33921" lon="-2.47665">
        <ele>17.799999237061</ele>
        <time>2021-04-01T08:39:18.000Z</time>
      </trkpt>
      <trkpt lat="47.33923" lon="-2.47661">
        <ele>18.200000762939</ele>
        <time>2021-04-01T08:39:19.000Z</time>
      </trkpt>
      <trkpt lat="47.33925" lon="-2.47656">
        <ele>18.60000038147</ele>
        <time>2021-04-01T08:39:20.000Z</time>
      </trkpt>
      <trkpt lat="47.33927" lon="-2.47651">
        <ele>19</ele>
        <time>2021-04-01T08:39:21.000Z</time>
      </trkpt>
      <trkpt lat="47.33934" lon="-2.47626">
        <ele>19</ele>
        <time>2021-04-01T08:39:26.000Z</time>
      </trkpt>
      <trkpt lat="47.33941" lon="-2.47598">
        <ele>19</ele>
        <time>2021-04-01T08:39:32.000Z</time>
      </trkpt>
      <trkpt lat="47.33943" lon="-2.47594">
        <ele>19.39999961853</ele>
        <time>2021-04-01T08:39:33.000Z</time>
      </trkpt>
      <trkpt lat="47.33944" lon="-2.47591">
        <ele>20.39999961853</ele>
        <time>2021-04-01T08:39:34.000Z</time>
      </trkpt>
      <trkpt lat="47.33946" lon="-2.47586">
        <ele>20.799999237061</ele>
        <time>2021-04-01T08:39:35.000Z</time>
      </trkpt>
      <trkpt lat="47.33947" lon="-2.47582">
        <ele>21.200000762939</ele>
        <time>2021-04-01T08:39:36.000Z</time>
      </trkpt>
      <trkpt lat="47.33948" lon="-2.47578">
        <ele>21.200000762939</ele>
        <time>2021-04-01T08:39:37.000Z</time>
      </trkpt>
      <trkpt lat="47.33956" lon="-2.4756">
        <ele>21.200000762939</ele>
        <time>2021-04-01T08:39:42.000Z</time>
      </trkpt>
      <trkpt lat="47.33965" lon="-2.47543">
        <ele>21.60000038147</ele>
        <time>2021-04-01T08:39:47.000Z</time>
      </trkpt>
      <trkpt lat="47.33968" lon="-2.4754">
        <ele>22</ele>
        <time>2021-04-01T08:39:48.000Z</time>
      </trkpt>
      <trkpt lat="47.33971" lon="-2.47536">
        <ele>22.60000038147</ele>
        <time>2021-04-01T08:39:49.000Z</time>
      </trkpt>
      <trkpt lat="47.33974" lon="-2.47532">
        <ele>23</ele>
        <time>2021-04-01T08:39:50.000Z</time>
      </trkpt>
      <trkpt lat="47.33977" lon="-2.47528">
        <ele>23.39999961853</ele>
        <time>2021-04-01T08:39:51.000Z</time>
      </trkpt>
      <trkpt lat="47.33988" lon="-2.47519">
        <ele>23.799999237061</ele>
        <time>2021-04-01T08:39:54.000Z</time>
      </trkpt>
      <trkpt lat="47.33991" lon="-2.47516">
        <ele>24.200000762939</ele>
        <time>2021-04-01T08:39:55.000Z</time>
      </trkpt>
      <trkpt lat="47.33994" lon="-2.47512">
        <ele>24.60000038147</ele>
        <time>2021-04-01T08:39:56.000Z</time>
      </trkpt>
      <trkpt lat="47.33998" lon="-2.47509">
        <ele>25</ele>
        <time>2021-04-01T08:39:57.000Z</time>
      </trkpt>
      <trkpt lat="47.34001" lon="-2.47507">
        <ele>25.60000038147</ele>
        <time>2021-04-01T08:39:58.000Z</time>
      </trkpt>
      <trkpt lat="47.34007" lon="-2.475">
        <ele>25.60000038147</ele>
        <time>2021-04-01T08:40:00.000Z</time>
      </trkpt>
      <trkpt lat="47.34015" lon="-2.47489">
        <ele>26</ele>
        <time>2021-04-01T08:40:03.000Z</time>
      </trkpt>
      <trkpt lat="47.34018" lon="-2.47486">
        <ele>26.39999961853</ele>
        <time>2021-04-01T08:40:04.000Z</time>
      </trkpt>
      <trkpt lat="47.34021" lon="-2.47483">
        <ele>26.799999237061</ele>
        <time>2021-04-01T08:40:05.000Z</time>
      </trkpt>
      <trkpt lat="47.34024" lon="-2.4748">
        <ele>27.200000762939</ele>
        <time>2021-04-01T08:40:06.000Z</time>
      </trkpt>
      <trkpt lat="47.34028" lon="-2.47478">
        <ele>27.60000038147</ele>
        <time>2021-04-01T08:40:07.000Z</time>
      </trkpt>
      <trkpt lat="47.34041" lon="-2.47468">
        <ele>27.60000038147</ele>
        <time>2021-04-01T08:40:11.000Z</time>
      </trkpt>
      <trkpt lat="47.34057" lon="-2.47449">
        <ele>27.60000038147</ele>
        <time>2021-04-01T08:40:17.000Z</time>
      </trkpt>
      <trkpt lat="47.34074" lon="-2.47429">
        <ele>28</ele>
        <time>2021-04-01T08:40:23.000Z</time>
      </trkpt>
      <trkpt lat="47.34076" lon="-2.47426">
        <ele>28.39999961853</ele>
        <time>2021-04-01T08:40:24.000Z</time>
      </trkpt>
      <trkpt lat="47.34078" lon="-2.47423">
        <ele>28.799999237061</ele>
        <time>2021-04-01T08:40:25.000Z</time>
      </trkpt>
      <trkpt lat="47.34079" lon="-2.4742">
        <ele>29.200000762939</ele>
        <time>2021-04-01T08:40:26.000Z</time>
      </trkpt>
      <trkpt lat="47.3408" lon="-2.47419">
        <ele>29.60000038147</ele>
        <time>2021-04-01T08:40:27.000Z</time>
      </trkpt>
      <trkpt lat="47.3408" lon="-2.47418">
        <ele>29.60000038147</ele>
        <time>2021-04-01T08:40:28.000Z</time>
      </trkpt>
      <trkpt lat="47.34082" lon="-2.47418">
        <ele>29.60000038147</ele>
        <time>2021-04-01T08:40:31.000Z</time>
      </trkpt>
      <trkpt lat="47.34085" lon="-2.47414">
        <ele>29.60000038147</ele>
        <time>2021-04-01T08:40:43.000Z</time>
      </trkpt>
      <trkpt lat="47.34086" lon="-2.47413">
        <ele>29.60000038147</ele>
        <time>2021-04-01T08:40:44.000Z</time>
      </trkpt>
      <trkpt lat="47.34092" lon="-2.47402">
        <ele>29.60000038147</ele>
        <time>2021-04-01T08:40:51.000Z</time>
      </trkpt>
      <trkpt lat="47.34097" lon="-2.47389">
        <ele>29.60000038147</ele>
        <time>2021-04-01T08:40:58.000Z</time>
      </trkpt>
      <trkpt lat="47.34104" lon="-2.47371">
        <ele>29.60000038147</ele>
        <time>2021-04-01T08:41:06.000Z</time>
      </trkpt>
      <trkpt lat="47.34106" lon="-2.47364">
        <ele>30</ele>
        <time>2021-04-01T08:41:09.000Z</time>
      </trkpt>
      <trkpt lat="47.34107" lon="-2.47361">
        <ele>30.39999961853</ele>
        <time>2021-04-01T08:41:10.000Z</time>
      </trkpt>
      <trkpt lat="47.34109" lon="-2.47359">
        <ele>30.799999237061</ele>
        <time>2021-04-01T08:41:11.000Z</time>
      </trkpt>
      <trkpt lat="47.3411" lon="-2.47357">
        <ele>31.60000038147</ele>
        <time>2021-04-01T08:41:12.000Z</time>
      </trkpt>
      <trkpt lat="47.34117" lon="-2.47338">
        <ele>31.60000038147</ele>
        <time>2021-04-01T08:41:19.000Z</time>
      </trkpt>
      <trkpt lat="47.34123" lon="-2.47318">
        <ele>32</ele>
        <time>2021-04-01T08:41:24.000Z</time>
      </trkpt>
      <trkpt lat="47.34124" lon="-2.47316">
        <ele>32.400001525879</ele>
        <time>2021-04-01T08:41:25.000Z</time>
      </trkpt>
      <trkpt lat="47.34126" lon="-2.47314">
        <ele>33</ele>
        <time>2021-04-01T08:41:26.000Z</time>
      </trkpt>
      <trkpt lat="47.34128" lon="-2.4731">
        <ele>33.400001525879</ele>
        <time>2021-04-01T08:41:27.000Z</time>
      </trkpt>
      <trkpt lat="47.3413" lon="-2.47307">
        <ele>33.799999237061</ele>
        <time>2021-04-01T08:41:28.000Z</time>
      </trkpt>
      <trkpt lat="47.34137" lon="-2.47292">
        <ele>33.799999237061</ele>
        <time>2021-04-01T08:41:32.000Z</time>
      </trkpt>
      <trkpt lat="47.34157" lon="-2.47269">
        <ele>33.799999237061</ele>
        <time>2021-04-01T08:41:40.000Z</time>
      </trkpt>
      <trkpt lat="47.34171" lon="-2.47254">
        <ele>34.200000762939</ele>
        <time>2021-04-01T08:41:46.000Z</time>
      </trkpt>
      <trkpt lat="47.34174" lon="-2.47251">
        <ele>34.599998474121</ele>
        <time>2021-04-01T08:41:47.000Z</time>
      </trkpt>
      <trkpt lat="47.34177" lon="-2.47249">
        <ele>35</ele>
        <time>2021-04-01T08:41:48.000Z</time>
      </trkpt>
      <trkpt lat="47.34179" lon="-2.47246">
        <ele>35.400001525879</ele>
        <time>2021-04-01T08:41:49.000Z</time>
      </trkpt>
      <trkpt lat="47.34182" lon="-2.47244">
        <ele>35.799999237061</ele>
        <time>2021-04-01T08:41:50.000Z</time>
      </trkpt>
      <trkpt lat="47.34195" lon="-2.47232">
        <ele>35.799999237061</ele>
        <time>2021-04-01T08:41:55.000Z</time>
      </trkpt>
      <trkpt lat="47.34212" lon="-2.47215">
        <ele>35.799999237061</ele>
        <time>2021-04-01T08:42:02.000Z</time>
      </trkpt>
      <trkpt lat="47.34233" lon="-2.47192">
        <ele>36.200000762939</ele>
        <time>2021-04-01T08:42:10.000Z</time>
      </trkpt>
      <trkpt lat="47.34235" lon="-2.47189">
        <ele>36.799999237061</ele>
        <time>2021-04-01T08:42:11.000Z</time>
      </trkpt>
      <trkpt lat="47.34238" lon="-2.47186">
        <ele>37.200000762939</ele>
        <time>2021-04-01T08:42:12.000Z</time>
      </trkpt>
      <trkpt lat="47.34241" lon="-2.47182">
        <ele>37.599998474121</ele>
        <time>2021-04-01T08:42:13.000Z</time>
      </trkpt>
      <trkpt lat="47.34243" lon="-2.47179">
        <ele>38</ele>
        <time>2021-04-01T08:42:14.000Z</time>
      </trkpt>
      <trkpt lat="47.34249" lon="-2.47171">
        <ele>38</ele>
        <time>2021-04-01T08:42:16.000Z</time>
      </trkpt>
      <trkpt lat="47.34263" lon="-2.47151">
        <ele>38</ele>
        <time>2021-04-01T08:42:21.000Z</time>
      </trkpt>
      <trkpt lat="47.34286" lon="-2.47131">
        <ele>38</ele>
        <time>2021-04-01T08:42:28.000Z</time>
      </trkpt>
      <trkpt lat="47.34309" lon="-2.47117">
        <ele>38</ele>
        <time>2021-04-01T08:42:34.000Z</time>
      </trkpt>
      <trkpt lat="47.34344" lon="-2.47092">
        <ele>38</ele>
        <time>2021-04-01T08:42:42.000Z</time>
      </trkpt>
      <trkpt lat="47.34373" lon="-2.47072">
        <ele>38</ele>
        <time>2021-04-01T08:42:49.000Z</time>
      </trkpt>
      <trkpt lat="47.34397" lon="-2.47059">
        <ele>38</ele>
        <time>2021-04-01T08:42:54.000Z</time>
      </trkpt>
      <trkpt lat="47.34407" lon="-2.47053">
        <ele>38</ele>
        <time>2021-04-01T08:42:56.000Z</time>
      </trkpt>
      <trkpt lat="47.34441" lon="-2.47034">
        <ele>38</ele>
        <time>2021-04-01T08:43:03.000Z</time>
      </trkpt>
      <trkpt lat="47.34446" lon="-2.47031">
        <ele>38</ele>
        <time>2021-04-01T08:43:04.000Z</time>
      </trkpt>
      <trkpt lat="47.34459" lon="-2.47022">
        <ele>38</ele>
        <time>2021-04-01T08:43:07.000Z</time>
      </trkpt>
      <trkpt lat="47.34481" lon="-2.47008">
        <ele>38</ele>
        <time>2021-04-01T08:43:13.000Z</time>
      </trkpt>
      <trkpt lat="47.34493" lon="-2.47003">
        <ele>38</ele>
        <time>2021-04-01T08:43:20.000Z</time>
      </trkpt>
      <trkpt lat="47.34502" lon="-2.46999">
        <ele>38</ele>
        <time>2021-04-01T08:43:27.000Z</time>
      </trkpt>
      <trkpt lat="47.34513" lon="-2.46993">
        <ele>38</ele>
        <time>2021-04-01T08:43:34.000Z</time>
      </trkpt>
      <trkpt lat="47.34514" lon="-2.46993">
        <ele>38</ele>
        <time>2021-04-01T08:43:35.000Z</time>
      </trkpt>
      <trkpt lat="47.34527" lon="-2.46977">
        <ele>38</ele>
        <time>2021-04-01T08:44:20.000Z</time>
      </trkpt>
      <trkpt lat="47.34528" lon="-2.46976">
        <ele>38</ele>
        <time>2021-04-01T08:44:21.000Z</time>
      </trkpt>
      <trkpt lat="47.34528" lon="-2.46976">
        <ele>38</ele>
        <time>2021-04-01T08:44:22.000Z</time>
      </trkpt>
      <trkpt lat="47.34532" lon="-2.46975">
        <ele>38</ele>
        <time>2021-04-01T08:44:26.000Z</time>
      </trkpt>
      <trkpt lat="47.34535" lon="-2.46975">
        <ele>38</ele>
        <time>2021-04-01T08:44:28.000Z</time>
      </trkpt>
      <trkpt lat="47.34535" lon="-2.46975">
        <ele>38</ele>
        <time>2021-04-01T08:44:29.000Z</time>
      </trkpt>
      <trkpt lat="47.34536" lon="-2.46975">
        <ele>38</ele>
        <time>2021-04-01T08:44:32.000Z</time>
      </trkpt>
      <trkpt lat="47.34538" lon="-2.46974">
        <ele>38</ele>
        <time>2021-04-01T08:44:33.000Z</time>
      </trkpt>
      <trkpt lat="47.34549" lon="-2.46969">
        <ele>38</ele>
        <time>2021-04-01T08:44:37.000Z</time>
      </trkpt>
      <trkpt lat="47.34565" lon="-2.46959">
        <ele>38</ele>
        <time>2021-04-01T08:44:41.000Z</time>
      </trkpt>
      <trkpt lat="47.34569" lon="-2.46956">
        <ele>38</ele>
        <time>2021-04-01T08:44:42.000Z</time>
      </trkpt>
      <trkpt lat="47.34595" lon="-2.46932">
        <ele>38</ele>
        <time>2021-04-01T08:44:49.000Z</time>
      </trkpt>
      <trkpt lat="47.34614" lon="-2.46916">
        <ele>38</ele>
        <time>2021-04-01T08:44:54.000Z</time>
      </trkpt>
      <trkpt lat="47.34618" lon="-2.46912">
        <ele>38</ele>
        <time>2021-04-01T08:44:55.000Z</time>
      </trkpt>
      <trkpt lat="47.34634" lon="-2.46904">
        <ele>38</ele>
        <time>2021-04-01T08:44:59.000Z</time>
      </trkpt>
      <trkpt lat="47.34647" lon="-2.46903">
        <ele>38</ele>
        <time>2021-04-01T08:45:04.000Z</time>
      </trkpt>
      <trkpt lat="47.34663" lon="-2.46896">
        <ele>38</ele>
        <time>2021-04-01T08:45:10.000Z</time>
      </trkpt>
      <trkpt lat="47.3468" lon="-2.46891">
        <ele>38</ele>
        <time>2021-04-01T08:45:17.000Z</time>
      </trkpt>
      <trkpt lat="47.34703" lon="-2.46889">
        <ele>38</ele>
        <time>2021-04-01T08:45:25.000Z</time>
      </trkpt>
      <trkpt lat="47.34721" lon="-2.46887">
        <ele>38</ele>
        <time>2021-04-01T08:45:33.000Z</time>
      </trkpt>
      <trkpt lat="47.34734" lon="-2.46883">
        <ele>38</ele>
        <time>2021-04-01T08:45:39.000Z</time>
      </trkpt>
      <trkpt lat="47.34744" lon="-2.46877">
        <ele>38</ele>
        <time>2021-04-01T08:45:45.000Z</time>
      </trkpt>
      <trkpt lat="47.34754" lon="-2.46871">
        <ele>38</ele>
        <time>2021-04-01T08:45:50.000Z</time>
      </trkpt>
      <trkpt lat="47.34766" lon="-2.46863">
        <ele>38</ele>
        <time>2021-04-01T08:45:56.000Z</time>
      </trkpt>
      <trkpt lat="47.34781" lon="-2.46857">
        <ele>38</ele>
        <time>2021-04-01T08:46:03.000Z</time>
      </trkpt>
      <trkpt lat="47.34793" lon="-2.46851">
        <ele>38</ele>
        <time>2021-04-01T08:46:09.000Z</time>
      </trkpt>
      <trkpt lat="47.34805" lon="-2.46846">
        <ele>38</ele>
        <time>2021-04-01T08:46:15.000Z</time>
      </trkpt>
      <trkpt lat="47.3482" lon="-2.46841">
        <ele>38</ele>
        <time>2021-04-01T08:46:21.000Z</time>
      </trkpt>
      <trkpt lat="47.34835" lon="-2.46834">
        <ele>38</ele>
        <time>2021-04-01T08:46:28.000Z</time>
      </trkpt>
      <trkpt lat="47.34853" lon="-2.46827">
        <ele>38</ele>
        <time>2021-04-01T08:46:35.000Z</time>
      </trkpt>
      <trkpt lat="47.34868" lon="-2.46824">
        <ele>38</ele>
        <time>2021-04-01T08:46:41.000Z</time>
      </trkpt>
      <trkpt lat="47.34872" lon="-2.46835">
        <ele>38</ele>
        <time>2021-04-01T08:46:44.000Z</time>
      </trkpt>
      <trkpt lat="47.34872" lon="-2.46841">
        <ele>38</ele>
        <time>2021-04-01T08:46:45.000Z</time>
      </trkpt>
      <trkpt lat="47.34875" lon="-2.46859">
        <ele>38.400001525879</ele>
        <time>2021-04-01T08:46:49.000Z</time>
      </trkpt>
      <trkpt lat="47.34875" lon="-2.46862">
        <ele>38.799999237061</ele>
        <time>2021-04-01T08:46:50.000Z</time>
      </trkpt>
      <trkpt lat="47.34876" lon="-2.46863">
        <ele>39.200000762939</ele>
        <time>2021-04-01T08:46:51.000Z</time>
      </trkpt>
      <trkpt lat="47.34877" lon="-2.46867">
        <ele>40</ele>
        <time>2021-04-01T08:47:09.000Z</time>
      </trkpt>
      <trkpt lat="47.34879" lon="-2.46873">
        <ele>40</ele>
        <time>2021-04-01T08:47:12.000Z</time>
      </trkpt>
      <trkpt lat="47.34882" lon="-2.46889">
        <ele>40</ele>
        <time>2021-04-01T08:47:17.000Z</time>
      </trkpt>
      <trkpt lat="47.34887" lon="-2.46915">
        <ele>40</ele>
        <time>2021-04-01T08:47:22.000Z</time>
      </trkpt>
      <trkpt lat="47.34893" lon="-2.46965">
        <ele>40</ele>
        <time>2021-04-01T08:47:30.000Z</time>
      </trkpt>
      <trkpt lat="47.34901" lon="-2.47014">
        <ele>40</ele>
        <time>2021-04-01T08:47:37.000Z</time>
      </trkpt>
      <trkpt lat="47.34902" lon="-2.4702">
        <ele>40</ele>
        <time>2021-04-01T08:47:38.000Z</time>
      </trkpt>
      <trkpt lat="47.34907" lon="-2.47041">
        <ele>40</ele>
        <time>2021-04-01T08:47:41.000Z</time>
      </trkpt>
      <trkpt lat="47.34909" lon="-2.47047">
        <ele>40</ele>
        <time>2021-04-01T08:47:42.000Z</time>
      </trkpt>
      <trkpt lat="47.34928" lon="-2.47096">
        <ele>40</ele>
        <time>2021-04-01T08:47:49.000Z</time>
      </trkpt>
      <trkpt lat="47.34948" lon="-2.47153">
        <ele>40</ele>
        <time>2021-04-01T08:47:56.000Z</time>
      </trkpt>
      <trkpt lat="47.34971" lon="-2.47211">
        <ele>39.599998474121</ele>
        <time>2021-04-01T08:48:03.000Z</time>
      </trkpt>
      <trkpt lat="47.34974" lon="-2.47219">
        <ele>39.200000762939</ele>
        <time>2021-04-01T08:48:04.000Z</time>
      </trkpt>
      <trkpt lat="47.34977" lon="-2.47228">
        <ele>38.799999237061</ele>
        <time>2021-04-01T08:48:05.000Z</time>
      </trkpt>
      <trkpt lat="47.3498" lon="-2.47236">
        <ele>38.400001525879</ele>
        <time>2021-04-01T08:48:06.000Z</time>
      </trkpt>
      <trkpt lat="47.34982" lon="-2.47245">
        <ele>38</ele>
        <time>2021-04-01T08:48:07.000Z</time>
      </trkpt>
      <trkpt lat="47.34991" lon="-2.47269">
        <ele>38</ele>
        <time>2021-04-01T08:48:10.000Z</time>
      </trkpt>
      <trkpt lat="47.35008" lon="-2.47329">
        <ele>38</ele>
        <time>2021-04-01T08:48:17.000Z</time>
      </trkpt>
      <trkpt lat="47.3501" lon="-2.47337">
        <ele>37.400001525879</ele>
        <time>2021-04-01T08:48:18.000Z</time>
      </trkpt>
      <trkpt lat="47.35012" lon="-2.47345">
        <ele>37</ele>
        <time>2021-04-01T08:48:19.000Z</time>
      </trkpt>
      <trkpt lat="47.35014" lon="-2.47354">
        <ele>36.599998474121</ele>
        <time>2021-04-01T08:48:20.000Z</time>
      </trkpt>
      <trkpt lat="47.35015" lon="-2.47362">
        <ele>36</ele>
        <time>2021-04-01T08:48:21.000Z</time>
      </trkpt>
      <trkpt lat="47.35016" lon="-2.47371">
        <ele>35.599998474121</ele>
        <time>2021-04-01T08:48:22.000Z</time>
      </trkpt>
      <trkpt lat="47.35016" lon="-2.4738">
        <ele>35.599998474121</ele>
        <time>2021-04-01T08:48:23.000Z</time>
      </trkpt>
      <trkpt lat="47.35021" lon="-2.47435">
        <ele>35.599998474121</ele>
        <time>2021-04-01T08:48:29.000Z</time>
      </trkpt>
      <trkpt lat="47.35027" lon="-2.47496">
        <ele>35.599998474121</ele>
        <time>2021-04-01T08:48:36.000Z</time>
      </trkpt>
      <trkpt lat="47.35035" lon="-2.47577">
        <ele>35.599998474121</ele>
        <time>2021-04-01T08:48:45.000Z</time>
      </trkpt>
      <trkpt lat="47.35041" lon="-2.47641">
        <ele>35.599998474121</ele>
        <time>2021-04-01T08:48:52.000Z</time>
      </trkpt>
      <trkpt lat="47.35045" lon="-2.47689">
        <ele>35.599998474121</ele>
        <time>2021-04-01T08:48:58.000Z</time>
      </trkpt>
      <trkpt lat="47.35046" lon="-2.47704">
        <ele>35.599998474121</ele>
        <time>2021-04-01T08:49:00.000Z</time>
      </trkpt>
      <trkpt lat="47.35046" lon="-2.47731">
        <ele>35.599998474121</ele>
        <time>2021-04-01T08:49:03.000Z</time>
      </trkpt>
      <trkpt lat="47.35046" lon="-2.4775">
        <ele>35.200000762939</ele>
        <time>2021-04-01T08:49:05.000Z</time>
      </trkpt>
      <trkpt lat="47.35045" lon="-2.47759">
        <ele>34.799999237061</ele>
        <time>2021-04-01T08:49:06.000Z</time>
      </trkpt>
      <trkpt lat="47.35045" lon="-2.47769">
        <ele>34.400001525879</ele>
        <time>2021-04-01T08:49:07.000Z</time>
      </trkpt>
      <trkpt lat="47.35044" lon="-2.47779">
        <ele>34</ele>
        <time>2021-04-01T08:49:08.000Z</time>
      </trkpt>
      <trkpt lat="47.35044" lon="-2.47789">
        <ele>33.599998474121</ele>
        <time>2021-04-01T08:49:09.000Z</time>
      </trkpt>
      <trkpt lat="47.35044" lon="-2.47799">
        <ele>33.599998474121</ele>
        <time>2021-04-01T08:49:10.000Z</time>
      </trkpt>
      <trkpt lat="47.35039" lon="-2.47882">
        <ele>33.599998474121</ele>
        <time>2021-04-01T08:49:18.000Z</time>
      </trkpt>
      <trkpt lat="47.35038" lon="-2.4792">
        <ele>33.599998474121</ele>
        <time>2021-04-01T08:49:22.000Z</time>
      </trkpt>
      <trkpt lat="47.35037" lon="-2.47999">
        <ele>33.599998474121</ele>
        <time>2021-04-01T08:49:30.000Z</time>
      </trkpt>
      <trkpt lat="47.35037" lon="-2.48042">
        <ele>33.599998474121</ele>
        <time>2021-04-01T08:49:35.000Z</time>
      </trkpt>
      <trkpt lat="47.35036" lon="-2.4805">
        <ele>33.599998474121</ele>
        <time>2021-04-01T08:49:36.000Z</time>
      </trkpt>
      <trkpt lat="47.35032" lon="-2.48071">
        <ele>33.599998474121</ele>
        <time>2021-04-01T08:49:39.000Z</time>
      </trkpt>
      <trkpt lat="47.35033" lon="-2.48084">
        <ele>33.599998474121</ele>
        <time>2021-04-01T08:49:41.000Z</time>
      </trkpt>
      <trkpt lat="47.3504" lon="-2.48109">
        <ele>33.599998474121</ele>
        <time>2021-04-01T08:49:45.000Z</time>
      </trkpt>
      <trkpt lat="47.35054" lon="-2.48153">
        <ele>33.599998474121</ele>
        <time>2021-04-01T08:49:53.000Z</time>
      </trkpt>
      <trkpt lat="47.35068" lon="-2.48177">
        <ele>33.599998474121</ele>
        <time>2021-04-01T08:49:59.000Z</time>
      </trkpt>
      <trkpt lat="47.35084" lon="-2.48201">
        <ele>33.599998474121</ele>
        <time>2021-04-01T08:50:06.000Z</time>
      </trkpt>
      <trkpt lat="47.35093" lon="-2.48225">
        <ele>33.599998474121</ele>
        <time>2021-04-01T08:50:13.000Z</time>
      </trkpt>
      <trkpt lat="47.35095" lon="-2.48227">
        <ele>33.599998474121</ele>
        <time>2021-04-01T08:50:14.000Z</time>
      </trkpt>
      <trkpt lat="47.35101" lon="-2.48227">
        <ele>33.599998474121</ele>
        <time>2021-04-01T08:50:16.000Z</time>
      </trkpt>
      <trkpt lat="47.35109" lon="-2.48222">
        <ele>33.599998474121</ele>
        <time>2021-04-01T08:50:18.000Z</time>
      </trkpt>
      <trkpt lat="47.35119" lon="-2.48215">
        <ele>33.599998474121</ele>
        <time>2021-04-01T08:50:20.000Z</time>
      </trkpt>
      <trkpt lat="47.35148" lon="-2.48191">
        <ele>33.599998474121</ele>
        <time>2021-04-01T08:50:26.000Z</time>
      </trkpt>
      <trkpt lat="47.35163" lon="-2.48165">
        <ele>33.599998474121</ele>
        <time>2021-04-01T08:50:30.000Z</time>
      </trkpt>
      <trkpt lat="47.35177" lon="-2.48145">
        <ele>33.200000762939</ele>
        <time>2021-04-01T08:50:33.000Z</time>
      </trkpt>
      <trkpt lat="47.35181" lon="-2.48139">
        <ele>32.599998474121</ele>
        <time>2021-04-01T08:50:34.000Z</time>
      </trkpt>
      <trkpt lat="47.35187" lon="-2.48133">
        <ele>32.200000762939</ele>
        <time>2021-04-01T08:50:35.000Z</time>
      </trkpt>
      <trkpt lat="47.35192" lon="-2.48128">
        <ele>31.799999237061</ele>
        <time>2021-04-01T08:50:36.000Z</time>
      </trkpt>
      <trkpt lat="47.35197" lon="-2.48123">
        <ele>31.39999961853</ele>
        <time>2021-04-01T08:50:37.000Z</time>
      </trkpt>
      <trkpt lat="47.35226" lon="-2.48086">
        <ele>31.39999961853</ele>
        <time>2021-04-01T08:50:43.000Z</time>
      </trkpt>
      <trkpt lat="47.35245" lon="-2.48065">
        <ele>31.39999961853</ele>
        <time>2021-04-01T08:50:47.000Z</time>
      </trkpt>
      <trkpt lat="47.35256" lon="-2.48059">
        <ele>31.39999961853</ele>
        <time>2021-04-01T08:50:49.000Z</time>
      </trkpt>
      <trkpt lat="47.3527" lon="-2.48053">
        <ele>31.39999961853</ele>
        <time>2021-04-01T08:50:52.000Z</time>
      </trkpt>
      <trkpt lat="47.35276" lon="-2.48052">
        <ele>31.39999961853</ele>
        <time>2021-04-01T08:50:53.000Z</time>
      </trkpt>
      <trkpt lat="47.35282" lon="-2.48051">
        <ele>31.39999961853</ele>
        <time>2021-04-01T08:50:54.000Z</time>
      </trkpt>
      <trkpt lat="47.35309" lon="-2.48044">
        <ele>31.39999961853</ele>
        <time>2021-04-01T08:50:59.000Z</time>
      </trkpt>
      <trkpt lat="47.35326" lon="-2.48038">
        <ele>31.39999961853</ele>
        <time>2021-04-01T08:51:02.000Z</time>
      </trkpt>
      <trkpt lat="47.35337" lon="-2.48034">
        <ele>31.39999961853</ele>
        <time>2021-04-01T08:51:04.000Z</time>
      </trkpt>
      <trkpt lat="47.35368" lon="-2.48017">
        <ele>31.39999961853</ele>
        <time>2021-04-01T08:51:10.000Z</time>
      </trkpt>
      <trkpt lat="47.35393" lon="-2.47999">
        <ele>31.39999961853</ele>
        <time>2021-04-01T08:51:15.000Z</time>
      </trkpt>
      <trkpt lat="47.35398" lon="-2.47996">
        <ele>31.39999961853</ele>
        <time>2021-04-01T08:51:16.000Z</time>
      </trkpt>
      <trkpt lat="47.35418" lon="-2.47977">
        <ele>31.39999961853</ele>
        <time>2021-04-01T08:51:21.000Z</time>
      </trkpt>
      <trkpt lat="47.35449" lon="-2.47944">
        <ele>31.39999961853</ele>
        <time>2021-04-01T08:51:29.000Z</time>
      </trkpt>
      <trkpt lat="47.35473" lon="-2.47918">
        <ele>31.39999961853</ele>
        <time>2021-04-01T08:51:35.000Z</time>
      </trkpt>
      <trkpt lat="47.35477" lon="-2.47913">
        <ele>31.39999961853</ele>
        <time>2021-04-01T08:51:36.000Z</time>
      </trkpt>
      <trkpt lat="47.35496" lon="-2.4788">
        <ele>31.39999961853</ele>
        <time>2021-04-01T08:51:42.000Z</time>
      </trkpt>
      <trkpt lat="47.35507" lon="-2.47863">
        <ele>31.799999237061</ele>
        <time>2021-04-01T08:51:45.000Z</time>
      </trkpt>
      <trkpt lat="47.35511" lon="-2.47857">
        <ele>32.200000762939</ele>
        <time>2021-04-01T08:51:46.000Z</time>
      </trkpt>
      <trkpt lat="47.35514" lon="-2.47852">
        <ele>32.599998474121</ele>
        <time>2021-04-01T08:51:47.000Z</time>
      </trkpt>
      <trkpt lat="47.35518" lon="-2.47846">
        <ele>33</ele>
        <time>2021-04-01T08:51:48.000Z</time>
      </trkpt>
      <trkpt lat="47.35521" lon="-2.47841">
        <ele>33.400001525879</ele>
        <time>2021-04-01T08:51:49.000Z</time>
      </trkpt>
      <trkpt lat="47.35549" lon="-2.4781">
        <ele>33.400001525879</ele>
        <time>2021-04-01T08:51:56.000Z</time>
      </trkpt>
      <trkpt lat="47.35557" lon="-2.47803">
        <ele>33.400001525879</ele>
        <time>2021-04-01T08:51:58.000Z</time>
      </trkpt>
      <trkpt lat="47.35579" lon="-2.47788">
        <ele>33.400001525879</ele>
        <time>2021-04-01T08:52:03.000Z</time>
      </trkpt>
      <trkpt lat="47.35594" lon="-2.47777">
        <ele>33.400001525879</ele>
        <time>2021-04-01T08:52:06.000Z</time>
      </trkpt>
      <trkpt lat="47.35603" lon="-2.4777">
        <ele>33.400001525879</ele>
        <time>2021-04-01T08:52:08.000Z</time>
      </trkpt>
      <trkpt lat="47.35608" lon="-2.47767">
        <ele>33.400001525879</ele>
        <time>2021-04-01T08:52:09.000Z</time>
      </trkpt>
      <trkpt lat="47.3563" lon="-2.47751">
        <ele>33.400001525879</ele>
        <time>2021-04-01T08:52:14.000Z</time>
      </trkpt>
      <trkpt lat="47.35639" lon="-2.47745">
        <ele>33.400001525879</ele>
        <time>2021-04-01T08:52:16.000Z</time>
      </trkpt>
      <trkpt lat="47.3565" lon="-2.47732">
        <ele>33.400001525879</ele>
        <time>2021-04-01T08:52:19.000Z</time>
      </trkpt>
      <trkpt lat="47.35653" lon="-2.47727">
        <ele>33.400001525879</ele>
        <time>2021-04-01T08:52:20.000Z</time>
      </trkpt>
      <trkpt lat="47.35667" lon="-2.47708">
        <ele>33.400001525879</ele>
        <time>2021-04-01T08:52:24.000Z</time>
      </trkpt>
      <trkpt lat="47.35679" lon="-2.47694">
        <ele>33.400001525879</ele>
        <time>2021-04-01T08:52:27.000Z</time>
      </trkpt>
      <trkpt lat="47.35688" lon="-2.47687">
        <ele>33.400001525879</ele>
        <time>2021-04-01T08:52:29.000Z</time>
      </trkpt>
      <trkpt lat="47.35704" lon="-2.47681">
        <ele>33.400001525879</ele>
        <time>2021-04-01T08:52:32.000Z</time>
      </trkpt>
      <trkpt lat="47.35732" lon="-2.4767">
        <ele>33.400001525879</ele>
        <time>2021-04-01T08:52:37.000Z</time>
      </trkpt>
      <trkpt lat="47.35737" lon="-2.47666">
        <ele>33.400001525879</ele>
        <time>2021-04-01T08:52:38.000Z</time>
      </trkpt>
      <trkpt lat="47.35747" lon="-2.47659">
        <ele>33.400001525879</ele>
        <time>2021-04-01T08:52:40.000Z</time>
      </trkpt>
      <trkpt lat="47.35764" lon="-2.47643">
        <ele>33.400001525879</ele>
        <time>2021-04-01T08:52:44.000Z</time>
      </trkpt>
      <trkpt lat="47.35788" lon="-2.4763">
        <ele>33.400001525879</ele>
        <time>2021-04-01T08:52:49.000Z</time>
      </trkpt>
      <trkpt lat="47.35822" lon="-2.47624">
        <ele>33.400001525879</ele>
        <time>2021-04-01T08:52:55.000Z</time>
      </trkpt>
      <trkpt lat="47.3584" lon="-2.47621">
        <ele>33.400001525879</ele>
        <time>2021-04-01T08:52:59.000Z</time>
      </trkpt>
      <trkpt lat="47.35847" lon="-2.47614">
        <ele>33.400001525879</ele>
        <time>2021-04-01T08:53:03.000Z</time>
      </trkpt>
      <trkpt lat="47.35856" lon="-2.47613">
        <ele>33.400001525879</ele>
        <time>2021-04-01T08:53:08.000Z</time>
      </trkpt>
      <trkpt lat="47.35868" lon="-2.47609">
        <ele>33.400001525879</ele>
        <time>2021-04-01T08:53:14.000Z</time>
      </trkpt>
      <trkpt lat="47.3588" lon="-2.47606">
        <ele>33</ele>
        <time>2021-04-01T08:53:18.000Z</time>
      </trkpt>
      <trkpt lat="47.35884" lon="-2.47605">
        <ele>32.599998474121</ele>
        <time>2021-04-01T08:53:19.000Z</time>
      </trkpt>
      <trkpt lat="47.35888" lon="-2.47604">
        <ele>32</ele>
        <time>2021-04-01T08:53:20.000Z</time>
      </trkpt>
      <trkpt lat="47.35893" lon="-2.47603">
        <ele>31.60000038147</ele>
        <time>2021-04-01T08:53:21.000Z</time>
      </trkpt>
      <trkpt lat="47.35897" lon="-2.47602">
        <ele>31.200000762939</ele>
        <time>2021-04-01T08:53:22.000Z</time>
      </trkpt>
      <trkpt lat="47.35907" lon="-2.47601">
        <ele>31.200000762939</ele>
        <time>2021-04-01T08:53:25.000Z</time>
      </trkpt>
      <trkpt lat="47.35922" lon="-2.47598">
        <ele>31.200000762939</ele>
        <time>2021-04-01T08:53:30.000Z</time>
      </trkpt>
      <trkpt lat="47.35955" lon="-2.47593">
        <ele>31.200000762939</ele>
        <time>2021-04-01T08:53:38.000Z</time>
      </trkpt>
      <trkpt lat="47.35975" lon="-2.47592">
        <ele>31.200000762939</ele>
        <time>2021-04-01T08:53:43.000Z</time>
      </trkpt>
      <trkpt lat="47.35984" lon="-2.47591">
        <ele>31.200000762939</ele>
        <time>2021-04-01T08:53:45.000Z</time>
      </trkpt>
      <trkpt lat="47.36" lon="-2.47592">
        <ele>31.200000762939</ele>
        <time>2021-04-01T08:53:49.000Z</time>
      </trkpt>
      <trkpt lat="47.36008" lon="-2.47593">
        <ele>31.200000762939</ele>
        <time>2021-04-01T08:53:53.000Z</time>
      </trkpt>
      <trkpt lat="47.36009" lon="-2.47593">
        <ele>31.200000762939</ele>
        <time>2021-04-01T08:53:54.000Z</time>
      </trkpt>
      <trkpt lat="47.3602" lon="-2.47592">
        <ele>31.200000762939</ele>
        <time>2021-04-01T08:53:57.000Z</time>
      </trkpt>
      <trkpt lat="47.36033" lon="-2.47593">
        <ele>31.200000762939</ele>
        <time>2021-04-01T08:54:00.000Z</time>
      </trkpt>
      <trkpt lat="47.36046" lon="-2.47593">
        <ele>31.200000762939</ele>
        <time>2021-04-01T08:54:03.000Z</time>
      </trkpt>
      <trkpt lat="47.36066" lon="-2.4759">
        <ele>30.799999237061</ele>
        <time>2021-04-01T08:54:08.000Z</time>
      </trkpt>
      <trkpt lat="47.36071" lon="-2.4759">
        <ele>30.39999961853</ele>
        <time>2021-04-01T08:54:09.000Z</time>
      </trkpt>
      <trkpt lat="47.36076" lon="-2.47588">
        <ele>30</ele>
        <time>2021-04-01T08:54:10.000Z</time>
      </trkpt>
      <trkpt lat="47.3608" lon="-2.47587">
        <ele>29.60000038147</ele>
        <time>2021-04-01T08:54:11.000Z</time>
      </trkpt>
      <trkpt lat="47.36084" lon="-2.47586">
        <ele>29.200000762939</ele>
        <time>2021-04-01T08:54:12.000Z</time>
      </trkpt>
      <trkpt lat="47.36096" lon="-2.47582">
        <ele>29.200000762939</ele>
        <time>2021-04-01T08:54:15.000Z</time>
      </trkpt>
      <trkpt lat="47.36134" lon="-2.4757">
        <ele>29.200000762939</ele>
        <time>2021-04-01T08:54:24.000Z</time>
      </trkpt>
      <trkpt lat="47.36157" lon="-2.47559">
        <ele>29.200000762939</ele>
        <time>2021-04-01T08:54:30.000Z</time>
      </trkpt>
      <trkpt lat="47.36182" lon="-2.47554">
        <ele>29.200000762939</ele>
        <time>2021-04-01T08:54:36.000Z</time>
      </trkpt>
      <trkpt lat="47.36211" lon="-2.47556">
        <ele>29.200000762939</ele>
        <time>2021-04-01T08:54:41.000Z</time>
      </trkpt>
      <trkpt lat="47.36237" lon="-2.47555">
        <ele>29.200000762939</ele>
        <time>2021-04-01T08:54:46.000Z</time>
      </trkpt>
      <trkpt lat="47.36273" lon="-2.47549">
        <ele>29.200000762939</ele>
        <time>2021-04-01T08:54:53.000Z</time>
      </trkpt>
      <trkpt lat="47.36305" lon="-2.47547">
        <ele>29.200000762939</ele>
        <time>2021-04-01T08:55:00.000Z</time>
      </trkpt>
      <trkpt lat="47.36329" lon="-2.47554">
        <ele>29.200000762939</ele>
        <time>2021-04-01T08:55:06.000Z</time>
      </trkpt>
      <trkpt lat="47.36352" lon="-2.47559">
        <ele>29.200000762939</ele>
        <time>2021-04-01T08:55:12.000Z</time>
      </trkpt>
      <trkpt lat="47.36386" lon="-2.47574">
        <ele>29.200000762939</ele>
        <time>2021-04-01T08:55:20.000Z</time>
      </trkpt>
      <trkpt lat="47.36415" lon="-2.47586">
        <ele>29.200000762939</ele>
        <time>2021-04-01T08:55:27.000Z</time>
      </trkpt>
      <trkpt lat="47.3643" lon="-2.47595">
        <ele>29.200000762939</ele>
        <time>2021-04-01T08:55:31.000Z</time>
      </trkpt>
      <trkpt lat="47.36439" lon="-2.47598">
        <ele>29.200000762939</ele>
        <time>2021-04-01T08:55:33.000Z</time>
      </trkpt>
      <trkpt lat="47.36466" lon="-2.47608">
        <ele>29.200000762939</ele>
        <time>2021-04-01T08:55:40.000Z</time>
      </trkpt>
      <trkpt lat="47.36482" lon="-2.47617">
        <ele>29.200000762939</ele>
        <time>2021-04-01T08:55:46.000Z</time>
      </trkpt>
      <trkpt lat="47.36487" lon="-2.47619">
        <ele>29.200000762939</ele>
        <time>2021-04-01T08:55:48.000Z</time>
      </trkpt>
      <trkpt lat="47.36493" lon="-2.47621">
        <ele>29.200000762939</ele>
        <time>2021-04-01T08:55:51.000Z</time>
      </trkpt>
      <trkpt lat="47.36501" lon="-2.47631">
        <ele>29.200000762939</ele>
        <time>2021-04-01T08:55:56.000Z</time>
      </trkpt>
      <trkpt lat="47.36513" lon="-2.47643">
        <ele>29.200000762939</ele>
        <time>2021-04-01T08:56:04.000Z</time>
      </trkpt>
      <trkpt lat="47.36519" lon="-2.4765">
        <ele>29.200000762939</ele>
        <time>2021-04-01T08:56:09.000Z</time>
      </trkpt>
      <trkpt lat="47.36525" lon="-2.47654">
        <ele>29.200000762939</ele>
        <time>2021-04-01T08:56:14.000Z</time>
      </trkpt>
      <trkpt lat="47.36527" lon="-2.47655">
        <ele>29.200000762939</ele>
        <time>2021-04-01T08:58:35.000Z</time>
      </trkpt>
      <trkpt lat="47.36535" lon="-2.47653">
        <ele>29.200000762939</ele>
        <time>2021-04-01T08:58:39.000Z</time>
      </trkpt>
      <trkpt lat="47.36557" lon="-2.47641">
        <ele>29.200000762939</ele>
        <time>2021-04-01T08:58:45.000Z</time>
      </trkpt>
      <trkpt lat="47.36564" lon="-2.47637">
        <ele>29.200000762939</ele>
        <time>2021-04-01T08:58:47.000Z</time>
      </trkpt>
      <trkpt lat="47.36579" lon="-2.47629">
        <ele>29.200000762939</ele>
        <time>2021-04-01T08:58:50.000Z</time>
      </trkpt>
      <trkpt lat="47.36619" lon="-2.47604">
        <ele>29.200000762939</ele>
        <time>2021-04-01T08:58:59.000Z</time>
      </trkpt>
      <trkpt lat="47.36652" lon="-2.47572">
        <ele>29.200000762939</ele>
        <time>2021-04-01T08:59:06.000Z</time>
      </trkpt>
      <trkpt lat="47.3669" lon="-2.47527">
        <ele>29.200000762939</ele>
        <time>2021-04-01T08:59:14.000Z</time>
      </trkpt>
      <trkpt lat="47.36707" lon="-2.47503">
        <ele>29.200000762939</ele>
        <time>2021-04-01T08:59:18.000Z</time>
      </trkpt>
      <trkpt lat="47.36716" lon="-2.47492">
        <ele>29.200000762939</ele>
        <time>2021-04-01T08:59:20.000Z</time>
      </trkpt>
      <trkpt lat="47.3672" lon="-2.47486">
        <ele>29.200000762939</ele>
        <time>2021-04-01T08:59:21.000Z</time>
      </trkpt>
      <trkpt lat="47.36726" lon="-2.47471">
        <ele>29.200000762939</ele>
        <time>2021-04-01T08:59:23.000Z</time>
      </trkpt>
      <trkpt lat="47.36735" lon="-2.4746">
        <ele>29.200000762939</ele>
        <time>2021-04-01T08:59:25.000Z</time>
      </trkpt>
      <trkpt lat="47.3674" lon="-2.47454">
        <ele>29.200000762939</ele>
        <time>2021-04-01T08:59:26.000Z</time>
      </trkpt>
      <trkpt lat="47.3677" lon="-2.47412">
        <ele>29.200000762939</ele>
        <time>2021-04-01T08:59:32.000Z</time>
      </trkpt>
      <trkpt lat="47.36813" lon="-2.47352">
        <ele>29.200000762939</ele>
        <time>2021-04-01T08:59:41.000Z</time>
      </trkpt>
      <trkpt lat="47.36832" lon="-2.47324">
        <ele>28.799999237061</ele>
        <time>2021-04-01T08:59:46.000Z</time>
      </trkpt>
      <trkpt lat="47.36833" lon="-2.47317">
        <ele>28.39999961853</ele>
        <time>2021-04-01T08:59:47.000Z</time>
      </trkpt>
      <trkpt lat="47.36831" lon="-2.47311">
        <ele>28</ele>
        <time>2021-04-01T08:59:48.000Z</time>
      </trkpt>
      <trkpt lat="47.36829" lon="-2.47304">
        <ele>27.60000038147</ele>
        <time>2021-04-01T08:59:49.000Z</time>
      </trkpt>
      <trkpt lat="47.36825" lon="-2.47297">
        <ele>27.200000762939</ele>
        <time>2021-04-01T08:59:50.000Z</time>
      </trkpt>
      <trkpt lat="47.36822" lon="-2.4729">
        <ele>27.200000762939</ele>
        <time>2021-04-01T08:59:51.000Z</time>
      </trkpt>
      <trkpt lat="47.36804" lon="-2.47251">
        <ele>27.200000762939</ele>
        <time>2021-04-01T08:59:56.000Z</time>
      </trkpt>
      <trkpt lat="47.36782" lon="-2.47199">
        <ele>27.200000762939</ele>
        <time>2021-04-01T09:00:02.000Z</time>
      </trkpt>
      <trkpt lat="47.3675" lon="-2.47123">
        <ele>27.200000762939</ele>
        <time>2021-04-01T09:00:10.000Z</time>
      </trkpt>
      <trkpt lat="47.36719" lon="-2.47054">
        <ele>27.200000762939</ele>
        <time>2021-04-01T09:00:17.000Z</time>
      </trkpt>
      <trkpt lat="47.36714" lon="-2.47043">
        <ele>26.799999237061</ele>
        <time>2021-04-01T09:00:18.000Z</time>
      </trkpt>
      <trkpt lat="47.36709" lon="-2.47034">
        <ele>26.39999961853</ele>
        <time>2021-04-01T09:00:19.000Z</time>
      </trkpt>
      <trkpt lat="47.36705" lon="-2.47024">
        <ele>26</ele>
        <time>2021-04-01T09:00:20.000Z</time>
      </trkpt>
      <trkpt lat="47.367" lon="-2.47014">
        <ele>25.60000038147</ele>
        <time>2021-04-01T09:00:21.000Z</time>
      </trkpt>
      <trkpt lat="47.36696" lon="-2.47004">
        <ele>25.200000762939</ele>
        <time>2021-04-01T09:00:22.000Z</time>
      </trkpt>
      <trkpt lat="47.36683" lon="-2.46976">
        <ele>25.200000762939</ele>
        <time>2021-04-01T09:00:25.000Z</time>
      </trkpt>
      <trkpt lat="47.36659" lon="-2.46925">
        <ele>25.200000762939</ele>
        <time>2021-04-01T09:00:31.000Z</time>
      </trkpt>
      <trkpt lat="47.36633" lon="-2.46873">
        <ele>25.200000762939</ele>
        <time>2021-04-01T09:00:38.000Z</time>
      </trkpt>
      <trkpt lat="47.36613" lon="-2.46834">
        <ele>25.60000038147</ele>
        <time>2021-04-01T09:00:44.000Z</time>
      </trkpt>
      <trkpt lat="47.36609" lon="-2.46827">
        <ele>26</ele>
        <time>2021-04-01T09:00:45.000Z</time>
      </trkpt>
      <trkpt lat="47.36606" lon="-2.46821">
        <ele>26.39999961853</ele>
        <time>2021-04-01T09:00:46.000Z</time>
      </trkpt>
      <trkpt lat="47.36602" lon="-2.46816">
        <ele>26.799999237061</ele>
        <time>2021-04-01T09:00:47.000Z</time>
      </trkpt>
      <trkpt lat="47.36599" lon="-2.4681">
        <ele>27.200000762939</ele>
        <time>2021-04-01T09:00:48.000Z</time>
      </trkpt>
      <trkpt lat="47.36589" lon="-2.46792">
        <ele>27.200000762939</ele>
        <time>2021-04-01T09:00:51.000Z</time>
      </trkpt>
      <trkpt lat="47.36568" lon="-2.46753">
        <ele>27.200000762939</ele>
        <time>2021-04-01T09:00:58.000Z</time>
      </trkpt>
      <trkpt lat="47.36549" lon="-2.46717">
        <ele>27.200000762939</ele>
        <time>2021-04-01T09:01:06.000Z</time>
      </trkpt>
      <trkpt lat="47.36534" lon="-2.46693">
        <ele>27.200000762939</ele>
        <time>2021-04-01T09:01:12.000Z</time>
      </trkpt>
      <trkpt lat="47.36522" lon="-2.4667">
        <ele>27.200000762939</ele>
        <time>2021-04-01T09:01:17.000Z</time>
      </trkpt>
      <trkpt lat="47.36521" lon="-2.46663">
        <ele>27.200000762939</ele>
        <time>2021-04-01T09:01:18.000Z</time>
      </trkpt>
      <trkpt lat="47.36517" lon="-2.46633">
        <ele>27.200000762939</ele>
        <time>2021-04-01T09:01:22.000Z</time>
      </trkpt>
      <trkpt lat="47.36517" lon="-2.46625">
        <ele>27.200000762939</ele>
        <time>2021-04-01T09:01:23.000Z</time>
      </trkpt>
      <trkpt lat="47.36524" lon="-2.46603">
        <ele>27.200000762939</ele>
        <time>2021-04-01T09:01:26.000Z</time>
      </trkpt>
      <trkpt lat="47.36527" lon="-2.46596">
        <ele>27.200000762939</ele>
        <time>2021-04-01T09:01:27.000Z</time>
      </trkpt>
      <trkpt lat="47.36546" lon="-2.46567">
        <ele>27.200000762939</ele>
        <time>2021-04-01T09:01:32.000Z</time>
      </trkpt>
      <trkpt lat="47.36573" lon="-2.46534">
        <ele>27.200000762939</ele>
        <time>2021-04-01T09:01:38.000Z</time>
      </trkpt>
      <trkpt lat="47.36599" lon="-2.46504">
        <ele>26.799999237061</ele>
        <time>2021-04-01T09:01:43.000Z</time>
      </trkpt>
      <trkpt lat="47.36605" lon="-2.46497">
        <ele>26.39999961853</ele>
        <time>2021-04-01T09:01:44.000Z</time>
      </trkpt>
      <trkpt lat="47.3661" lon="-2.46489">
        <ele>26</ele>
        <time>2021-04-01T09:01:45.000Z</time>
      </trkpt>
      <trkpt lat="47.36614" lon="-2.46482">
        <ele>25.60000038147</ele>
        <time>2021-04-01T09:01:46.000Z</time>
      </trkpt>
      <trkpt lat="47.36619" lon="-2.46473">
        <ele>25.200000762939</ele>
        <time>2021-04-01T09:01:47.000Z</time>
      </trkpt>
      <trkpt lat="47.36625" lon="-2.46452">
        <ele>25.200000762939</ele>
        <time>2021-04-01T09:01:49.000Z</time>
      </trkpt>
      <trkpt lat="47.36628" lon="-2.4642">
        <ele>25.200000762939</ele>
        <time>2021-04-01T09:01:52.000Z</time>
      </trkpt>
      <trkpt lat="47.36628" lon="-2.4641">
        <ele>25.200000762939</ele>
        <time>2021-04-01T09:01:53.000Z</time>
      </trkpt>
      <trkpt lat="47.36626" lon="-2.46366">
        <ele>25.200000762939</ele>
        <time>2021-04-01T09:01:58.000Z</time>
      </trkpt>
      <trkpt lat="47.36616" lon="-2.46338">
        <ele>25.200000762939</ele>
        <time>2021-04-01T09:02:03.000Z</time>
      </trkpt>
      <trkpt lat="47.36611" lon="-2.46326">
        <ele>25.200000762939</ele>
        <time>2021-04-01T09:02:05.000Z</time>
      </trkpt>
      <trkpt lat="47.36603" lon="-2.46303">
        <ele>25.200000762939</ele>
        <time>2021-04-01T09:02:09.000Z</time>
      </trkpt>
      <trkpt lat="47.36592" lon="-2.4627">
        <ele>25.200000762939</ele>
        <time>2021-04-01T09:02:14.000Z</time>
      </trkpt>
      <trkpt lat="47.36591" lon="-2.46263">
        <ele>25.200000762939</ele>
        <time>2021-04-01T09:02:15.000Z</time>
      </trkpt>
      <trkpt lat="47.36574" lon="-2.46205">
        <ele>25.200000762939</ele>
        <time>2021-04-01T09:02:24.000Z</time>
      </trkpt>
      <trkpt lat="47.36572" lon="-2.462">
        <ele>25.200000762939</ele>
        <time>2021-04-01T09:02:25.000Z</time>
      </trkpt>
      <trkpt lat="47.36561" lon="-2.46188">
        <ele>25.200000762939</ele>
        <time>2021-04-01T09:02:28.000Z</time>
      </trkpt>
      <trkpt lat="47.36539" lon="-2.4617">
        <ele>25.200000762939</ele>
        <time>2021-04-01T09:02:34.000Z</time>
      </trkpt>
      <trkpt lat="47.36522" lon="-2.46159">
        <ele>25.60000038147</ele>
        <time>2021-04-01T09:02:38.000Z</time>
      </trkpt>
      <trkpt lat="47.36518" lon="-2.46156">
        <ele>26</ele>
        <time>2021-04-01T09:02:39.000Z</time>
      </trkpt>
      <trkpt lat="47.36513" lon="-2.46153">
        <ele>26.39999961853</ele>
        <time>2021-04-01T09:02:40.000Z</time>
      </trkpt>
      <trkpt lat="47.36509" lon="-2.46149">
        <ele>26.799999237061</ele>
        <time>2021-04-01T09:02:41.000Z</time>
      </trkpt>
      <trkpt lat="47.36504" lon="-2.46145">
        <ele>27.39999961853</ele>
        <time>2021-04-01T09:02:42.000Z</time>
      </trkpt>
      <trkpt lat="47.3648" lon="-2.46118">
        <ele>27.39999961853</ele>
        <time>2021-04-01T09:02:48.000Z</time>
      </trkpt>
      <trkpt lat="47.36448" lon="-2.46068">
        <ele>27.39999961853</ele>
        <time>2021-04-01T09:02:56.000Z</time>
      </trkpt>
      <trkpt lat="47.36416" lon="-2.46027">
        <ele>27.39999961853</ele>
        <time>2021-04-01T09:03:03.000Z</time>
      </trkpt>
      <trkpt lat="47.36377" lon="-2.45978">
        <ele>27.39999961853</ele>
        <time>2021-04-01T09:03:11.000Z</time>
      </trkpt>
      <trkpt lat="47.36352" lon="-2.45946">
        <ele>27</ele>
        <time>2021-04-01T09:03:16.000Z</time>
      </trkpt>
      <trkpt lat="47.36347" lon="-2.45939">
        <ele>26.39999961853</ele>
        <time>2021-04-01T09:03:17.000Z</time>
      </trkpt>
      <trkpt lat="47.36342" lon="-2.45932">
        <ele>26</ele>
        <time>2021-04-01T09:03:18.000Z</time>
      </trkpt>
      <trkpt lat="47.36336" lon="-2.45926">
        <ele>25.60000038147</ele>
        <time>2021-04-01T09:03:19.000Z</time>
      </trkpt>
      <trkpt lat="47.36331" lon="-2.4592">
        <ele>25.200000762939</ele>
        <time>2021-04-01T09:03:20.000Z</time>
      </trkpt>
      <trkpt lat="47.36325" lon="-2.45912">
        <ele>25.200000762939</ele>
        <time>2021-04-01T09:03:21.000Z</time>
      </trkpt>
      <trkpt lat="47.36309" lon="-2.4589">
        <ele>25.200000762939</ele>
        <time>2021-04-01T09:03:24.000Z</time>
      </trkpt>
      <trkpt lat="47.36296" lon="-2.45865">
        <ele>24.799999237061</ele>
        <time>2021-04-01T09:03:27.000Z</time>
      </trkpt>
      <trkpt lat="47.36292" lon="-2.45856">
        <ele>24.39999961853</ele>
        <time>2021-04-01T09:03:28.000Z</time>
      </trkpt>
      <trkpt lat="47.36289" lon="-2.45849">
        <ele>24</ele>
        <time>2021-04-01T09:03:29.000Z</time>
      </trkpt>
      <trkpt lat="47.36286" lon="-2.45843">
        <ele>23.60000038147</ele>
        <time>2021-04-01T09:03:30.000Z</time>
      </trkpt>
      <trkpt lat="47.36283" lon="-2.45836">
        <ele>23</ele>
        <time>2021-04-01T09:03:31.000Z</time>
      </trkpt>
      <trkpt lat="47.36278" lon="-2.45823">
        <ele>23</ele>
        <time>2021-04-01T09:03:33.000Z</time>
      </trkpt>
      <trkpt lat="47.36262" lon="-2.45781">
        <ele>23</ele>
        <time>2021-04-01T09:03:40.000Z</time>
      </trkpt>
      <trkpt lat="47.36266" lon="-2.45763">
        <ele>23</ele>
        <time>2021-04-01T09:03:43.000Z</time>
      </trkpt>
      <trkpt lat="47.36269" lon="-2.45758">
        <ele>22.60000038147</ele>
        <time>2021-04-01T09:03:44.000Z</time>
      </trkpt>
      <trkpt lat="47.36272" lon="-2.45752">
        <ele>22.200000762939</ele>
        <time>2021-04-01T09:03:45.000Z</time>
      </trkpt>
      <trkpt lat="47.36276" lon="-2.45747">
        <ele>21.799999237061</ele>
        <time>2021-04-01T09:03:46.000Z</time>
      </trkpt>
      <trkpt lat="47.36279" lon="-2.45741">
        <ele>21.39999961853</ele>
        <time>2021-04-01T09:03:47.000Z</time>
      </trkpt>
      <trkpt lat="47.36282" lon="-2.45735">
        <ele>21</ele>
        <time>2021-04-01T09:03:48.000Z</time>
      </trkpt>
      <trkpt lat="47.36301" lon="-2.45709">
        <ele>21</ele>
        <time>2021-04-01T09:03:53.000Z</time>
      </trkpt>
      <trkpt lat="47.36327" lon="-2.45693">
        <ele>21</ele>
        <time>2021-04-01T09:03:58.000Z</time>
      </trkpt>
      <trkpt lat="47.36365" lon="-2.45679">
        <ele>21</ele>
        <time>2021-04-01T09:04:05.000Z</time>
      </trkpt>
      <trkpt lat="47.3639" lon="-2.45671">
        <ele>21</ele>
        <time>2021-04-01T09:04:10.000Z</time>
      </trkpt>
      <trkpt lat="47.36395" lon="-2.4567">
        <ele>21.60000038147</ele>
        <time>2021-04-01T09:04:11.000Z</time>
      </trkpt>
      <trkpt lat="47.36399" lon="-2.45669">
        <ele>22</ele>
        <time>2021-04-01T09:04:12.000Z</time>
      </trkpt>
      <trkpt lat="47.36404" lon="-2.45667">
        <ele>22.39999961853</ele>
        <time>2021-04-01T09:04:13.000Z</time>
      </trkpt>
      <trkpt lat="47.36409" lon="-2.45666">
        <ele>22.799999237061</ele>
        <time>2021-04-01T09:04:14.000Z</time>
      </trkpt>
      <trkpt lat="47.36415" lon="-2.45666">
        <ele>23.200000762939</ele>
        <time>2021-04-01T09:04:15.000Z</time>
      </trkpt>
      <trkpt lat="47.3642" lon="-2.45665">
        <ele>23.200000762939</ele>
        <time>2021-04-01T09:04:16.000Z</time>
      </trkpt>
      <trkpt lat="47.36457" lon="-2.45666">
        <ele>23.200000762939</ele>
        <time>2021-04-01T09:04:23.000Z</time>
      </trkpt>
      <trkpt lat="47.36488" lon="-2.4567">
        <ele>23.200000762939</ele>
        <time>2021-04-01T09:04:30.000Z</time>
      </trkpt>
      <trkpt lat="47.36517" lon="-2.45676">
        <ele>23.200000762939</ele>
        <time>2021-04-01T09:04:36.000Z</time>
      </trkpt>
      <trkpt lat="47.36522" lon="-2.45676">
        <ele>23.200000762939</ele>
        <time>2021-04-01T09:04:37.000Z</time>
      </trkpt>
      <trkpt lat="47.36531" lon="-2.45677">
        <ele>23.60000038147</ele>
        <time>2021-04-01T09:04:39.000Z</time>
      </trkpt>
      <trkpt lat="47.36536" lon="-2.45678">
        <ele>24</ele>
        <time>2021-04-01T09:04:40.000Z</time>
      </trkpt>
      <trkpt lat="47.36541" lon="-2.45678">
        <ele>24.799999237061</ele>
        <time>2021-04-01T09:04:41.000Z</time>
      </trkpt>
      <trkpt lat="47.36546" lon="-2.45678">
        <ele>25.200000762939</ele>
        <time>2021-04-01T09:04:42.000Z</time>
      </trkpt>
      <trkpt lat="47.36582" lon="-2.45673">
        <ele>25.200000762939</ele>
        <time>2021-04-01T09:04:48.000Z</time>
      </trkpt>
      <trkpt lat="47.36627" lon="-2.45665">
        <ele>25.200000762939</ele>
        <time>2021-04-01T09:04:55.000Z</time>
      </trkpt>
      <trkpt lat="47.36665" lon="-2.4566">
        <ele>25.200000762939</ele>
        <time>2021-04-01T09:05:02.000Z</time>
      </trkpt>
      <trkpt lat="47.36702" lon="-2.45655">
        <ele>25.200000762939</ele>
        <time>2021-04-01T09:05:09.000Z</time>
      </trkpt>
      <trkpt lat="47.36735" lon="-2.45648">
        <ele>25.200000762939</ele>
        <time>2021-04-01T09:05:15.000Z</time>
      </trkpt>
      <trkpt lat="47.36776" lon="-2.45636">
        <ele>25.200000762939</ele>
        <time>2021-04-01T09:05:22.000Z</time>
      </trkpt>
      <trkpt lat="47.36819" lon="-2.45609">
        <ele>25.200000762939</ele>
        <time>2021-04-01T09:05:30.000Z</time>
      </trkpt>
      <trkpt lat="47.36838" lon="-2.45592">
        <ele>25.200000762939</ele>
        <time>2021-04-01T09:05:34.000Z</time>
      </trkpt>
      <trkpt lat="47.36845" lon="-2.45583">
        <ele>25.200000762939</ele>
        <time>2021-04-01T09:05:36.000Z</time>
      </trkpt>
      <trkpt lat="47.36851" lon="-2.45576">
        <ele>25.200000762939</ele>
        <time>2021-04-01T09:05:38.000Z</time>
      </trkpt>
      <trkpt lat="47.36853" lon="-2.45571">
        <ele>25.200000762939</ele>
        <time>2021-04-01T09:05:40.000Z</time>
      </trkpt>
      <trkpt lat="47.36854" lon="-2.45567">
        <ele>25.200000762939</ele>
        <time>2021-04-01T09:05:44.000Z</time>
      </trkpt>
      <trkpt lat="47.36854" lon="-2.45564">
        <ele>23.200000762939</ele>
        <time>2021-04-01T09:05:57.000Z</time>
      </trkpt>
      <trkpt lat="47.36855" lon="-2.45543">
        <ele>23.200000762939</ele>
        <time>2021-04-01T09:06:02.000Z</time>
      </trkpt>
      <trkpt lat="47.36861" lon="-2.45521">
        <ele>23.200000762939</ele>
        <time>2021-04-01T09:06:06.000Z</time>
      </trkpt>
      <trkpt lat="47.36864" lon="-2.45516">
        <ele>23.200000762939</ele>
        <time>2021-04-01T09:06:07.000Z</time>
      </trkpt>
      <trkpt lat="47.36875" lon="-2.45494">
        <ele>23.200000762939</ele>
        <time>2021-04-01T09:06:11.000Z</time>
      </trkpt>
      <trkpt lat="47.36878" lon="-2.45487">
        <ele>23.200000762939</ele>
        <time>2021-04-01T09:06:12.000Z</time>
      </trkpt>
      <trkpt lat="47.3688" lon="-2.4548">
        <ele>23.200000762939</ele>
        <time>2021-04-01T09:06:13.000Z</time>
      </trkpt>
      <trkpt lat="47.36892" lon="-2.45447">
        <ele>23.200000762939</ele>
        <time>2021-04-01T09:06:18.000Z</time>
      </trkpt>
      <trkpt lat="47.36904" lon="-2.45417">
        <ele>23.200000762939</ele>
        <time>2021-04-01T09:06:23.000Z</time>
      </trkpt>
      <trkpt lat="47.36912" lon="-2.45398">
        <ele>23.200000762939</ele>
        <time>2021-04-01T09:06:26.000Z</time>
      </trkpt>
      <trkpt lat="47.36916" lon="-2.45383">
        <ele>23.200000762939</ele>
        <time>2021-04-01T09:06:28.000Z</time>
      </trkpt>
      <trkpt lat="47.36932" lon="-2.45322">
        <ele>23.200000762939</ele>
        <time>2021-04-01T09:06:36.000Z</time>
      </trkpt>
      <trkpt lat="47.36937" lon="-2.4531">
        <ele>22.799999237061</ele>
        <time>2021-04-01T09:06:38.000Z</time>
      </trkpt>
      <trkpt lat="47.3694" lon="-2.45304">
        <ele>22.39999961853</ele>
        <time>2021-04-01T09:06:39.000Z</time>
      </trkpt>
      <trkpt lat="47.36943" lon="-2.45299">
        <ele>21.799999237061</ele>
        <time>2021-04-01T09:06:40.000Z</time>
      </trkpt>
      <trkpt lat="47.36946" lon="-2.45294">
        <ele>21.39999961853</ele>
        <time>2021-04-01T09:06:41.000Z</time>
      </trkpt>
      <trkpt lat="47.36949" lon="-2.4529">
        <ele>21</ele>
        <time>2021-04-01T09:06:42.000Z</time>
      </trkpt>
      <trkpt lat="47.36958" lon="-2.45281">
        <ele>21</ele>
        <time>2021-04-01T09:06:45.000Z</time>
      </trkpt>
      <trkpt lat="47.36969" lon="-2.45271">
        <ele>20.60000038147</ele>
        <time>2021-04-01T09:06:49.000Z</time>
      </trkpt>
      <trkpt lat="47.36971" lon="-2.45269">
        <ele>20.200000762939</ele>
        <time>2021-04-01T09:06:50.000Z</time>
      </trkpt>
      <trkpt lat="47.36973" lon="-2.45266">
        <ele>19.799999237061</ele>
        <time>2021-04-01T09:06:51.000Z</time>
      </trkpt>
      <trkpt lat="47.36974" lon="-2.45264">
        <ele>19.39999961853</ele>
        <time>2021-04-01T09:06:52.000Z</time>
      </trkpt>
      <trkpt lat="47.36977" lon="-2.45262">
        <ele>19</ele>
        <time>2021-04-01T09:06:53.000Z</time>
      </trkpt>
      <trkpt lat="47.36984" lon="-2.45257">
        <ele>19</ele>
        <time>2021-04-01T09:06:57.000Z</time>
      </trkpt>
      <trkpt lat="47.36997" lon="-2.45251">
        <ele>19</ele>
        <time>2021-04-01T09:07:05.000Z</time>
      </trkpt>
      <trkpt lat="47.37006" lon="-2.45239">
        <ele>19</ele>
        <time>2021-04-01T09:07:11.000Z</time>
      </trkpt>
      <trkpt lat="47.37009" lon="-2.45236">
        <ele>19</ele>
        <time>2021-04-01T09:07:14.000Z</time>
      </trkpt>
      <trkpt lat="47.3701" lon="-2.45234">
        <ele>19</ele>
        <time>2021-04-01T09:07:16.000Z</time>
      </trkpt>
      <trkpt lat="47.37021" lon="-2.45225">
        <ele>19</ele>
        <time>2021-04-01T09:20:49.000Z</time>
      </trkpt>
      <trkpt lat="47.37017" lon="-2.45227">
        <ele>19</ele>
        <time>2021-04-01T09:20:53.000Z</time>
      </trkpt>
      <trkpt lat="47.37016" lon="-2.45228">
        <ele>19</ele>
        <time>2021-04-01T09:20:55.000Z</time>
      </trkpt>
      <trkpt lat="47.37012" lon="-2.45233">
        <ele>19</ele>
        <time>2021-04-01T09:21:00.000Z</time>
      </trkpt>
      <trkpt lat="47.3701" lon="-2.45237">
        <ele>19</ele>
        <time>2021-04-01T09:21:02.000Z</time>
      </trkpt>
      <trkpt lat="47.37" lon="-2.45246">
        <ele>19</ele>
        <time>2021-04-01T09:21:08.000Z</time>
      </trkpt>
      <trkpt lat="47.36998" lon="-2.45248">
        <ele>19</ele>
        <time>2021-04-01T09:21:09.000Z</time>
      </trkpt>
      <trkpt lat="47.36986" lon="-2.4526">
        <ele>19</ele>
        <time>2021-04-01T09:21:16.000Z</time>
      </trkpt>
      <trkpt lat="47.36972" lon="-2.45268">
        <ele>19</ele>
        <time>2021-04-01T09:21:22.000Z</time>
      </trkpt>
      <trkpt lat="47.3696" lon="-2.4528">
        <ele>19</ele>
        <time>2021-04-01T09:21:28.000Z</time>
      </trkpt>
      <trkpt lat="47.36951" lon="-2.45288">
        <ele>19</ele>
        <time>2021-04-01T09:21:32.000Z</time>
      </trkpt>
      <trkpt lat="47.36944" lon="-2.45296">
        <ele>19</ele>
        <time>2021-04-01T09:21:35.000Z</time>
      </trkpt>
      <trkpt lat="47.3694" lon="-2.45305">
        <ele>19</ele>
        <time>2021-04-01T09:21:38.000Z</time>
      </trkpt>
      <trkpt lat="47.36934" lon="-2.45323">
        <ele>19.39999961853</ele>
        <time>2021-04-01T09:21:43.000Z</time>
      </trkpt>
      <trkpt lat="47.36933" lon="-2.45327">
        <ele>19.799999237061</ele>
        <time>2021-04-01T09:21:44.000Z</time>
      </trkpt>
      <trkpt lat="47.36931" lon="-2.45331">
        <ele>20.200000762939</ele>
        <time>2021-04-01T09:21:45.000Z</time>
      </trkpt>
      <trkpt lat="47.3693" lon="-2.45335">
        <ele>20.60000038147</ele>
        <time>2021-04-01T09:21:46.000Z</time>
      </trkpt>
      <trkpt lat="47.36929" lon="-2.45339">
        <ele>21</ele>
        <time>2021-04-01T09:21:47.000Z</time>
      </trkpt>
      <trkpt lat="47.36924" lon="-2.45362">
        <ele>21</ele>
        <time>2021-04-01T09:21:53.000Z</time>
      </trkpt>
      <trkpt lat="47.3692" lon="-2.45383">
        <ele>21</ele>
        <time>2021-04-01T09:21:58.000Z</time>
      </trkpt>
      <trkpt lat="47.36913" lon="-2.45404">
        <ele>21</ele>
        <time>2021-04-01T09:22:04.000Z</time>
      </trkpt>
      <trkpt lat="47.36905" lon="-2.45416">
        <ele>21.39999961853</ele>
        <time>2021-04-01T09:22:08.000Z</time>
      </trkpt>
      <trkpt lat="47.36903" lon="-2.4542">
        <ele>21.799999237061</ele>
        <time>2021-04-01T09:22:09.000Z</time>
      </trkpt>
      <trkpt lat="47.36902" lon="-2.45424">
        <ele>22.200000762939</ele>
        <time>2021-04-01T09:22:10.000Z</time>
      </trkpt>
      <trkpt lat="47.369" lon="-2.45428">
        <ele>22.60000038147</ele>
        <time>2021-04-01T09:22:11.000Z</time>
      </trkpt>
      <trkpt lat="47.36899" lon="-2.45432">
        <ele>23</ele>
        <time>2021-04-01T09:22:12.000Z</time>
      </trkpt>
      <trkpt lat="47.36893" lon="-2.45449">
        <ele>23</ele>
        <time>2021-04-01T09:22:17.000Z</time>
      </trkpt>
      <trkpt lat="47.36883" lon="-2.45472">
        <ele>23</ele>
        <time>2021-04-01T09:22:23.000Z</time>
      </trkpt>
      <trkpt lat="47.36874" lon="-2.45496">
        <ele>23</ele>
        <time>2021-04-01T09:22:29.000Z</time>
      </trkpt>
      <trkpt lat="47.36859" lon="-2.4552">
        <ele>23</ele>
        <time>2021-04-01T09:22:36.000Z</time>
      </trkpt>
      <trkpt lat="47.36853" lon="-2.45543">
        <ele>23</ele>
        <time>2021-04-01T09:22:42.000Z</time>
      </trkpt>
      <trkpt lat="47.36851" lon="-2.45551">
        <ele>23</ele>
        <time>2021-04-01T09:22:45.000Z</time>
      </trkpt>
      <trkpt lat="47.36849" lon="-2.45551">
        <ele>23</ele>
        <time>2021-04-01T09:22:46.000Z</time>
      </trkpt>
      <trkpt lat="47.36835" lon="-2.45546">
        <ele>23</ele>
        <time>2021-04-01T09:22:50.000Z</time>
      </trkpt>
      <trkpt lat="47.36831" lon="-2.45543">
        <ele>23</ele>
        <time>2021-04-01T09:22:51.000Z</time>
      </trkpt>
      <trkpt lat="47.36814" lon="-2.45527">
        <ele>23</ele>
        <time>2021-04-01T09:22:55.000Z</time>
      </trkpt>
      <trkpt lat="47.36778" lon="-2.45488">
        <ele>23</ele>
        <time>2021-04-01T09:23:02.000Z</time>
      </trkpt>
      <trkpt lat="47.36737" lon="-2.45449">
        <ele>23</ele>
        <time>2021-04-01T09:23:09.000Z</time>
      </trkpt>
      <trkpt lat="47.36697" lon="-2.45427">
        <ele>22.60000038147</ele>
        <time>2021-04-01T09:23:15.000Z</time>
      </trkpt>
      <trkpt lat="47.36691" lon="-2.45425">
        <ele>22.200000762939</ele>
        <time>2021-04-01T09:23:16.000Z</time>
      </trkpt>
      <trkpt lat="47.36684" lon="-2.45423">
        <ele>21.799999237061</ele>
        <time>2021-04-01T09:23:17.000Z</time>
      </trkpt>
      <trkpt lat="47.36677" lon="-2.45421">
        <ele>21.39999961853</ele>
        <time>2021-04-01T09:23:18.000Z</time>
      </trkpt>
      <trkpt lat="47.36671" lon="-2.45419">
        <ele>21</ele>
        <time>2021-04-01T09:23:19.000Z</time>
      </trkpt>
      <trkpt lat="47.36638" lon="-2.45409">
        <ele>21</ele>
        <time>2021-04-01T09:23:24.000Z</time>
      </trkpt>
      <trkpt lat="47.366" lon="-2.45398">
        <ele>21</ele>
        <time>2021-04-01T09:23:30.000Z</time>
      </trkpt>
      <trkpt lat="47.36588" lon="-2.45395">
        <ele>20.60000038147</ele>
        <time>2021-04-01T09:23:32.000Z</time>
      </trkpt>
      <trkpt lat="47.36582" lon="-2.45393">
        <ele>20.200000762939</ele>
        <time>2021-04-01T09:23:33.000Z</time>
      </trkpt>
      <trkpt lat="47.36575" lon="-2.45391">
        <ele>19.799999237061</ele>
        <time>2021-04-01T09:23:34.000Z</time>
      </trkpt>
      <trkpt lat="47.36568" lon="-2.45389">
        <ele>19.39999961853</ele>
        <time>2021-04-01T09:23:35.000Z</time>
      </trkpt>
      <trkpt lat="47.36562" lon="-2.45387">
        <ele>19</ele>
        <time>2021-04-01T09:23:36.000Z</time>
      </trkpt>
      <trkpt lat="47.36555" lon="-2.45384">
        <ele>19</ele>
        <time>2021-04-01T09:23:37.000Z</time>
      </trkpt>
      <trkpt lat="47.36509" lon="-2.4537">
        <ele>19</ele>
        <time>2021-04-01T09:23:44.000Z</time>
      </trkpt>
      <trkpt lat="47.36481" lon="-2.45362">
        <ele>19</ele>
        <time>2021-04-01T09:23:49.000Z</time>
      </trkpt>
      <trkpt lat="47.36443" lon="-2.45345">
        <ele>19</ele>
        <time>2021-04-01T09:23:57.000Z</time>
      </trkpt>
      <trkpt lat="47.36438" lon="-2.45343">
        <ele>19.39999961853</ele>
        <time>2021-04-01T09:23:59.000Z</time>
      </trkpt>
      <trkpt lat="47.36433" lon="-2.4534">
        <ele>19.799999237061</ele>
        <time>2021-04-01T09:24:00.000Z</time>
      </trkpt>
      <trkpt lat="47.36428" lon="-2.45338">
        <ele>20.200000762939</ele>
        <time>2021-04-01T09:24:01.000Z</time>
      </trkpt>
      <trkpt lat="47.36423" lon="-2.45336">
        <ele>20.60000038147</ele>
        <time>2021-04-01T09:24:02.000Z</time>
      </trkpt>
      <trkpt lat="47.36418" lon="-2.45334">
        <ele>21</ele>
        <time>2021-04-01T09:24:03.000Z</time>
      </trkpt>
      <trkpt lat="47.36404" lon="-2.45327">
        <ele>21</ele>
        <time>2021-04-01T09:24:06.000Z</time>
      </trkpt>
      <trkpt lat="47.36395" lon="-2.45322">
        <ele>21.39999961853</ele>
        <time>2021-04-01T09:24:08.000Z</time>
      </trkpt>
      <trkpt lat="47.3639" lon="-2.4532">
        <ele>22</ele>
        <time>2021-04-01T09:24:09.000Z</time>
      </trkpt>
      <trkpt lat="47.36386" lon="-2.45319">
        <ele>22.39999961853</ele>
        <time>2021-04-01T09:24:10.000Z</time>
      </trkpt>
      <trkpt lat="47.36382" lon="-2.45317">
        <ele>22.799999237061</ele>
        <time>2021-04-01T09:24:11.000Z</time>
      </trkpt>
      <trkpt lat="47.36378" lon="-2.45315">
        <ele>23.200000762939</ele>
        <time>2021-04-01T09:24:12.000Z</time>
      </trkpt>
      <trkpt lat="47.36369" lon="-2.45311">
        <ele>23.200000762939</ele>
        <time>2021-04-01T09:24:14.000Z</time>
      </trkpt>
      <trkpt lat="47.36334" lon="-2.45295">
        <ele>23.200000762939</ele>
        <time>2021-04-01T09:24:22.000Z</time>
      </trkpt>
      <trkpt lat="47.36329" lon="-2.45293">
        <ele>23.60000038147</ele>
        <time>2021-04-01T09:24:23.000Z</time>
      </trkpt>
      <trkpt lat="47.36325" lon="-2.45291">
        <ele>24</ele>
        <time>2021-04-01T09:24:24.000Z</time>
      </trkpt>
      <trkpt lat="47.3632" lon="-2.45289">
        <ele>24.39999961853</ele>
        <time>2021-04-01T09:24:25.000Z</time>
      </trkpt>
      <trkpt lat="47.36315" lon="-2.45287">
        <ele>24.799999237061</ele>
        <time>2021-04-01T09:24:26.000Z</time>
      </trkpt>
      <trkpt lat="47.36311" lon="-2.45285">
        <ele>25.200000762939</ele>
        <time>2021-04-01T09:24:27.000Z</time>
      </trkpt>
      <trkpt lat="47.36288" lon="-2.45274">
        <ele>25.200000762939</ele>
        <time>2021-04-01T09:24:32.000Z</time>
      </trkpt>
      <trkpt lat="47.36259" lon="-2.45261">
        <ele>25.60000038147</ele>
        <time>2021-04-01T09:24:39.000Z</time>
      </trkpt>
      <trkpt lat="47.36255" lon="-2.45258">
        <ele>26</ele>
        <time>2021-04-01T09:24:40.000Z</time>
      </trkpt>
      <trkpt lat="47.36251" lon="-2.45256">
        <ele>26.60000038147</ele>
        <time>2021-04-01T09:24:41.000Z</time>
      </trkpt>
      <trkpt lat="47.36247" lon="-2.45254">
        <ele>27</ele>
        <time>2021-04-01T09:24:42.000Z</time>
      </trkpt>
      <trkpt lat="47.36243" lon="-2.45251">
        <ele>27.39999961853</ele>
        <time>2021-04-01T09:24:43.000Z</time>
      </trkpt>
      <trkpt lat="47.3622" lon="-2.45234">
        <ele>27.39999961853</ele>
        <time>2021-04-01T09:24:49.000Z</time>
      </trkpt>
      <trkpt lat="47.36192" lon="-2.45206">
        <ele>27.39999961853</ele>
        <time>2021-04-01T09:24:57.000Z</time>
      </trkpt>
      <trkpt lat="47.3617" lon="-2.45185">
        <ele>27.799999237061</ele>
        <time>2021-04-01T09:25:03.000Z</time>
      </trkpt>
      <trkpt lat="47.36166" lon="-2.45181">
        <ele>28.200000762939</ele>
        <time>2021-04-01T09:25:04.000Z</time>
      </trkpt>
      <trkpt lat="47.36162" lon="-2.45177">
        <ele>28.60000038147</ele>
        <time>2021-04-01T09:25:05.000Z</time>
      </trkpt>
      <trkpt lat="47.36158" lon="-2.45173">
        <ele>29</ele>
        <time>2021-04-01T09:25:06.000Z</time>
      </trkpt>
      <trkpt lat="47.36154" lon="-2.45169">
        <ele>29.39999961853</ele>
        <time>2021-04-01T09:25:07.000Z</time>
      </trkpt>
      <trkpt lat="47.36137" lon="-2.45154">
        <ele>29.39999961853</ele>
        <time>2021-04-01T09:25:11.000Z</time>
      </trkpt>
      <trkpt lat="47.36132" lon="-2.4515">
        <ele>29.39999961853</ele>
        <time>2021-04-01T09:25:12.000Z</time>
      </trkpt>
      <trkpt lat="47.36108" lon="-2.45133">
        <ele>29.39999961853</ele>
        <time>2021-04-01T09:25:17.000Z</time>
      </trkpt>
      <trkpt lat="47.36074" lon="-2.45113">
        <ele>29.39999961853</ele>
        <time>2021-04-01T09:25:24.000Z</time>
      </trkpt>
      <trkpt lat="47.36036" lon="-2.4509">
        <ele>29.39999961853</ele>
        <time>2021-04-01T09:25:31.000Z</time>
      </trkpt>
      <trkpt lat="47.36024" lon="-2.45086">
        <ele>29.39999961853</ele>
        <time>2021-04-01T09:25:33.000Z</time>
      </trkpt>
      <trkpt lat="47.36006" lon="-2.45082">
        <ele>29.39999961853</ele>
        <time>2021-04-01T09:25:36.000Z</time>
      </trkpt>
      <trkpt lat="47.35983" lon="-2.45077">
        <ele>29.39999961853</ele>
        <time>2021-04-01T09:25:40.000Z</time>
      </trkpt>
      <trkpt lat="47.35972" lon="-2.45073">
        <ele>29.39999961853</ele>
        <time>2021-04-01T09:25:42.000Z</time>
      </trkpt>
      <trkpt lat="47.35925" lon="-2.45046">
        <ele>29.39999961853</ele>
        <time>2021-04-01T09:25:51.000Z</time>
      </trkpt>
      <trkpt lat="47.35901" lon="-2.45031">
        <ele>29.39999961853</ele>
        <time>2021-04-01T09:25:56.000Z</time>
      </trkpt>
      <trkpt lat="47.35861" lon="-2.45002">
        <ele>29.39999961853</ele>
        <time>2021-04-01T09:26:04.000Z</time>
      </trkpt>
      <trkpt lat="47.3583" lon="-2.44979">
        <ele>29.39999961853</ele>
        <time>2021-04-01T09:26:10.000Z</time>
      </trkpt>
      <trkpt lat="47.35796" lon="-2.44952">
        <ele>29.39999961853</ele>
        <time>2021-04-01T09:26:17.000Z</time>
      </trkpt>
      <trkpt lat="47.35763" lon="-2.44931">
        <ele>29.39999961853</ele>
        <time>2021-04-01T09:26:23.000Z</time>
      </trkpt>
      <trkpt lat="47.35757" lon="-2.44929">
        <ele>29.39999961853</ele>
        <time>2021-04-01T09:26:24.000Z</time>
      </trkpt>
      <trkpt lat="47.35728" lon="-2.44918">
        <ele>29.799999237061</ele>
        <time>2021-04-01T09:26:29.000Z</time>
      </trkpt>
      <trkpt lat="47.35722" lon="-2.44917">
        <ele>30.200000762939</ele>
        <time>2021-04-01T09:26:30.000Z</time>
      </trkpt>
      <trkpt lat="47.35716" lon="-2.44915">
        <ele>30.60000038147</ele>
        <time>2021-04-01T09:26:31.000Z</time>
      </trkpt>
      <trkpt lat="47.3571" lon="-2.44914">
        <ele>31</ele>
        <time>2021-04-01T09:26:32.000Z</time>
      </trkpt>
      <trkpt lat="47.35705" lon="-2.44913">
        <ele>31.39999961853</ele>
        <time>2021-04-01T09:26:33.000Z</time>
      </trkpt>
      <trkpt lat="47.35689" lon="-2.44908">
        <ele>31.39999961853</ele>
        <time>2021-04-01T09:26:36.000Z</time>
      </trkpt>
      <trkpt lat="47.35661" lon="-2.449">
        <ele>31.39999961853</ele>
        <time>2021-04-01T09:26:42.000Z</time>
      </trkpt>
      <trkpt lat="47.35624" lon="-2.44882">
        <ele>31.39999961853</ele>
        <time>2021-04-01T09:26:49.000Z</time>
      </trkpt>
      <trkpt lat="47.35619" lon="-2.44878">
        <ele>31.39999961853</ele>
        <time>2021-04-01T09:26:50.000Z</time>
      </trkpt>
      <trkpt lat="47.356" lon="-2.44854">
        <ele>31.39999961853</ele>
        <time>2021-04-01T09:26:54.000Z</time>
      </trkpt>
      <trkpt lat="47.35576" lon="-2.44818">
        <ele>31.39999961853</ele>
        <time>2021-04-01T09:27:00.000Z</time>
      </trkpt>
      <trkpt lat="47.35544" lon="-2.44769">
        <ele>31.39999961853</ele>
        <time>2021-04-01T09:27:08.000Z</time>
      </trkpt>
      <trkpt lat="47.35521" lon="-2.44738">
        <ele>31</ele>
        <time>2021-04-01T09:27:13.000Z</time>
      </trkpt>
      <trkpt lat="47.35515" lon="-2.44733">
        <ele>30.60000038147</ele>
        <time>2021-04-01T09:27:14.000Z</time>
      </trkpt>
      <trkpt lat="47.35509" lon="-2.44728">
        <ele>30.200000762939</ele>
        <time>2021-04-01T09:27:15.000Z</time>
      </trkpt>
      <trkpt lat="47.35503" lon="-2.44723">
        <ele>29.799999237061</ele>
        <time>2021-04-01T09:27:16.000Z</time>
      </trkpt>
      <trkpt lat="47.35497" lon="-2.44719">
        <ele>29.39999961853</ele>
        <time>2021-04-01T09:27:17.000Z</time>
      </trkpt>
      <trkpt lat="47.35491" lon="-2.44716">
        <ele>29.39999961853</ele>
        <time>2021-04-01T09:27:18.000Z</time>
      </trkpt>
      <trkpt lat="47.35478" lon="-2.44712">
        <ele>29.39999961853</ele>
        <time>2021-04-01T09:27:20.000Z</time>
      </trkpt>
      <trkpt lat="47.35443" lon="-2.44707">
        <ele>29.39999961853</ele>
        <time>2021-04-01T09:27:26.000Z</time>
      </trkpt>
      <trkpt lat="47.35401" lon="-2.447">
        <ele>29.39999961853</ele>
        <time>2021-04-01T09:27:34.000Z</time>
      </trkpt>
      <trkpt lat="47.35356" lon="-2.44691">
        <ele>29.799999237061</ele>
        <time>2021-04-01T09:27:43.000Z</time>
      </trkpt>
      <trkpt lat="47.35351" lon="-2.44691">
        <ele>30.200000762939</ele>
        <time>2021-04-01T09:27:44.000Z</time>
      </trkpt>
      <trkpt lat="47.35347" lon="-2.4469">
        <ele>30.60000038147</ele>
        <time>2021-04-01T09:27:45.000Z</time>
      </trkpt>
      <trkpt lat="47.35342" lon="-2.44689">
        <ele>31</ele>
        <time>2021-04-01T09:27:46.000Z</time>
      </trkpt>
      <trkpt lat="47.35337" lon="-2.44689">
        <ele>31.39999961853</ele>
        <time>2021-04-01T09:27:47.000Z</time>
      </trkpt>
      <trkpt lat="47.35332" lon="-2.44688">
        <ele>31.39999961853</ele>
        <time>2021-04-01T09:27:48.000Z</time>
      </trkpt>
      <trkpt lat="47.35288" lon="-2.44686">
        <ele>31.39999961853</ele>
        <time>2021-04-01T09:27:56.000Z</time>
      </trkpt>
      <trkpt lat="47.3524" lon="-2.44686">
        <ele>31.39999961853</ele>
        <time>2021-04-01T09:28:05.000Z</time>
      </trkpt>
      <trkpt lat="47.35224" lon="-2.44684">
        <ele>31.799999237061</ele>
        <time>2021-04-01T09:28:08.000Z</time>
      </trkpt>
      <trkpt lat="47.35218" lon="-2.44683">
        <ele>32.200000762939</ele>
        <time>2021-04-01T09:28:09.000Z</time>
      </trkpt>
      <trkpt lat="47.35213" lon="-2.44682">
        <ele>32.599998474121</ele>
        <time>2021-04-01T09:28:10.000Z</time>
      </trkpt>
      <trkpt lat="47.35208" lon="-2.4468">
        <ele>33</ele>
        <time>2021-04-01T09:28:11.000Z</time>
      </trkpt>
      <trkpt lat="47.35203" lon="-2.44678">
        <ele>33.400001525879</ele>
        <time>2021-04-01T09:28:12.000Z</time>
      </trkpt>
      <trkpt lat="47.35186" lon="-2.4467">
        <ele>33.400001525879</ele>
        <time>2021-04-01T09:28:15.000Z</time>
      </trkpt>
      <trkpt lat="47.35176" lon="-2.44663">
        <ele>33.400001525879</ele>
        <time>2021-04-01T09:28:17.000Z</time>
      </trkpt>
      <trkpt lat="47.35146" lon="-2.44635">
        <ele>33.400001525879</ele>
        <time>2021-04-01T09:28:23.000Z</time>
      </trkpt>
      <trkpt lat="47.35119" lon="-2.44605">
        <ele>33.400001525879</ele>
        <time>2021-04-01T09:28:29.000Z</time>
      </trkpt>
      <trkpt lat="47.3509" lon="-2.44571">
        <ele>33.400001525879</ele>
        <time>2021-04-01T09:28:35.000Z</time>
      </trkpt>
      <trkpt lat="47.35048" lon="-2.44519">
        <ele>33.400001525879</ele>
        <time>2021-04-01T09:28:44.000Z</time>
      </trkpt>
      <trkpt lat="47.35003" lon="-2.44466">
        <ele>33.400001525879</ele>
        <time>2021-04-01T09:28:53.000Z</time>
      </trkpt>
      <trkpt lat="47.34973" lon="-2.4443">
        <ele>33.400001525879</ele>
        <time>2021-04-01T09:28:59.000Z</time>
      </trkpt>
      <trkpt lat="47.34933" lon="-2.44385">
        <ele>33.400001525879</ele>
        <time>2021-04-01T09:29:07.000Z</time>
      </trkpt>
      <trkpt lat="47.34888" lon="-2.44334">
        <ele>33.400001525879</ele>
        <time>2021-04-01T09:29:16.000Z</time>
      </trkpt>
      <trkpt lat="47.34851" lon="-2.44298">
        <ele>33.400001525879</ele>
        <time>2021-04-01T09:29:24.000Z</time>
      </trkpt>
      <trkpt lat="47.34845" lon="-2.44297">
        <ele>33.400001525879</ele>
        <time>2021-04-01T09:29:25.000Z</time>
      </trkpt>
      <trkpt lat="47.34833" lon="-2.44304">
        <ele>33.400001525879</ele>
        <time>2021-04-01T09:29:27.000Z</time>
      </trkpt>
      <trkpt lat="47.3482" lon="-2.44324">
        <ele>33.400001525879</ele>
        <time>2021-04-01T09:29:30.000Z</time>
      </trkpt>
      <trkpt lat="47.34788" lon="-2.44379">
        <ele>33.400001525879</ele>
        <time>2021-04-01T09:29:38.000Z</time>
      </trkpt>
      <trkpt lat="47.34765" lon="-2.4443">
        <ele>33.400001525879</ele>
        <time>2021-04-01T09:29:45.000Z</time>
      </trkpt>
      <trkpt lat="47.34763" lon="-2.44437">
        <ele>33.799999237061</ele>
        <time>2021-04-01T09:29:46.000Z</time>
      </trkpt>
      <trkpt lat="47.3476" lon="-2.44444">
        <ele>34.400001525879</ele>
        <time>2021-04-01T09:29:47.000Z</time>
      </trkpt>
      <trkpt lat="47.34757" lon="-2.44452">
        <ele>34.799999237061</ele>
        <time>2021-04-01T09:29:48.000Z</time>
      </trkpt>
      <trkpt lat="47.34754" lon="-2.44459">
        <ele>35.200000762939</ele>
        <time>2021-04-01T09:29:49.000Z</time>
      </trkpt>
      <trkpt lat="47.34751" lon="-2.44466">
        <ele>35.599998474121</ele>
        <time>2021-04-01T09:29:50.000Z</time>
      </trkpt>
      <trkpt lat="47.34746" lon="-2.44482">
        <ele>35.599998474121</ele>
        <time>2021-04-01T09:29:52.000Z</time>
      </trkpt>
      <trkpt lat="47.34721" lon="-2.44549">
        <ele>35.599998474121</ele>
        <time>2021-04-01T09:30:00.000Z</time>
      </trkpt>
      <trkpt lat="47.34715" lon="-2.44565">
        <ele>36</ele>
        <time>2021-04-01T09:30:02.000Z</time>
      </trkpt>
      <trkpt lat="47.34712" lon="-2.44573">
        <ele>36.400001525879</ele>
        <time>2021-04-01T09:30:03.000Z</time>
      </trkpt>
      <trkpt lat="47.34709" lon="-2.44581">
        <ele>36.799999237061</ele>
        <time>2021-04-01T09:30:04.000Z</time>
      </trkpt>
      <trkpt lat="47.34706" lon="-2.44588">
        <ele>37.799999237061</ele>
        <time>2021-04-01T09:30:05.000Z</time>
      </trkpt>
      <trkpt lat="47.34695" lon="-2.44618">
        <ele>37.799999237061</ele>
        <time>2021-04-01T09:30:09.000Z</time>
      </trkpt>
      <trkpt lat="47.34665" lon="-2.44694">
        <ele>37.799999237061</ele>
        <time>2021-04-01T09:30:19.000Z</time>
      </trkpt>
      <trkpt lat="47.34634" lon="-2.44744">
        <ele>37.799999237061</ele>
        <time>2021-04-01T09:30:26.000Z</time>
      </trkpt>
      <trkpt lat="47.34591" lon="-2.448">
        <ele>37.799999237061</ele>
        <time>2021-04-01T09:30:35.000Z</time>
      </trkpt>
      <trkpt lat="47.34587" lon="-2.44806">
        <ele>37.799999237061</ele>
        <time>2021-04-01T09:30:36.000Z</time>
      </trkpt>
      <trkpt lat="47.34543" lon="-2.44856">
        <ele>37.799999237061</ele>
        <time>2021-04-01T09:30:45.000Z</time>
      </trkpt>
      <trkpt lat="47.34533" lon="-2.44866">
        <ele>38.200000762939</ele>
        <time>2021-04-01T09:30:47.000Z</time>
      </trkpt>
      <trkpt lat="47.34527" lon="-2.4487">
        <ele>38.599998474121</ele>
        <time>2021-04-01T09:30:48.000Z</time>
      </trkpt>
      <trkpt lat="47.34522" lon="-2.44874">
        <ele>39</ele>
        <time>2021-04-01T09:30:49.000Z</time>
      </trkpt>
      <trkpt lat="47.34517" lon="-2.44878">
        <ele>39.400001525879</ele>
        <time>2021-04-01T09:30:50.000Z</time>
      </trkpt>
      <trkpt lat="47.34511" lon="-2.44882">
        <ele>39.799999237061</ele>
        <time>2021-04-01T09:30:51.000Z</time>
      </trkpt>
      <trkpt lat="47.345" lon="-2.4489">
        <ele>39.799999237061</ele>
        <time>2021-04-01T09:30:53.000Z</time>
      </trkpt>
      <trkpt lat="47.34465" lon="-2.44915">
        <ele>39.799999237061</ele>
        <time>2021-04-01T09:31:00.000Z</time>
      </trkpt>
      <trkpt lat="47.34431" lon="-2.44946">
        <ele>40.200000762939</ele>
        <time>2021-04-01T09:31:07.000Z</time>
      </trkpt>
      <trkpt lat="47.34426" lon="-2.44951">
        <ele>40.599998474121</ele>
        <time>2021-04-01T09:31:08.000Z</time>
      </trkpt>
      <trkpt lat="47.34421" lon="-2.44955">
        <ele>41</ele>
        <time>2021-04-01T09:31:09.000Z</time>
      </trkpt>
      <trkpt lat="47.34417" lon="-2.4496">
        <ele>41.400001525879</ele>
        <time>2021-04-01T09:31:10.000Z</time>
      </trkpt>
      <trkpt lat="47.34413" lon="-2.44964">
        <ele>41.799999237061</ele>
        <time>2021-04-01T09:31:11.000Z</time>
      </trkpt>
      <trkpt lat="47.34402" lon="-2.44978">
        <ele>41.799999237061</ele>
        <time>2021-04-01T09:31:14.000Z</time>
      </trkpt>
      <trkpt lat="47.34388" lon="-2.44994">
        <ele>41.799999237061</ele>
        <time>2021-04-01T09:31:18.000Z</time>
      </trkpt>
      <trkpt lat="47.34384" lon="-2.44998">
        <ele>41.799999237061</ele>
        <time>2021-04-01T09:31:19.000Z</time>
      </trkpt>
      <trkpt lat="47.34352" lon="-2.45034">
        <ele>41.799999237061</ele>
        <time>2021-04-01T09:31:26.000Z</time>
      </trkpt>
      <trkpt lat="47.34313" lon="-2.45076">
        <ele>41.799999237061</ele>
        <time>2021-04-01T09:31:34.000Z</time>
      </trkpt>
      <trkpt lat="47.34308" lon="-2.45081">
        <ele>42.200000762939</ele>
        <time>2021-04-01T09:31:35.000Z</time>
      </trkpt>
      <trkpt lat="47.34302" lon="-2.45086">
        <ele>42.599998474121</ele>
        <time>2021-04-01T09:31:36.000Z</time>
      </trkpt>
      <trkpt lat="47.34296" lon="-2.4509">
        <ele>43</ele>
        <time>2021-04-01T09:31:37.000Z</time>
      </trkpt>
      <trkpt lat="47.34291" lon="-2.45095">
        <ele>43.400001525879</ele>
        <time>2021-04-01T09:31:38.000Z</time>
      </trkpt>
      <trkpt lat="47.34285" lon="-2.451">
        <ele>44</ele>
        <time>2021-04-01T09:31:39.000Z</time>
      </trkpt>
      <trkpt lat="47.34273" lon="-2.45109">
        <ele>44</ele>
        <time>2021-04-01T09:31:41.000Z</time>
      </trkpt>
      <trkpt lat="47.34227" lon="-2.45143">
        <ele>44</ele>
        <time>2021-04-01T09:31:49.000Z</time>
      </trkpt>
      <trkpt lat="47.34185" lon="-2.45174">
        <ele>44</ele>
        <time>2021-04-01T09:31:57.000Z</time>
      </trkpt>
      <trkpt lat="47.34133" lon="-2.45213">
        <ele>44</ele>
        <time>2021-04-01T09:32:07.000Z</time>
      </trkpt>
      <trkpt lat="47.34123" lon="-2.45221">
        <ele>44.400001525879</ele>
        <time>2021-04-01T09:32:09.000Z</time>
      </trkpt>
      <trkpt lat="47.34117" lon="-2.45225">
        <ele>44.799999237061</ele>
        <time>2021-04-01T09:32:10.000Z</time>
      </trkpt>
      <trkpt lat="47.34111" lon="-2.45229">
        <ele>45.200000762939</ele>
        <time>2021-04-01T09:32:11.000Z</time>
      </trkpt>
      <trkpt lat="47.34105" lon="-2.45233">
        <ele>45.599998474121</ele>
        <time>2021-04-01T09:32:12.000Z</time>
      </trkpt>
      <trkpt lat="47.341" lon="-2.45237">
        <ele>46</ele>
        <time>2021-04-01T09:32:13.000Z</time>
      </trkpt>
      <trkpt lat="47.34094" lon="-2.45241">
        <ele>46</ele>
        <time>2021-04-01T09:32:14.000Z</time>
      </trkpt>
      <trkpt lat="47.34088" lon="-2.45244">
        <ele>46</ele>
        <time>2021-04-01T09:32:15.000Z</time>
      </trkpt>
      <trkpt lat="47.34067" lon="-2.45258">
        <ele>46</ele>
        <time>2021-04-01T09:32:19.000Z</time>
      </trkpt>
      <trkpt lat="47.34059" lon="-2.45251">
        <ele>46</ele>
        <time>2021-04-01T09:32:21.000Z</time>
      </trkpt>
      <trkpt lat="47.34054" lon="-2.45237">
        <ele>46</ele>
        <time>2021-04-01T09:32:23.000Z</time>
      </trkpt>
      <trkpt lat="47.34051" lon="-2.45229">
        <ele>46</ele>
        <time>2021-04-01T09:32:24.000Z</time>
      </trkpt>
      <trkpt lat="47.34037" lon="-2.45178">
        <ele>46</ele>
        <time>2021-04-01T09:32:30.000Z</time>
      </trkpt>
      <trkpt lat="47.3402" lon="-2.45119">
        <ele>46</ele>
        <time>2021-04-01T09:32:36.000Z</time>
      </trkpt>
      <trkpt lat="47.33998" lon="-2.4504">
        <ele>46</ele>
        <time>2021-04-01T09:32:44.000Z</time>
      </trkpt>
      <trkpt lat="47.33994" lon="-2.45022">
        <ele>45.599998474121</ele>
        <time>2021-04-01T09:32:46.000Z</time>
      </trkpt>
      <trkpt lat="47.33992" lon="-2.45012">
        <ele>45.200000762939</ele>
        <time>2021-04-01T09:32:47.000Z</time>
      </trkpt>
      <trkpt lat="47.33991" lon="-2.45003">
        <ele>44.799999237061</ele>
        <time>2021-04-01T09:32:48.000Z</time>
      </trkpt>
      <trkpt lat="47.33989" lon="-2.44994">
        <ele>44.400001525879</ele>
        <time>2021-04-01T09:32:49.000Z</time>
      </trkpt>
      <trkpt lat="47.33988" lon="-2.44986">
        <ele>44</ele>
        <time>2021-04-01T09:32:50.000Z</time>
      </trkpt>
      <trkpt lat="47.33985" lon="-2.44957">
        <ele>44</ele>
        <time>2021-04-01T09:32:53.000Z</time>
      </trkpt>
      <trkpt lat="47.33986" lon="-2.44936">
        <ele>44</ele>
        <time>2021-04-01T09:32:55.000Z</time>
      </trkpt>
      <trkpt lat="47.33997" lon="-2.44876">
        <ele>44</ele>
        <time>2021-04-01T09:33:01.000Z</time>
      </trkpt>
      <trkpt lat="47.34015" lon="-2.4481">
        <ele>44</ele>
        <time>2021-04-01T09:33:08.000Z</time>
      </trkpt>
      <trkpt lat="47.34033" lon="-2.44753">
        <ele>43.599998474121</ele>
        <time>2021-04-01T09:33:14.000Z</time>
      </trkpt>
      <trkpt lat="47.34035" lon="-2.44744">
        <ele>43.200000762939</ele>
        <time>2021-04-01T09:33:15.000Z</time>
      </trkpt>
      <trkpt lat="47.34037" lon="-2.44734">
        <ele>42.799999237061</ele>
        <time>2021-04-01T09:33:16.000Z</time>
      </trkpt>
      <trkpt lat="47.3404" lon="-2.44723">
        <ele>42.400001525879</ele>
        <time>2021-04-01T09:33:17.000Z</time>
      </trkpt>
      <trkpt lat="47.34041" lon="-2.44712">
        <ele>42</ele>
        <time>2021-04-01T09:33:18.000Z</time>
      </trkpt>
      <trkpt lat="47.34048" lon="-2.4466">
        <ele>42</ele>
        <time>2021-04-01T09:33:23.000Z</time>
      </trkpt>
      <trkpt lat="47.34052" lon="-2.44585">
        <ele>42</ele>
        <time>2021-04-01T09:33:30.000Z</time>
      </trkpt>
      <trkpt lat="47.3405" lon="-2.44528">
        <ele>41.599998474121</ele>
        <time>2021-04-01T09:33:35.000Z</time>
      </trkpt>
      <trkpt lat="47.34049" lon="-2.44517">
        <ele>41.200000762939</ele>
        <time>2021-04-01T09:33:36.000Z</time>
      </trkpt>
      <trkpt lat="47.34048" lon="-2.44506">
        <ele>40.599998474121</ele>
        <time>2021-04-01T09:33:37.000Z</time>
      </trkpt>
      <trkpt lat="47.34048" lon="-2.44494">
        <ele>40.200000762939</ele>
        <time>2021-04-01T09:33:38.000Z</time>
      </trkpt>
      <trkpt lat="47.34047" lon="-2.44483">
        <ele>39.799999237061</ele>
        <time>2021-04-01T09:33:39.000Z</time>
      </trkpt>
      <trkpt lat="47.34045" lon="-2.44448">
        <ele>39.799999237061</ele>
        <time>2021-04-01T09:33:42.000Z</time>
      </trkpt>
      <trkpt lat="47.34028" lon="-2.44423">
        <ele>39.799999237061</ele>
        <time>2021-04-01T09:33:45.000Z</time>
      </trkpt>
      <trkpt lat="47.34009" lon="-2.44406">
        <ele>39.799999237061</ele>
        <time>2021-04-01T09:33:48.000Z</time>
      </trkpt>
      <trkpt lat="47.33996" lon="-2.44398">
        <ele>39.799999237061</ele>
        <time>2021-04-01T09:33:50.000Z</time>
      </trkpt>
      <trkpt lat="47.33963" lon="-2.44376">
        <ele>39.799999237061</ele>
        <time>2021-04-01T09:33:56.000Z</time>
      </trkpt>
      <trkpt lat="47.33923" lon="-2.44352">
        <ele>39.799999237061</ele>
        <time>2021-04-01T09:34:04.000Z</time>
      </trkpt>
      <trkpt lat="47.33909" lon="-2.44346">
        <ele>40.200000762939</ele>
        <time>2021-04-01T09:34:07.000Z</time>
      </trkpt>
      <trkpt lat="47.33905" lon="-2.44346">
        <ele>40.599998474121</ele>
        <time>2021-04-01T09:34:08.000Z</time>
      </trkpt>
      <trkpt lat="47.33901" lon="-2.44346">
        <ele>41</ele>
        <time>2021-04-01T09:34:09.000Z</time>
      </trkpt>
      <trkpt lat="47.33896" lon="-2.44346">
        <ele>41.599998474121</ele>
        <time>2021-04-01T09:34:10.000Z</time>
      </trkpt>
      <trkpt lat="47.33892" lon="-2.44347">
        <ele>42</ele>
        <time>2021-04-01T09:34:11.000Z</time>
      </trkpt>
      <trkpt lat="47.33864" lon="-2.44347">
        <ele>42</ele>
        <time>2021-04-01T09:34:17.000Z</time>
      </trkpt>
      <trkpt lat="47.33844" lon="-2.44346">
        <ele>42.400001525879</ele>
        <time>2021-04-01T09:34:21.000Z</time>
      </trkpt>
      <trkpt lat="47.33839" lon="-2.44345">
        <ele>42.799999237061</ele>
        <time>2021-04-01T09:34:22.000Z</time>
      </trkpt>
      <trkpt lat="47.33833" lon="-2.44343">
        <ele>43.400001525879</ele>
        <time>2021-04-01T09:34:23.000Z</time>
      </trkpt>
      <trkpt lat="47.33828" lon="-2.44342">
        <ele>43.799999237061</ele>
        <time>2021-04-01T09:34:24.000Z</time>
      </trkpt>
      <trkpt lat="47.33823" lon="-2.4434">
        <ele>44.200000762939</ele>
        <time>2021-04-01T09:34:25.000Z</time>
      </trkpt>
      <trkpt lat="47.33785" lon="-2.44334">
        <ele>44.200000762939</ele>
        <time>2021-04-01T09:34:32.000Z</time>
      </trkpt>
      <trkpt lat="47.33747" lon="-2.44318">
        <ele>44.200000762939</ele>
        <time>2021-04-01T09:34:39.000Z</time>
      </trkpt>
      <trkpt lat="47.3372" lon="-2.44296">
        <ele>44.200000762939</ele>
        <time>2021-04-01T09:34:44.000Z</time>
      </trkpt>
      <trkpt lat="47.33685" lon="-2.44258">
        <ele>44.200000762939</ele>
        <time>2021-04-01T09:34:51.000Z</time>
      </trkpt>
      <trkpt lat="47.33665" lon="-2.44238">
        <ele>44.599998474121</ele>
        <time>2021-04-01T09:34:55.000Z</time>
      </trkpt>
      <trkpt lat="47.33659" lon="-2.44233">
        <ele>45</ele>
        <time>2021-04-01T09:34:56.000Z</time>
      </trkpt>
      <trkpt lat="47.33654" lon="-2.44228">
        <ele>45.400001525879</ele>
        <time>2021-04-01T09:34:57.000Z</time>
      </trkpt>
      <trkpt lat="47.33649" lon="-2.44224">
        <ele>45.799999237061</ele>
        <time>2021-04-01T09:34:58.000Z</time>
      </trkpt>
      <trkpt lat="47.33644" lon="-2.44219">
        <ele>46.200000762939</ele>
        <time>2021-04-01T09:34:59.000Z</time>
      </trkpt>
      <trkpt lat="47.33607" lon="-2.4419">
        <ele>46.200000762939</ele>
        <time>2021-04-01T09:35:06.000Z</time>
      </trkpt>
      <trkpt lat="47.33559" lon="-2.44152">
        <ele>46.200000762939</ele>
        <time>2021-04-01T09:35:15.000Z</time>
      </trkpt>
      <trkpt lat="47.33522" lon="-2.44121">
        <ele>46.200000762939</ele>
        <time>2021-04-01T09:35:22.000Z</time>
      </trkpt>
      <trkpt lat="47.33486" lon="-2.4409">
        <ele>46.200000762939</ele>
        <time>2021-04-01T09:35:29.000Z</time>
      </trkpt>
      <trkpt lat="47.33448" lon="-2.44055">
        <ele>46.200000762939</ele>
        <time>2021-04-01T09:35:37.000Z</time>
      </trkpt>
      <trkpt lat="47.33409" lon="-2.44018">
        <ele>46.200000762939</ele>
        <time>2021-04-01T09:35:45.000Z</time>
      </trkpt>
      <trkpt lat="47.33387" lon="-2.43993">
        <ele>46.200000762939</ele>
        <time>2021-04-01T09:35:50.000Z</time>
      </trkpt>
      <trkpt lat="47.33383" lon="-2.43988">
        <ele>46.200000762939</ele>
        <time>2021-04-01T09:35:51.000Z</time>
      </trkpt>
      <trkpt lat="47.33352" lon="-2.43951">
        <ele>46.200000762939</ele>
        <time>2021-04-01T09:35:58.000Z</time>
      </trkpt>
      <trkpt lat="47.33338" lon="-2.43937">
        <ele>46.200000762939</ele>
        <time>2021-04-01T09:36:01.000Z</time>
      </trkpt>
      <trkpt lat="47.33327" lon="-2.43933">
        <ele>46.200000762939</ele>
        <time>2021-04-01T09:36:03.000Z</time>
      </trkpt>
      <trkpt lat="47.33291" lon="-2.43918">
        <ele>46.200000762939</ele>
        <time>2021-04-01T09:36:09.000Z</time>
      </trkpt>
      <trkpt lat="47.33244" lon="-2.43894">
        <ele>46.200000762939</ele>
        <time>2021-04-01T09:36:17.000Z</time>
      </trkpt>
      <trkpt lat="47.33209" lon="-2.43862">
        <ele>46.200000762939</ele>
        <time>2021-04-01T09:36:24.000Z</time>
      </trkpt>
      <trkpt lat="47.33195" lon="-2.4383">
        <ele>46.200000762939</ele>
        <time>2021-04-01T09:36:28.000Z</time>
      </trkpt>
      <trkpt lat="47.33192" lon="-2.43822">
        <ele>46.200000762939</ele>
        <time>2021-04-01T09:36:29.000Z</time>
      </trkpt>
      <trkpt lat="47.33168" lon="-2.43759">
        <ele>46.200000762939</ele>
        <time>2021-04-01T09:36:36.000Z</time>
      </trkpt>
      <trkpt lat="47.3314" lon="-2.43688">
        <ele>46.200000762939</ele>
        <time>2021-04-01T09:36:44.000Z</time>
      </trkpt>
      <trkpt lat="47.33119" lon="-2.43616">
        <ele>46.200000762939</ele>
        <time>2021-04-01T09:36:52.000Z</time>
      </trkpt>
      <trkpt lat="47.3311" lon="-2.43554">
        <ele>46.200000762939</ele>
        <time>2021-04-01T09:36:59.000Z</time>
      </trkpt>
      <trkpt lat="47.33099" lon="-2.43503">
        <ele>46.200000762939</ele>
        <time>2021-04-01T09:37:05.000Z</time>
      </trkpt>
      <trkpt lat="47.33084" lon="-2.43454">
        <ele>46.200000762939</ele>
        <time>2021-04-01T09:37:12.000Z</time>
      </trkpt>
      <trkpt lat="47.33074" lon="-2.43425">
        <ele>46.200000762939</ele>
        <time>2021-04-01T09:37:18.000Z</time>
      </trkpt>
      <trkpt lat="47.33072" lon="-2.43423">
        <ele>46.200000762939</ele>
        <time>2021-04-01T09:37:21.000Z</time>
      </trkpt>
      <trkpt lat="47.33069" lon="-2.4342">
        <ele>46.200000762939</ele>
        <time>2021-04-01T09:37:44.000Z</time>
      </trkpt>
      <trkpt lat="47.33067" lon="-2.43415">
        <ele>46.200000762939</ele>
        <time>2021-04-01T09:37:46.000Z</time>
      </trkpt>
      <trkpt lat="47.33066" lon="-2.43401">
        <ele>46.200000762939</ele>
        <time>2021-04-01T09:37:49.000Z</time>
      </trkpt>
      <trkpt lat="47.33064" lon="-2.43388">
        <ele>46.200000762939</ele>
        <time>2021-04-01T09:37:51.000Z</time>
      </trkpt>
      <trkpt lat="47.33062" lon="-2.43382">
        <ele>46.200000762939</ele>
        <time>2021-04-01T09:37:52.000Z</time>
      </trkpt>
      <trkpt lat="47.33059" lon="-2.43376">
        <ele>46.200000762939</ele>
        <time>2021-04-01T09:37:53.000Z</time>
      </trkpt>
      <trkpt lat="47.33039" lon="-2.4333">
        <ele>46.200000762939</ele>
        <time>2021-04-01T09:38:00.000Z</time>
      </trkpt>
      <trkpt lat="47.33012" lon="-2.43271">
        <ele>46.200000762939</ele>
        <time>2021-04-01T09:38:09.000Z</time>
      </trkpt>
      <trkpt lat="47.32991" lon="-2.43226">
        <ele>46.200000762939</ele>
        <time>2021-04-01T09:38:16.000Z</time>
      </trkpt>
      <trkpt lat="47.32968" lon="-2.4318">
        <ele>46.200000762939</ele>
        <time>2021-04-01T09:38:24.000Z</time>
      </trkpt>
      <trkpt lat="47.32953" lon="-2.43152">
        <ele>46.200000762939</ele>
        <time>2021-04-01T09:38:30.000Z</time>
      </trkpt>
      <trkpt lat="47.32945" lon="-2.43154">
        <ele>46.200000762939</ele>
        <time>2021-04-01T09:38:33.000Z</time>
      </trkpt>
      <trkpt lat="47.32943" lon="-2.43157">
        <ele>46.200000762939</ele>
        <time>2021-04-01T09:38:34.000Z</time>
      </trkpt>
      <trkpt lat="47.32935" lon="-2.43168">
        <ele>46.200000762939</ele>
        <time>2021-04-01T09:38:37.000Z</time>
      </trkpt>
      <trkpt lat="47.32928" lon="-2.43175">
        <ele>46.200000762939</ele>
        <time>2021-04-01T09:38:39.000Z</time>
      </trkpt>
      <trkpt lat="47.32914" lon="-2.43187">
        <ele>45.799999237061</ele>
        <time>2021-04-01T09:38:42.000Z</time>
      </trkpt>
      <trkpt lat="47.32909" lon="-2.4319">
        <ele>45</ele>
        <time>2021-04-01T09:38:43.000Z</time>
      </trkpt>
      <trkpt lat="47.32904" lon="-2.43194">
        <ele>44.599998474121</ele>
        <time>2021-04-01T09:38:44.000Z</time>
      </trkpt>
      <trkpt lat="47.32899" lon="-2.43199">
        <ele>44.200000762939</ele>
        <time>2021-04-01T09:38:45.000Z</time>
      </trkpt>
      <trkpt lat="47.32878" lon="-2.43214">
        <ele>44.200000762939</ele>
        <time>2021-04-01T09:38:49.000Z</time>
      </trkpt>
      <trkpt lat="47.32832" lon="-2.43246">
        <ele>44.200000762939</ele>
        <time>2021-04-01T09:38:57.000Z</time>
      </trkpt>
      <trkpt lat="47.32787" lon="-2.43267">
        <ele>44.200000762939</ele>
        <time>2021-04-01T09:39:04.000Z</time>
      </trkpt>
      <trkpt lat="47.32745" lon="-2.43284">
        <ele>44.200000762939</ele>
        <time>2021-04-01T09:39:11.000Z</time>
      </trkpt>
      <trkpt lat="47.32711" lon="-2.4329">
        <ele>44.200000762939</ele>
        <time>2021-04-01T09:39:17.000Z</time>
      </trkpt>
      <trkpt lat="47.32703" lon="-2.43289">
        <ele>44.200000762939</ele>
        <time>2021-04-01T09:39:20.000Z</time>
      </trkpt>
      <trkpt lat="47.32695" lon="-2.43287">
        <ele>44.200000762939</ele>
        <time>2021-04-01T09:39:22.000Z</time>
      </trkpt>
      <trkpt lat="47.32685" lon="-2.4328">
        <ele>44.200000762939</ele>
        <time>2021-04-01T09:39:24.000Z</time>
      </trkpt>
      <trkpt lat="47.32667" lon="-2.43257">
        <ele>44.200000762939</ele>
        <time>2021-04-01T09:39:28.000Z</time>
      </trkpt>
      <trkpt lat="47.32655" lon="-2.43234">
        <ele>44.200000762939</ele>
        <time>2021-04-01T09:39:31.000Z</time>
      </trkpt>
      <trkpt lat="47.32648" lon="-2.43217">
        <ele>44.200000762939</ele>
        <time>2021-04-01T09:39:33.000Z</time>
      </trkpt>
      <trkpt lat="47.32646" lon="-2.43209">
        <ele>44.200000762939</ele>
        <time>2021-04-01T09:39:34.000Z</time>
      </trkpt>
      <trkpt lat="47.32637" lon="-2.43174">
        <ele>44.200000762939</ele>
        <time>2021-04-01T09:39:38.000Z</time>
      </trkpt>
      <trkpt lat="47.32635" lon="-2.43165">
        <ele>44.599998474121</ele>
        <time>2021-04-01T09:39:39.000Z</time>
      </trkpt>
      <trkpt lat="47.32633" lon="-2.43157">
        <ele>45</ele>
        <time>2021-04-01T09:39:40.000Z</time>
      </trkpt>
      <trkpt lat="47.32631" lon="-2.43149">
        <ele>45.599998474121</ele>
        <time>2021-04-01T09:39:41.000Z</time>
      </trkpt>
      <trkpt lat="47.3263" lon="-2.43141">
        <ele>46</ele>
        <time>2021-04-01T09:39:42.000Z</time>
      </trkpt>
      <trkpt lat="47.32628" lon="-2.43132">
        <ele>46.400001525879</ele>
        <time>2021-04-01T09:39:43.000Z</time>
      </trkpt>
      <trkpt lat="47.32621" lon="-2.43099">
        <ele>46.400001525879</ele>
        <time>2021-04-01T09:39:47.000Z</time>
      </trkpt>
      <trkpt lat="47.32613" lon="-2.43047">
        <ele>46.400001525879</ele>
        <time>2021-04-01T09:39:53.000Z</time>
      </trkpt>
      <trkpt lat="47.32612" lon="-2.42974">
        <ele>46.400001525879</ele>
        <time>2021-04-01T09:40:01.000Z</time>
      </trkpt>
      <trkpt lat="47.32618" lon="-2.42938">
        <ele>46.400001525879</ele>
        <time>2021-04-01T09:40:05.000Z</time>
      </trkpt>
      <trkpt lat="47.3262" lon="-2.4293">
        <ele>46.400001525879</ele>
        <time>2021-04-01T09:40:06.000Z</time>
      </trkpt>
      <trkpt lat="47.32628" lon="-2.42897">
        <ele>46.799999237061</ele>
        <time>2021-04-01T09:40:10.000Z</time>
      </trkpt>
      <trkpt lat="47.3263" lon="-2.42889">
        <ele>47.400001525879</ele>
        <time>2021-04-01T09:40:11.000Z</time>
      </trkpt>
      <trkpt lat="47.32632" lon="-2.4288">
        <ele>47.799999237061</ele>
        <time>2021-04-01T09:40:12.000Z</time>
      </trkpt>
      <trkpt lat="47.32634" lon="-2.42871">
        <ele>48.200000762939</ele>
        <time>2021-04-01T09:40:13.000Z</time>
      </trkpt>
      <trkpt lat="47.32636" lon="-2.42862">
        <ele>48.599998474121</ele>
        <time>2021-04-01T09:40:14.000Z</time>
      </trkpt>
      <trkpt lat="47.32648" lon="-2.42809">
        <ele>48.599998474121</ele>
        <time>2021-04-01T09:40:20.000Z</time>
      </trkpt>
      <trkpt lat="47.32669" lon="-2.42755">
        <ele>48.599998474121</ele>
        <time>2021-04-01T09:40:27.000Z</time>
      </trkpt>
      <trkpt lat="47.32698" lon="-2.42705">
        <ele>48.599998474121</ele>
        <time>2021-04-01T09:40:35.000Z</time>
      </trkpt>
      <trkpt lat="47.32708" lon="-2.42689">
        <ele>48.200000762939</ele>
        <time>2021-04-01T09:40:39.000Z</time>
      </trkpt>
      <trkpt lat="47.32708" lon="-2.42686">
        <ele>47.799999237061</ele>
        <time>2021-04-01T09:40:40.000Z</time>
      </trkpt>
      <trkpt lat="47.3271" lon="-2.42683">
        <ele>47.400001525879</ele>
        <time>2021-04-01T09:40:41.000Z</time>
      </trkpt>
      <trkpt lat="47.3271" lon="-2.42679">
        <ele>47</ele>
        <time>2021-04-01T09:40:42.000Z</time>
      </trkpt>
      <trkpt lat="47.32711" lon="-2.42677">
        <ele>46.400001525879</ele>
        <time>2021-04-01T09:40:43.000Z</time>
      </trkpt>
      <trkpt lat="47.32711" lon="-2.42674">
        <ele>46.400001525879</ele>
        <time>2021-04-01T09:40:44.000Z</time>
      </trkpt>
      <trkpt lat="47.32711" lon="-2.42656">
        <ele>46.400001525879</ele>
        <time>2021-04-01T09:40:48.000Z</time>
      </trkpt>
      <trkpt lat="47.32708" lon="-2.42653">
        <ele>46.400001525879</ele>
        <time>2021-04-01T09:40:49.000Z</time>
      </trkpt>
      <trkpt lat="47.32703" lon="-2.42641">
        <ele>46.400001525879</ele>
        <time>2021-04-01T09:40:51.000Z</time>
      </trkpt>
      <trkpt lat="47.32702" lon="-2.42636">
        <ele>46.400001525879</ele>
        <time>2021-04-01T09:40:52.000Z</time>
      </trkpt>
      <trkpt lat="47.32692" lon="-2.42603">
        <ele>46.400001525879</ele>
        <time>2021-04-01T09:40:57.000Z</time>
      </trkpt>
      <trkpt lat="47.32678" lon="-2.42557">
        <ele>46.400001525879</ele>
        <time>2021-04-01T09:41:03.000Z</time>
      </trkpt>
      <trkpt lat="47.32656" lon="-2.42492">
        <ele>46.400001525879</ele>
        <time>2021-04-01T09:41:11.000Z</time>
      </trkpt>
      <trkpt lat="47.32634" lon="-2.42429">
        <ele>46.400001525879</ele>
        <time>2021-04-01T09:41:19.000Z</time>
      </trkpt>
      <trkpt lat="47.32614" lon="-2.42383">
        <ele>46.400001525879</ele>
        <time>2021-04-01T09:41:25.000Z</time>
      </trkpt>
      <trkpt lat="47.32584" lon="-2.42325">
        <ele>46.400001525879</ele>
        <time>2021-04-01T09:41:33.000Z</time>
      </trkpt>
      <trkpt lat="47.32569" lon="-2.423">
        <ele>47</ele>
        <time>2021-04-01T09:41:37.000Z</time>
      </trkpt>
      <trkpt lat="47.32566" lon="-2.42294">
        <ele>47.400001525879</ele>
        <time>2021-04-01T09:41:38.000Z</time>
      </trkpt>
      <trkpt lat="47.32563" lon="-2.42287">
        <ele>47.799999237061</ele>
        <time>2021-04-01T09:41:39.000Z</time>
      </trkpt>
      <trkpt lat="47.3256" lon="-2.4228">
        <ele>48.200000762939</ele>
        <time>2021-04-01T09:41:40.000Z</time>
      </trkpt>
      <trkpt lat="47.32556" lon="-2.42273">
        <ele>48.599998474121</ele>
        <time>2021-04-01T09:41:41.000Z</time>
      </trkpt>
      <trkpt lat="47.32536" lon="-2.42236">
        <ele>48.599998474121</ele>
        <time>2021-04-01T09:41:47.000Z</time>
      </trkpt>
      <trkpt lat="47.32524" lon="-2.42212">
        <ele>49</ele>
        <time>2021-04-01T09:41:51.000Z</time>
      </trkpt>
      <trkpt lat="47.32521" lon="-2.42207">
        <ele>49.400001525879</ele>
        <time>2021-04-01T09:41:52.000Z</time>
      </trkpt>
      <trkpt lat="47.32517" lon="-2.42203">
        <ele>49.799999237061</ele>
        <time>2021-04-01T09:41:53.000Z</time>
      </trkpt>
      <trkpt lat="47.32513" lon="-2.42198">
        <ele>50.200000762939</ele>
        <time>2021-04-01T09:41:54.000Z</time>
      </trkpt>
      <trkpt lat="47.3251" lon="-2.42192">
        <ele>50.599998474121</ele>
        <time>2021-04-01T09:41:55.000Z</time>
      </trkpt>
      <trkpt lat="47.3249" lon="-2.42161">
        <ele>50.599998474121</ele>
        <time>2021-04-01T09:42:01.000Z</time>
      </trkpt>
      <trkpt lat="47.32484" lon="-2.4215">
        <ele>51.200000762939</ele>
        <time>2021-04-01T09:42:03.000Z</time>
      </trkpt>
      <trkpt lat="47.3248" lon="-2.42146">
        <ele>51.599998474121</ele>
        <time>2021-04-01T09:42:04.000Z</time>
      </trkpt>
      <trkpt lat="47.32476" lon="-2.42142">
        <ele>52</ele>
        <time>2021-04-01T09:42:05.000Z</time>
      </trkpt>
      <trkpt lat="47.32472" lon="-2.42138">
        <ele>52.400001525879</ele>
        <time>2021-04-01T09:42:06.000Z</time>
      </trkpt>
      <trkpt lat="47.32468" lon="-2.42134">
        <ele>52.799999237061</ele>
        <time>2021-04-01T09:42:07.000Z</time>
      </trkpt>
      <trkpt lat="47.32451" lon="-2.42122">
        <ele>52.799999237061</ele>
        <time>2021-04-01T09:42:11.000Z</time>
      </trkpt>
      <trkpt lat="47.32432" lon="-2.42105">
        <ele>52.799999237061</ele>
        <time>2021-04-01T09:42:15.000Z</time>
      </trkpt>
      <trkpt lat="47.32423" lon="-2.42094">
        <ele>52.799999237061</ele>
        <time>2021-04-01T09:42:17.000Z</time>
      </trkpt>
      <trkpt lat="47.32401" lon="-2.42067">
        <ele>52.799999237061</ele>
        <time>2021-04-01T09:42:21.000Z</time>
      </trkpt>
      <trkpt lat="47.32357" lon="-2.42019">
        <ele>52.799999237061</ele>
        <time>2021-04-01T09:42:28.000Z</time>
      </trkpt>
      <trkpt lat="47.32344" lon="-2.42006">
        <ele>52.400001525879</ele>
        <time>2021-04-01T09:42:30.000Z</time>
      </trkpt>
      <trkpt lat="47.32338" lon="-2.42">
        <ele>51.799999237061</ele>
        <time>2021-04-01T09:42:31.000Z</time>
      </trkpt>
      <trkpt lat="47.32332" lon="-2.41994">
        <ele>51.400001525879</ele>
        <time>2021-04-01T09:42:32.000Z</time>
      </trkpt>
      <trkpt lat="47.32326" lon="-2.41988">
        <ele>51</ele>
        <time>2021-04-01T09:42:33.000Z</time>
      </trkpt>
      <trkpt lat="47.3232" lon="-2.41983">
        <ele>50.400001525879</ele>
        <time>2021-04-01T09:42:34.000Z</time>
      </trkpt>
      <trkpt lat="47.32308" lon="-2.41974">
        <ele>50.400001525879</ele>
        <time>2021-04-01T09:42:36.000Z</time>
      </trkpt>
      <trkpt lat="47.32297" lon="-2.41962">
        <ele>50.400001525879</ele>
        <time>2021-04-01T09:42:38.000Z</time>
      </trkpt>
      <trkpt lat="47.32292" lon="-2.41946">
        <ele>50.400001525879</ele>
        <time>2021-04-01T09:42:40.000Z</time>
      </trkpt>
      <trkpt lat="47.3229" lon="-2.41938">
        <ele>50</ele>
        <time>2021-04-01T09:42:41.000Z</time>
      </trkpt>
      <trkpt lat="47.32287" lon="-2.41931">
        <ele>49.599998474121</ele>
        <time>2021-04-01T09:42:42.000Z</time>
      </trkpt>
      <trkpt lat="47.32284" lon="-2.41924">
        <ele>49.200000762939</ele>
        <time>2021-04-01T09:42:43.000Z</time>
      </trkpt>
      <trkpt lat="47.3228" lon="-2.41918">
        <ele>48.799999237061</ele>
        <time>2021-04-01T09:42:44.000Z</time>
      </trkpt>
      <trkpt lat="47.32277" lon="-2.41911">
        <ele>48.400001525879</ele>
        <time>2021-04-01T09:42:45.000Z</time>
      </trkpt>
      <trkpt lat="47.32257" lon="-2.41881">
        <ele>48.400001525879</ele>
        <time>2021-04-01T09:42:51.000Z</time>
      </trkpt>
      <trkpt lat="47.3225" lon="-2.41864">
        <ele>48.400001525879</ele>
        <time>2021-04-01T09:42:56.000Z</time>
      </trkpt>
      <trkpt lat="47.32246" lon="-2.4185">
        <ele>48.400001525879</ele>
        <time>2021-04-01T09:42:59.000Z</time>
      </trkpt>
      <trkpt lat="47.3225" lon="-2.41844">
        <ele>48.400001525879</ele>
        <time>2021-04-01T09:43:00.000Z</time>
      </trkpt>
      <trkpt lat="47.32272" lon="-2.41794">
        <ele>48.400001525879</ele>
        <time>2021-04-01T09:43:08.000Z</time>
      </trkpt>
      <trkpt lat="47.32279" lon="-2.41779">
        <ele>48.400001525879</ele>
        <time>2021-04-01T09:43:10.000Z</time>
      </trkpt>
      <trkpt lat="47.32281" lon="-2.41762">
        <ele>48.400001525879</ele>
        <time>2021-04-01T09:43:12.000Z</time>
      </trkpt>
      <trkpt lat="47.32284" lon="-2.4174">
        <ele>48.400001525879</ele>
        <time>2021-04-01T09:43:15.000Z</time>
      </trkpt>
      <trkpt lat="47.32287" lon="-2.41733">
        <ele>48.400001525879</ele>
        <time>2021-04-01T09:43:16.000Z</time>
      </trkpt>
      <trkpt lat="47.32296" lon="-2.4171">
        <ele>48.400001525879</ele>
        <time>2021-04-01T09:43:19.000Z</time>
      </trkpt>
      <trkpt lat="47.32298" lon="-2.41701">
        <ele>48.400001525879</ele>
        <time>2021-04-01T09:43:20.000Z</time>
      </trkpt>
      <trkpt lat="47.32298" lon="-2.41693">
        <ele>48.400001525879</ele>
        <time>2021-04-01T09:43:21.000Z</time>
      </trkpt>
      <trkpt lat="47.32299" lon="-2.41685">
        <ele>48.799999237061</ele>
        <time>2021-04-01T09:43:22.000Z</time>
      </trkpt>
      <trkpt lat="47.32299" lon="-2.41678">
        <ele>49.400001525879</ele>
        <time>2021-04-01T09:43:23.000Z</time>
      </trkpt>
      <trkpt lat="47.32298" lon="-2.41671">
        <ele>49.799999237061</ele>
        <time>2021-04-01T09:43:24.000Z</time>
      </trkpt>
      <trkpt lat="47.32298" lon="-2.41664">
        <ele>50.200000762939</ele>
        <time>2021-04-01T09:43:25.000Z</time>
      </trkpt>
      <trkpt lat="47.32298" lon="-2.41657">
        <ele>50.599998474121</ele>
        <time>2021-04-01T09:43:26.000Z</time>
      </trkpt>
      <trkpt lat="47.32299" lon="-2.41649">
        <ele>50.599998474121</ele>
        <time>2021-04-01T09:43:27.000Z</time>
      </trkpt>
      <trkpt lat="47.32303" lon="-2.41634">
        <ele>50.599998474121</ele>
        <time>2021-04-01T09:43:29.000Z</time>
      </trkpt>
      <trkpt lat="47.32312" lon="-2.4161">
        <ele>50.599998474121</ele>
        <time>2021-04-01T09:43:32.000Z</time>
      </trkpt>
      <trkpt lat="47.32317" lon="-2.41591">
        <ele>50.599998474121</ele>
        <time>2021-04-01T09:43:34.000Z</time>
      </trkpt>
      <trkpt lat="47.32321" lon="-2.41575">
        <ele>50.599998474121</ele>
        <time>2021-04-01T09:43:36.000Z</time>
      </trkpt>
      <trkpt lat="47.32328" lon="-2.41561">
        <ele>50.599998474121</ele>
        <time>2021-04-01T09:43:38.000Z</time>
      </trkpt>
      <trkpt lat="47.32338" lon="-2.41551">
        <ele>50.599998474121</ele>
        <time>2021-04-01T09:43:40.000Z</time>
      </trkpt>
      <trkpt lat="47.3235" lon="-2.41545">
        <ele>50.599998474121</ele>
        <time>2021-04-01T09:43:42.000Z</time>
      </trkpt>
      <trkpt lat="47.32374" lon="-2.41546">
        <ele>50.599998474121</ele>
        <time>2021-04-01T09:43:46.000Z</time>
      </trkpt>
      <trkpt lat="47.32401" lon="-2.41561">
        <ele>50.599998474121</ele>
        <time>2021-04-01T09:43:51.000Z</time>
      </trkpt>
      <trkpt lat="47.32406" lon="-2.41563">
        <ele>50.599998474121</ele>
        <time>2021-04-01T09:43:52.000Z</time>
      </trkpt>
      <trkpt lat="47.32418" lon="-2.41564">
        <ele>50.599998474121</ele>
        <time>2021-04-01T09:43:54.000Z</time>
      </trkpt>
      <trkpt lat="47.32449" lon="-2.41566">
        <ele>50.599998474121</ele>
        <time>2021-04-01T09:43:59.000Z</time>
      </trkpt>
      <trkpt lat="47.32456" lon="-2.41569">
        <ele>50.599998474121</ele>
        <time>2021-04-01T09:44:00.000Z</time>
      </trkpt>
      <trkpt lat="47.32497" lon="-2.41585">
        <ele>50.599998474121</ele>
        <time>2021-04-01T09:44:07.000Z</time>
      </trkpt>
      <trkpt lat="47.3252" lon="-2.41584">
        <ele>50.599998474121</ele>
        <time>2021-04-01T09:44:11.000Z</time>
      </trkpt>
      <trkpt lat="47.32526" lon="-2.41581">
        <ele>50.599998474121</ele>
        <time>2021-04-01T09:44:12.000Z</time>
      </trkpt>
      <trkpt lat="47.32549" lon="-2.41575">
        <ele>50.599998474121</ele>
        <time>2021-04-01T09:44:16.000Z</time>
      </trkpt>
      <trkpt lat="47.32555" lon="-2.41576">
        <ele>50.599998474121</ele>
        <time>2021-04-01T09:44:17.000Z</time>
      </trkpt>
      <trkpt lat="47.32572" lon="-2.4159">
        <ele>50.599998474121</ele>
        <time>2021-04-01T09:44:20.000Z</time>
      </trkpt>
      <trkpt lat="47.32588" lon="-2.41604">
        <ele>50.599998474121</ele>
        <time>2021-04-01T09:44:23.000Z</time>
      </trkpt>
      <trkpt lat="47.326" lon="-2.41605">
        <ele>50.599998474121</ele>
        <time>2021-04-01T09:44:25.000Z</time>
      </trkpt>
      <trkpt lat="47.32612" lon="-2.41602">
        <ele>50.599998474121</ele>
        <time>2021-04-01T09:44:27.000Z</time>
      </trkpt>
      <trkpt lat="47.32624" lon="-2.41604">
        <ele>50.599998474121</ele>
        <time>2021-04-01T09:44:29.000Z</time>
      </trkpt>
      <trkpt lat="47.32637" lon="-2.4161">
        <ele>50.599998474121</ele>
        <time>2021-04-01T09:44:31.000Z</time>
      </trkpt>
      <trkpt lat="47.32644" lon="-2.41613">
        <ele>50.599998474121</ele>
        <time>2021-04-01T09:44:32.000Z</time>
      </trkpt>
      <trkpt lat="47.32652" lon="-2.41615">
        <ele>50.599998474121</ele>
        <time>2021-04-01T09:44:33.000Z</time>
      </trkpt>
      <trkpt lat="47.32693" lon="-2.41627">
        <ele>50.599998474121</ele>
        <time>2021-04-01T09:44:39.000Z</time>
      </trkpt>
      <trkpt lat="47.32699" lon="-2.41627">
        <ele>50.200000762939</ele>
        <time>2021-04-01T09:44:40.000Z</time>
      </trkpt>
      <trkpt lat="47.32704" lon="-2.41627">
        <ele>49.799999237061</ele>
        <time>2021-04-01T09:44:41.000Z</time>
      </trkpt>
      <trkpt lat="47.32708" lon="-2.41627">
        <ele>49.400001525879</ele>
        <time>2021-04-01T09:44:42.000Z</time>
      </trkpt>
      <trkpt lat="47.32712" lon="-2.41628">
        <ele>49</ele>
        <time>2021-04-01T09:44:43.000Z</time>
      </trkpt>
      <trkpt lat="47.32715" lon="-2.41627">
        <ele>48.599998474121</ele>
        <time>2021-04-01T09:44:44.000Z</time>
      </trkpt>
      <trkpt lat="47.32717" lon="-2.41625">
        <ele>48</ele>
        <time>2021-04-01T09:44:45.000Z</time>
      </trkpt>
      <trkpt lat="47.32717" lon="-2.41622">
        <ele>47.599998474121</ele>
        <time>2021-04-01T09:44:46.000Z</time>
      </trkpt>
      <trkpt lat="47.32716" lon="-2.41619">
        <ele>47</ele>
        <time>2021-04-01T09:44:47.000Z</time>
      </trkpt>
      <trkpt lat="47.32715" lon="-2.41616">
        <ele>46.599998474121</ele>
        <time>2021-04-01T09:44:48.000Z</time>
      </trkpt>
      <trkpt lat="47.32713" lon="-2.41613">
        <ele>46</ele>
        <time>2021-04-01T09:44:49.000Z</time>
      </trkpt>
      <trkpt lat="47.32706" lon="-2.41597">
        <ele>46</ele>
        <time>2021-04-01T09:44:52.000Z</time>
      </trkpt>
      <trkpt lat="47.32704" lon="-2.41591">
        <ele>46</ele>
        <time>2021-04-01T09:44:53.000Z</time>
      </trkpt>
      <trkpt lat="47.32704" lon="-2.4158">
        <ele>46</ele>
        <time>2021-04-01T09:44:56.000Z</time>
      </trkpt>
      <trkpt lat="47.327" lon="-2.41572">
        <ele>46</ele>
        <time>2021-04-01T09:44:59.000Z</time>
      </trkpt>
      <trkpt lat="47.32701" lon="-2.41553">
        <ele>46</ele>
        <time>2021-04-01T09:45:02.000Z</time>
      </trkpt>
      <trkpt lat="47.32695" lon="-2.4154">
        <ele>46</ele>
        <time>2021-04-01T09:45:05.000Z</time>
      </trkpt>
      <trkpt lat="47.32683" lon="-2.41538">
        <ele>46</ele>
        <time>2021-04-01T09:45:08.000Z</time>
      </trkpt>
      <trkpt lat="47.32674" lon="-2.41536">
        <ele>46</ele>
        <time>2021-04-01T09:45:10.000Z</time>
      </trkpt>
      <trkpt lat="47.3267" lon="-2.41535">
        <ele>46</ele>
        <time>2021-04-01T09:45:11.000Z</time>
      </trkpt>
      <trkpt lat="47.32656" lon="-2.41531">
        <ele>46.599998474121</ele>
        <time>2021-04-01T09:45:14.000Z</time>
      </trkpt>
      <trkpt lat="47.32651" lon="-2.4153">
        <ele>47</ele>
        <time>2021-04-01T09:45:15.000Z</time>
      </trkpt>
      <trkpt lat="47.32645" lon="-2.4153">
        <ele>47.400001525879</ele>
        <time>2021-04-01T09:45:16.000Z</time>
      </trkpt>
      <trkpt lat="47.3264" lon="-2.41529">
        <ele>47.799999237061</ele>
        <time>2021-04-01T09:45:17.000Z</time>
      </trkpt>
      <trkpt lat="47.32634" lon="-2.41528">
        <ele>48.200000762939</ele>
        <time>2021-04-01T09:45:18.000Z</time>
      </trkpt>
      <trkpt lat="47.32623" lon="-2.41526">
        <ele>48.200000762939</ele>
        <time>2021-04-01T09:45:20.000Z</time>
      </trkpt>
      <trkpt lat="47.32607" lon="-2.41523">
        <ele>48.599998474121</ele>
        <time>2021-04-01T09:45:23.000Z</time>
      </trkpt>
      <trkpt lat="47.32602" lon="-2.41521">
        <ele>49</ele>
        <time>2021-04-01T09:45:24.000Z</time>
      </trkpt>
      <trkpt lat="47.32597" lon="-2.4152">
        <ele>49.400001525879</ele>
        <time>2021-04-01T09:45:25.000Z</time>
      </trkpt>
      <trkpt lat="47.32592" lon="-2.41519">
        <ele>49.799999237061</ele>
        <time>2021-04-01T09:45:26.000Z</time>
      </trkpt>
      <trkpt lat="47.32587" lon="-2.41517">
        <ele>50.200000762939</ele>
        <time>2021-04-01T09:45:27.000Z</time>
      </trkpt>
      <trkpt lat="47.32583" lon="-2.41516">
        <ele>50.200000762939</ele>
        <time>2021-04-01T09:45:28.000Z</time>
      </trkpt>
      <trkpt lat="47.32574" lon="-2.41506">
        <ele>50.200000762939</ele>
        <time>2021-04-01T09:45:31.000Z</time>
      </trkpt>
      <trkpt lat="47.32571" lon="-2.41488">
        <ele>50.200000762939</ele>
        <time>2021-04-01T09:45:34.000Z</time>
      </trkpt>
      <trkpt lat="47.32569" lon="-2.41474">
        <ele>50.200000762939</ele>
        <time>2021-04-01T09:45:36.000Z</time>
      </trkpt>
      <trkpt lat="47.32567" lon="-2.41461">
        <ele>50.200000762939</ele>
        <time>2021-04-01T09:45:38.000Z</time>
      </trkpt>
      <trkpt lat="47.32561" lon="-2.41451">
        <ele>50.200000762939</ele>
        <time>2021-04-01T09:45:40.000Z</time>
      </trkpt>
      <trkpt lat="47.32557" lon="-2.41445">
        <ele>50.200000762939</ele>
        <time>2021-04-01T09:45:41.000Z</time>
      </trkpt>
      <trkpt lat="47.32548" lon="-2.41426">
        <ele>50.200000762939</ele>
        <time>2021-04-01T09:45:44.000Z</time>
      </trkpt>
      <trkpt lat="47.32527" lon="-2.41385">
        <ele>50.200000762939</ele>
        <time>2021-04-01T09:45:51.000Z</time>
      </trkpt>
      <trkpt lat="47.32522" lon="-2.41374">
        <ele>50.599998474121</ele>
        <time>2021-04-01T09:45:53.000Z</time>
      </trkpt>
      <trkpt lat="47.32519" lon="-2.41369">
        <ele>51</ele>
        <time>2021-04-01T09:45:54.000Z</time>
      </trkpt>
      <trkpt lat="47.32517" lon="-2.41363">
        <ele>51.400001525879</ele>
        <time>2021-04-01T09:45:55.000Z</time>
      </trkpt>
      <trkpt lat="47.32514" lon="-2.41357">
        <ele>51.799999237061</ele>
        <time>2021-04-01T09:45:56.000Z</time>
      </trkpt>
      <trkpt lat="47.32511" lon="-2.41351">
        <ele>52.400001525879</ele>
        <time>2021-04-01T09:45:57.000Z</time>
      </trkpt>
      <trkpt lat="47.32509" lon="-2.41345">
        <ele>52.400001525879</ele>
        <time>2021-04-01T09:45:58.000Z</time>
      </trkpt>
      <trkpt lat="47.32484" lon="-2.41299">
        <ele>52.400001525879</ele>
        <time>2021-04-01T09:46:06.000Z</time>
      </trkpt>
      <trkpt lat="47.32465" lon="-2.41262">
        <ele>52.400001525879</ele>
        <time>2021-04-01T09:46:12.000Z</time>
      </trkpt>
      <trkpt lat="47.32442" lon="-2.41219">
        <ele>52.400001525879</ele>
        <time>2021-04-01T09:46:18.000Z</time>
      </trkpt>
      <trkpt lat="47.32429" lon="-2.41191">
        <ele>52.400001525879</ele>
        <time>2021-04-01T09:46:23.000Z</time>
      </trkpt>
      <trkpt lat="47.32427" lon="-2.41173">
        <ele>52.400001525879</ele>
        <time>2021-04-01T09:46:27.000Z</time>
      </trkpt>
      <trkpt lat="47.32418" lon="-2.41152">
        <ele>52.400001525879</ele>
        <time>2021-04-01T09:46:31.000Z</time>
      </trkpt>
      <trkpt lat="47.32414" lon="-2.41147">
        <ele>52.400001525879</ele>
        <time>2021-04-01T09:46:32.000Z</time>
      </trkpt>
      <trkpt lat="47.32396" lon="-2.41108">
        <ele>52.400001525879</ele>
        <time>2021-04-01T09:46:38.000Z</time>
      </trkpt>
      <trkpt lat="47.32394" lon="-2.41102">
        <ele>52.400001525879</ele>
        <time>2021-04-01T09:46:39.000Z</time>
      </trkpt>
      <trkpt lat="47.32388" lon="-2.41078">
        <ele>52.400001525879</ele>
        <time>2021-04-01T09:46:43.000Z</time>
      </trkpt>
      <trkpt lat="47.3239" lon="-2.41066">
        <ele>52.400001525879</ele>
        <time>2021-04-01T09:46:45.000Z</time>
      </trkpt>
      <trkpt lat="47.32388" lon="-2.41042">
        <ele>52.400001525879</ele>
        <time>2021-04-01T09:46:49.000Z</time>
      </trkpt>
      <trkpt lat="47.32381" lon="-2.41009">
        <ele>52.400001525879</ele>
        <time>2021-04-01T09:46:55.000Z</time>
      </trkpt>
      <trkpt lat="47.32375" lon="-2.40974">
        <ele>52.400001525879</ele>
        <time>2021-04-01T09:47:02.000Z</time>
      </trkpt>
      <trkpt lat="47.32368" lon="-2.40945">
        <ele>52.400001525879</ele>
        <time>2021-04-01T09:47:09.000Z</time>
      </trkpt>
      <trkpt lat="47.32363" lon="-2.40919">
        <ele>52.400001525879</ele>
        <time>2021-04-01T09:47:16.000Z</time>
      </trkpt>
      <trkpt lat="47.32356" lon="-2.40899">
        <ele>52.400001525879</ele>
        <time>2021-04-01T09:47:20.000Z</time>
      </trkpt>
      <trkpt lat="47.32351" lon="-2.40875">
        <ele>52.400001525879</ele>
        <time>2021-04-01T09:47:25.000Z</time>
      </trkpt>
      <trkpt lat="47.32342" lon="-2.40856">
        <ele>52.400001525879</ele>
        <time>2021-04-01T09:47:30.000Z</time>
      </trkpt>
      <trkpt lat="47.32335" lon="-2.40838">
        <ele>52.400001525879</ele>
        <time>2021-04-01T09:47:34.000Z</time>
      </trkpt>
      <trkpt lat="47.32336" lon="-2.40833">
        <ele>52.400001525879</ele>
        <time>2021-04-01T09:47:35.000Z</time>
      </trkpt>
      <trkpt lat="47.32347" lon="-2.40821">
        <ele>52.400001525879</ele>
        <time>2021-04-01T09:47:39.000Z</time>
      </trkpt>
      <trkpt lat="47.32352" lon="-2.40815">
        <ele>52.400001525879</ele>
        <time>2021-04-01T09:47:41.000Z</time>
      </trkpt>
      <trkpt lat="47.32358" lon="-2.40805">
        <ele>52.400001525879</ele>
        <time>2021-04-01T09:47:44.000Z</time>
      </trkpt>
      <trkpt lat="47.32369" lon="-2.40792">
        <ele>52.400001525879</ele>
        <time>2021-04-01T09:47:50.000Z</time>
      </trkpt>
      <trkpt lat="47.32367" lon="-2.40781">
        <ele>52.400001525879</ele>
        <time>2021-04-01T09:47:54.000Z</time>
      </trkpt>
      <trkpt lat="47.32365" lon="-2.40779">
        <ele>52.400001525879</ele>
        <time>2021-04-01T09:47:57.000Z</time>
      </trkpt>
      <trkpt lat="47.32367" lon="-2.40787">
        <ele>52.400001525879</ele>
        <time>2021-04-01T09:51:28.000Z</time>
      </trkpt>
      <trkpt lat="47.32363" lon="-2.40798">
        <ele>52.400001525879</ele>
        <time>2021-04-01T09:51:32.000Z</time>
      </trkpt>
      <trkpt lat="47.32355" lon="-2.40805">
        <ele>52.400001525879</ele>
        <time>2021-04-01T09:51:35.000Z</time>
      </trkpt>
      <trkpt lat="47.32347" lon="-2.40813">
        <ele>52.400001525879</ele>
        <time>2021-04-01T09:51:38.000Z</time>
      </trkpt>
      <trkpt lat="47.32331" lon="-2.40827">
        <ele>52.400001525879</ele>
        <time>2021-04-01T09:51:44.000Z</time>
      </trkpt>
      <trkpt lat="47.32321" lon="-2.40832">
        <ele>52.400001525879</ele>
        <time>2021-04-01T09:51:48.000Z</time>
      </trkpt>
      <trkpt lat="47.32318" lon="-2.4083">
        <ele>52.400001525879</ele>
        <time>2021-04-01T09:51:49.000Z</time>
      </trkpt>
      <trkpt lat="47.32309" lon="-2.40821">
        <ele>52.400001525879</ele>
        <time>2021-04-01T09:51:52.000Z</time>
      </trkpt>
      <trkpt lat="47.32299" lon="-2.40814">
        <ele>52.400001525879</ele>
        <time>2021-04-01T09:51:55.000Z</time>
      </trkpt>
      <trkpt lat="47.32288" lon="-2.40809">
        <ele>52.400001525879</ele>
        <time>2021-04-01T09:51:59.000Z</time>
      </trkpt>
      <trkpt lat="47.32284" lon="-2.40812">
        <ele>52.400001525879</ele>
        <time>2021-04-01T09:52:03.000Z</time>
      </trkpt>
      <trkpt lat="47.32283" lon="-2.40816">
        <ele>51.799999237061</ele>
        <time>2021-04-01T09:52:06.000Z</time>
      </trkpt>
      <trkpt lat="47.32283" lon="-2.40816">
        <ele>51.400001525879</ele>
        <time>2021-04-01T09:52:07.000Z</time>
      </trkpt>
      <trkpt lat="47.32281" lon="-2.40814">
        <ele>50.200000762939</ele>
        <time>2021-04-01T09:52:32.000Z</time>
      </trkpt>
      <trkpt lat="47.32283" lon="-2.40813">
        <ele>50.200000762939</ele>
        <time>2021-04-01T09:52:34.000Z</time>
      </trkpt>
      <trkpt lat="47.32284" lon="-2.4081">
        <ele>50.200000762939</ele>
        <time>2021-04-01T09:52:35.000Z</time>
      </trkpt>
      <trkpt lat="47.3228" lon="-2.40799">
        <ele>50.200000762939</ele>
        <time>2021-04-01T09:52:38.000Z</time>
      </trkpt>
      <trkpt lat="47.32275" lon="-2.40778">
        <ele>50.200000762939</ele>
        <time>2021-04-01T09:52:41.000Z</time>
      </trkpt>
      <trkpt lat="47.32277" lon="-2.40754">
        <ele>50.200000762939</ele>
        <time>2021-04-01T09:52:44.000Z</time>
      </trkpt>
      <trkpt lat="47.32279" lon="-2.40739">
        <ele>50.200000762939</ele>
        <time>2021-04-01T09:52:46.000Z</time>
      </trkpt>
      <trkpt lat="47.32281" lon="-2.40723">
        <ele>50.799999237061</ele>
        <time>2021-04-01T09:52:48.000Z</time>
      </trkpt>
      <trkpt lat="47.32282" lon="-2.40716">
        <ele>51.200000762939</ele>
        <time>2021-04-01T09:52:49.000Z</time>
      </trkpt>
      <trkpt lat="47.32284" lon="-2.40709">
        <ele>51.599998474121</ele>
        <time>2021-04-01T09:52:50.000Z</time>
      </trkpt>
      <trkpt lat="47.32284" lon="-2.40701">
        <ele>52</ele>
        <time>2021-04-01T09:52:51.000Z</time>
      </trkpt>
      <trkpt lat="47.32285" lon="-2.40693">
        <ele>52.400001525879</ele>
        <time>2021-04-01T09:52:52.000Z</time>
      </trkpt>
      <trkpt lat="47.32285" lon="-2.40685">
        <ele>52.400001525879</ele>
        <time>2021-04-01T09:52:53.000Z</time>
      </trkpt>
      <trkpt lat="47.32285" lon="-2.40678">
        <ele>52.400001525879</ele>
        <time>2021-04-01T09:52:54.000Z</time>
      </trkpt>
      <trkpt lat="47.32286" lon="-2.40631">
        <ele>52.400001525879</ele>
        <time>2021-04-01T09:53:00.000Z</time>
      </trkpt>
      <trkpt lat="47.32279" lon="-2.40623">
        <ele>52.400001525879</ele>
        <time>2021-04-01T09:53:02.000Z</time>
      </trkpt>
      <trkpt lat="47.32269" lon="-2.40619">
        <ele>52.400001525879</ele>
        <time>2021-04-01T09:53:04.000Z</time>
      </trkpt>
      <trkpt lat="47.32263" lon="-2.40618">
        <ele>52</ele>
        <time>2021-04-01T09:53:05.000Z</time>
      </trkpt>
      <trkpt lat="47.32258" lon="-2.40617">
        <ele>51.599998474121</ele>
        <time>2021-04-01T09:53:06.000Z</time>
      </trkpt>
      <trkpt lat="47.32253" lon="-2.40617">
        <ele>50.799999237061</ele>
        <time>2021-04-01T09:53:07.000Z</time>
      </trkpt>
      <trkpt lat="47.32248" lon="-2.40616">
        <ele>50.400001525879</ele>
        <time>2021-04-01T09:53:08.000Z</time>
      </trkpt>
      <trkpt lat="47.32242" lon="-2.40615">
        <ele>50.400001525879</ele>
        <time>2021-04-01T09:53:09.000Z</time>
      </trkpt>
      <trkpt lat="47.32232" lon="-2.40622">
        <ele>50.400001525879</ele>
        <time>2021-04-01T09:53:11.000Z</time>
      </trkpt>
      <trkpt lat="47.32224" lon="-2.40646">
        <ele>50.400001525879</ele>
        <time>2021-04-01T09:53:14.000Z</time>
      </trkpt>
      <trkpt lat="47.32224" lon="-2.40664">
        <ele>50.400001525879</ele>
        <time>2021-04-01T09:53:16.000Z</time>
      </trkpt>
      <trkpt lat="47.32221" lon="-2.407">
        <ele>50.400001525879</ele>
        <time>2021-04-01T09:53:20.000Z</time>
      </trkpt>
      <trkpt lat="47.32217" lon="-2.40754">
        <ele>50.400001525879</ele>
        <time>2021-04-01T09:53:27.000Z</time>
      </trkpt>
      <trkpt lat="47.32215" lon="-2.40795">
        <ele>50.400001525879</ele>
        <time>2021-04-01T09:53:33.000Z</time>
      </trkpt>
      <trkpt lat="47.32214" lon="-2.40799">
        <ele>50.400001525879</ele>
        <time>2021-04-01T09:53:34.000Z</time>
      </trkpt>
      <trkpt lat="47.32209" lon="-2.40797">
        <ele>50.400001525879</ele>
        <time>2021-04-01T09:53:37.000Z</time>
      </trkpt>
      <trkpt lat="47.32207" lon="-2.40794">
        <ele>50.400001525879</ele>
        <time>2021-04-01T09:53:38.000Z</time>
      </trkpt>
      <trkpt lat="47.32198" lon="-2.40782">
        <ele>50.400001525879</ele>
        <time>2021-04-01T09:53:43.000Z</time>
      </trkpt>
      <trkpt lat="47.32191" lon="-2.40767">
        <ele>50.400001525879</ele>
        <time>2021-04-01T09:53:46.000Z</time>
      </trkpt>
      <trkpt lat="47.32187" lon="-2.40761">
        <ele>50.400001525879</ele>
        <time>2021-04-01T09:53:47.000Z</time>
      </trkpt>
      <trkpt lat="47.32157" lon="-2.40724">
        <ele>50.400001525879</ele>
        <time>2021-04-01T09:53:54.000Z</time>
      </trkpt>
      <trkpt lat="47.32128" lon="-2.40693">
        <ele>50.400001525879</ele>
        <time>2021-04-01T09:54:00.000Z</time>
      </trkpt>
      <trkpt lat="47.32097" lon="-2.4066">
        <ele>50.400001525879</ele>
        <time>2021-04-01T09:54:06.000Z</time>
      </trkpt>
      <trkpt lat="47.32061" lon="-2.4062">
        <ele>50.400001525879</ele>
        <time>2021-04-01T09:54:13.000Z</time>
      </trkpt>
      <trkpt lat="47.32027" lon="-2.40588">
        <ele>50.400001525879</ele>
        <time>2021-04-01T09:54:19.000Z</time>
      </trkpt>
      <trkpt lat="47.3199" lon="-2.40559">
        <ele>50.400001525879</ele>
        <time>2021-04-01T09:54:25.000Z</time>
      </trkpt>
      <trkpt lat="47.31984" lon="-2.40555">
        <ele>50.400001525879</ele>
        <time>2021-04-01T09:54:26.000Z</time>
      </trkpt>
      <trkpt lat="47.3197" lon="-2.40547">
        <ele>50.400001525879</ele>
        <time>2021-04-01T09:54:28.000Z</time>
      </trkpt>
      <trkpt lat="47.31964" lon="-2.40542">
        <ele>49.799999237061</ele>
        <time>2021-04-01T09:54:29.000Z</time>
      </trkpt>
      <trkpt lat="47.31957" lon="-2.40538">
        <ele>49.400001525879</ele>
        <time>2021-04-01T09:54:30.000Z</time>
      </trkpt>
      <trkpt lat="47.31951" lon="-2.40533">
        <ele>49</ele>
        <time>2021-04-01T09:54:31.000Z</time>
      </trkpt>
      <trkpt lat="47.31945" lon="-2.40528">
        <ele>48.599998474121</ele>
        <time>2021-04-01T09:54:32.000Z</time>
      </trkpt>
      <trkpt lat="47.31939" lon="-2.40524">
        <ele>48.200000762939</ele>
        <time>2021-04-01T09:54:33.000Z</time>
      </trkpt>
      <trkpt lat="47.31908" lon="-2.405">
        <ele>48.200000762939</ele>
        <time>2021-04-01T09:54:38.000Z</time>
      </trkpt>
      <trkpt lat="47.31864" lon="-2.40466">
        <ele>48.200000762939</ele>
        <time>2021-04-01T09:54:45.000Z</time>
      </trkpt>
      <trkpt lat="47.31858" lon="-2.40461">
        <ele>47.799999237061</ele>
        <time>2021-04-01T09:54:46.000Z</time>
      </trkpt>
      <trkpt lat="47.31852" lon="-2.40456">
        <ele>47.400001525879</ele>
        <time>2021-04-01T09:54:47.000Z</time>
      </trkpt>
      <trkpt lat="47.31845" lon="-2.40451">
        <ele>46.799999237061</ele>
        <time>2021-04-01T09:54:48.000Z</time>
      </trkpt>
      <trkpt lat="47.31839" lon="-2.40446">
        <ele>46.400001525879</ele>
        <time>2021-04-01T09:54:49.000Z</time>
      </trkpt>
      <trkpt lat="47.31834" lon="-2.40442">
        <ele>46</ele>
        <time>2021-04-01T09:54:50.000Z</time>
      </trkpt>
      <trkpt lat="47.31822" lon="-2.40432">
        <ele>46</ele>
        <time>2021-04-01T09:54:52.000Z</time>
      </trkpt>
      <trkpt lat="47.31787" lon="-2.40405">
        <ele>46</ele>
        <time>2021-04-01T09:54:58.000Z</time>
      </trkpt>
      <trkpt lat="47.31751" lon="-2.40375">
        <ele>46</ele>
        <time>2021-04-01T09:55:04.000Z</time>
      </trkpt>
      <trkpt lat="47.31745" lon="-2.4037">
        <ele>45.599998474121</ele>
        <time>2021-04-01T09:55:05.000Z</time>
      </trkpt>
      <trkpt lat="47.31739" lon="-2.40365">
        <ele>45.200000762939</ele>
        <time>2021-04-01T09:55:06.000Z</time>
      </trkpt>
      <trkpt lat="47.31732" lon="-2.40361">
        <ele>44.799999237061</ele>
        <time>2021-04-01T09:55:07.000Z</time>
      </trkpt>
      <trkpt lat="47.31725" lon="-2.40356">
        <ele>44.400001525879</ele>
        <time>2021-04-01T09:55:08.000Z</time>
      </trkpt>
      <trkpt lat="47.31718" lon="-2.40352">
        <ele>44</ele>
        <time>2021-04-01T09:55:09.000Z</time>
      </trkpt>
      <trkpt lat="47.31704" lon="-2.40343">
        <ele>44</ele>
        <time>2021-04-01T09:55:11.000Z</time>
      </trkpt>
      <trkpt lat="47.31686" lon="-2.40331">
        <ele>44</ele>
        <time>2021-04-01T09:55:15.000Z</time>
      </trkpt>
      <trkpt lat="47.31684" lon="-2.40328">
        <ele>44</ele>
        <time>2021-04-01T09:55:16.000Z</time>
      </trkpt>
      <trkpt lat="47.31685" lon="-2.40321">
        <ele>44</ele>
        <time>2021-04-01T09:55:18.000Z</time>
      </trkpt>
      <trkpt lat="47.31694" lon="-2.403">
        <ele>44</ele>
        <time>2021-04-01T09:55:23.000Z</time>
      </trkpt>
      <trkpt lat="47.31697" lon="-2.40295">
        <ele>44</ele>
        <time>2021-04-01T09:55:24.000Z</time>
      </trkpt>
      <trkpt lat="47.31713" lon="-2.40276">
        <ele>44</ele>
        <time>2021-04-01T09:55:28.000Z</time>
      </trkpt>
      <trkpt lat="47.31741" lon="-2.40232">
        <ele>44</ele>
        <time>2021-04-01T09:55:35.000Z</time>
      </trkpt>
      <trkpt lat="47.31764" lon="-2.40184">
        <ele>44</ele>
        <time>2021-04-01T09:55:41.000Z</time>
      </trkpt>
      <trkpt lat="47.31786" lon="-2.40149">
        <ele>44</ele>
        <time>2021-04-01T09:55:47.000Z</time>
      </trkpt>
      <trkpt lat="47.31793" lon="-2.40139">
        <ele>44</ele>
        <time>2021-04-01T09:55:49.000Z</time>
      </trkpt>
      <trkpt lat="47.31809" lon="-2.40116">
        <ele>44</ele>
        <time>2021-04-01T09:55:53.000Z</time>
      </trkpt>
      <trkpt lat="47.31835" lon="-2.40079">
        <ele>44</ele>
        <time>2021-04-01T09:55:59.000Z</time>
      </trkpt>
      <trkpt lat="47.31862" lon="-2.40038">
        <ele>44</ele>
        <time>2021-04-01T09:56:05.000Z</time>
      </trkpt>
      <trkpt lat="47.31891" lon="-2.39994">
        <ele>44</ele>
        <time>2021-04-01T09:56:11.000Z</time>
      </trkpt>
      <trkpt lat="47.3192" lon="-2.39957">
        <ele>44</ele>
        <time>2021-04-01T09:56:18.000Z</time>
      </trkpt>
      <trkpt lat="47.3195" lon="-2.39928">
        <ele>44</ele>
        <time>2021-04-01T09:56:24.000Z</time>
      </trkpt>
      <trkpt lat="47.31971" lon="-2.39911">
        <ele>44</ele>
        <time>2021-04-01T09:56:28.000Z</time>
      </trkpt>
      <trkpt lat="47.31985" lon="-2.39897">
        <ele>44</ele>
        <time>2021-04-01T09:56:31.000Z</time>
      </trkpt>
      <trkpt lat="47.32009" lon="-2.39878">
        <ele>44.400001525879</ele>
        <time>2021-04-01T09:56:36.000Z</time>
      </trkpt>
      <trkpt lat="47.32014" lon="-2.39874">
        <ele>44.799999237061</ele>
        <time>2021-04-01T09:56:37.000Z</time>
      </trkpt>
      <trkpt lat="47.32019" lon="-2.3987">
        <ele>45.200000762939</ele>
        <time>2021-04-01T09:56:38.000Z</time>
      </trkpt>
      <trkpt lat="47.32024" lon="-2.39865">
        <ele>45.799999237061</ele>
        <time>2021-04-01T09:56:39.000Z</time>
      </trkpt>
      <trkpt lat="47.32029" lon="-2.39861">
        <ele>46.200000762939</ele>
        <time>2021-04-01T09:56:40.000Z</time>
      </trkpt>
      <trkpt lat="47.32046" lon="-2.39846">
        <ele>46.200000762939</ele>
        <time>2021-04-01T09:56:44.000Z</time>
      </trkpt>
      <trkpt lat="47.32076" lon="-2.39821">
        <ele>46.200000762939</ele>
        <time>2021-04-01T09:56:51.000Z</time>
      </trkpt>
      <trkpt lat="47.32084" lon="-2.39813">
        <ele>46.200000762939</ele>
        <time>2021-04-01T09:56:53.000Z</time>
      </trkpt>
      <trkpt lat="47.32086" lon="-2.398">
        <ele>46.599998474121</ele>
        <time>2021-04-01T09:56:55.000Z</time>
      </trkpt>
      <trkpt lat="47.32085" lon="-2.39793">
        <ele>47</ele>
        <time>2021-04-01T09:56:56.000Z</time>
      </trkpt>
      <trkpt lat="47.32084" lon="-2.39786">
        <ele>47.400001525879</ele>
        <time>2021-04-01T09:56:57.000Z</time>
      </trkpt>
      <trkpt lat="47.32083" lon="-2.3978">
        <ele>47.799999237061</ele>
        <time>2021-04-01T09:56:58.000Z</time>
      </trkpt>
      <trkpt lat="47.32081" lon="-2.39773">
        <ele>48.200000762939</ele>
        <time>2021-04-01T09:56:59.000Z</time>
      </trkpt>
      <trkpt lat="47.32066" lon="-2.39718">
        <ele>48.200000762939</ele>
        <time>2021-04-01T09:57:06.000Z</time>
      </trkpt>
      <trkpt lat="47.32048" lon="-2.3965">
        <ele>48.200000762939</ele>
        <time>2021-04-01T09:57:14.000Z</time>
      </trkpt>
      <trkpt lat="47.32033" lon="-2.3959">
        <ele>48.200000762939</ele>
        <time>2021-04-01T09:57:20.000Z</time>
      </trkpt>
      <trkpt lat="47.32024" lon="-2.39559">
        <ele>47.799999237061</ele>
        <time>2021-04-01T09:57:23.000Z</time>
      </trkpt>
      <trkpt lat="47.32021" lon="-2.39548">
        <ele>47.400001525879</ele>
        <time>2021-04-01T09:57:24.000Z</time>
      </trkpt>
      <trkpt lat="47.32018" lon="-2.39538">
        <ele>46.799999237061</ele>
        <time>2021-04-01T09:57:25.000Z</time>
      </trkpt>
      <trkpt lat="47.32016" lon="-2.39527">
        <ele>46.400001525879</ele>
        <time>2021-04-01T09:57:26.000Z</time>
      </trkpt>
      <trkpt lat="47.32013" lon="-2.39517">
        <ele>46</ele>
        <time>2021-04-01T09:57:27.000Z</time>
      </trkpt>
      <trkpt lat="47.31998" lon="-2.39454">
        <ele>46</ele>
        <time>2021-04-01T09:57:33.000Z</time>
      </trkpt>
      <trkpt lat="47.31982" lon="-2.39381">
        <ele>46</ele>
        <time>2021-04-01T09:57:40.000Z</time>
      </trkpt>
      <trkpt lat="47.31977" lon="-2.39361">
        <ele>45.599998474121</ele>
        <time>2021-04-01T09:57:42.000Z</time>
      </trkpt>
      <trkpt lat="47.31975" lon="-2.39351">
        <ele>45.200000762939</ele>
        <time>2021-04-01T09:57:43.000Z</time>
      </trkpt>
      <trkpt lat="47.31973" lon="-2.3934">
        <ele>44.799999237061</ele>
        <time>2021-04-01T09:57:44.000Z</time>
      </trkpt>
      <trkpt lat="47.3197" lon="-2.39329">
        <ele>44.400001525879</ele>
        <time>2021-04-01T09:57:45.000Z</time>
      </trkpt>
      <trkpt lat="47.31968" lon="-2.39318">
        <ele>44</ele>
        <time>2021-04-01T09:57:46.000Z</time>
      </trkpt>
      <trkpt lat="47.31949" lon="-2.39244">
        <ele>44</ele>
        <time>2021-04-01T09:57:53.000Z</time>
      </trkpt>
      <trkpt lat="47.3194" lon="-2.39212">
        <ele>43.599998474121</ele>
        <time>2021-04-01T09:57:56.000Z</time>
      </trkpt>
      <trkpt lat="47.31937" lon="-2.39201">
        <ele>43.200000762939</ele>
        <time>2021-04-01T09:57:57.000Z</time>
      </trkpt>
      <trkpt lat="47.31934" lon="-2.39191">
        <ele>42.799999237061</ele>
        <time>2021-04-01T09:57:58.000Z</time>
      </trkpt>
      <trkpt lat="47.31931" lon="-2.39181">
        <ele>42.400001525879</ele>
        <time>2021-04-01T09:57:59.000Z</time>
      </trkpt>
      <trkpt lat="47.31928" lon="-2.39171">
        <ele>42</ele>
        <time>2021-04-01T09:58:00.000Z</time>
      </trkpt>
      <trkpt lat="47.31922" lon="-2.3915">
        <ele>42</ele>
        <time>2021-04-01T09:58:02.000Z</time>
      </trkpt>
      <trkpt lat="47.31896" lon="-2.3907">
        <ele>42</ele>
        <time>2021-04-01T09:58:10.000Z</time>
      </trkpt>
      <trkpt lat="47.3189" lon="-2.39049">
        <ele>42</ele>
        <time>2021-04-01T09:58:12.000Z</time>
      </trkpt>
      <trkpt lat="47.31867" lon="-2.38972">
        <ele>42</ele>
        <time>2021-04-01T09:58:19.000Z</time>
      </trkpt>
      <trkpt lat="47.31844" lon="-2.389">
        <ele>42</ele>
        <time>2021-04-01T09:58:26.000Z</time>
      </trkpt>
      <trkpt lat="47.31827" lon="-2.38817">
        <ele>42</ele>
        <time>2021-04-01T09:58:34.000Z</time>
      </trkpt>
      <trkpt lat="47.3182" lon="-2.38754">
        <ele>42</ele>
        <time>2021-04-01T09:58:40.000Z</time>
      </trkpt>
      <trkpt lat="47.31818" lon="-2.38685">
        <ele>42</ele>
        <time>2021-04-01T09:58:47.000Z</time>
      </trkpt>
      <trkpt lat="47.31812" lon="-2.38609">
        <ele>42</ele>
        <time>2021-04-01T09:58:55.000Z</time>
      </trkpt>
      <trkpt lat="47.31809" lon="-2.38525">
        <ele>42</ele>
        <time>2021-04-01T09:59:04.000Z</time>
      </trkpt>
      <trkpt lat="47.3181" lon="-2.38455">
        <ele>42</ele>
        <time>2021-04-01T09:59:11.000Z</time>
      </trkpt>
      <trkpt lat="47.31811" lon="-2.38391">
        <ele>42</ele>
        <time>2021-04-01T09:59:17.000Z</time>
      </trkpt>
      <trkpt lat="47.31811" lon="-2.38326">
        <ele>41.599998474121</ele>
        <time>2021-04-01T09:59:23.000Z</time>
      </trkpt>
      <trkpt lat="47.3181" lon="-2.38315">
        <ele>41.200000762939</ele>
        <time>2021-04-01T09:59:24.000Z</time>
      </trkpt>
      <trkpt lat="47.3181" lon="-2.38303">
        <ele>40.799999237061</ele>
        <time>2021-04-01T09:59:25.000Z</time>
      </trkpt>
      <trkpt lat="47.3181" lon="-2.38291">
        <ele>40.400001525879</ele>
        <time>2021-04-01T09:59:26.000Z</time>
      </trkpt>
      <trkpt lat="47.3181" lon="-2.3828">
        <ele>39.799999237061</ele>
        <time>2021-04-01T09:59:27.000Z</time>
      </trkpt>
      <trkpt lat="47.31808" lon="-2.38232">
        <ele>39.400001525879</ele>
        <time>2021-04-01T09:59:31.000Z</time>
      </trkpt>
      <trkpt lat="47.31807" lon="-2.38219">
        <ele>38.799999237061</ele>
        <time>2021-04-01T09:59:32.000Z</time>
      </trkpt>
      <trkpt lat="47.31807" lon="-2.38207">
        <ele>38.400001525879</ele>
        <time>2021-04-01T09:59:33.000Z</time>
      </trkpt>
      <trkpt lat="47.31807" lon="-2.38193">
        <ele>37.799999237061</ele>
        <time>2021-04-01T09:59:34.000Z</time>
      </trkpt>
      <trkpt lat="47.31806" lon="-2.38181">
        <ele>37.200000762939</ele>
        <time>2021-04-01T09:59:35.000Z</time>
      </trkpt>
      <trkpt lat="47.31806" lon="-2.38155">
        <ele>36.799999237061</ele>
        <time>2021-04-01T09:59:37.000Z</time>
      </trkpt>
      <trkpt lat="47.31805" lon="-2.38142">
        <ele>36.400001525879</ele>
        <time>2021-04-01T09:59:38.000Z</time>
      </trkpt>
      <trkpt lat="47.31805" lon="-2.38129">
        <ele>36</ele>
        <time>2021-04-01T09:59:39.000Z</time>
      </trkpt>
      <trkpt lat="47.31804" lon="-2.38117">
        <ele>35.599998474121</ele>
        <time>2021-04-01T09:59:40.000Z</time>
      </trkpt>
      <trkpt lat="47.31804" lon="-2.38104">
        <ele>35.200000762939</ele>
        <time>2021-04-01T09:59:41.000Z</time>
      </trkpt>
      <trkpt lat="47.31798" lon="-2.38022">
        <ele>35.200000762939</ele>
        <time>2021-04-01T09:59:48.000Z</time>
      </trkpt>
      <trkpt lat="47.31796" lon="-2.3795">
        <ele>35.200000762939</ele>
        <time>2021-04-01T09:59:55.000Z</time>
      </trkpt>
      <trkpt lat="47.318" lon="-2.37893">
        <ele>35.200000762939</ele>
        <time>2021-04-01T10:00:01.000Z</time>
      </trkpt>
      <trkpt lat="47.31808" lon="-2.37816">
        <ele>35.200000762939</ele>
        <time>2021-04-01T10:00:09.000Z</time>
      </trkpt>
      <trkpt lat="47.31809" lon="-2.37806">
        <ele>35.599998474121</ele>
        <time>2021-04-01T10:00:10.000Z</time>
      </trkpt>
      <trkpt lat="47.3181" lon="-2.37796">
        <ele>36</ele>
        <time>2021-04-01T10:00:11.000Z</time>
      </trkpt>
      <trkpt lat="47.31812" lon="-2.37786">
        <ele>36.400001525879</ele>
        <time>2021-04-01T10:00:12.000Z</time>
      </trkpt>
      <trkpt lat="47.31813" lon="-2.37777">
        <ele>36.799999237061</ele>
        <time>2021-04-01T10:00:13.000Z</time>
      </trkpt>
      <trkpt lat="47.31813" lon="-2.37767">
        <ele>37.200000762939</ele>
        <time>2021-04-01T10:00:14.000Z</time>
      </trkpt>
      <trkpt lat="47.31814" lon="-2.37757">
        <ele>37.200000762939</ele>
        <time>2021-04-01T10:00:15.000Z</time>
      </trkpt>
      <trkpt lat="47.31818" lon="-2.37714">
        <ele>37.200000762939</ele>
        <time>2021-04-01T10:00:20.000Z</time>
      </trkpt>
      <trkpt lat="47.31824" lon="-2.3766">
        <ele>37.200000762939</ele>
        <time>2021-04-01T10:00:27.000Z</time>
      </trkpt>
      <trkpt lat="47.31816" lon="-2.37647">
        <ele>37.200000762939</ele>
        <time>2021-04-01T10:00:30.000Z</time>
      </trkpt>
      <trkpt lat="47.318" lon="-2.37654">
        <ele>37.200000762939</ele>
        <time>2021-04-01T10:00:33.000Z</time>
      </trkpt>
      <trkpt lat="47.31795" lon="-2.37657">
        <ele>37.200000762939</ele>
        <time>2021-04-01T10:00:34.000Z</time>
      </trkpt>
      <trkpt lat="47.3177" lon="-2.37682">
        <ele>37.200000762939</ele>
        <time>2021-04-01T10:00:39.000Z</time>
      </trkpt>
      <trkpt lat="47.31737" lon="-2.37707">
        <ele>37.200000762939</ele>
        <time>2021-04-01T10:00:45.000Z</time>
      </trkpt>
      <trkpt lat="47.31716" lon="-2.37714">
        <ele>37.599998474121</ele>
        <time>2021-04-01T10:00:49.000Z</time>
      </trkpt>
      <trkpt lat="47.31711" lon="-2.37714">
        <ele>38</ele>
        <time>2021-04-01T10:00:50.000Z</time>
      </trkpt>
      <trkpt lat="47.31706" lon="-2.37713">
        <ele>38.400001525879</ele>
        <time>2021-04-01T10:00:51.000Z</time>
      </trkpt>
      <trkpt lat="47.31701" lon="-2.37712">
        <ele>38.799999237061</ele>
        <time>2021-04-01T10:00:52.000Z</time>
      </trkpt>
      <trkpt lat="47.31697" lon="-2.3771">
        <ele>39.200000762939</ele>
        <time>2021-04-01T10:00:53.000Z</time>
      </trkpt>
      <trkpt lat="47.31688" lon="-2.37704">
        <ele>39.200000762939</ele>
        <time>2021-04-01T10:00:55.000Z</time>
      </trkpt>
      <trkpt lat="47.31673" lon="-2.37689">
        <ele>39.200000762939</ele>
        <time>2021-04-01T10:00:59.000Z</time>
      </trkpt>
      <trkpt lat="47.31667" lon="-2.37681">
        <ele>39.200000762939</ele>
        <time>2021-04-01T10:01:01.000Z</time>
      </trkpt>
      <trkpt lat="47.31661" lon="-2.37673">
        <ele>39.200000762939</ele>
        <time>2021-04-01T10:01:03.000Z</time>
      </trkpt>
      <trkpt lat="47.3165" lon="-2.37662">
        <ele>39.200000762939</ele>
        <time>2021-04-01T10:01:06.000Z</time>
      </trkpt>
      <trkpt lat="47.31646" lon="-2.3766">
        <ele>39.200000762939</ele>
        <time>2021-04-01T10:01:07.000Z</time>
      </trkpt>
      <trkpt lat="47.3162" lon="-2.37649">
        <ele>39.200000762939</ele>
        <time>2021-04-01T10:01:13.000Z</time>
      </trkpt>
      <trkpt lat="47.31612" lon="-2.37637">
        <ele>39.200000762939</ele>
        <time>2021-04-01T10:01:16.000Z</time>
      </trkpt>
      <trkpt lat="47.31612" lon="-2.37619">
        <ele>39.200000762939</ele>
        <time>2021-04-01T10:01:20.000Z</time>
      </trkpt>
      <trkpt lat="47.31612" lon="-2.37601">
        <ele>39.200000762939</ele>
        <time>2021-04-01T10:01:26.000Z</time>
      </trkpt>
      <trkpt lat="47.31613" lon="-2.37575">
        <ele>39.200000762939</ele>
        <time>2021-04-01T10:01:32.000Z</time>
      </trkpt>
      <trkpt lat="47.31618" lon="-2.37548">
        <ele>39.200000762939</ele>
        <time>2021-04-01T10:01:38.000Z</time>
      </trkpt>
      <trkpt lat="47.31631" lon="-2.3751">
        <ele>39.200000762939</ele>
        <time>2021-04-01T10:01:46.000Z</time>
      </trkpt>
      <trkpt lat="47.31636" lon="-2.37477">
        <ele>39.200000762939</ele>
        <time>2021-04-01T10:01:52.000Z</time>
      </trkpt>
      <trkpt lat="47.31634" lon="-2.37435">
        <ele>39.200000762939</ele>
        <time>2021-04-01T10:02:00.000Z</time>
      </trkpt>
      <trkpt lat="47.31632" lon="-2.37397">
        <ele>39.200000762939</ele>
        <time>2021-04-01T10:02:07.000Z</time>
      </trkpt>
      <trkpt lat="47.31626" lon="-2.37361">
        <ele>39.200000762939</ele>
        <time>2021-04-01T10:02:14.000Z</time>
      </trkpt>
      <trkpt lat="47.31622" lon="-2.37333">
        <ele>39.200000762939</ele>
        <time>2021-04-01T10:02:19.000Z</time>
      </trkpt>
      <trkpt lat="47.31618" lon="-2.37305">
        <ele>39.200000762939</ele>
        <time>2021-04-01T10:02:24.000Z</time>
      </trkpt>
      <trkpt lat="47.31624" lon="-2.37284">
        <ele>39.200000762939</ele>
        <time>2021-04-01T10:02:29.000Z</time>
      </trkpt>
      <trkpt lat="47.31638" lon="-2.37268">
        <ele>39.200000762939</ele>
        <time>2021-04-01T10:02:34.000Z</time>
      </trkpt>
      <trkpt lat="47.31642" lon="-2.37264">
        <ele>39.200000762939</ele>
        <time>2021-04-01T10:02:35.000Z</time>
      </trkpt>
      <trkpt lat="47.31646" lon="-2.37261">
        <ele>39.599998474121</ele>
        <time>2021-04-01T10:02:36.000Z</time>
      </trkpt>
      <trkpt lat="47.31651" lon="-2.37258">
        <ele>40</ele>
        <time>2021-04-01T10:02:37.000Z</time>
      </trkpt>
      <trkpt lat="47.31655" lon="-2.37254">
        <ele>40.799999237061</ele>
        <time>2021-04-01T10:02:38.000Z</time>
      </trkpt>
      <trkpt lat="47.31659" lon="-2.37251">
        <ele>41.200000762939</ele>
        <time>2021-04-01T10:02:39.000Z</time>
      </trkpt>
      <trkpt lat="47.31663" lon="-2.37247">
        <ele>41.200000762939</ele>
        <time>2021-04-01T10:02:40.000Z</time>
      </trkpt>
      <trkpt lat="47.3168" lon="-2.3723">
        <ele>41.200000762939</ele>
        <time>2021-04-01T10:02:44.000Z</time>
      </trkpt>
      <trkpt lat="47.31686" lon="-2.37217">
        <ele>41.200000762939</ele>
        <time>2021-04-01T10:02:46.000Z</time>
      </trkpt>
      <trkpt lat="47.31687" lon="-2.37186">
        <ele>41.200000762939</ele>
        <time>2021-04-01T10:02:50.000Z</time>
      </trkpt>
      <trkpt lat="47.31678" lon="-2.37163">
        <ele>41.200000762939</ele>
        <time>2021-04-01T10:02:53.000Z</time>
      </trkpt>
      <trkpt lat="47.31676" lon="-2.37156">
        <ele>41.200000762939</ele>
        <time>2021-04-01T10:02:54.000Z</time>
      </trkpt>
      <trkpt lat="47.31654" lon="-2.37107">
        <ele>41.200000762939</ele>
        <time>2021-04-01T10:03:01.000Z</time>
      </trkpt>
      <trkpt lat="47.31628" lon="-2.37057">
        <ele>41.200000762939</ele>
        <time>2021-04-01T10:03:09.000Z</time>
      </trkpt>
      <trkpt lat="47.3161" lon="-2.37012">
        <ele>41.200000762939</ele>
        <time>2021-04-01T10:03:15.000Z</time>
      </trkpt>
      <trkpt lat="47.31594" lon="-2.36958">
        <ele>41.200000762939</ele>
        <time>2021-04-01T10:03:21.000Z</time>
      </trkpt>
      <trkpt lat="47.31577" lon="-2.36903">
        <ele>40.400001525879</ele>
        <time>2021-04-01T10:03:27.000Z</time>
      </trkpt>
      <trkpt lat="47.31574" lon="-2.36893">
        <ele>40</ele>
        <time>2021-04-01T10:03:28.000Z</time>
      </trkpt>
      <trkpt lat="47.31571" lon="-2.36883">
        <ele>39.599998474121</ele>
        <time>2021-04-01T10:03:29.000Z</time>
      </trkpt>
      <trkpt lat="47.31568" lon="-2.36873">
        <ele>39.200000762939</ele>
        <time>2021-04-01T10:03:30.000Z</time>
      </trkpt>
      <trkpt lat="47.31559" lon="-2.36841">
        <ele>38.799999237061</ele>
        <time>2021-04-01T10:03:33.000Z</time>
      </trkpt>
      <trkpt lat="47.31556" lon="-2.3683">
        <ele>38.400001525879</ele>
        <time>2021-04-01T10:03:34.000Z</time>
      </trkpt>
      <trkpt lat="47.31554" lon="-2.36821">
        <ele>38</ele>
        <time>2021-04-01T10:03:35.000Z</time>
      </trkpt>
      <trkpt lat="47.31551" lon="-2.36813">
        <ele>37.599998474121</ele>
        <time>2021-04-01T10:03:36.000Z</time>
      </trkpt>
      <trkpt lat="47.3155" lon="-2.36805">
        <ele>37</ele>
        <time>2021-04-01T10:03:37.000Z</time>
      </trkpt>
      <trkpt lat="47.31548" lon="-2.36797">
        <ele>36.400001525879</ele>
        <time>2021-04-01T10:03:38.000Z</time>
      </trkpt>
      <trkpt lat="47.31546" lon="-2.36788">
        <ele>36</ele>
        <time>2021-04-01T10:03:39.000Z</time>
      </trkpt>
      <trkpt lat="47.31544" lon="-2.3678">
        <ele>35.400001525879</ele>
        <time>2021-04-01T10:03:40.000Z</time>
      </trkpt>
      <trkpt lat="47.31541" lon="-2.36771">
        <ele>35</ele>
        <time>2021-04-01T10:03:41.000Z</time>
      </trkpt>
      <trkpt lat="47.31537" lon="-2.36753">
        <ele>35</ele>
        <time>2021-04-01T10:03:43.000Z</time>
      </trkpt>
      <trkpt lat="47.31532" lon="-2.36734">
        <ele>34.400001525879</ele>
        <time>2021-04-01T10:03:45.000Z</time>
      </trkpt>
      <trkpt lat="47.3153" lon="-2.36725">
        <ele>34</ele>
        <time>2021-04-01T10:03:46.000Z</time>
      </trkpt>
      <trkpt lat="47.31527" lon="-2.36716">
        <ele>33.599998474121</ele>
        <time>2021-04-01T10:03:47.000Z</time>
      </trkpt>
      <trkpt lat="47.31525" lon="-2.36707">
        <ele>33.200000762939</ele>
        <time>2021-04-01T10:03:48.000Z</time>
      </trkpt>
      <trkpt lat="47.31523" lon="-2.36698">
        <ele>32.799999237061</ele>
        <time>2021-04-01T10:03:49.000Z</time>
      </trkpt>
      <trkpt lat="47.31519" lon="-2.3668">
        <ele>32.799999237061</ele>
        <time>2021-04-01T10:03:51.000Z</time>
      </trkpt>
      <trkpt lat="47.31517" lon="-2.3667">
        <ele>32.400001525879</ele>
        <time>2021-04-01T10:03:52.000Z</time>
      </trkpt>
      <trkpt lat="47.31515" lon="-2.36661">
        <ele>32</ele>
        <time>2021-04-01T10:03:53.000Z</time>
      </trkpt>
      <trkpt lat="47.31514" lon="-2.36652">
        <ele>31.60000038147</ele>
        <time>2021-04-01T10:03:54.000Z</time>
      </trkpt>
      <trkpt lat="47.31512" lon="-2.36644">
        <ele>31.200000762939</ele>
        <time>2021-04-01T10:03:55.000Z</time>
      </trkpt>
      <trkpt lat="47.3151" lon="-2.36636">
        <ele>30.60000038147</ele>
        <time>2021-04-01T10:03:56.000Z</time>
      </trkpt>
      <trkpt lat="47.31508" lon="-2.3663">
        <ele>30.60000038147</ele>
        <time>2021-04-01T10:03:57.000Z</time>
      </trkpt>
      <trkpt lat="47.31502" lon="-2.36612">
        <ele>30.60000038147</ele>
        <time>2021-04-01T10:04:01.000Z</time>
      </trkpt>
      <trkpt lat="47.31497" lon="-2.36589">
        <ele>30.60000038147</ele>
        <time>2021-04-01T10:04:07.000Z</time>
      </trkpt>
      <trkpt lat="47.31496" lon="-2.36585">
        <ele>30.200000762939</ele>
        <time>2021-04-01T10:04:08.000Z</time>
      </trkpt>
      <trkpt lat="47.31495" lon="-2.3658">
        <ele>29.799999237061</ele>
        <time>2021-04-01T10:04:09.000Z</time>
      </trkpt>
      <trkpt lat="47.31494" lon="-2.36576">
        <ele>29.39999961853</ele>
        <time>2021-04-01T10:04:10.000Z</time>
      </trkpt>
      <trkpt lat="47.31493" lon="-2.36573">
        <ele>29</ele>
        <time>2021-04-01T10:04:11.000Z</time>
      </trkpt>
      <trkpt lat="47.31492" lon="-2.36571">
        <ele>28.60000038147</ele>
        <time>2021-04-01T10:04:12.000Z</time>
      </trkpt>
      <trkpt lat="47.31492" lon="-2.36567">
        <ele>28.60000038147</ele>
        <time>2021-04-01T10:04:13.000Z</time>
      </trkpt>
      <trkpt lat="47.3149" lon="-2.36543">
        <ele>28.60000038147</ele>
        <time>2021-04-01T10:04:19.000Z</time>
      </trkpt>
      <trkpt lat="47.31489" lon="-2.36514">
        <ele>28.60000038147</ele>
        <time>2021-04-01T10:04:27.000Z</time>
      </trkpt>
      <trkpt lat="47.31489" lon="-2.36494">
        <ele>28.60000038147</ele>
        <time>2021-04-01T10:04:33.000Z</time>
      </trkpt>
      <trkpt lat="47.3149" lon="-2.3649">
        <ele>29</ele>
        <time>2021-04-01T10:04:34.000Z</time>
      </trkpt>
      <trkpt lat="47.3149" lon="-2.36486">
        <ele>29.60000038147</ele>
        <time>2021-04-01T10:04:35.000Z</time>
      </trkpt>
      <trkpt lat="47.31489" lon="-2.36482">
        <ele>30</ele>
        <time>2021-04-01T10:04:36.000Z</time>
      </trkpt>
      <trkpt lat="47.3149" lon="-2.36478">
        <ele>30.39999961853</ele>
        <time>2021-04-01T10:04:37.000Z</time>
      </trkpt>
      <trkpt lat="47.3149" lon="-2.36474">
        <ele>30.799999237061</ele>
        <time>2021-04-01T10:04:38.000Z</time>
      </trkpt>
      <trkpt lat="47.31489" lon="-2.3647">
        <ele>30.799999237061</ele>
        <time>2021-04-01T10:04:39.000Z</time>
      </trkpt>
      <trkpt lat="47.31487" lon="-2.3644">
        <ele>30.799999237061</ele>
        <time>2021-04-01T10:04:46.000Z</time>
      </trkpt>
      <trkpt lat="47.31486" lon="-2.36415">
        <ele>30.799999237061</ele>
        <time>2021-04-01T10:04:52.000Z</time>
      </trkpt>
      <trkpt lat="47.31486" lon="-2.36407">
        <ele>31.200000762939</ele>
        <time>2021-04-01T10:04:54.000Z</time>
      </trkpt>
      <trkpt lat="47.31485" lon="-2.36403">
        <ele>31.60000038147</ele>
        <time>2021-04-01T10:04:55.000Z</time>
      </trkpt>
      <trkpt lat="47.31485" lon="-2.36399">
        <ele>32</ele>
        <time>2021-04-01T10:04:56.000Z</time>
      </trkpt>
      <trkpt lat="47.31485" lon="-2.36395">
        <ele>32.400001525879</ele>
        <time>2021-04-01T10:04:57.000Z</time>
      </trkpt>
      <trkpt lat="47.31484" lon="-2.36391">
        <ele>33</ele>
        <time>2021-04-01T10:04:58.000Z</time>
      </trkpt>
      <trkpt lat="47.31485" lon="-2.36383">
        <ele>33</ele>
        <time>2021-04-01T10:05:00.000Z</time>
      </trkpt>
      <trkpt lat="47.31483" lon="-2.36359">
        <ele>33</ele>
        <time>2021-04-01T10:05:06.000Z</time>
      </trkpt>
      <trkpt lat="47.31484" lon="-2.36329">
        <ele>33.400001525879</ele>
        <time>2021-04-01T10:05:13.000Z</time>
      </trkpt>
      <trkpt lat="47.31483" lon="-2.36324">
        <ele>33.799999237061</ele>
        <time>2021-04-01T10:05:14.000Z</time>
      </trkpt>
      <trkpt lat="47.31483" lon="-2.3632">
        <ele>34.200000762939</ele>
        <time>2021-04-01T10:05:15.000Z</time>
      </trkpt>
      <trkpt lat="47.31482" lon="-2.36315">
        <ele>34.599998474121</ele>
        <time>2021-04-01T10:05:16.000Z</time>
      </trkpt>
      <trkpt lat="47.31481" lon="-2.36311">
        <ele>35</ele>
        <time>2021-04-01T10:05:17.000Z</time>
      </trkpt>
      <trkpt lat="47.31478" lon="-2.36293">
        <ele>35</ele>
        <time>2021-04-01T10:05:21.000Z</time>
      </trkpt>
      <trkpt lat="47.31471" lon="-2.36265">
        <ele>35</ele>
        <time>2021-04-01T10:05:28.000Z</time>
      </trkpt>
      <trkpt lat="47.31465" lon="-2.36238">
        <ele>35</ele>
        <time>2021-04-01T10:05:35.000Z</time>
      </trkpt>
      <trkpt lat="47.31459" lon="-2.36216">
        <ele>35.400001525879</ele>
        <time>2021-04-01T10:05:41.000Z</time>
      </trkpt>
      <trkpt lat="47.31458" lon="-2.36213">
        <ele>35.799999237061</ele>
        <time>2021-04-01T10:05:42.000Z</time>
      </trkpt>
      <trkpt lat="47.31458" lon="-2.36209">
        <ele>36.200000762939</ele>
        <time>2021-04-01T10:05:43.000Z</time>
      </trkpt>
      <trkpt lat="47.31457" lon="-2.36206">
        <ele>36.599998474121</ele>
        <time>2021-04-01T10:05:44.000Z</time>
      </trkpt>
      <trkpt lat="47.31456" lon="-2.36203">
        <ele>37</ele>
        <time>2021-04-01T10:05:45.000Z</time>
      </trkpt>
      <trkpt lat="47.31456" lon="-2.362">
        <ele>37</ele>
        <time>2021-04-01T10:05:46.000Z</time>
      </trkpt>
      <trkpt lat="47.31457" lon="-2.36185">
        <ele>37</ele>
        <time>2021-04-01T10:05:52.000Z</time>
      </trkpt>
      <trkpt lat="47.31459" lon="-2.36181">
        <ele>37</ele>
        <time>2021-04-01T10:05:54.000Z</time>
      </trkpt>
      <trkpt lat="47.31461" lon="-2.36176">
        <ele>37</ele>
        <time>2021-04-01T10:05:57.000Z</time>
      </trkpt>
      <trkpt lat="47.31461" lon="-2.36172">
        <ele>37</ele>
        <time>2021-04-01T10:05:59.000Z</time>
      </trkpt>
      <trkpt lat="47.31461" lon="-2.36169">
        <ele>37</ele>
        <time>2021-04-01T10:06:02.000Z</time>
      </trkpt>
      <trkpt lat="47.31459" lon="-2.36164">
        <ele>37</ele>
        <time>2021-04-01T10:07:45.000Z</time>
      </trkpt>
      <trkpt lat="47.31456" lon="-2.36154">
        <ele>37</ele>
        <time>2021-04-01T10:07:48.000Z</time>
      </trkpt>
      <trkpt lat="47.31451" lon="-2.36131">
        <ele>37</ele>
        <time>2021-04-01T10:07:53.000Z</time>
      </trkpt>
      <trkpt lat="47.31437" lon="-2.36092">
        <ele>37</ele>
        <time>2021-04-01T10:07:59.000Z</time>
      </trkpt>
      <trkpt lat="47.31424" lon="-2.36043">
        <ele>37</ele>
        <time>2021-04-01T10:08:05.000Z</time>
      </trkpt>
      <trkpt lat="47.31406" lon="-2.35992">
        <ele>37</ele>
        <time>2021-04-01T10:08:11.000Z</time>
      </trkpt>
      <trkpt lat="47.31403" lon="-2.35982">
        <ele>37</ele>
        <time>2021-04-01T10:08:12.000Z</time>
      </trkpt>
      <trkpt lat="47.31391" lon="-2.35946">
        <ele>36.599998474121</ele>
        <time>2021-04-01T10:08:16.000Z</time>
      </trkpt>
      <trkpt lat="47.31387" lon="-2.35937">
        <ele>36.200000762939</ele>
        <time>2021-04-01T10:08:17.000Z</time>
      </trkpt>
      <trkpt lat="47.31382" lon="-2.35928">
        <ele>35.799999237061</ele>
        <time>2021-04-01T10:08:18.000Z</time>
      </trkpt>
      <trkpt lat="47.31377" lon="-2.3592">
        <ele>35.400001525879</ele>
        <time>2021-04-01T10:08:19.000Z</time>
      </trkpt>
      <trkpt lat="47.31372" lon="-2.35912">
        <ele>35</ele>
        <time>2021-04-01T10:08:20.000Z</time>
      </trkpt>
      <trkpt lat="47.31343" lon="-2.35855">
        <ele>35</ele>
        <time>2021-04-01T10:08:27.000Z</time>
      </trkpt>
      <trkpt lat="47.31339" lon="-2.35821">
        <ele>35</ele>
        <time>2021-04-01T10:08:31.000Z</time>
      </trkpt>
      <trkpt lat="47.31332" lon="-2.35752">
        <ele>35</ele>
        <time>2021-04-01T10:08:39.000Z</time>
      </trkpt>
      <trkpt lat="47.31333" lon="-2.35709">
        <ele>35</ele>
        <time>2021-04-01T10:08:44.000Z</time>
      </trkpt>
      <trkpt lat="47.31334" lon="-2.357">
        <ele>35</ele>
        <time>2021-04-01T10:08:45.000Z</time>
      </trkpt>
      <trkpt lat="47.31334" lon="-2.35691">
        <ele>35.400001525879</ele>
        <time>2021-04-01T10:08:46.000Z</time>
      </trkpt>
      <trkpt lat="47.31333" lon="-2.35682">
        <ele>35.799999237061</ele>
        <time>2021-04-01T10:08:47.000Z</time>
      </trkpt>
      <trkpt lat="47.31333" lon="-2.35673">
        <ele>36.599998474121</ele>
        <time>2021-04-01T10:08:48.000Z</time>
      </trkpt>
      <trkpt lat="47.31333" lon="-2.35664">
        <ele>37</ele>
        <time>2021-04-01T10:08:49.000Z</time>
      </trkpt>
      <trkpt lat="47.31333" lon="-2.35655">
        <ele>37</ele>
        <time>2021-04-01T10:08:50.000Z</time>
      </trkpt>
      <trkpt lat="47.31332" lon="-2.3562">
        <ele>37</ele>
        <time>2021-04-01T10:08:54.000Z</time>
      </trkpt>
      <trkpt lat="47.31331" lon="-2.35599">
        <ele>37</ele>
        <time>2021-04-01T10:08:56.000Z</time>
      </trkpt>
      <trkpt lat="47.3133" lon="-2.35558">
        <ele>36.599998474121</ele>
        <time>2021-04-01T10:09:01.000Z</time>
      </trkpt>
      <trkpt lat="47.3133" lon="-2.35551">
        <ele>36.200000762939</ele>
        <time>2021-04-01T10:09:02.000Z</time>
      </trkpt>
      <trkpt lat="47.3133" lon="-2.35545">
        <ele>35.599998474121</ele>
        <time>2021-04-01T10:09:03.000Z</time>
      </trkpt>
      <trkpt lat="47.31331" lon="-2.35541">
        <ele>35.200000762939</ele>
        <time>2021-04-01T10:09:04.000Z</time>
      </trkpt>
      <trkpt lat="47.31333" lon="-2.3554">
        <ele>34.799999237061</ele>
        <time>2021-04-01T10:09:05.000Z</time>
      </trkpt>
      <trkpt lat="47.31336" lon="-2.35546">
        <ele>34.400001525879</ele>
        <time>2021-04-01T10:09:08.000Z</time>
      </trkpt>
      <trkpt lat="47.31335" lon="-2.35548">
        <ele>34</ele>
        <time>2021-04-01T10:09:09.000Z</time>
      </trkpt>
      <trkpt lat="47.31334" lon="-2.3555">
        <ele>33.599998474121</ele>
        <time>2021-04-01T10:09:10.000Z</time>
      </trkpt>
      <trkpt lat="47.31333" lon="-2.35551">
        <ele>33.200000762939</ele>
        <time>2021-04-01T10:09:11.000Z</time>
      </trkpt>
      <trkpt lat="47.31332" lon="-2.35552">
        <ele>32.799999237061</ele>
        <time>2021-04-01T10:09:12.000Z</time>
      </trkpt>
      <trkpt lat="47.3133" lon="-2.35556">
        <ele>32.799999237061</ele>
        <time>2021-04-01T10:09:17.000Z</time>
      </trkpt>
      <trkpt lat="47.31328" lon="-2.35553">
        <ele>32.799999237061</ele>
        <time>2021-04-01T10:09:47.000Z</time>
      </trkpt>
      <trkpt lat="47.31329" lon="-2.35545">
        <ele>32.799999237061</ele>
        <time>2021-04-01T10:09:50.000Z</time>
      </trkpt>
      <trkpt lat="47.3133" lon="-2.35541">
        <ele>32.799999237061</ele>
        <time>2021-04-01T10:09:51.000Z</time>
      </trkpt>
      <trkpt lat="47.31332" lon="-2.35518">
        <ele>32.799999237061</ele>
        <time>2021-04-01T10:09:55.000Z</time>
      </trkpt>
      <trkpt lat="47.31333" lon="-2.35497">
        <ele>32.799999237061</ele>
        <time>2021-04-01T10:09:58.000Z</time>
      </trkpt>
      <trkpt lat="47.31333" lon="-2.35478">
        <ele>32.799999237061</ele>
        <time>2021-04-01T10:10:01.000Z</time>
      </trkpt>
      <trkpt lat="47.31334" lon="-2.35441">
        <ele>32.799999237061</ele>
        <time>2021-04-01T10:10:06.000Z</time>
      </trkpt>
      <trkpt lat="47.31335" lon="-2.35399">
        <ele>32.799999237061</ele>
        <time>2021-04-01T10:10:11.000Z</time>
      </trkpt>
      <trkpt lat="47.31336" lon="-2.35325">
        <ele>32.799999237061</ele>
        <time>2021-04-01T10:10:19.000Z</time>
      </trkpt>
      <trkpt lat="47.31338" lon="-2.35259">
        <ele>32.799999237061</ele>
        <time>2021-04-01T10:10:26.000Z</time>
      </trkpt>
      <trkpt lat="47.31338" lon="-2.35215">
        <ele>32.799999237061</ele>
        <time>2021-04-01T10:10:31.000Z</time>
      </trkpt>
      <trkpt lat="47.31341" lon="-2.35145">
        <ele>32.799999237061</ele>
        <time>2021-04-01T10:10:39.000Z</time>
      </trkpt>
      <trkpt lat="47.31343" lon="-2.35074">
        <ele>32.799999237061</ele>
        <time>2021-04-01T10:10:47.000Z</time>
      </trkpt>
      <trkpt lat="47.31342" lon="-2.3501">
        <ele>32.799999237061</ele>
        <time>2021-04-01T10:10:54.000Z</time>
      </trkpt>
      <trkpt lat="47.31341" lon="-2.35002">
        <ele>32.799999237061</ele>
        <time>2021-04-01T10:10:55.000Z</time>
      </trkpt>
      <trkpt lat="47.31335" lon="-2.34968">
        <ele>32.799999237061</ele>
        <time>2021-04-01T10:10:59.000Z</time>
      </trkpt>
      <trkpt lat="47.31333" lon="-2.34959">
        <ele>32.799999237061</ele>
        <time>2021-04-01T10:11:00.000Z</time>
      </trkpt>
      <trkpt lat="47.31324" lon="-2.34927">
        <ele>32.799999237061</ele>
        <time>2021-04-01T10:11:04.000Z</time>
      </trkpt>
      <trkpt lat="47.31306" lon="-2.3487">
        <ele>32.799999237061</ele>
        <time>2021-04-01T10:11:12.000Z</time>
      </trkpt>
      <trkpt lat="47.31296" lon="-2.34825">
        <ele>32.799999237061</ele>
        <time>2021-04-01T10:11:18.000Z</time>
      </trkpt>
      <trkpt lat="47.31286" lon="-2.34774">
        <ele>32.799999237061</ele>
        <time>2021-04-01T10:11:25.000Z</time>
      </trkpt>
      <trkpt lat="47.31275" lon="-2.3471">
        <ele>32.799999237061</ele>
        <time>2021-04-01T10:11:34.000Z</time>
      </trkpt>
      <trkpt lat="47.31275" lon="-2.34703">
        <ele>32.799999237061</ele>
        <time>2021-04-01T10:11:37.000Z</time>
      </trkpt>
      <trkpt lat="47.31276" lon="-2.34696">
        <ele>32.799999237061</ele>
        <time>2021-04-01T10:11:39.000Z</time>
      </trkpt>
      <trkpt lat="47.31278" lon="-2.34688">
        <ele>32.799999237061</ele>
        <time>2021-04-01T10:11:41.000Z</time>
      </trkpt>
      <trkpt lat="47.31283" lon="-2.34678">
        <ele>32.799999237061</ele>
        <time>2021-04-01T10:11:43.000Z</time>
      </trkpt>
      <trkpt lat="47.31289" lon="-2.34666">
        <ele>32.799999237061</ele>
        <time>2021-04-01T10:11:45.000Z</time>
      </trkpt>
      <trkpt lat="47.3129" lon="-2.34659">
        <ele>32.799999237061</ele>
        <time>2021-04-01T10:11:46.000Z</time>
      </trkpt>
      <trkpt lat="47.31291" lon="-2.34643">
        <ele>32.799999237061</ele>
        <time>2021-04-01T10:11:48.000Z</time>
      </trkpt>
      <trkpt lat="47.31287" lon="-2.34588">
        <ele>32.400001525879</ele>
        <time>2021-04-01T10:11:54.000Z</time>
      </trkpt>
      <trkpt lat="47.31286" lon="-2.34577">
        <ele>32</ele>
        <time>2021-04-01T10:11:55.000Z</time>
      </trkpt>
      <trkpt lat="47.31285" lon="-2.34567">
        <ele>31.39999961853</ele>
        <time>2021-04-01T10:11:56.000Z</time>
      </trkpt>
      <trkpt lat="47.31284" lon="-2.34557">
        <ele>31</ele>
        <time>2021-04-01T10:11:57.000Z</time>
      </trkpt>
      <trkpt lat="47.31282" lon="-2.34546">
        <ele>30.60000038147</ele>
        <time>2021-04-01T10:11:58.000Z</time>
      </trkpt>
      <trkpt lat="47.31278" lon="-2.34506">
        <ele>30.60000038147</ele>
        <time>2021-04-01T10:12:02.000Z</time>
      </trkpt>
      <trkpt lat="47.31273" lon="-2.34463">
        <ele>30.200000762939</ele>
        <time>2021-04-01T10:12:06.000Z</time>
      </trkpt>
      <trkpt lat="47.31272" lon="-2.34452">
        <ele>29.799999237061</ele>
        <time>2021-04-01T10:12:07.000Z</time>
      </trkpt>
      <trkpt lat="47.31271" lon="-2.34439">
        <ele>29.39999961853</ele>
        <time>2021-04-01T10:12:08.000Z</time>
      </trkpt>
      <trkpt lat="47.3127" lon="-2.34428">
        <ele>29</ele>
        <time>2021-04-01T10:12:09.000Z</time>
      </trkpt>
      <trkpt lat="47.31269" lon="-2.34416">
        <ele>28.60000038147</ele>
        <time>2021-04-01T10:12:10.000Z</time>
      </trkpt>
      <trkpt lat="47.31264" lon="-2.34379">
        <ele>28.60000038147</ele>
        <time>2021-04-01T10:12:13.000Z</time>
      </trkpt>
      <trkpt lat="47.31257" lon="-2.34354">
        <ele>28</ele>
        <time>2021-04-01T10:12:15.000Z</time>
      </trkpt>
      <trkpt lat="47.31254" lon="-2.34343">
        <ele>27.60000038147</ele>
        <time>2021-04-01T10:12:16.000Z</time>
      </trkpt>
      <trkpt lat="47.31251" lon="-2.34336">
        <ele>27.200000762939</ele>
        <time>2021-04-01T10:12:17.000Z</time>
      </trkpt>
      <trkpt lat="47.31247" lon="-2.3433">
        <ele>26.799999237061</ele>
        <time>2021-04-01T10:12:18.000Z</time>
      </trkpt>
      <trkpt lat="47.3124" lon="-2.34326">
        <ele>26.200000762939</ele>
        <time>2021-04-01T10:12:19.000Z</time>
      </trkpt>
      <trkpt lat="47.31231" lon="-2.34321">
        <ele>26.200000762939</ele>
        <time>2021-04-01T10:12:20.000Z</time>
      </trkpt>
      <trkpt lat="47.31221" lon="-2.34315">
        <ele>26.200000762939</ele>
        <time>2021-04-01T10:12:21.000Z</time>
      </trkpt>
      <trkpt lat="47.31204" lon="-2.34298">
        <ele>26.200000762939</ele>
        <time>2021-04-01T10:12:23.000Z</time>
      </trkpt>
      <trkpt lat="47.31177" lon="-2.34257">
        <ele>26.200000762939</ele>
        <time>2021-04-01T10:12:27.000Z</time>
      </trkpt>
      <trkpt lat="47.31148" lon="-2.34214">
        <ele>26.200000762939</ele>
        <time>2021-04-01T10:12:32.000Z</time>
      </trkpt>
      <trkpt lat="47.3112" lon="-2.3417">
        <ele>26.200000762939</ele>
        <time>2021-04-01T10:12:38.000Z</time>
      </trkpt>
      <trkpt lat="47.31094" lon="-2.34122">
        <ele>26.200000762939</ele>
        <time>2021-04-01T10:12:45.000Z</time>
      </trkpt>
      <trkpt lat="47.31087" lon="-2.3411">
        <ele>26.60000038147</ele>
        <time>2021-04-01T10:12:47.000Z</time>
      </trkpt>
      <trkpt lat="47.31083" lon="-2.34103">
        <ele>27</ele>
        <time>2021-04-01T10:12:48.000Z</time>
      </trkpt>
      <trkpt lat="47.3108" lon="-2.34096">
        <ele>27.39999961853</ele>
        <time>2021-04-01T10:12:49.000Z</time>
      </trkpt>
      <trkpt lat="47.31077" lon="-2.34089">
        <ele>27.799999237061</ele>
        <time>2021-04-01T10:12:50.000Z</time>
      </trkpt>
      <trkpt lat="47.31075" lon="-2.34082">
        <ele>28.200000762939</ele>
        <time>2021-04-01T10:12:51.000Z</time>
      </trkpt>
      <trkpt lat="47.31072" lon="-2.34075">
        <ele>28.200000762939</ele>
        <time>2021-04-01T10:12:52.000Z</time>
      </trkpt>
      <trkpt lat="47.31065" lon="-2.34045">
        <ele>28.799999237061</ele>
        <time>2021-04-01T10:12:56.000Z</time>
      </trkpt>
      <trkpt lat="47.31063" lon="-2.34037">
        <ele>29.200000762939</ele>
        <time>2021-04-01T10:12:57.000Z</time>
      </trkpt>
      <trkpt lat="47.31063" lon="-2.34029">
        <ele>29.60000038147</ele>
        <time>2021-04-01T10:12:58.000Z</time>
      </trkpt>
      <trkpt lat="47.31062" lon="-2.34021">
        <ele>30</ele>
        <time>2021-04-01T10:12:59.000Z</time>
      </trkpt>
      <trkpt lat="47.31061" lon="-2.34012">
        <ele>30.39999961853</ele>
        <time>2021-04-01T10:13:00.000Z</time>
      </trkpt>
      <trkpt lat="47.3106" lon="-2.33979">
        <ele>30.39999961853</ele>
        <time>2021-04-01T10:13:04.000Z</time>
      </trkpt>
      <trkpt lat="47.31059" lon="-2.33955">
        <ele>30.39999961853</ele>
        <time>2021-04-01T10:13:07.000Z</time>
      </trkpt>
      <trkpt lat="47.31053" lon="-2.33943">
        <ele>30.39999961853</ele>
        <time>2021-04-01T10:13:09.000Z</time>
      </trkpt>
      <trkpt lat="47.3104" lon="-2.33942">
        <ele>30.39999961853</ele>
        <time>2021-04-01T10:13:12.000Z</time>
      </trkpt>
      <trkpt lat="47.31018" lon="-2.3395">
        <ele>30.39999961853</ele>
        <time>2021-04-01T10:13:16.000Z</time>
      </trkpt>
      <trkpt lat="47.31003" lon="-2.33951">
        <ele>30.799999237061</ele>
        <time>2021-04-01T10:13:19.000Z</time>
      </trkpt>
      <trkpt lat="47.30997" lon="-2.33951">
        <ele>31.799999237061</ele>
        <time>2021-04-01T10:13:20.000Z</time>
      </trkpt>
      <trkpt lat="47.30992" lon="-2.33951">
        <ele>32.200000762939</ele>
        <time>2021-04-01T10:13:21.000Z</time>
      </trkpt>
      <trkpt lat="47.30987" lon="-2.33952">
        <ele>32.599998474121</ele>
        <time>2021-04-01T10:13:22.000Z</time>
      </trkpt>
      <trkpt lat="47.30977" lon="-2.33952">
        <ele>32.599998474121</ele>
        <time>2021-04-01T10:13:24.000Z</time>
      </trkpt>
      <trkpt lat="47.30944" lon="-2.33948">
        <ele>32.599998474121</ele>
        <time>2021-04-01T10:13:30.000Z</time>
      </trkpt>
      <trkpt lat="47.30902" lon="-2.33944">
        <ele>32.599998474121</ele>
        <time>2021-04-01T10:13:38.000Z</time>
      </trkpt>
      <trkpt lat="47.30869" lon="-2.33948">
        <ele>32.599998474121</ele>
        <time>2021-04-01T10:13:44.000Z</time>
      </trkpt>
      <trkpt lat="47.30838" lon="-2.33955">
        <ele>32.599998474121</ele>
        <time>2021-04-01T10:13:50.000Z</time>
      </trkpt>
      <trkpt lat="47.30833" lon="-2.33956">
        <ele>32.599998474121</ele>
        <time>2021-04-01T10:13:51.000Z</time>
      </trkpt>
      <trkpt lat="47.30797" lon="-2.33964">
        <ele>32.599998474121</ele>
        <time>2021-04-01T10:13:59.000Z</time>
      </trkpt>
      <trkpt lat="47.30785" lon="-2.33968">
        <ele>32.599998474121</ele>
        <time>2021-04-01T10:14:02.000Z</time>
      </trkpt>
      <trkpt lat="47.30781" lon="-2.33976">
        <ele>32.599998474121</ele>
        <time>2021-04-01T10:14:04.000Z</time>
      </trkpt>
      <trkpt lat="47.3078" lon="-2.33997">
        <ele>32.599998474121</ele>
        <time>2021-04-01T10:14:08.000Z</time>
      </trkpt>
      <trkpt lat="47.30781" lon="-2.34015">
        <ele>32.599998474121</ele>
        <time>2021-04-01T10:14:11.000Z</time>
      </trkpt>
      <trkpt lat="47.30779" lon="-2.34028">
        <ele>32.599998474121</ele>
        <time>2021-04-01T10:14:13.000Z</time>
      </trkpt>
      <trkpt lat="47.30781" lon="-2.34052">
        <ele>32.599998474121</ele>
        <time>2021-04-01T10:14:17.000Z</time>
      </trkpt>
      <trkpt lat="47.30781" lon="-2.34059">
        <ele>32.599998474121</ele>
        <time>2021-04-01T10:14:18.000Z</time>
      </trkpt>
      <trkpt lat="47.30779" lon="-2.34079">
        <ele>32.599998474121</ele>
        <time>2021-04-01T10:14:21.000Z</time>
      </trkpt>
      <trkpt lat="47.30777" lon="-2.34093">
        <ele>32.599998474121</ele>
        <time>2021-04-01T10:14:23.000Z</time>
      </trkpt>
      <trkpt lat="47.30776" lon="-2.341">
        <ele>33</ele>
        <time>2021-04-01T10:14:24.000Z</time>
      </trkpt>
      <trkpt lat="47.30776" lon="-2.34107">
        <ele>33.599998474121</ele>
        <time>2021-04-01T10:14:25.000Z</time>
      </trkpt>
      <trkpt lat="47.30776" lon="-2.34114">
        <ele>34</ele>
        <time>2021-04-01T10:14:26.000Z</time>
      </trkpt>
      <trkpt lat="47.30776" lon="-2.34122">
        <ele>34.400001525879</ele>
        <time>2021-04-01T10:14:27.000Z</time>
      </trkpt>
      <trkpt lat="47.30776" lon="-2.34129">
        <ele>34.799999237061</ele>
        <time>2021-04-01T10:14:28.000Z</time>
      </trkpt>
      <trkpt lat="47.30775" lon="-2.34137">
        <ele>34.799999237061</ele>
        <time>2021-04-01T10:14:29.000Z</time>
      </trkpt>
      <trkpt lat="47.30774" lon="-2.34144">
        <ele>34.799999237061</ele>
        <time>2021-04-01T10:14:30.000Z</time>
      </trkpt>
      <trkpt lat="47.30772" lon="-2.34167">
        <ele>34.799999237061</ele>
        <time>2021-04-01T10:14:33.000Z</time>
      </trkpt>
      <trkpt lat="47.30772" lon="-2.34174">
        <ele>34.799999237061</ele>
        <time>2021-04-01T10:14:34.000Z</time>
      </trkpt>
      <trkpt lat="47.30771" lon="-2.34203">
        <ele>34.799999237061</ele>
        <time>2021-04-01T10:14:38.000Z</time>
      </trkpt>
      <trkpt lat="47.30768" lon="-2.34209">
        <ele>34.799999237061</ele>
        <time>2021-04-01T10:14:39.000Z</time>
      </trkpt>
      <trkpt lat="47.30756" lon="-2.34216">
        <ele>34.799999237061</ele>
        <time>2021-04-01T10:14:42.000Z</time>
      </trkpt>
      <trkpt lat="47.30737" lon="-2.34221">
        <ele>34.799999237061</ele>
        <time>2021-04-01T10:14:46.000Z</time>
      </trkpt>
      <trkpt lat="47.30732" lon="-2.34228">
        <ele>34.799999237061</ele>
        <time>2021-04-01T10:14:48.000Z</time>
      </trkpt>
      <trkpt lat="47.30731" lon="-2.34232">
        <ele>34.799999237061</ele>
        <time>2021-04-01T10:14:49.000Z</time>
      </trkpt>
      <trkpt lat="47.3073" lon="-2.34238">
        <ele>34.799999237061</ele>
        <time>2021-04-01T10:14:51.000Z</time>
      </trkpt>
      <trkpt lat="47.3073" lon="-2.34245">
        <ele>34.799999237061</ele>
        <time>2021-04-01T10:14:53.000Z</time>
      </trkpt>
      <trkpt lat="47.30728" lon="-2.34258">
        <ele>34.799999237061</ele>
        <time>2021-04-01T10:14:59.000Z</time>
      </trkpt>
      <trkpt lat="47.30723" lon="-2.34275">
        <ele>34.799999237061</ele>
        <time>2021-04-01T10:15:06.000Z</time>
      </trkpt>
      <trkpt lat="47.30716" lon="-2.3429">
        <ele>34.799999237061</ele>
        <time>2021-04-01T10:15:11.000Z</time>
      </trkpt>
      <trkpt lat="47.30706" lon="-2.34312">
        <ele>34.799999237061</ele>
        <time>2021-04-01T10:15:15.000Z</time>
      </trkpt>
      <trkpt lat="47.30692" lon="-2.34346">
        <ele>34.799999237061</ele>
        <time>2021-04-01T10:15:21.000Z</time>
      </trkpt>
      <trkpt lat="47.30677" lon="-2.3437">
        <ele>34.799999237061</ele>
        <time>2021-04-01T10:15:26.000Z</time>
      </trkpt>
      <trkpt lat="47.30663" lon="-2.3439">
        <ele>34.799999237061</ele>
        <time>2021-04-01T10:15:30.000Z</time>
      </trkpt>
      <trkpt lat="47.30659" lon="-2.34395">
        <ele>34.799999237061</ele>
        <time>2021-04-01T10:15:31.000Z</time>
      </trkpt>
      <trkpt lat="47.30648" lon="-2.34411">
        <ele>34.799999237061</ele>
        <time>2021-04-01T10:15:34.000Z</time>
      </trkpt>
      <trkpt lat="47.30644" lon="-2.34417">
        <ele>35.200000762939</ele>
        <time>2021-04-01T10:15:35.000Z</time>
      </trkpt>
      <trkpt lat="47.3064" lon="-2.34423">
        <ele>35.599998474121</ele>
        <time>2021-04-01T10:15:36.000Z</time>
      </trkpt>
      <trkpt lat="47.30636" lon="-2.34429">
        <ele>36</ele>
        <time>2021-04-01T10:15:37.000Z</time>
      </trkpt>
      <trkpt lat="47.30633" lon="-2.34434">
        <ele>36.400001525879</ele>
        <time>2021-04-01T10:15:38.000Z</time>
      </trkpt>
      <trkpt lat="47.30629" lon="-2.3444">
        <ele>36.799999237061</ele>
        <time>2021-04-01T10:15:39.000Z</time>
      </trkpt>
      <trkpt lat="47.30621" lon="-2.3445">
        <ele>36.799999237061</ele>
        <time>2021-04-01T10:15:41.000Z</time>
      </trkpt>
      <trkpt lat="47.30613" lon="-2.34464">
        <ele>36.799999237061</ele>
        <time>2021-04-01T10:15:43.000Z</time>
      </trkpt>
      <trkpt lat="47.30609" lon="-2.34471">
        <ele>36.799999237061</ele>
        <time>2021-04-01T10:15:44.000Z</time>
      </trkpt>
      <trkpt lat="47.30602" lon="-2.34485">
        <ele>36.799999237061</ele>
        <time>2021-04-01T10:15:46.000Z</time>
      </trkpt>
      <trkpt lat="47.30593" lon="-2.34507">
        <ele>36.799999237061</ele>
        <time>2021-04-01T10:15:49.000Z</time>
      </trkpt>
      <trkpt lat="47.30579" lon="-2.34539">
        <ele>36.799999237061</ele>
        <time>2021-04-01T10:15:53.000Z</time>
      </trkpt>
      <trkpt lat="47.30568" lon="-2.34555">
        <ele>36.799999237061</ele>
        <time>2021-04-01T10:15:55.000Z</time>
      </trkpt>
      <trkpt lat="47.30534" lon="-2.346">
        <ele>36.799999237061</ele>
        <time>2021-04-01T10:16:01.000Z</time>
      </trkpt>
      <trkpt lat="47.30524" lon="-2.34616">
        <ele>36.799999237061</ele>
        <time>2021-04-01T10:16:03.000Z</time>
      </trkpt>
      <trkpt lat="47.30511" lon="-2.34637">
        <ele>36.799999237061</ele>
        <time>2021-04-01T10:16:06.000Z</time>
      </trkpt>
      <trkpt lat="47.30496" lon="-2.34658">
        <ele>36.799999237061</ele>
        <time>2021-04-01T10:16:09.000Z</time>
      </trkpt>
      <trkpt lat="47.30486" lon="-2.34669">
        <ele>36.799999237061</ele>
        <time>2021-04-01T10:16:11.000Z</time>
      </trkpt>
      <trkpt lat="47.30465" lon="-2.3469">
        <ele>36.799999237061</ele>
        <time>2021-04-01T10:16:15.000Z</time>
      </trkpt>
      <trkpt lat="47.30454" lon="-2.34699">
        <ele>36.799999237061</ele>
        <time>2021-04-01T10:16:17.000Z</time>
      </trkpt>
      <trkpt lat="47.30448" lon="-2.34705">
        <ele>36.799999237061</ele>
        <time>2021-04-01T10:16:18.000Z</time>
      </trkpt>
      <trkpt lat="47.30427" lon="-2.34725">
        <ele>36.799999237061</ele>
        <time>2021-04-01T10:16:22.000Z</time>
      </trkpt>
      <trkpt lat="47.30408" lon="-2.3474">
        <ele>36.799999237061</ele>
        <time>2021-04-01T10:16:26.000Z</time>
      </trkpt>
      <trkpt lat="47.30404" lon="-2.34743">
        <ele>36.799999237061</ele>
        <time>2021-04-01T10:16:27.000Z</time>
      </trkpt>
      <trkpt lat="47.30378" lon="-2.3476">
        <ele>36.799999237061</ele>
        <time>2021-04-01T10:16:32.000Z</time>
      </trkpt>
      <trkpt lat="47.30353" lon="-2.34774">
        <ele>36.799999237061</ele>
        <time>2021-04-01T10:16:36.000Z</time>
      </trkpt>
      <trkpt lat="47.30342" lon="-2.34785">
        <ele>36.799999237061</ele>
        <time>2021-04-01T10:16:38.000Z</time>
      </trkpt>
      <trkpt lat="47.3033" lon="-2.34808">
        <ele>36.799999237061</ele>
        <time>2021-04-01T10:16:41.000Z</time>
      </trkpt>
      <trkpt lat="47.30322" lon="-2.34821">
        <ele>36.799999237061</ele>
        <time>2021-04-01T10:16:43.000Z</time>
      </trkpt>
      <trkpt lat="47.30307" lon="-2.34838">
        <ele>36.799999237061</ele>
        <time>2021-04-01T10:16:46.000Z</time>
      </trkpt>
      <trkpt lat="47.30292" lon="-2.34854">
        <ele>36.799999237061</ele>
        <time>2021-04-01T10:16:49.000Z</time>
      </trkpt>
      <trkpt lat="47.30281" lon="-2.34859">
        <ele>36.799999237061</ele>
        <time>2021-04-01T10:16:51.000Z</time>
      </trkpt>
      <trkpt lat="47.3027" lon="-2.34866">
        <ele>36.799999237061</ele>
        <time>2021-04-01T10:16:53.000Z</time>
      </trkpt>
      <trkpt lat="47.30248" lon="-2.34878">
        <ele>36.799999237061</ele>
        <time>2021-04-01T10:16:57.000Z</time>
      </trkpt>
      <trkpt lat="47.30237" lon="-2.34886">
        <ele>36.799999237061</ele>
        <time>2021-04-01T10:16:59.000Z</time>
      </trkpt>
      <trkpt lat="47.30221" lon="-2.34901">
        <ele>36.799999237061</ele>
        <time>2021-04-01T10:17:02.000Z</time>
      </trkpt>
      <trkpt lat="47.30216" lon="-2.34907">
        <ele>36.799999237061</ele>
        <time>2021-04-01T10:17:03.000Z</time>
      </trkpt>
      <trkpt lat="47.30213" lon="-2.34925">
        <ele>36.400001525879</ele>
        <time>2021-04-01T10:17:05.000Z</time>
      </trkpt>
      <trkpt lat="47.30212" lon="-2.34935">
        <ele>36</ele>
        <time>2021-04-01T10:17:06.000Z</time>
      </trkpt>
      <trkpt lat="47.30213" lon="-2.34945">
        <ele>35.599998474121</ele>
        <time>2021-04-01T10:17:07.000Z</time>
      </trkpt>
      <trkpt lat="47.30213" lon="-2.34957">
        <ele>35.200000762939</ele>
        <time>2021-04-01T10:17:08.000Z</time>
      </trkpt>
      <trkpt lat="47.30212" lon="-2.34968">
        <ele>34.799999237061</ele>
        <time>2021-04-01T10:17:09.000Z</time>
      </trkpt>
      <trkpt lat="47.30212" lon="-2.35023">
        <ele>34.799999237061</ele>
        <time>2021-04-01T10:17:14.000Z</time>
      </trkpt>
      <trkpt lat="47.30211" lon="-2.35036">
        <ele>34.799999237061</ele>
        <time>2021-04-01T10:17:15.000Z</time>
      </trkpt>
      <trkpt lat="47.30211" lon="-2.35102">
        <ele>34.799999237061</ele>
        <time>2021-04-01T10:17:21.000Z</time>
      </trkpt>
      <trkpt lat="47.30211" lon="-2.35112">
        <ele>34.400001525879</ele>
        <time>2021-04-01T10:17:22.000Z</time>
      </trkpt>
      <trkpt lat="47.3021" lon="-2.35123">
        <ele>34</ele>
        <time>2021-04-01T10:17:23.000Z</time>
      </trkpt>
      <trkpt lat="47.30209" lon="-2.35134">
        <ele>33.599998474121</ele>
        <time>2021-04-01T10:17:24.000Z</time>
      </trkpt>
      <trkpt lat="47.30209" lon="-2.35145">
        <ele>33.200000762939</ele>
        <time>2021-04-01T10:17:25.000Z</time>
      </trkpt>
      <trkpt lat="47.3021" lon="-2.35155">
        <ele>32.799999237061</ele>
        <time>2021-04-01T10:17:26.000Z</time>
      </trkpt>
      <trkpt lat="47.30207" lon="-2.35164">
        <ele>32.799999237061</ele>
        <time>2021-04-01T10:17:27.000Z</time>
      </trkpt>
      <trkpt lat="47.30202" lon="-2.35168">
        <ele>32.200000762939</ele>
        <time>2021-04-01T10:17:28.000Z</time>
      </trkpt>
      <trkpt lat="47.30196" lon="-2.35168">
        <ele>31.799999237061</ele>
        <time>2021-04-01T10:17:29.000Z</time>
      </trkpt>
      <trkpt lat="47.30191" lon="-2.35168">
        <ele>31.200000762939</ele>
        <time>2021-04-01T10:17:30.000Z</time>
      </trkpt>
      <trkpt lat="47.30186" lon="-2.3517">
        <ele>30.799999237061</ele>
        <time>2021-04-01T10:17:31.000Z</time>
      </trkpt>
      <trkpt lat="47.30181" lon="-2.35172">
        <ele>30.200000762939</ele>
        <time>2021-04-01T10:17:32.000Z</time>
      </trkpt>
      <trkpt lat="47.30176" lon="-2.35173">
        <ele>30.200000762939</ele>
        <time>2021-04-01T10:17:33.000Z</time>
      </trkpt>
      <trkpt lat="47.30173" lon="-2.35174">
        <ele>30.200000762939</ele>
        <time>2021-04-01T10:17:34.000Z</time>
      </trkpt>
      <trkpt lat="47.30168" lon="-2.35179">
        <ele>30.200000762939</ele>
        <time>2021-04-01T10:17:36.000Z</time>
      </trkpt>
      <trkpt lat="47.30167" lon="-2.35181">
        <ele>30.200000762939</ele>
        <time>2021-04-01T10:17:37.000Z</time>
      </trkpt>
      <trkpt lat="47.30163" lon="-2.35187">
        <ele>30.200000762939</ele>
        <time>2021-04-01T10:17:41.000Z</time>
      </trkpt>
      <trkpt lat="47.30163" lon="-2.35186">
        <ele>30.200000762939</ele>
        <time>2021-04-01T10:17:42.000Z</time>
      </trkpt>
      <trkpt lat="47.30162" lon="-2.35187">
        <ele>29.799999237061</ele>
        <time>2021-04-01T10:17:43.000Z</time>
      </trkpt>
      <trkpt lat="47.30161" lon="-2.35188">
        <ele>29.39999961853</ele>
        <time>2021-04-01T10:17:44.000Z</time>
      </trkpt>
      <trkpt lat="47.3016" lon="-2.35189">
        <ele>29</ele>
        <time>2021-04-01T10:17:45.000Z</time>
      </trkpt>
      <trkpt lat="47.3016" lon="-2.35189">
        <ele>28.60000038147</ele>
        <time>2021-04-01T10:17:46.000Z</time>
      </trkpt>
      <trkpt lat="47.30159" lon="-2.3519">
        <ele>28.200000762939</ele>
        <time>2021-04-01T10:17:47.000Z</time>
      </trkpt>
      <trkpt lat="47.30157" lon="-2.35192">
        <ele>28.200000762939</ele>
        <time>2021-04-01T10:17:49.000Z</time>
      </trkpt>
      <trkpt lat="47.30154" lon="-2.35193">
        <ele>28.200000762939</ele>
        <time>2021-04-01T10:17:55.000Z</time>
      </trkpt>
      <trkpt lat="47.30148" lon="-2.35194">
        <ele>28.200000762939</ele>
        <time>2021-04-01T10:18:01.000Z</time>
      </trkpt>
      <trkpt lat="47.30146" lon="-2.35194">
        <ele>28.200000762939</ele>
        <time>2021-04-01T10:18:02.000Z</time>
      </trkpt>
      <trkpt lat="47.30131" lon="-2.35195">
        <ele>28.200000762939</ele>
        <time>2021-04-01T10:18:08.000Z</time>
      </trkpt>
      <trkpt lat="47.30126" lon="-2.35197">
        <ele>28.200000762939</ele>
        <time>2021-04-01T10:18:09.000Z</time>
      </trkpt>
      <trkpt lat="47.30112" lon="-2.35203">
        <ele>28.200000762939</ele>
        <time>2021-04-01T10:18:12.000Z</time>
      </trkpt>
      <trkpt lat="47.30109" lon="-2.35205">
        <ele>28.200000762939</ele>
        <time>2021-04-01T10:18:13.000Z</time>
      </trkpt>
      <trkpt lat="47.30085" lon="-2.35214">
        <ele>28.200000762939</ele>
        <time>2021-04-01T10:18:18.000Z</time>
      </trkpt>
      <trkpt lat="47.3007" lon="-2.35221">
        <ele>28.200000762939</ele>
        <time>2021-04-01T10:18:21.000Z</time>
      </trkpt>
      <trkpt lat="47.30062" lon="-2.35225">
        <ele>28.200000762939</ele>
        <time>2021-04-01T10:18:23.000Z</time>
      </trkpt>
      <trkpt lat="47.30044" lon="-2.35234">
        <ele>28.200000762939</ele>
        <time>2021-04-01T10:18:27.000Z</time>
      </trkpt>
      <trkpt lat="47.30035" lon="-2.35238">
        <ele>28.200000762939</ele>
        <time>2021-04-01T10:18:29.000Z</time>
      </trkpt>
      <trkpt lat="47.30028" lon="-2.35242">
        <ele>28.200000762939</ele>
        <time>2021-04-01T10:18:32.000Z</time>
      </trkpt>
      <trkpt lat="47.30027" lon="-2.35243">
        <ele>28.200000762939</ele>
        <time>2021-04-01T10:18:33.000Z</time>
      </trkpt>
      <trkpt lat="47.30026" lon="-2.35242">
        <ele>28.200000762939</ele>
        <time>2021-04-01T10:18:34.000Z</time>
      </trkpt>
      <trkpt lat="47.30017" lon="-2.35248">
        <ele>28.200000762939</ele>
        <time>2021-04-01T10:18:38.000Z</time>
      </trkpt>
      <trkpt lat="47.30004" lon="-2.35255">
        <ele>28.200000762939</ele>
        <time>2021-04-01T10:18:44.000Z</time>
      </trkpt>
      <trkpt lat="47.29994" lon="-2.35262">
        <ele>28.200000762939</ele>
        <time>2021-04-01T10:18:49.000Z</time>
      </trkpt>
      <trkpt lat="47.29983" lon="-2.35275">
        <ele>28.200000762939</ele>
        <time>2021-04-01T10:18:56.000Z</time>
      </trkpt>
      <trkpt lat="47.29968" lon="-2.35293">
        <ele>28.200000762939</ele>
        <time>2021-04-01T10:19:02.000Z</time>
      </trkpt>
      <trkpt lat="47.29942" lon="-2.35329">
        <ele>28.200000762939</ele>
        <time>2021-04-01T10:19:10.000Z</time>
      </trkpt>
      <trkpt lat="47.29915" lon="-2.35362">
        <ele>28.200000762939</ele>
        <time>2021-04-01T10:19:17.000Z</time>
      </trkpt>
      <trkpt lat="47.29883" lon="-2.35398">
        <ele>28.200000762939</ele>
        <time>2021-04-01T10:19:25.000Z</time>
      </trkpt>
      <trkpt lat="47.29873" lon="-2.35409">
        <ele>28.200000762939</ele>
        <time>2021-04-01T10:19:28.000Z</time>
      </trkpt>
      <trkpt lat="47.29862" lon="-2.35419">
        <ele>28.200000762939</ele>
        <time>2021-04-01T10:19:31.000Z</time>
      </trkpt>
      <trkpt lat="47.29851" lon="-2.35429">
        <ele>28.200000762939</ele>
        <time>2021-04-01T10:19:34.000Z</time>
      </trkpt>
      <trkpt lat="47.29844" lon="-2.35437">
        <ele>28.200000762939</ele>
        <time>2021-04-01T10:19:36.000Z</time>
      </trkpt>
      <trkpt lat="47.29835" lon="-2.35452">
        <ele>28.200000762939</ele>
        <time>2021-04-01T10:19:39.000Z</time>
      </trkpt>
      <trkpt lat="47.29832" lon="-2.35464">
        <ele>28.200000762939</ele>
        <time>2021-04-01T10:19:41.000Z</time>
      </trkpt>
      <trkpt lat="47.29832" lon="-2.35485">
        <ele>28.60000038147</ele>
        <time>2021-04-01T10:19:44.000Z</time>
      </trkpt>
      <trkpt lat="47.29833" lon="-2.35491">
        <ele>29</ele>
        <time>2021-04-01T10:19:45.000Z</time>
      </trkpt>
      <trkpt lat="47.29835" lon="-2.35497">
        <ele>29.39999961853</ele>
        <time>2021-04-01T10:19:46.000Z</time>
      </trkpt>
      <trkpt lat="47.29837" lon="-2.35503">
        <ele>29.799999237061</ele>
        <time>2021-04-01T10:19:47.000Z</time>
      </trkpt>
      <trkpt lat="47.29839" lon="-2.35509">
        <ele>30.200000762939</ele>
        <time>2021-04-01T10:19:48.000Z</time>
      </trkpt>
      <trkpt lat="47.29849" lon="-2.35545">
        <ele>30.200000762939</ele>
        <time>2021-04-01T10:19:54.000Z</time>
      </trkpt>
      <trkpt lat="47.29855" lon="-2.3556">
        <ele>30.200000762939</ele>
        <time>2021-04-01T10:19:58.000Z</time>
      </trkpt>
      <trkpt lat="47.29862" lon="-2.35586">
        <ele>30.200000762939</ele>
        <time>2021-04-01T10:20:05.000Z</time>
      </trkpt>
      <trkpt lat="47.2987" lon="-2.35616">
        <ele>30.60000038147</ele>
        <time>2021-04-01T10:20:11.000Z</time>
      </trkpt>
      <trkpt lat="47.29871" lon="-2.35621">
        <ele>31</ele>
        <time>2021-04-01T10:20:12.000Z</time>
      </trkpt>
      <trkpt lat="47.29872" lon="-2.35627">
        <ele>31.39999961853</ele>
        <time>2021-04-01T10:20:13.000Z</time>
      </trkpt>
      <trkpt lat="47.29873" lon="-2.35632">
        <ele>32</ele>
        <time>2021-04-01T10:20:14.000Z</time>
      </trkpt>
      <trkpt lat="47.29875" lon="-2.35638">
        <ele>32.400001525879</ele>
        <time>2021-04-01T10:20:15.000Z</time>
      </trkpt>
      <trkpt lat="47.29878" lon="-2.3566">
        <ele>32.400001525879</ele>
        <time>2021-04-01T10:20:19.000Z</time>
      </trkpt>
      <trkpt lat="47.29883" lon="-2.35693">
        <ele>32.400001525879</ele>
        <time>2021-04-01T10:20:25.000Z</time>
      </trkpt>
      <trkpt lat="47.29892" lon="-2.3573">
        <ele>32.400001525879</ele>
        <time>2021-04-01T10:20:33.000Z</time>
      </trkpt>
      <trkpt lat="47.29894" lon="-2.3575">
        <ele>32.400001525879</ele>
        <time>2021-04-01T10:20:38.000Z</time>
      </trkpt>
      <trkpt lat="47.29893" lon="-2.35753">
        <ele>32.400001525879</ele>
        <time>2021-04-01T10:20:39.000Z</time>
      </trkpt>
      <trkpt lat="47.29885" lon="-2.35757">
        <ele>32.400001525879</ele>
        <time>2021-04-01T10:20:42.000Z</time>
      </trkpt>
      <trkpt lat="47.29882" lon="-2.35757">
        <ele>32.400001525879</ele>
        <time>2021-04-01T10:20:43.000Z</time>
      </trkpt>
      <trkpt lat="47.29863" lon="-2.35764">
        <ele>32.400001525879</ele>
        <time>2021-04-01T10:20:49.000Z</time>
      </trkpt>
      <trkpt lat="47.2985" lon="-2.35773">
        <ele>32.400001525879</ele>
        <time>2021-04-01T10:20:53.000Z</time>
      </trkpt>
      <trkpt lat="47.29847" lon="-2.35778">
        <ele>32.400001525879</ele>
        <time>2021-04-01T10:20:54.000Z</time>
      </trkpt>
      <trkpt lat="47.29832" lon="-2.35786">
        <ele>32.400001525879</ele>
        <time>2021-04-01T10:20:58.000Z</time>
      </trkpt>
      <trkpt lat="47.29828" lon="-2.35787">
        <ele>32.799999237061</ele>
        <time>2021-04-01T10:20:59.000Z</time>
      </trkpt>
      <trkpt lat="47.29823" lon="-2.35788">
        <ele>33.200000762939</ele>
        <time>2021-04-01T10:21:00.000Z</time>
      </trkpt>
      <trkpt lat="47.29819" lon="-2.3579">
        <ele>33.599998474121</ele>
        <time>2021-04-01T10:21:01.000Z</time>
      </trkpt>
      <trkpt lat="47.29815" lon="-2.35791">
        <ele>34</ele>
        <time>2021-04-01T10:21:02.000Z</time>
      </trkpt>
      <trkpt lat="47.29812" lon="-2.35792">
        <ele>34.400001525879</ele>
        <time>2021-04-01T10:21:03.000Z</time>
      </trkpt>
      <trkpt lat="47.29799" lon="-2.35796">
        <ele>34.400001525879</ele>
        <time>2021-04-01T10:21:06.000Z</time>
      </trkpt>
      <trkpt lat="47.29761" lon="-2.35809">
        <ele>34.400001525879</ele>
        <time>2021-04-01T10:21:14.000Z</time>
      </trkpt>
      <trkpt lat="47.29729" lon="-2.35825">
        <ele>34.400001525879</ele>
        <time>2021-04-01T10:21:20.000Z</time>
      </trkpt>
      <trkpt lat="47.29689" lon="-2.35844">
        <ele>34.400001525879</ele>
        <time>2021-04-01T10:21:26.000Z</time>
      </trkpt>
      <trkpt lat="47.29672" lon="-2.35851">
        <ele>34.400001525879</ele>
        <time>2021-04-01T10:21:29.000Z</time>
      </trkpt>
      <trkpt lat="47.29668" lon="-2.35854">
        <ele>34.400001525879</ele>
        <time>2021-04-01T10:21:30.000Z</time>
      </trkpt>
      <trkpt lat="47.29657" lon="-2.35864">
        <ele>34</ele>
        <time>2021-04-01T10:21:33.000Z</time>
      </trkpt>
      <trkpt lat="47.29653" lon="-2.35866">
        <ele>33.599998474121</ele>
        <time>2021-04-01T10:21:34.000Z</time>
      </trkpt>
      <trkpt lat="47.2965" lon="-2.35868">
        <ele>33.200000762939</ele>
        <time>2021-04-01T10:21:35.000Z</time>
      </trkpt>
      <trkpt lat="47.29646" lon="-2.3587">
        <ele>32.799999237061</ele>
        <time>2021-04-01T10:21:36.000Z</time>
      </trkpt>
      <trkpt lat="47.29642" lon="-2.35872">
        <ele>32.400001525879</ele>
        <time>2021-04-01T10:21:37.000Z</time>
      </trkpt>
      <trkpt lat="47.29629" lon="-2.35882">
        <ele>32.400001525879</ele>
        <time>2021-04-01T10:21:41.000Z</time>
      </trkpt>
      <trkpt lat="47.29627" lon="-2.35884">
        <ele>32.400001525879</ele>
        <time>2021-04-01T10:21:42.000Z</time>
      </trkpt>
      <trkpt lat="47.29625" lon="-2.35885">
        <ele>32.400001525879</ele>
        <time>2021-04-01T10:21:44.000Z</time>
      </trkpt>
      <trkpt lat="47.29623" lon="-2.35886">
        <ele>32.400001525879</ele>
        <time>2021-04-01T10:21:51.000Z</time>
      </trkpt>
      <trkpt lat="47.29618" lon="-2.35887">
        <ele>32.400001525879</ele>
        <time>2021-04-01T10:21:53.000Z</time>
      </trkpt>
      <trkpt lat="47.29602" lon="-2.35895">
        <ele>32.400001525879</ele>
        <time>2021-04-01T10:21:57.000Z</time>
      </trkpt>
      <trkpt lat="47.29568" lon="-2.35911">
        <ele>32.400001525879</ele>
        <time>2021-04-01T10:22:04.000Z</time>
      </trkpt>
      <trkpt lat="47.29563" lon="-2.35914">
        <ele>32.400001525879</ele>
        <time>2021-04-01T10:22:05.000Z</time>
      </trkpt>
      <trkpt lat="47.29538" lon="-2.35929">
        <ele>32.400001525879</ele>
        <time>2021-04-01T10:22:10.000Z</time>
      </trkpt>
      <trkpt lat="47.29532" lon="-2.35932">
        <ele>32.400001525879</ele>
        <time>2021-04-01T10:22:11.000Z</time>
      </trkpt>
      <trkpt lat="47.29516" lon="-2.35937">
        <ele>32.400001525879</ele>
        <time>2021-04-01T10:22:15.000Z</time>
      </trkpt>
      <trkpt lat="47.29513" lon="-2.35936">
        <ele>32.400001525879</ele>
        <time>2021-04-01T10:22:16.000Z</time>
      </trkpt>
      <trkpt lat="47.29507" lon="-2.35929">
        <ele>32.400001525879</ele>
        <time>2021-04-01T10:22:18.000Z</time>
      </trkpt>
      <trkpt lat="47.295" lon="-2.35905">
        <ele>32.400001525879</ele>
        <time>2021-04-01T10:22:23.000Z</time>
      </trkpt>
      <trkpt lat="47.29495" lon="-2.35897">
        <ele>32.400001525879</ele>
        <time>2021-04-01T10:22:25.000Z</time>
      </trkpt>
      <trkpt lat="47.29488" lon="-2.35897">
        <ele>32.400001525879</ele>
        <time>2021-04-01T10:22:27.000Z</time>
      </trkpt>
      <trkpt lat="47.29467" lon="-2.35896">
        <ele>32.400001525879</ele>
        <time>2021-04-01T10:22:33.000Z</time>
      </trkpt>
      <trkpt lat="47.29451" lon="-2.35908">
        <ele>32.400001525879</ele>
        <time>2021-04-01T10:22:38.000Z</time>
      </trkpt>
      <trkpt lat="47.29444" lon="-2.35912">
        <ele>32.400001525879</ele>
        <time>2021-04-01T10:22:40.000Z</time>
      </trkpt>
      <trkpt lat="47.29437" lon="-2.35908">
        <ele>32.400001525879</ele>
        <time>2021-04-01T10:22:42.000Z</time>
      </trkpt>
      <trkpt lat="47.29432" lon="-2.35899">
        <ele>32.400001525879</ele>
        <time>2021-04-01T10:22:44.000Z</time>
      </trkpt>
      <trkpt lat="47.29429" lon="-2.35894">
        <ele>32.400001525879</ele>
        <time>2021-04-01T10:22:45.000Z</time>
      </trkpt>
      <trkpt lat="47.29422" lon="-2.35886">
        <ele>32.400001525879</ele>
        <time>2021-04-01T10:22:47.000Z</time>
      </trkpt>
      <trkpt lat="47.29393" lon="-2.35851">
        <ele>32.400001525879</ele>
        <time>2021-04-01T10:22:55.000Z</time>
      </trkpt>
      <trkpt lat="47.29365" lon="-2.35824">
        <ele>32.400001525879</ele>
        <time>2021-04-01T10:23:02.000Z</time>
      </trkpt>
      <trkpt lat="47.2934" lon="-2.35805">
        <ele>32.400001525879</ele>
        <time>2021-04-01T10:23:07.000Z</time>
      </trkpt>
      <trkpt lat="47.29302" lon="-2.35769">
        <ele>32.400001525879</ele>
        <time>2021-04-01T10:23:15.000Z</time>
      </trkpt>
      <trkpt lat="47.29269" lon="-2.35738">
        <ele>32.400001525879</ele>
        <time>2021-04-01T10:23:22.000Z</time>
      </trkpt>
      <trkpt lat="47.29232" lon="-2.35704">
        <ele>32.400001525879</ele>
        <time>2021-04-01T10:23:29.000Z</time>
      </trkpt>
      <trkpt lat="47.292" lon="-2.35675">
        <ele>32.400001525879</ele>
        <time>2021-04-01T10:23:35.000Z</time>
      </trkpt>
      <trkpt lat="47.2918" lon="-2.35654">
        <ele>32.400001525879</ele>
        <time>2021-04-01T10:23:39.000Z</time>
      </trkpt>
      <trkpt lat="47.29175" lon="-2.35651">
        <ele>32.400001525879</ele>
        <time>2021-04-01T10:23:40.000Z</time>
      </trkpt>
      <trkpt lat="47.2915" lon="-2.35647">
        <ele>32.400001525879</ele>
        <time>2021-04-01T10:23:44.000Z</time>
      </trkpt>
      <trkpt lat="47.29132" lon="-2.35656">
        <ele>32.400001525879</ele>
        <time>2021-04-01T10:23:47.000Z</time>
      </trkpt>
      <trkpt lat="47.29113" lon="-2.35657">
        <ele>32.400001525879</ele>
        <time>2021-04-01T10:23:50.000Z</time>
      </trkpt>
      <trkpt lat="47.29107" lon="-2.35658">
        <ele>32.400001525879</ele>
        <time>2021-04-01T10:23:51.000Z</time>
      </trkpt>
      <trkpt lat="47.29083" lon="-2.35666">
        <ele>32.400001525879</ele>
        <time>2021-04-01T10:23:55.000Z</time>
      </trkpt>
      <trkpt lat="47.29077" lon="-2.35669">
        <ele>32.400001525879</ele>
        <time>2021-04-01T10:23:56.000Z</time>
      </trkpt>
      <trkpt lat="47.29055" lon="-2.35688">
        <ele>32.400001525879</ele>
        <time>2021-04-01T10:24:00.000Z</time>
      </trkpt>
      <trkpt lat="47.29013" lon="-2.35727">
        <ele>32.400001525879</ele>
        <time>2021-04-01T10:24:08.000Z</time>
      </trkpt>
      <trkpt lat="47.28974" lon="-2.35753">
        <ele>32.400001525879</ele>
        <time>2021-04-01T10:24:15.000Z</time>
      </trkpt>
      <trkpt lat="47.28934" lon="-2.35778">
        <ele>32.400001525879</ele>
        <time>2021-04-01T10:24:22.000Z</time>
      </trkpt>
      <trkpt lat="47.2889" lon="-2.35815">
        <ele>32.400001525879</ele>
        <time>2021-04-01T10:24:30.000Z</time>
      </trkpt>
      <trkpt lat="47.28885" lon="-2.35822">
        <ele>32.400001525879</ele>
        <time>2021-04-01T10:24:31.000Z</time>
      </trkpt>
      <trkpt lat="47.28863" lon="-2.35854">
        <ele>32.400001525879</ele>
        <time>2021-04-01T10:24:36.000Z</time>
      </trkpt>
      <trkpt lat="47.28819" lon="-2.3591">
        <ele>32.400001525879</ele>
        <time>2021-04-01T10:24:45.000Z</time>
      </trkpt>
      <trkpt lat="47.28785" lon="-2.35942">
        <ele>32.400001525879</ele>
        <time>2021-04-01T10:24:51.000Z</time>
      </trkpt>
      <trkpt lat="47.28767" lon="-2.35954">
        <ele>32.400001525879</ele>
        <time>2021-04-01T10:24:54.000Z</time>
      </trkpt>
      <trkpt lat="47.28754" lon="-2.35959">
        <ele>32.400001525879</ele>
        <time>2021-04-01T10:24:56.000Z</time>
      </trkpt>
      <trkpt lat="47.28747" lon="-2.3596">
        <ele>32.400001525879</ele>
        <time>2021-04-01T10:24:57.000Z</time>
      </trkpt>
      <trkpt lat="47.2872" lon="-2.3596">
        <ele>32.400001525879</ele>
        <time>2021-04-01T10:25:01.000Z</time>
      </trkpt>
      <trkpt lat="47.2868" lon="-2.3596">
        <ele>32.400001525879</ele>
        <time>2021-04-01T10:25:07.000Z</time>
      </trkpt>
      <trkpt lat="47.28631" lon="-2.35957">
        <ele>32.400001525879</ele>
        <time>2021-04-01T10:25:15.000Z</time>
      </trkpt>
      <trkpt lat="47.28619" lon="-2.35952">
        <ele>32.400001525879</ele>
        <time>2021-04-01T10:25:17.000Z</time>
      </trkpt>
      <trkpt lat="47.28601" lon="-2.3594">
        <ele>32.400001525879</ele>
        <time>2021-04-01T10:25:20.000Z</time>
      </trkpt>
      <trkpt lat="47.28577" lon="-2.35908">
        <ele>32.400001525879</ele>
        <time>2021-04-01T10:25:25.000Z</time>
      </trkpt>
      <trkpt lat="47.28557" lon="-2.35859">
        <ele>32.400001525879</ele>
        <time>2021-04-01T10:25:31.000Z</time>
      </trkpt>
      <trkpt lat="47.28547" lon="-2.35845">
        <ele>32.400001525879</ele>
        <time>2021-04-01T10:25:33.000Z</time>
      </trkpt>
      <trkpt lat="47.28535" lon="-2.35837">
        <ele>32.400001525879</ele>
        <time>2021-04-01T10:25:35.000Z</time>
      </trkpt>
      <trkpt lat="47.28495" lon="-2.35824">
        <ele>31.60000038147</ele>
        <time>2021-04-01T10:25:41.000Z</time>
      </trkpt>
      <trkpt lat="47.28488" lon="-2.35822">
        <ele>31.200000762939</ele>
        <time>2021-04-01T10:25:42.000Z</time>
      </trkpt>
      <trkpt lat="47.28481" lon="-2.3582">
        <ele>30.799999237061</ele>
        <time>2021-04-01T10:25:43.000Z</time>
      </trkpt>
      <trkpt lat="47.28475" lon="-2.35817">
        <ele>30.39999961853</ele>
        <time>2021-04-01T10:25:44.000Z</time>
      </trkpt>
      <trkpt lat="47.2845" lon="-2.35808">
        <ele>30.39999961853</ele>
        <time>2021-04-01T10:25:48.000Z</time>
      </trkpt>
      <trkpt lat="47.28417" lon="-2.35795">
        <ele>30.39999961853</ele>
        <time>2021-04-01T10:25:53.000Z</time>
      </trkpt>
      <trkpt lat="47.28381" lon="-2.3578">
        <ele>30.39999961853</ele>
        <time>2021-04-01T10:25:59.000Z</time>
      </trkpt>
      <trkpt lat="47.28336" lon="-2.35761">
        <ele>30.39999961853</ele>
        <time>2021-04-01T10:26:06.000Z</time>
      </trkpt>
      <trkpt lat="47.28307" lon="-2.35741">
        <ele>30.39999961853</ele>
        <time>2021-04-01T10:26:11.000Z</time>
      </trkpt>
      <trkpt lat="47.28301" lon="-2.35736">
        <ele>30</ele>
        <time>2021-04-01T10:26:12.000Z</time>
      </trkpt>
      <trkpt lat="47.28295" lon="-2.35731">
        <ele>29.60000038147</ele>
        <time>2021-04-01T10:26:13.000Z</time>
      </trkpt>
      <trkpt lat="47.28289" lon="-2.35727">
        <ele>29.200000762939</ele>
        <time>2021-04-01T10:26:14.000Z</time>
      </trkpt>
      <trkpt lat="47.28283" lon="-2.35722">
        <ele>28.799999237061</ele>
        <time>2021-04-01T10:26:15.000Z</time>
      </trkpt>
      <trkpt lat="47.28277" lon="-2.35716">
        <ele>28.200000762939</ele>
        <time>2021-04-01T10:26:16.000Z</time>
      </trkpt>
      <trkpt lat="47.28271" lon="-2.3571">
        <ele>28.200000762939</ele>
        <time>2021-04-01T10:26:17.000Z</time>
      </trkpt>
      <trkpt lat="47.2823" lon="-2.35659">
        <ele>28.200000762939</ele>
        <time>2021-04-01T10:26:24.000Z</time>
      </trkpt>
      <trkpt lat="47.28208" lon="-2.35628">
        <ele>27.799999237061</ele>
        <time>2021-04-01T10:26:28.000Z</time>
      </trkpt>
      <trkpt lat="47.28202" lon="-2.3562">
        <ele>27.39999961853</ele>
        <time>2021-04-01T10:26:29.000Z</time>
      </trkpt>
      <trkpt lat="47.28196" lon="-2.35613">
        <ele>26.39999961853</ele>
        <time>2021-04-01T10:26:30.000Z</time>
      </trkpt>
      <trkpt lat="47.28191" lon="-2.35605">
        <ele>25.799999237061</ele>
        <time>2021-04-01T10:26:31.000Z</time>
      </trkpt>
      <trkpt lat="47.28186" lon="-2.35597">
        <ele>25.799999237061</ele>
        <time>2021-04-01T10:26:32.000Z</time>
      </trkpt>
      <trkpt lat="47.28162" lon="-2.35573">
        <ele>25.799999237061</ele>
        <time>2021-04-01T10:26:36.000Z</time>
      </trkpt>
      <trkpt lat="47.28155" lon="-2.35568">
        <ele>25.39999961853</ele>
        <time>2021-04-01T10:26:37.000Z</time>
      </trkpt>
      <trkpt lat="47.28148" lon="-2.35565">
        <ele>25</ele>
        <time>2021-04-01T10:26:38.000Z</time>
      </trkpt>
      <trkpt lat="47.28142" lon="-2.35563">
        <ele>24.60000038147</ele>
        <time>2021-04-01T10:26:39.000Z</time>
      </trkpt>
      <trkpt lat="47.28135" lon="-2.35561">
        <ele>24.200000762939</ele>
        <time>2021-04-01T10:26:40.000Z</time>
      </trkpt>
      <trkpt lat="47.28127" lon="-2.3556">
        <ele>23.799999237061</ele>
        <time>2021-04-01T10:26:41.000Z</time>
      </trkpt>
      <trkpt lat="47.28074" lon="-2.35553">
        <ele>23.39999961853</ele>
        <time>2021-04-01T10:26:48.000Z</time>
      </trkpt>
      <trkpt lat="47.28066" lon="-2.35553">
        <ele>23</ele>
        <time>2021-04-01T10:26:49.000Z</time>
      </trkpt>
      <trkpt lat="47.28059" lon="-2.35552">
        <ele>22.60000038147</ele>
        <time>2021-04-01T10:26:50.000Z</time>
      </trkpt>
      <trkpt lat="47.28052" lon="-2.35552">
        <ele>22.200000762939</ele>
        <time>2021-04-01T10:26:51.000Z</time>
      </trkpt>
      <trkpt lat="47.28045" lon="-2.35552">
        <ele>21.799999237061</ele>
        <time>2021-04-01T10:26:52.000Z</time>
      </trkpt>
      <trkpt lat="47.28038" lon="-2.35553">
        <ele>21.799999237061</ele>
        <time>2021-04-01T10:26:53.000Z</time>
      </trkpt>
      <trkpt lat="47.28033" lon="-2.35555">
        <ele>21.799999237061</ele>
        <time>2021-04-01T10:26:54.000Z</time>
      </trkpt>
      <trkpt lat="47.2803" lon="-2.3556">
        <ele>21</ele>
        <time>2021-04-01T10:26:55.000Z</time>
      </trkpt>
      <trkpt lat="47.2803" lon="-2.35567">
        <ele>20.39999961853</ele>
        <time>2021-04-01T10:26:56.000Z</time>
      </trkpt>
      <trkpt lat="47.28032" lon="-2.35572">
        <ele>20</ele>
        <time>2021-04-01T10:26:57.000Z</time>
      </trkpt>
      <trkpt lat="47.28034" lon="-2.35574">
        <ele>19.60000038147</ele>
        <time>2021-04-01T10:26:58.000Z</time>
      </trkpt>
      <trkpt lat="47.28036" lon="-2.35576">
        <ele>19.60000038147</ele>
        <time>2021-04-01T10:26:59.000Z</time>
      </trkpt>
      <trkpt lat="47.28041" lon="-2.35577">
        <ele>19.60000038147</ele>
        <time>2021-04-01T10:27:01.000Z</time>
      </trkpt>
      <trkpt lat="47.2805" lon="-2.35579">
        <ele>19.60000038147</ele>
        <time>2021-04-01T10:27:04.000Z</time>
      </trkpt>
      <trkpt lat="47.28062" lon="-2.35585">
        <ele>19.60000038147</ele>
        <time>2021-04-01T10:27:10.000Z</time>
      </trkpt>
      <trkpt lat="47.28063" lon="-2.35585">
        <ele>19.60000038147</ele>
        <time>2021-04-01T10:27:12.000Z</time>
      </trkpt>
      <trkpt lat="47.28067" lon="-2.35589">
        <ele>19.60000038147</ele>
        <time>2021-04-01T10:45:49.000Z</time>
      </trkpt>
      <trkpt lat="47.28065" lon="-2.35588">
        <ele>19.60000038147</ele>
        <time>2021-04-01T10:45:50.000Z</time>
      </trkpt>
      <trkpt lat="47.28062" lon="-2.35587">
        <ele>20.39999961853</ele>
        <time>2021-04-01T10:45:51.000Z</time>
      </trkpt>
      <trkpt lat="47.28059" lon="-2.35586">
        <ele>20.799999237061</ele>
        <time>2021-04-01T10:45:52.000Z</time>
      </trkpt>
      <trkpt lat="47.28056" lon="-2.35584">
        <ele>21.200000762939</ele>
        <time>2021-04-01T10:45:53.000Z</time>
      </trkpt>
      <trkpt lat="47.28052" lon="-2.35582">
        <ele>21.60000038147</ele>
        <time>2021-04-01T10:45:54.000Z</time>
      </trkpt>
      <trkpt lat="47.28044" lon="-2.3558">
        <ele>21.60000038147</ele>
        <time>2021-04-01T10:45:56.000Z</time>
      </trkpt>
      <trkpt lat="47.28032" lon="-2.35576">
        <ele>21.60000038147</ele>
        <time>2021-04-01T10:45:59.000Z</time>
      </trkpt>
      <trkpt lat="47.28023" lon="-2.35569">
        <ele>21.60000038147</ele>
        <time>2021-04-01T10:46:01.000Z</time>
      </trkpt>
      <trkpt lat="47.28018" lon="-2.35568">
        <ele>21.60000038147</ele>
        <time>2021-04-01T10:46:02.000Z</time>
      </trkpt>
      <trkpt lat="47.28009" lon="-2.35569">
        <ele>21.60000038147</ele>
        <time>2021-04-01T10:46:04.000Z</time>
      </trkpt>
      <trkpt lat="47.27977" lon="-2.35582">
        <ele>21.60000038147</ele>
        <time>2021-04-01T10:46:11.000Z</time>
      </trkpt>
      <trkpt lat="47.27947" lon="-2.35591">
        <ele>21.200000762939</ele>
        <time>2021-04-01T10:46:17.000Z</time>
      </trkpt>
      <trkpt lat="47.27941" lon="-2.35592">
        <ele>20.799999237061</ele>
        <time>2021-04-01T10:46:18.000Z</time>
      </trkpt>
      <trkpt lat="47.27936" lon="-2.35593">
        <ele>20.39999961853</ele>
        <time>2021-04-01T10:46:19.000Z</time>
      </trkpt>
      <trkpt lat="47.27931" lon="-2.35594">
        <ele>20</ele>
        <time>2021-04-01T10:46:20.000Z</time>
      </trkpt>
      <trkpt lat="47.27924" lon="-2.35594">
        <ele>19.60000038147</ele>
        <time>2021-04-01T10:46:21.000Z</time>
      </trkpt>
      <trkpt lat="47.27912" lon="-2.35595">
        <ele>19.60000038147</ele>
        <time>2021-04-01T10:46:23.000Z</time>
      </trkpt>
      <trkpt lat="47.2786" lon="-2.35608">
        <ele>19.60000038147</ele>
        <time>2021-04-01T10:46:31.000Z</time>
      </trkpt>
      <trkpt lat="47.27839" lon="-2.35614">
        <ele>19.200000762939</ele>
        <time>2021-04-01T10:46:34.000Z</time>
      </trkpt>
      <trkpt lat="47.27832" lon="-2.35616">
        <ele>18.799999237061</ele>
        <time>2021-04-01T10:46:35.000Z</time>
      </trkpt>
      <trkpt lat="47.27825" lon="-2.35617">
        <ele>18.39999961853</ele>
        <time>2021-04-01T10:46:36.000Z</time>
      </trkpt>
      <trkpt lat="47.27818" lon="-2.3562">
        <ele>17.799999237061</ele>
        <time>2021-04-01T10:46:37.000Z</time>
      </trkpt>
      <trkpt lat="47.27811" lon="-2.35622">
        <ele>17.39999961853</ele>
        <time>2021-04-01T10:46:38.000Z</time>
      </trkpt>
      <trkpt lat="47.27803" lon="-2.35624">
        <ele>17.39999961853</ele>
        <time>2021-04-01T10:46:39.000Z</time>
      </trkpt>
      <trkpt lat="47.27782" lon="-2.35634">
        <ele>17</ele>
        <time>2021-04-01T10:46:42.000Z</time>
      </trkpt>
      <trkpt lat="47.27776" lon="-2.3564">
        <ele>16.60000038147</ele>
        <time>2021-04-01T10:46:43.000Z</time>
      </trkpt>
      <trkpt lat="47.27769" lon="-2.35646">
        <ele>16</ele>
        <time>2021-04-01T10:46:44.000Z</time>
      </trkpt>
      <trkpt lat="47.27763" lon="-2.35652">
        <ele>15.60000038147</ele>
        <time>2021-04-01T10:46:45.000Z</time>
      </trkpt>
      <trkpt lat="47.27758" lon="-2.3566">
        <ele>15.199999809265</ele>
        <time>2021-04-01T10:46:46.000Z</time>
      </trkpt>
      <trkpt lat="47.27742" lon="-2.35682">
        <ele>15.199999809265</ele>
        <time>2021-04-01T10:46:49.000Z</time>
      </trkpt>
      <trkpt lat="47.27711" lon="-2.35724">
        <ele>15.199999809265</ele>
        <time>2021-04-01T10:46:55.000Z</time>
      </trkpt>
      <trkpt lat="47.27685" lon="-2.35746">
        <ele>14.800000190735</ele>
        <time>2021-04-01T10:46:59.000Z</time>
      </trkpt>
      <trkpt lat="47.27679" lon="-2.35749">
        <ele>14.199999809265</ele>
        <time>2021-04-01T10:47:00.000Z</time>
      </trkpt>
      <trkpt lat="47.27674" lon="-2.35748">
        <ele>13.800000190735</ele>
        <time>2021-04-01T10:47:01.000Z</time>
      </trkpt>
      <trkpt lat="47.27668" lon="-2.35743">
        <ele>13.39999961853</ele>
        <time>2021-04-01T10:47:02.000Z</time>
      </trkpt>
      <trkpt lat="47.27665" lon="-2.35736">
        <ele>13</ele>
        <time>2021-04-01T10:47:03.000Z</time>
      </trkpt>
      <trkpt lat="47.2766" lon="-2.3573">
        <ele>13</ele>
        <time>2021-04-01T10:47:04.000Z</time>
      </trkpt>
      <trkpt lat="47.27655" lon="-2.35726">
        <ele>13</ele>
        <time>2021-04-01T10:47:05.000Z</time>
      </trkpt>
      <trkpt lat="47.27632" lon="-2.35714">
        <ele>13</ele>
        <time>2021-04-01T10:47:09.000Z</time>
      </trkpt>
      <trkpt lat="47.27611" lon="-2.35709">
        <ele>13</ele>
        <time>2021-04-01T10:47:12.000Z</time>
      </trkpt>
      <trkpt lat="47.27596" lon="-2.35706">
        <ele>13</ele>
        <time>2021-04-01T10:47:14.000Z</time>
      </trkpt>
      <trkpt lat="47.27575" lon="-2.35701">
        <ele>12.39999961853</ele>
        <time>2021-04-01T10:47:17.000Z</time>
      </trkpt>
      <trkpt lat="47.27568" lon="-2.35699">
        <ele>12</ele>
        <time>2021-04-01T10:47:18.000Z</time>
      </trkpt>
      <trkpt lat="47.27561" lon="-2.35698">
        <ele>11.60000038147</ele>
        <time>2021-04-01T10:47:19.000Z</time>
      </trkpt>
      <trkpt lat="47.27554" lon="-2.35696">
        <ele>11.199999809265</ele>
        <time>2021-04-01T10:47:20.000Z</time>
      </trkpt>
      <trkpt lat="47.27548" lon="-2.35694">
        <ele>10.800000190735</ele>
        <time>2021-04-01T10:47:21.000Z</time>
      </trkpt>
      <trkpt lat="47.27541" lon="-2.35692">
        <ele>10.800000190735</ele>
        <time>2021-04-01T10:47:22.000Z</time>
      </trkpt>
      <trkpt lat="47.27491" lon="-2.3568">
        <ele>10.39999961853</ele>
        <time>2021-04-01T10:47:29.000Z</time>
      </trkpt>
      <trkpt lat="47.27484" lon="-2.35678">
        <ele>10</ele>
        <time>2021-04-01T10:47:30.000Z</time>
      </trkpt>
      <trkpt lat="47.27477" lon="-2.35676">
        <ele>9.1999998092651</ele>
        <time>2021-04-01T10:47:31.000Z</time>
      </trkpt>
      <trkpt lat="47.2747" lon="-2.35674">
        <ele>8.6000003814697</ele>
        <time>2021-04-01T10:47:32.000Z</time>
      </trkpt>
      <trkpt lat="47.27434" lon="-2.35667">
        <ele>8.6000003814697</ele>
        <time>2021-04-01T10:47:37.000Z</time>
      </trkpt>
      <trkpt lat="47.27413" lon="-2.35665">
        <ele>8.6000003814697</ele>
        <time>2021-04-01T10:47:40.000Z</time>
      </trkpt>
      <trkpt lat="47.27399" lon="-2.35668">
        <ele>8.6000003814697</ele>
        <time>2021-04-01T10:47:42.000Z</time>
      </trkpt>
      <trkpt lat="47.27387" lon="-2.35676">
        <ele>8.1999998092651</ele>
        <time>2021-04-01T10:47:44.000Z</time>
      </trkpt>
      <trkpt lat="47.27381" lon="-2.3568">
        <ele>7.8000001907349</ele>
        <time>2021-04-01T10:47:45.000Z</time>
      </trkpt>
      <trkpt lat="47.27375" lon="-2.35684">
        <ele>7.4000000953674</ele>
        <time>2021-04-01T10:47:46.000Z</time>
      </trkpt>
      <trkpt lat="47.27369" lon="-2.35689">
        <ele>7</ele>
        <time>2021-04-01T10:47:47.000Z</time>
      </trkpt>
      <trkpt lat="47.27363" lon="-2.35693">
        <ele>6.5999999046326</ele>
        <time>2021-04-01T10:47:48.000Z</time>
      </trkpt>
      <trkpt lat="47.2733" lon="-2.35721">
        <ele>6.5999999046326</ele>
        <time>2021-04-01T10:47:54.000Z</time>
      </trkpt>
      <trkpt lat="47.27327" lon="-2.35727">
        <ele>6.5999999046326</ele>
        <time>2021-04-01T10:47:55.000Z</time>
      </trkpt>
      <trkpt lat="47.27316" lon="-2.35741">
        <ele>6.5999999046326</ele>
        <time>2021-04-01T10:47:58.000Z</time>
      </trkpt>
      <trkpt lat="47.27307" lon="-2.35735">
        <ele>6.5999999046326</ele>
        <time>2021-04-01T10:48:00.000Z</time>
      </trkpt>
      <trkpt lat="47.273" lon="-2.35714">
        <ele>6.5999999046326</ele>
        <time>2021-04-01T10:48:03.000Z</time>
      </trkpt>
      <trkpt lat="47.27295" lon="-2.357">
        <ele>6.5999999046326</ele>
        <time>2021-04-01T10:48:05.000Z</time>
      </trkpt>
      <trkpt lat="47.27281" lon="-2.35673">
        <ele>6.5999999046326</ele>
        <time>2021-04-01T10:48:09.000Z</time>
      </trkpt>
      <trkpt lat="47.2726" lon="-2.35624">
        <ele>6.5999999046326</ele>
        <time>2021-04-01T10:48:16.000Z</time>
      </trkpt>
      <trkpt lat="47.27254" lon="-2.3561">
        <ele>7</ele>
        <time>2021-04-01T10:48:18.000Z</time>
      </trkpt>
      <trkpt lat="47.27251" lon="-2.35603">
        <ele>7.4000000953674</ele>
        <time>2021-04-01T10:48:19.000Z</time>
      </trkpt>
      <trkpt lat="47.27248" lon="-2.35596">
        <ele>8.3999996185303</ele>
        <time>2021-04-01T10:48:20.000Z</time>
      </trkpt>
      <trkpt lat="47.27245" lon="-2.35589">
        <ele>8.8000001907349</ele>
        <time>2021-04-01T10:48:21.000Z</time>
      </trkpt>
      <trkpt lat="47.27238" lon="-2.35575">
        <ele>8.8000001907349</ele>
        <time>2021-04-01T10:48:23.000Z</time>
      </trkpt>
      <trkpt lat="47.27208" lon="-2.35508">
        <ele>8.8000001907349</ele>
        <time>2021-04-01T10:48:33.000Z</time>
      </trkpt>
      <trkpt lat="47.27184" lon="-2.3546">
        <ele>8.8000001907349</ele>
        <time>2021-04-01T10:48:40.000Z</time>
      </trkpt>
      <trkpt lat="47.27154" lon="-2.354">
        <ele>8.8000001907349</ele>
        <time>2021-04-01T10:48:49.000Z</time>
      </trkpt>
      <trkpt lat="47.27143" lon="-2.35381">
        <ele>8.8000001907349</ele>
        <time>2021-04-01T10:48:52.000Z</time>
      </trkpt>
      <trkpt lat="47.27132" lon="-2.35361">
        <ele>8.8000001907349</ele>
        <time>2021-04-01T10:48:55.000Z</time>
      </trkpt>
      <trkpt lat="47.27095" lon="-2.35302">
        <ele>8.8000001907349</ele>
        <time>2021-04-01T10:49:04.000Z</time>
      </trkpt>
      <trkpt lat="47.27092" lon="-2.35296">
        <ele>8.8000001907349</ele>
        <time>2021-04-01T10:49:05.000Z</time>
      </trkpt>
      <trkpt lat="47.27056" lon="-2.35238">
        <ele>8.8000001907349</ele>
        <time>2021-04-01T10:49:14.000Z</time>
      </trkpt>
      <trkpt lat="47.27023" lon="-2.35187">
        <ele>8.8000001907349</ele>
        <time>2021-04-01T10:49:22.000Z</time>
      </trkpt>
      <trkpt lat="47.2699" lon="-2.35137">
        <ele>8.8000001907349</ele>
        <time>2021-04-01T10:49:30.000Z</time>
      </trkpt>
      <trkpt lat="47.26952" lon="-2.3508">
        <ele>8.8000001907349</ele>
        <time>2021-04-01T10:49:39.000Z</time>
      </trkpt>
      <trkpt lat="47.26948" lon="-2.35074">
        <ele>8.8000001907349</ele>
        <time>2021-04-01T10:49:40.000Z</time>
      </trkpt>
      <trkpt lat="47.26907" lon="-2.35012">
        <ele>8.8000001907349</ele>
        <time>2021-04-01T10:49:50.000Z</time>
      </trkpt>
      <trkpt lat="47.26874" lon="-2.34961">
        <ele>8.8000001907349</ele>
        <time>2021-04-01T10:49:58.000Z</time>
      </trkpt>
      <trkpt lat="47.26832" lon="-2.34902">
        <ele>8.8000001907349</ele>
        <time>2021-04-01T10:50:08.000Z</time>
      </trkpt>
      <trkpt lat="47.26799" lon="-2.34853">
        <ele>8.8000001907349</ele>
        <time>2021-04-01T10:50:16.000Z</time>
      </trkpt>
      <trkpt lat="47.26766" lon="-2.34808">
        <ele>8.8000001907349</ele>
        <time>2021-04-01T10:50:24.000Z</time>
      </trkpt>
      <trkpt lat="47.26761" lon="-2.34804">
        <ele>8.8000001907349</ele>
        <time>2021-04-01T10:50:25.000Z</time>
      </trkpt>
      <trkpt lat="47.26758" lon="-2.34798">
        <ele>8.8000001907349</ele>
        <time>2021-04-01T10:50:26.000Z</time>
      </trkpt>
      <trkpt lat="47.26745" lon="-2.34782">
        <ele>8.8000001907349</ele>
        <time>2021-04-01T10:50:29.000Z</time>
      </trkpt>
      <trkpt lat="47.26702" lon="-2.34728">
        <ele>8.8000001907349</ele>
        <time>2021-04-01T10:50:39.000Z</time>
      </trkpt>
      <trkpt lat="47.26696" lon="-2.34721">
        <ele>8.8000001907349</ele>
        <time>2021-04-01T10:50:40.000Z</time>
      </trkpt>
      <trkpt lat="47.2666" lon="-2.34678">
        <ele>8.8000001907349</ele>
        <time>2021-04-01T10:50:48.000Z</time>
      </trkpt>
      <trkpt lat="47.2662" lon="-2.34626">
        <ele>8.8000001907349</ele>
        <time>2021-04-01T10:50:57.000Z</time>
      </trkpt>
      <trkpt lat="47.26579" lon="-2.34576">
        <ele>8.8000001907349</ele>
        <time>2021-04-01T10:51:06.000Z</time>
      </trkpt>
      <trkpt lat="47.26535" lon="-2.34531">
        <ele>8.8000001907349</ele>
        <time>2021-04-01T10:51:15.000Z</time>
      </trkpt>
      <trkpt lat="47.26498" lon="-2.34504">
        <ele>8.8000001907349</ele>
        <time>2021-04-01T10:51:22.000Z</time>
      </trkpt>
      <trkpt lat="47.26449" lon="-2.3447">
        <ele>8.8000001907349</ele>
        <time>2021-04-01T10:51:31.000Z</time>
      </trkpt>
      <trkpt lat="47.26443" lon="-2.34466">
        <ele>8.8000001907349</ele>
        <time>2021-04-01T10:51:32.000Z</time>
      </trkpt>
      <trkpt lat="47.26396" lon="-2.34431">
        <ele>8.8000001907349</ele>
        <time>2021-04-01T10:51:41.000Z</time>
      </trkpt>
      <trkpt lat="47.2636" lon="-2.34399">
        <ele>8.8000001907349</ele>
        <time>2021-04-01T10:51:48.000Z</time>
      </trkpt>
      <trkpt lat="47.26335" lon="-2.34378">
        <ele>8.8000001907349</ele>
        <time>2021-04-01T10:51:53.000Z</time>
      </trkpt>
      <trkpt lat="47.26329" lon="-2.34378">
        <ele>8.8000001907349</ele>
        <time>2021-04-01T10:51:54.000Z</time>
      </trkpt>
      <trkpt lat="47.26314" lon="-2.34366">
        <ele>8.8000001907349</ele>
        <time>2021-04-01T10:51:57.000Z</time>
      </trkpt>
      <trkpt lat="47.26311" lon="-2.3436">
        <ele>8.8000001907349</ele>
        <time>2021-04-01T10:51:58.000Z</time>
      </trkpt>
      <trkpt lat="47.26293" lon="-2.34338">
        <ele>8.8000001907349</ele>
        <time>2021-04-01T10:52:02.000Z</time>
      </trkpt>
      <trkpt lat="47.26255" lon="-2.34299">
        <ele>8.8000001907349</ele>
        <time>2021-04-01T10:52:10.000Z</time>
      </trkpt>
      <trkpt lat="47.26214" lon="-2.34255">
        <ele>8.8000001907349</ele>
        <time>2021-04-01T10:52:19.000Z</time>
      </trkpt>
      <trkpt lat="47.26168" lon="-2.34207">
        <ele>8.8000001907349</ele>
        <time>2021-04-01T10:52:29.000Z</time>
      </trkpt>
      <trkpt lat="47.26145" lon="-2.34185">
        <ele>8.8000001907349</ele>
        <time>2021-04-01T10:52:34.000Z</time>
      </trkpt>
      <trkpt lat="47.26134" lon="-2.3418">
        <ele>8.8000001907349</ele>
        <time>2021-04-01T10:52:36.000Z</time>
      </trkpt>
      <trkpt lat="47.26129" lon="-2.34177">
        <ele>8.8000001907349</ele>
        <time>2021-04-01T10:52:37.000Z</time>
      </trkpt>
      <trkpt lat="47.26115" lon="-2.34162">
        <ele>8.8000001907349</ele>
        <time>2021-04-01T10:52:40.000Z</time>
      </trkpt>
      <trkpt lat="47.26087" lon="-2.34147">
        <ele>8.8000001907349</ele>
        <time>2021-04-01T10:52:45.000Z</time>
      </trkpt>
      <trkpt lat="47.26042" lon="-2.34126">
        <ele>8.8000001907349</ele>
        <time>2021-04-01T10:52:53.000Z</time>
      </trkpt>
      <trkpt lat="47.26003" lon="-2.34107">
        <ele>8.3999996185303</ele>
        <time>2021-04-01T10:53:00.000Z</time>
      </trkpt>
      <trkpt lat="47.25997" lon="-2.34104">
        <ele>8</ele>
        <time>2021-04-01T10:53:01.000Z</time>
      </trkpt>
      <trkpt lat="47.25992" lon="-2.34102">
        <ele>7.5999999046326</ele>
        <time>2021-04-01T10:53:02.000Z</time>
      </trkpt>
      <trkpt lat="47.25986" lon="-2.34099">
        <ele>7.1999998092651</ele>
        <time>2021-04-01T10:53:03.000Z</time>
      </trkpt>
      <trkpt lat="47.25981" lon="-2.34096">
        <ele>6.8000001907349</ele>
        <time>2021-04-01T10:53:04.000Z</time>
      </trkpt>
      <trkpt lat="47.25949" lon="-2.34082">
        <ele>6.8000001907349</ele>
        <time>2021-04-01T10:53:10.000Z</time>
      </trkpt>
      <trkpt lat="47.25926" lon="-2.34073">
        <ele>6.8000001907349</ele>
        <time>2021-04-01T10:53:14.000Z</time>
      </trkpt>
      <trkpt lat="47.25915" lon="-2.34072">
        <ele>6.8000001907349</ele>
        <time>2021-04-01T10:53:16.000Z</time>
      </trkpt>
      <trkpt lat="47.25901" lon="-2.34061">
        <ele>6.8000001907349</ele>
        <time>2021-04-01T10:53:19.000Z</time>
      </trkpt>
      <trkpt lat="47.25897" lon="-2.34038">
        <ele>6.8000001907349</ele>
        <time>2021-04-01T10:53:22.000Z</time>
      </trkpt>
      <trkpt lat="47.25905" lon="-2.34015">
        <ele>6.8000001907349</ele>
        <time>2021-04-01T10:53:25.000Z</time>
      </trkpt>
      <trkpt lat="47.25907" lon="-2.34008">
        <ele>6.8000001907349</ele>
        <time>2021-04-01T10:53:26.000Z</time>
      </trkpt>
      <trkpt lat="47.25915" lon="-2.33976">
        <ele>6.8000001907349</ele>
        <time>2021-04-01T10:53:30.000Z</time>
      </trkpt>
      <trkpt lat="47.25918" lon="-2.33968">
        <ele>6.8000001907349</ele>
        <time>2021-04-01T10:53:31.000Z</time>
      </trkpt>
      <trkpt lat="47.2594" lon="-2.33927">
        <ele>6.8000001907349</ele>
        <time>2021-04-01T10:53:37.000Z</time>
      </trkpt>
      <trkpt lat="47.25943" lon="-2.3392">
        <ele>6.8000001907349</ele>
        <time>2021-04-01T10:53:38.000Z</time>
      </trkpt>
      <trkpt lat="47.25948" lon="-2.33903">
        <ele>6.8000001907349</ele>
        <time>2021-04-01T10:53:40.000Z</time>
      </trkpt>
      <trkpt lat="47.2595" lon="-2.33895">
        <ele>6.8000001907349</ele>
        <time>2021-04-01T10:53:41.000Z</time>
      </trkpt>
      <trkpt lat="47.25959" lon="-2.33872">
        <ele>6.8000001907349</ele>
        <time>2021-04-01T10:53:44.000Z</time>
      </trkpt>
      <trkpt lat="47.25976" lon="-2.33816">
        <ele>6.8000001907349</ele>
        <time>2021-04-01T10:53:51.000Z</time>
      </trkpt>
      <trkpt lat="47.25996" lon="-2.33754">
        <ele>6.8000001907349</ele>
        <time>2021-04-01T10:53:59.000Z</time>
      </trkpt>
      <trkpt lat="47.26022" lon="-2.33695">
        <ele>6.8000001907349</ele>
        <time>2021-04-01T10:54:07.000Z</time>
      </trkpt>
      <trkpt lat="47.26027" lon="-2.33673">
        <ele>6.8000001907349</ele>
        <time>2021-04-01T10:54:10.000Z</time>
      </trkpt>
      <trkpt lat="47.2603" lon="-2.33669">
        <ele>6.4000000953674</ele>
        <time>2021-04-01T10:54:11.000Z</time>
      </trkpt>
      <trkpt lat="47.26034" lon="-2.33666">
        <ele>6</ele>
        <time>2021-04-01T10:54:12.000Z</time>
      </trkpt>
      <trkpt lat="47.26039" lon="-2.33665">
        <ele>5.5999999046326</ele>
        <time>2021-04-01T10:54:13.000Z</time>
      </trkpt>
      <trkpt lat="47.26043" lon="-2.33665">
        <ele>5.1999998092651</ele>
        <time>2021-04-01T10:54:14.000Z</time>
      </trkpt>
      <trkpt lat="47.26047" lon="-2.33663">
        <ele>4.8000001907349</ele>
        <time>2021-04-01T10:54:15.000Z</time>
      </trkpt>
      <trkpt lat="47.26052" lon="-2.33652">
        <ele>4.8000001907349</ele>
        <time>2021-04-01T10:54:17.000Z</time>
      </trkpt>
      <trkpt lat="47.26056" lon="-2.33638">
        <ele>4.8000001907349</ele>
        <time>2021-04-01T10:54:19.000Z</time>
      </trkpt>
      <trkpt lat="47.26064" lon="-2.33601">
        <ele>4.8000001907349</ele>
        <time>2021-04-01T10:54:24.000Z</time>
      </trkpt>
      <trkpt lat="47.26077" lon="-2.33541">
        <ele>4.8000001907349</ele>
        <time>2021-04-01T10:54:32.000Z</time>
      </trkpt>
      <trkpt lat="47.26086" lon="-2.33483">
        <ele>4.8000001907349</ele>
        <time>2021-04-01T10:54:40.000Z</time>
      </trkpt>
      <trkpt lat="47.26078" lon="-2.33461">
        <ele>4.8000001907349</ele>
        <time>2021-04-01T10:54:44.000Z</time>
      </trkpt>
      <trkpt lat="47.26067" lon="-2.33433">
        <ele>4.8000001907349</ele>
        <time>2021-04-01T10:54:48.000Z</time>
      </trkpt>
      <trkpt lat="47.26072" lon="-2.33409">
        <ele>4.8000001907349</ele>
        <time>2021-04-01T10:54:51.000Z</time>
      </trkpt>
      <trkpt lat="47.26082" lon="-2.33395">
        <ele>4.8000001907349</ele>
        <time>2021-04-01T10:54:54.000Z</time>
      </trkpt>
      <trkpt lat="47.26097" lon="-2.33395">
        <ele>4.8000001907349</ele>
        <time>2021-04-01T10:54:57.000Z</time>
      </trkpt>
      <trkpt lat="47.2611" lon="-2.33408">
        <ele>4.8000001907349</ele>
        <time>2021-04-01T10:55:00.000Z</time>
      </trkpt>
      <trkpt lat="47.26122" lon="-2.3343">
        <ele>4.8000001907349</ele>
        <time>2021-04-01T10:55:04.000Z</time>
      </trkpt>
      <trkpt lat="47.26132" lon="-2.33433">
        <ele>4.8000001907349</ele>
        <time>2021-04-01T10:55:07.000Z</time>
      </trkpt>
      <trkpt lat="47.26133" lon="-2.33424">
        <ele>4.8000001907349</ele>
        <time>2021-04-01T10:55:10.000Z</time>
      </trkpt>
      <trkpt lat="47.26127" lon="-2.33415">
        <ele>4.8000001907349</ele>
        <time>2021-04-01T10:55:13.000Z</time>
      </trkpt>
      <trkpt lat="47.26119" lon="-2.33408">
        <ele>4.8000001907349</ele>
        <time>2021-04-01T10:55:15.000Z</time>
      </trkpt>
      <trkpt lat="47.26101" lon="-2.33383">
        <ele>4.8000001907349</ele>
        <time>2021-04-01T10:55:20.000Z</time>
      </trkpt>
      <trkpt lat="47.26084" lon="-2.3337">
        <ele>4.8000001907349</ele>
        <time>2021-04-01T10:55:24.000Z</time>
      </trkpt>
      <trkpt lat="47.26076" lon="-2.3335">
        <ele>4.8000001907349</ele>
        <time>2021-04-01T10:55:27.000Z</time>
      </trkpt>
      <trkpt lat="47.26053" lon="-2.33278">
        <ele>4.8000001907349</ele>
        <time>2021-04-01T10:55:37.000Z</time>
      </trkpt>
      <trkpt lat="47.2605" lon="-2.33271">
        <ele>4.8000001907349</ele>
        <time>2021-04-01T10:55:38.000Z</time>
      </trkpt>
      <trkpt lat="47.26024" lon="-2.33197">
        <ele>4.8000001907349</ele>
        <time>2021-04-01T10:55:48.000Z</time>
      </trkpt>
      <trkpt lat="47.25999" lon="-2.33128">
        <ele>4.8000001907349</ele>
        <time>2021-04-01T10:55:58.000Z</time>
      </trkpt>
      <trkpt lat="47.25986" lon="-2.33082">
        <ele>4.8000001907349</ele>
        <time>2021-04-01T10:56:04.000Z</time>
      </trkpt>
      <trkpt lat="47.25971" lon="-2.33041">
        <ele>4.8000001907349</ele>
        <time>2021-04-01T10:56:10.000Z</time>
      </trkpt>
      <trkpt lat="47.25957" lon="-2.3299">
        <ele>4.8000001907349</ele>
        <time>2021-04-01T10:56:17.000Z</time>
      </trkpt>
      <trkpt lat="47.25943" lon="-2.32952">
        <ele>4.8000001907349</ele>
        <time>2021-04-01T10:56:23.000Z</time>
      </trkpt>
      <trkpt lat="47.25923" lon="-2.32904">
        <ele>4.8000001907349</ele>
        <time>2021-04-01T10:56:30.000Z</time>
      </trkpt>
      <trkpt lat="47.25904" lon="-2.32856">
        <ele>4.8000001907349</ele>
        <time>2021-04-01T10:56:37.000Z</time>
      </trkpt>
      <trkpt lat="47.25884" lon="-2.32801">
        <ele>4.8000001907349</ele>
        <time>2021-04-01T10:56:45.000Z</time>
      </trkpt>
      <trkpt lat="47.25866" lon="-2.32744">
        <ele>4.8000001907349</ele>
        <time>2021-04-01T10:56:53.000Z</time>
      </trkpt>
      <trkpt lat="47.25864" lon="-2.32737">
        <ele>4.8000001907349</ele>
        <time>2021-04-01T10:56:54.000Z</time>
      </trkpt>
      <trkpt lat="47.2586" lon="-2.32715">
        <ele>4.8000001907349</ele>
        <time>2021-04-01T10:56:57.000Z</time>
      </trkpt>
      <trkpt lat="47.25854" lon="-2.32703">
        <ele>4.8000001907349</ele>
        <time>2021-04-01T10:56:59.000Z</time>
      </trkpt>
      <trkpt lat="47.25851" lon="-2.32697">
        <ele>4.8000001907349</ele>
        <time>2021-04-01T10:57:00.000Z</time>
      </trkpt>
      <trkpt lat="47.25841" lon="-2.32662">
        <ele>4.8000001907349</ele>
        <time>2021-04-01T10:57:05.000Z</time>
      </trkpt>
      <trkpt lat="47.25835" lon="-2.32632">
        <ele>4.8000001907349</ele>
        <time>2021-04-01T10:57:09.000Z</time>
      </trkpt>
      <trkpt lat="47.25831" lon="-2.3261">
        <ele>4.8000001907349</ele>
        <time>2021-04-01T10:57:12.000Z</time>
      </trkpt>
      <trkpt lat="47.25829" lon="-2.32595">
        <ele>4.8000001907349</ele>
        <time>2021-04-01T10:57:14.000Z</time>
      </trkpt>
      <trkpt lat="47.25827" lon="-2.3258">
        <ele>4.8000001907349</ele>
        <time>2021-04-01T10:57:16.000Z</time>
      </trkpt>
      <trkpt lat="47.25823" lon="-2.32565">
        <ele>4.8000001907349</ele>
        <time>2021-04-01T10:57:18.000Z</time>
      </trkpt>
      <trkpt lat="47.25811" lon="-2.32506">
        <ele>4.8000001907349</ele>
        <time>2021-04-01T10:57:26.000Z</time>
      </trkpt>
      <trkpt lat="47.25816" lon="-2.32487">
        <ele>4.8000001907349</ele>
        <time>2021-04-01T10:57:29.000Z</time>
      </trkpt>
      <trkpt lat="47.25829" lon="-2.32481">
        <ele>4.8000001907349</ele>
        <time>2021-04-01T10:57:32.000Z</time>
      </trkpt>
      <trkpt lat="47.25834" lon="-2.32481">
        <ele>4.8000001907349</ele>
        <time>2021-04-01T10:57:33.000Z</time>
      </trkpt>
      <trkpt lat="47.25864" lon="-2.32485">
        <ele>4.8000001907349</ele>
        <time>2021-04-01T10:57:39.000Z</time>
      </trkpt>
      <trkpt lat="47.25879" lon="-2.32486">
        <ele>4.8000001907349</ele>
        <time>2021-04-01T10:57:42.000Z</time>
      </trkpt>
      <trkpt lat="47.25884" lon="-2.32485">
        <ele>4.8000001907349</ele>
        <time>2021-04-01T10:57:43.000Z</time>
      </trkpt>
      <trkpt lat="47.25893" lon="-2.3247">
        <ele>4.8000001907349</ele>
        <time>2021-04-01T10:57:46.000Z</time>
      </trkpt>
      <trkpt lat="47.25896" lon="-2.32465">
        <ele>4.8000001907349</ele>
        <time>2021-04-01T10:57:47.000Z</time>
      </trkpt>
      <trkpt lat="47.25906" lon="-2.32451">
        <ele>4.8000001907349</ele>
        <time>2021-04-01T10:57:50.000Z</time>
      </trkpt>
      <trkpt lat="47.2593" lon="-2.32421">
        <ele>4.8000001907349</ele>
        <time>2021-04-01T10:57:56.000Z</time>
      </trkpt>
      <trkpt lat="47.25964" lon="-2.32376">
        <ele>4.8000001907349</ele>
        <time>2021-04-01T10:58:05.000Z</time>
      </trkpt>
      <trkpt lat="47.25995" lon="-2.32338">
        <ele>4.8000001907349</ele>
        <time>2021-04-01T10:58:13.000Z</time>
      </trkpt>
      <trkpt lat="47.26003" lon="-2.32327">
        <ele>4.8000001907349</ele>
        <time>2021-04-01T10:58:15.000Z</time>
      </trkpt>
      <trkpt lat="47.26018" lon="-2.32306">
        <ele>4.8000001907349</ele>
        <time>2021-04-01T10:58:19.000Z</time>
      </trkpt>
      <trkpt lat="47.26041" lon="-2.32277">
        <ele>4.8000001907349</ele>
        <time>2021-04-01T10:58:25.000Z</time>
      </trkpt>
      <trkpt lat="47.26061" lon="-2.32253">
        <ele>4.8000001907349</ele>
        <time>2021-04-01T10:58:30.000Z</time>
      </trkpt>
      <trkpt lat="47.26088" lon="-2.32219">
        <ele>4.8000001907349</ele>
        <time>2021-04-01T10:58:37.000Z</time>
      </trkpt>
      <trkpt lat="47.26092" lon="-2.32214">
        <ele>4.8000001907349</ele>
        <time>2021-04-01T10:58:38.000Z</time>
      </trkpt>
      <trkpt lat="47.26099" lon="-2.32201">
        <ele>4.8000001907349</ele>
        <time>2021-04-01T10:58:40.000Z</time>
      </trkpt>
      <trkpt lat="47.26105" lon="-2.32187">
        <ele>4.8000001907349</ele>
        <time>2021-04-01T10:58:42.000Z</time>
      </trkpt>
      <trkpt lat="47.2612" lon="-2.32152">
        <ele>4.8000001907349</ele>
        <time>2021-04-01T10:58:47.000Z</time>
      </trkpt>
      <trkpt lat="47.26125" lon="-2.32138">
        <ele>4.8000001907349</ele>
        <time>2021-04-01T10:58:49.000Z</time>
      </trkpt>
      <trkpt lat="47.26139" lon="-2.32089">
        <ele>4.8000001907349</ele>
        <time>2021-04-01T10:58:56.000Z</time>
      </trkpt>
      <trkpt lat="47.26155" lon="-2.32043">
        <ele>4.8000001907349</ele>
        <time>2021-04-01T10:59:03.000Z</time>
      </trkpt>
      <trkpt lat="47.26169" lon="-2.32021">
        <ele>4.8000001907349</ele>
        <time>2021-04-01T10:59:08.000Z</time>
      </trkpt>
      <trkpt lat="47.26187" lon="-2.32022">
        <ele>4.8000001907349</ele>
        <time>2021-04-01T10:59:13.000Z</time>
      </trkpt>
      <trkpt lat="47.26196" lon="-2.3202">
        <ele>4.8000001907349</ele>
        <time>2021-04-01T10:59:17.000Z</time>
      </trkpt>
      <trkpt lat="47.26197" lon="-2.32017">
        <ele>4.8000001907349</ele>
        <time>2021-04-01T10:59:18.000Z</time>
      </trkpt>
      <trkpt lat="47.26203" lon="-2.32003">
        <ele>4.8000001907349</ele>
        <time>2021-04-01T10:59:22.000Z</time>
      </trkpt>
      <trkpt lat="47.26206" lon="-2.32002">
        <ele>4.8000001907349</ele>
        <time>2021-04-01T10:59:23.000Z</time>
      </trkpt>
      <trkpt lat="47.26219" lon="-2.31987">
        <ele>4.8000001907349</ele>
        <time>2021-04-01T10:59:28.000Z</time>
      </trkpt>
      <trkpt lat="47.26231" lon="-2.3198">
        <ele>4.8000001907349</ele>
        <time>2021-04-01T10:59:32.000Z</time>
      </trkpt>
      <trkpt lat="47.26234" lon="-2.31977">
        <ele>4.8000001907349</ele>
        <time>2021-04-01T10:59:33.000Z</time>
      </trkpt>
      <trkpt lat="47.26239" lon="-2.31968">
        <ele>4.8000001907349</ele>
        <time>2021-04-01T10:59:35.000Z</time>
      </trkpt>
      <trkpt lat="47.26253" lon="-2.31938">
        <ele>4.8000001907349</ele>
        <time>2021-04-01T10:59:41.000Z</time>
      </trkpt>
      <trkpt lat="47.26266" lon="-2.31917">
        <ele>4.8000001907349</ele>
        <time>2021-04-01T10:59:46.000Z</time>
      </trkpt>
      <trkpt lat="47.26288" lon="-2.31896">
        <ele>4.8000001907349</ele>
        <time>2021-04-01T10:59:51.000Z</time>
      </trkpt>
      <trkpt lat="47.26297" lon="-2.31884">
        <ele>4.8000001907349</ele>
        <time>2021-04-01T10:59:54.000Z</time>
      </trkpt>
      <trkpt lat="47.26298" lon="-2.31878">
        <ele>4.8000001907349</ele>
        <time>2021-04-01T10:59:55.000Z</time>
      </trkpt>
      <trkpt lat="47.263" lon="-2.31846">
        <ele>4.8000001907349</ele>
        <time>2021-04-01T11:00:00.000Z</time>
      </trkpt>
      <trkpt lat="47.26301" lon="-2.31834">
        <ele>4.8000001907349</ele>
        <time>2021-04-01T11:00:02.000Z</time>
      </trkpt>
      <trkpt lat="47.26304" lon="-2.31787">
        <ele>4.8000001907349</ele>
        <time>2021-04-01T11:00:09.000Z</time>
      </trkpt>
      <trkpt lat="47.26301" lon="-2.31744">
        <ele>4.8000001907349</ele>
        <time>2021-04-01T11:00:15.000Z</time>
      </trkpt>
      <trkpt lat="47.26299" lon="-2.31725">
        <ele>4.8000001907349</ele>
        <time>2021-04-01T11:00:18.000Z</time>
      </trkpt>
      <trkpt lat="47.26303" lon="-2.31715">
        <ele>4.8000001907349</ele>
        <time>2021-04-01T11:00:20.000Z</time>
      </trkpt>
      <trkpt lat="47.26311" lon="-2.31711">
        <ele>4.8000001907349</ele>
        <time>2021-04-01T11:00:22.000Z</time>
      </trkpt>
      <trkpt lat="47.26315" lon="-2.31709">
        <ele>4.8000001907349</ele>
        <time>2021-04-01T11:00:23.000Z</time>
      </trkpt>
      <trkpt lat="47.26329" lon="-2.31699">
        <ele>4.8000001907349</ele>
        <time>2021-04-01T11:00:27.000Z</time>
      </trkpt>
      <trkpt lat="47.26331" lon="-2.31694">
        <ele>4.8000001907349</ele>
        <time>2021-04-01T11:00:28.000Z</time>
      </trkpt>
      <trkpt lat="47.26342" lon="-2.31687">
        <ele>5.1999998092651</ele>
        <time>2021-04-01T11:00:31.000Z</time>
      </trkpt>
      <trkpt lat="47.26345" lon="-2.31685">
        <ele>5.5999999046326</ele>
        <time>2021-04-01T11:00:32.000Z</time>
      </trkpt>
      <trkpt lat="47.26349" lon="-2.31683">
        <ele>6</ele>
        <time>2021-04-01T11:00:33.000Z</time>
      </trkpt>
      <trkpt lat="47.26353" lon="-2.31681">
        <ele>6.4000000953674</ele>
        <time>2021-04-01T11:00:34.000Z</time>
      </trkpt>
      <trkpt lat="47.26356" lon="-2.31679">
        <ele>6.8000001907349</ele>
        <time>2021-04-01T11:00:35.000Z</time>
      </trkpt>
      <trkpt lat="47.26366" lon="-2.31674">
        <ele>6.8000001907349</ele>
        <time>2021-04-01T11:00:38.000Z</time>
      </trkpt>
      <trkpt lat="47.26386" lon="-2.31665">
        <ele>7.1999998092651</ele>
        <time>2021-04-01T11:00:43.000Z</time>
      </trkpt>
      <trkpt lat="47.26389" lon="-2.31663">
        <ele>7.5999999046326</ele>
        <time>2021-04-01T11:00:44.000Z</time>
      </trkpt>
      <trkpt lat="47.26393" lon="-2.31662">
        <ele>8</ele>
        <time>2021-04-01T11:00:45.000Z</time>
      </trkpt>
      <trkpt lat="47.26397" lon="-2.3166">
        <ele>8.6000003814697</ele>
        <time>2021-04-01T11:00:46.000Z</time>
      </trkpt>
      <trkpt lat="47.264" lon="-2.31658">
        <ele>9</ele>
        <time>2021-04-01T11:00:47.000Z</time>
      </trkpt>
      <trkpt lat="47.26408" lon="-2.31654">
        <ele>9</ele>
        <time>2021-04-01T11:00:49.000Z</time>
      </trkpt>
      <trkpt lat="47.2641" lon="-2.31649">
        <ele>9</ele>
        <time>2021-04-01T11:00:50.000Z</time>
      </trkpt>
      <trkpt lat="47.26411" lon="-2.31639">
        <ele>9</ele>
        <time>2021-04-01T11:00:52.000Z</time>
      </trkpt>
      <trkpt lat="47.2641" lon="-2.31597">
        <ele>9</ele>
        <time>2021-04-01T11:00:59.000Z</time>
      </trkpt>
      <trkpt lat="47.26409" lon="-2.31566">
        <ele>9</ele>
        <time>2021-04-01T11:01:05.000Z</time>
      </trkpt>
      <trkpt lat="47.2641" lon="-2.31554">
        <ele>9</ele>
        <time>2021-04-01T11:01:08.000Z</time>
      </trkpt>
      <trkpt lat="47.26414" lon="-2.3155">
        <ele>9</ele>
        <time>2021-04-01T11:01:10.000Z</time>
      </trkpt>
      <trkpt lat="47.26417" lon="-2.3155">
        <ele>9</ele>
        <time>2021-04-01T11:01:14.000Z</time>
      </trkpt>
    </trkseg>
  </trk>
</gpx>